<?xml version="1.0" encoding="UTF-8" standalone="no" ?>
<gpx xmlns="http://www.topografix.com/GPX/1/1" xmlns:xsi="http://www.w3.org/2001/XMLSchema-instance" xsi:schemaLocation="http://www.topografix.com/GPX/1/1 http://www.topografix.com/GPX/1/1/gpx.xsd" version="1.1" creator="VisuGPX - https://www.visugpx.com">
  <metadata>
    <name>Pontevedra world cross tri</name>
  </metadata>
  <trk>
    <name><![CDATA[Bici]]></name>
    <trkseg>
      <trkpt lat="42.43556" lon="-8.63312">
        <ele>2.8</ele>
        <time>2019-04-17T08:00:12Z</time>
      </trkpt>
      <trkpt lat="42.43577" lon="-8.63287">
        <ele>2.5</ele>
        <time>2019-04-17T08:00:12Z</time>
      </trkpt>
      <trkpt lat="42.43598" lon="-8.63273">
        <ele>3</ele>
        <time>2019-04-17T08:00:12Z</time>
      </trkpt>
      <trkpt lat="42.43632" lon="-8.63254">
        <ele>3</ele>
        <time>2019-04-17T08:00:12Z</time>
      </trkpt>
      <trkpt lat="42.43683" lon="-8.63227">
        <ele>3.8</ele>
        <time>2019-04-17T08:00:12Z</time>
      </trkpt>
      <trkpt lat="42.4369" lon="-8.63237">
        <ele>3.5</ele>
        <time>2019-04-17T08:00:12Z</time>
      </trkpt>
      <trkpt lat="42.43694" lon="-8.63248">
        <ele>3.1</ele>
        <time>2019-04-17T08:00:12Z</time>
      </trkpt>
      <trkpt lat="42.43716" lon="-8.63249">
        <ele>2.3</ele>
        <time>2019-04-17T08:00:12Z</time>
      </trkpt>
      <trkpt lat="42.43745" lon="-8.63328">
        <ele>2.5</ele>
        <time>2019-04-17T08:00:12Z</time>
      </trkpt>
      <trkpt lat="42.43747" lon="-8.63333">
        <ele>2.7</ele>
        <time>2019-04-17T08:00:12Z</time>
      </trkpt>
      <trkpt lat="42.43749" lon="-8.63337">
        <ele>3.1</ele>
        <time>2019-04-17T08:00:12Z</time>
      </trkpt>
      <trkpt lat="42.43752" lon="-8.63339">
        <ele>3.2</ele>
        <time>2019-04-17T08:00:12Z</time>
      </trkpt>
      <trkpt lat="42.43756" lon="-8.6334">
        <ele>3.2</ele>
        <time>2019-04-17T08:00:12Z</time>
      </trkpt>
      <trkpt lat="42.43761" lon="-8.63341">
        <ele>3.2</ele>
        <time>2019-04-17T08:00:12Z</time>
      </trkpt>
      <trkpt lat="42.43765" lon="-8.63341">
        <ele>3.1</ele>
        <time>2019-04-17T08:00:12Z</time>
      </trkpt>
      <trkpt lat="42.4377" lon="-8.6334">
        <ele>3.1</ele>
        <time>2019-04-17T08:00:12Z</time>
      </trkpt>
      <trkpt lat="42.43776" lon="-8.6334">
        <ele>3</ele>
        <time>2019-04-17T08:00:12Z</time>
      </trkpt>
      <trkpt lat="42.43781" lon="-8.6334">
        <ele>2.9</ele>
        <time>2019-04-17T08:00:12Z</time>
      </trkpt>
      <trkpt lat="42.43787" lon="-8.6334">
        <ele>2.7</ele>
        <time>2019-04-17T08:00:12Z</time>
      </trkpt>
      <trkpt lat="42.43792" lon="-8.63341">
        <ele>2.5</ele>
        <time>2019-04-17T08:00:12Z</time>
      </trkpt>
      <trkpt lat="42.43798" lon="-8.63342">
        <ele>2.3</ele>
        <time>2019-04-17T08:00:12Z</time>
      </trkpt>
      <trkpt lat="42.43803" lon="-8.63342">
        <ele>2.1</ele>
        <time>2019-04-17T08:00:12Z</time>
      </trkpt>
      <trkpt lat="42.43808" lon="-8.63343">
        <ele>2</ele>
        <time>2019-04-17T08:00:12Z</time>
      </trkpt>
      <trkpt lat="42.43813" lon="-8.63343">
        <ele>2</ele>
        <time>2019-04-17T08:00:12Z</time>
      </trkpt>
      <trkpt lat="42.43818" lon="-8.63344">
        <ele>2</ele>
        <time>2019-04-17T08:00:12Z</time>
      </trkpt>
      <trkpt lat="42.43823" lon="-8.63344">
        <ele>2</ele>
        <time>2019-04-17T08:00:12Z</time>
      </trkpt>
      <trkpt lat="42.43828" lon="-8.63344">
        <ele>2</ele>
        <time>2019-04-17T08:00:12Z</time>
      </trkpt>
      <trkpt lat="42.43832" lon="-8.63345">
        <ele>2</ele>
        <time>2019-04-17T08:00:12Z</time>
      </trkpt>
      <trkpt lat="42.43837" lon="-8.63345">
        <ele>2.1</ele>
        <time>2019-04-17T08:00:12Z</time>
      </trkpt>
      <trkpt lat="42.43842" lon="-8.63346">
        <ele>2.1</ele>
        <time>2019-04-17T08:00:12Z</time>
      </trkpt>
      <trkpt lat="42.43847" lon="-8.63347">
        <ele>2.2</ele>
        <time>2019-04-17T08:00:12Z</time>
      </trkpt>
      <trkpt lat="42.43851" lon="-8.63347">
        <ele>2.3</ele>
        <time>2019-04-17T08:00:12Z</time>
      </trkpt>
      <trkpt lat="42.43856" lon="-8.63347">
        <ele>2.4</ele>
        <time>2019-04-17T08:00:12Z</time>
      </trkpt>
      <trkpt lat="42.4386" lon="-8.63348">
        <ele>2.5</ele>
        <time>2019-04-17T08:00:12Z</time>
      </trkpt>
      <trkpt lat="42.43865" lon="-8.63348">
        <ele>2.5</ele>
        <time>2019-04-17T08:00:12Z</time>
      </trkpt>
      <trkpt lat="42.43869" lon="-8.63348">
        <ele>2.5</ele>
        <time>2019-04-17T08:00:12Z</time>
      </trkpt>
      <trkpt lat="42.43874" lon="-8.63349">
        <ele>2.5</ele>
        <time>2019-04-17T08:00:12Z</time>
      </trkpt>
      <trkpt lat="42.43879" lon="-8.63349">
        <ele>2.6</ele>
        <time>2019-04-17T08:00:12Z</time>
      </trkpt>
      <trkpt lat="42.43883" lon="-8.63349">
        <ele>2.6</ele>
        <time>2019-04-17T08:00:12Z</time>
      </trkpt>
      <trkpt lat="42.43888" lon="-8.6335">
        <ele>2.6</ele>
        <time>2019-04-17T08:00:12Z</time>
      </trkpt>
      <trkpt lat="42.43892" lon="-8.6335">
        <ele>2.6</ele>
        <time>2019-04-17T08:00:12Z</time>
      </trkpt>
      <trkpt lat="42.43897" lon="-8.63351">
        <ele>2.6</ele>
        <time>2019-04-17T08:00:12Z</time>
      </trkpt>
      <trkpt lat="42.43902" lon="-8.63351">
        <ele>2.6</ele>
        <time>2019-04-17T08:00:12Z</time>
      </trkpt>
      <trkpt lat="42.43906" lon="-8.63351">
        <ele>2.6</ele>
        <time>2019-04-17T08:00:12Z</time>
      </trkpt>
      <trkpt lat="42.43911" lon="-8.63352">
        <ele>2.7</ele>
        <time>2019-04-17T08:00:12Z</time>
      </trkpt>
      <trkpt lat="42.43916" lon="-8.63352">
        <ele>2.7</ele>
        <time>2019-04-17T08:00:12Z</time>
      </trkpt>
      <trkpt lat="42.43921" lon="-8.63353">
        <ele>2.7</ele>
        <time>2019-04-17T08:00:12Z</time>
      </trkpt>
      <trkpt lat="42.43925" lon="-8.63353">
        <ele>2.7</ele>
        <time>2019-04-17T08:00:12Z</time>
      </trkpt>
      <trkpt lat="42.4393" lon="-8.63354">
        <ele>2.7</ele>
        <time>2019-04-17T08:00:12Z</time>
      </trkpt>
      <trkpt lat="42.43935" lon="-8.63354">
        <ele>2.8</ele>
        <time>2019-04-17T08:00:12Z</time>
      </trkpt>
      <trkpt lat="42.43939" lon="-8.63355">
        <ele>2.8</ele>
        <time>2019-04-17T08:00:12Z</time>
      </trkpt>
      <trkpt lat="42.43944" lon="-8.63356">
        <ele>2.8</ele>
        <time>2019-04-17T08:00:12Z</time>
      </trkpt>
      <trkpt lat="42.43949" lon="-8.63356">
        <ele>2.8</ele>
        <time>2019-04-17T08:00:12Z</time>
      </trkpt>
      <trkpt lat="42.43953" lon="-8.63357">
        <ele>2.8</ele>
        <time>2019-04-17T08:00:12Z</time>
      </trkpt>
      <trkpt lat="42.43958" lon="-8.63357">
        <ele>2.8</ele>
        <time>2019-04-17T08:00:12Z</time>
      </trkpt>
      <trkpt lat="42.43962" lon="-8.63358">
        <ele>2.8</ele>
        <time>2019-04-17T08:00:12Z</time>
      </trkpt>
      <trkpt lat="42.43967" lon="-8.63358">
        <ele>2.8</ele>
        <time>2019-04-17T08:00:12Z</time>
      </trkpt>
      <trkpt lat="42.43971" lon="-8.63359">
        <ele>2.8</ele>
        <time>2019-04-17T08:00:12Z</time>
      </trkpt>
      <trkpt lat="42.43976" lon="-8.63359">
        <ele>2.8</ele>
        <time>2019-04-17T08:00:12Z</time>
      </trkpt>
      <trkpt lat="42.4398" lon="-8.6336">
        <ele>2.9</ele>
        <time>2019-04-17T08:00:12Z</time>
      </trkpt>
      <trkpt lat="42.43985" lon="-8.6336">
        <ele>2.9</ele>
        <time>2019-04-17T08:00:12Z</time>
      </trkpt>
      <trkpt lat="42.43989" lon="-8.63361">
        <ele>3</ele>
        <time>2019-04-17T08:00:12Z</time>
      </trkpt>
      <trkpt lat="42.43994" lon="-8.63361">
        <ele>3</ele>
        <time>2019-04-17T08:00:12Z</time>
      </trkpt>
      <trkpt lat="42.43999" lon="-8.63362">
        <ele>3</ele>
        <time>2019-04-17T08:00:12Z</time>
      </trkpt>
      <trkpt lat="42.44003" lon="-8.63362">
        <ele>3</ele>
        <time>2019-04-17T08:00:12Z</time>
      </trkpt>
      <trkpt lat="42.44007" lon="-8.63363">
        <ele>2.9</ele>
        <time>2019-04-17T08:00:12Z</time>
      </trkpt>
      <trkpt lat="42.44012" lon="-8.63363">
        <ele>2.9</ele>
        <time>2019-04-17T08:00:12Z</time>
      </trkpt>
      <trkpt lat="42.44016" lon="-8.63364">
        <ele>2.9</ele>
        <time>2019-04-17T08:00:12Z</time>
      </trkpt>
      <trkpt lat="42.44021" lon="-8.63364">
        <ele>2.9</ele>
        <time>2019-04-17T08:00:12Z</time>
      </trkpt>
      <trkpt lat="42.44025" lon="-8.63365">
        <ele>2.9</ele>
        <time>2019-04-17T08:00:12Z</time>
      </trkpt>
      <trkpt lat="42.4403" lon="-8.63365">
        <ele>2.9</ele>
        <time>2019-04-17T08:00:12Z</time>
      </trkpt>
      <trkpt lat="42.44034" lon="-8.63366">
        <ele>2.8</ele>
        <time>2019-04-17T08:00:12Z</time>
      </trkpt>
      <trkpt lat="42.44039" lon="-8.63366">
        <ele>2.8</ele>
        <time>2019-04-17T08:00:12Z</time>
      </trkpt>
      <trkpt lat="42.44043" lon="-8.63366">
        <ele>2.8</ele>
        <time>2019-04-17T08:00:12Z</time>
      </trkpt>
      <trkpt lat="42.44048" lon="-8.63367">
        <ele>2.8</ele>
        <time>2019-04-17T08:00:12Z</time>
      </trkpt>
      <trkpt lat="42.44053" lon="-8.63367">
        <ele>2.8</ele>
        <time>2019-04-17T08:00:12Z</time>
      </trkpt>
      <trkpt lat="42.44057" lon="-8.63368">
        <ele>2.7</ele>
        <time>2019-04-17T08:00:12Z</time>
      </trkpt>
      <trkpt lat="42.44062" lon="-8.63369">
        <ele>2.6</ele>
        <time>2019-04-17T08:00:12Z</time>
      </trkpt>
      <trkpt lat="42.44066" lon="-8.63369">
        <ele>2.4</ele>
        <time>2019-04-17T08:00:12Z</time>
      </trkpt>
      <trkpt lat="42.44071" lon="-8.6337">
        <ele>2.3</ele>
        <time>2019-04-17T08:00:12Z</time>
      </trkpt>
      <trkpt lat="42.44076" lon="-8.6337">
        <ele>2.2</ele>
        <time>2019-04-17T08:00:12Z</time>
      </trkpt>
      <trkpt lat="42.4408" lon="-8.63371">
        <ele>2.1</ele>
        <time>2019-04-17T08:00:12Z</time>
      </trkpt>
      <trkpt lat="42.44085" lon="-8.63371">
        <ele>2</ele>
        <time>2019-04-17T08:00:12Z</time>
      </trkpt>
      <trkpt lat="42.44089" lon="-8.63372">
        <ele>2.1</ele>
        <time>2019-04-17T08:00:12Z</time>
      </trkpt>
      <trkpt lat="42.44094" lon="-8.63372">
        <ele>2.1</ele>
        <time>2019-04-17T08:00:12Z</time>
      </trkpt>
      <trkpt lat="42.44098" lon="-8.63373">
        <ele>2.2</ele>
        <time>2019-04-17T08:00:12Z</time>
      </trkpt>
      <trkpt lat="42.44102" lon="-8.63373">
        <ele>2.3</ele>
        <time>2019-04-17T08:00:12Z</time>
      </trkpt>
      <trkpt lat="42.44107" lon="-8.63374">
        <ele>2.4</ele>
        <time>2019-04-17T08:00:12Z</time>
      </trkpt>
      <trkpt lat="42.44111" lon="-8.63374">
        <ele>2.5</ele>
        <time>2019-04-17T08:00:12Z</time>
      </trkpt>
      <trkpt lat="42.44116" lon="-8.63375">
        <ele>2.4</ele>
        <time>2019-04-17T08:00:12Z</time>
      </trkpt>
      <trkpt lat="42.4412" lon="-8.63375">
        <ele>2.3</ele>
        <time>2019-04-17T08:00:12Z</time>
      </trkpt>
      <trkpt lat="42.44125" lon="-8.63376">
        <ele>2.3</ele>
        <time>2019-04-17T08:00:12Z</time>
      </trkpt>
      <trkpt lat="42.44129" lon="-8.63377">
        <ele>2.2</ele>
        <time>2019-04-17T08:00:12Z</time>
      </trkpt>
      <trkpt lat="42.44134" lon="-8.63377">
        <ele>2.1</ele>
        <time>2019-04-17T08:00:12Z</time>
      </trkpt>
      <trkpt lat="42.44139" lon="-8.63378">
        <ele>2</ele>
        <time>2019-04-17T08:00:12Z</time>
      </trkpt>
      <trkpt lat="42.44143" lon="-8.63378">
        <ele>2</ele>
        <time>2019-04-17T08:00:12Z</time>
      </trkpt>
      <trkpt lat="42.44148" lon="-8.63378">
        <ele>2.1</ele>
        <time>2019-04-17T08:00:12Z</time>
      </trkpt>
      <trkpt lat="42.44153" lon="-8.63378">
        <ele>2.1</ele>
        <time>2019-04-17T08:00:12Z</time>
      </trkpt>
      <trkpt lat="42.44157" lon="-8.63379">
        <ele>2.2</ele>
        <time>2019-04-17T08:00:12Z</time>
      </trkpt>
      <trkpt lat="42.44162" lon="-8.63379">
        <ele>2.2</ele>
        <time>2019-04-17T08:00:12Z</time>
      </trkpt>
      <trkpt lat="42.44167" lon="-8.63379">
        <ele>2.3</ele>
        <time>2019-04-17T08:00:12Z</time>
      </trkpt>
      <trkpt lat="42.44171" lon="-8.6338">
        <ele>2.4</ele>
        <time>2019-04-17T08:00:12Z</time>
      </trkpt>
      <trkpt lat="42.44176" lon="-8.6338">
        <ele>2.5</ele>
        <time>2019-04-17T08:00:12Z</time>
      </trkpt>
      <trkpt lat="42.44181" lon="-8.63381">
        <ele>2.6</ele>
        <time>2019-04-17T08:00:12Z</time>
      </trkpt>
      <trkpt lat="42.44185" lon="-8.63381">
        <ele>2.6</ele>
        <time>2019-04-17T08:00:12Z</time>
      </trkpt>
      <trkpt lat="42.4419" lon="-8.63381">
        <ele>2.7</ele>
        <time>2019-04-17T08:00:12Z</time>
      </trkpt>
      <trkpt lat="42.44194" lon="-8.63382">
        <ele>2.7</ele>
        <time>2019-04-17T08:00:12Z</time>
      </trkpt>
      <trkpt lat="42.44199" lon="-8.63382">
        <ele>2.7</ele>
        <time>2019-04-17T08:00:12Z</time>
      </trkpt>
      <trkpt lat="42.44203" lon="-8.63383">
        <ele>2.7</ele>
        <time>2019-04-17T08:00:12Z</time>
      </trkpt>
      <trkpt lat="42.44208" lon="-8.63383">
        <ele>2.7</ele>
        <time>2019-04-17T08:00:12Z</time>
      </trkpt>
      <trkpt lat="42.44212" lon="-8.63384">
        <ele>2.7</ele>
        <time>2019-04-17T08:00:12Z</time>
      </trkpt>
      <trkpt lat="42.44217" lon="-8.63384">
        <ele>2.7</ele>
        <time>2019-04-17T08:00:12Z</time>
      </trkpt>
      <trkpt lat="42.44221" lon="-8.63384">
        <ele>2.7</ele>
        <time>2019-04-17T08:00:12Z</time>
      </trkpt>
      <trkpt lat="42.44226" lon="-8.63385">
        <ele>2.7</ele>
        <time>2019-04-17T08:00:12Z</time>
      </trkpt>
      <trkpt lat="42.4423" lon="-8.63385">
        <ele>2.7</ele>
        <time>2019-04-17T08:00:12Z</time>
      </trkpt>
      <trkpt lat="42.44234" lon="-8.63385">
        <ele>2.7</ele>
        <time>2019-04-17T08:00:12Z</time>
      </trkpt>
      <trkpt lat="42.44239" lon="-8.63386">
        <ele>2.8</ele>
        <time>2019-04-17T08:00:12Z</time>
      </trkpt>
      <trkpt lat="42.44243" lon="-8.63387">
        <ele>2.8</ele>
        <time>2019-04-17T08:00:12Z</time>
      </trkpt>
      <trkpt lat="42.44248" lon="-8.63387">
        <ele>2.9</ele>
        <time>2019-04-17T08:00:12Z</time>
      </trkpt>
      <trkpt lat="42.44252" lon="-8.63387">
        <ele>2.9</ele>
        <time>2019-04-17T08:00:12Z</time>
      </trkpt>
      <trkpt lat="42.44257" lon="-8.63388">
        <ele>2.9</ele>
        <time>2019-04-17T08:00:12Z</time>
      </trkpt>
      <trkpt lat="42.44261" lon="-8.63388">
        <ele>2.9</ele>
        <time>2019-04-17T08:00:12Z</time>
      </trkpt>
      <trkpt lat="42.44266" lon="-8.63389">
        <ele>3</ele>
        <time>2019-04-17T08:00:12Z</time>
      </trkpt>
      <trkpt lat="42.4427" lon="-8.63389">
        <ele>3</ele>
        <time>2019-04-17T08:00:12Z</time>
      </trkpt>
      <trkpt lat="42.44275" lon="-8.6339">
        <ele>3</ele>
        <time>2019-04-17T08:00:12Z</time>
      </trkpt>
      <trkpt lat="42.44279" lon="-8.6339">
        <ele>3</ele>
        <time>2019-04-17T08:00:12Z</time>
      </trkpt>
      <trkpt lat="42.44284" lon="-8.63391">
        <ele>2.9</ele>
        <time>2019-04-17T08:00:12Z</time>
      </trkpt>
      <trkpt lat="42.44288" lon="-8.63391">
        <ele>2.9</ele>
        <time>2019-04-17T08:00:12Z</time>
      </trkpt>
      <trkpt lat="42.44293" lon="-8.63392">
        <ele>2.9</ele>
        <time>2019-04-17T08:00:12Z</time>
      </trkpt>
      <trkpt lat="42.44297" lon="-8.63393">
        <ele>2.9</ele>
        <time>2019-04-17T08:00:12Z</time>
      </trkpt>
      <trkpt lat="42.44302" lon="-8.63394">
        <ele>2.8</ele>
        <time>2019-04-17T08:00:12Z</time>
      </trkpt>
      <trkpt lat="42.44306" lon="-8.63394">
        <ele>2.8</ele>
        <time>2019-04-17T08:00:12Z</time>
      </trkpt>
      <trkpt lat="42.44311" lon="-8.63396">
        <ele>2.5</ele>
        <time>2019-04-17T08:00:12Z</time>
      </trkpt>
      <trkpt lat="42.44315" lon="-8.63397">
        <ele>2.3</ele>
        <time>2019-04-17T08:00:12Z</time>
      </trkpt>
      <trkpt lat="42.4432" lon="-8.63399">
        <ele>2.2</ele>
        <time>2019-04-17T08:00:12Z</time>
      </trkpt>
      <trkpt lat="42.44325" lon="-8.63402">
        <ele>2.1</ele>
        <time>2019-04-17T08:00:12Z</time>
      </trkpt>
      <trkpt lat="42.44329" lon="-8.63405">
        <ele>2.2</ele>
        <time>2019-04-17T08:00:12Z</time>
      </trkpt>
      <trkpt lat="42.44332" lon="-8.63409">
        <ele>2.5</ele>
        <time>2019-04-17T08:00:12Z</time>
      </trkpt>
      <trkpt lat="42.44336" lon="-8.63414">
        <ele>2.6</ele>
        <time>2019-04-17T08:00:12Z</time>
      </trkpt>
      <trkpt lat="42.44339" lon="-8.63418">
        <ele>2.6</ele>
        <time>2019-04-17T08:00:12Z</time>
      </trkpt>
      <trkpt lat="42.44341" lon="-8.63423">
        <ele>2.4</ele>
        <time>2019-04-17T08:00:12Z</time>
      </trkpt>
      <trkpt lat="42.44344" lon="-8.63428">
        <ele>2.3</ele>
        <time>2019-04-17T08:00:12Z</time>
      </trkpt>
      <trkpt lat="42.44346" lon="-8.63434">
        <ele>2.1</ele>
        <time>2019-04-17T08:00:12Z</time>
      </trkpt>
      <trkpt lat="42.44348" lon="-8.63439">
        <ele>2</ele>
        <time>2019-04-17T08:00:12Z</time>
      </trkpt>
      <trkpt lat="42.44349" lon="-8.63445">
        <ele>1.9</ele>
        <time>2019-04-17T08:00:12Z</time>
      </trkpt>
      <trkpt lat="42.44351" lon="-8.6345">
        <ele>2</ele>
        <time>2019-04-17T08:00:12Z</time>
      </trkpt>
      <trkpt lat="42.44354" lon="-8.63455">
        <ele>2.1</ele>
        <time>2019-04-17T08:00:12Z</time>
      </trkpt>
      <trkpt lat="42.44356" lon="-8.6346">
        <ele>2.3</ele>
        <time>2019-04-17T08:00:12Z</time>
      </trkpt>
      <trkpt lat="42.44359" lon="-8.63465">
        <ele>2.5</ele>
        <time>2019-04-17T08:00:12Z</time>
      </trkpt>
      <trkpt lat="42.44362" lon="-8.6347">
        <ele>2.8</ele>
        <time>2019-04-17T08:00:12Z</time>
      </trkpt>
      <trkpt lat="42.44365" lon="-8.63475">
        <ele>2.7</ele>
        <time>2019-04-17T08:00:12Z</time>
      </trkpt>
      <trkpt lat="42.44368" lon="-8.6348">
        <ele>2.3</ele>
        <time>2019-04-17T08:00:12Z</time>
      </trkpt>
      <trkpt lat="42.4437" lon="-8.63485">
        <ele>2</ele>
        <time>2019-04-17T08:00:12Z</time>
      </trkpt>
      <trkpt lat="42.44373" lon="-8.6349">
        <ele>1.8</ele>
        <time>2019-04-17T08:00:12Z</time>
      </trkpt>
      <trkpt lat="42.44376" lon="-8.63495">
        <ele>1.6</ele>
        <time>2019-04-17T08:00:12Z</time>
      </trkpt>
      <trkpt lat="42.44379" lon="-8.635">
        <ele>1.4</ele>
        <time>2019-04-17T08:00:12Z</time>
      </trkpt>
      <trkpt lat="42.44382" lon="-8.63504">
        <ele>1.5</ele>
        <time>2019-04-17T08:00:12Z</time>
      </trkpt>
      <trkpt lat="42.44385" lon="-8.63509">
        <ele>1.7</ele>
        <time>2019-04-17T08:00:12Z</time>
      </trkpt>
      <trkpt lat="42.44387" lon="-8.63513">
        <ele>1.9</ele>
        <time>2019-04-17T08:00:12Z</time>
      </trkpt>
      <trkpt lat="42.4439" lon="-8.63516">
        <ele>2.4</ele>
        <time>2019-04-17T08:00:12Z</time>
      </trkpt>
      <trkpt lat="42.44393" lon="-8.63519">
        <ele>3.1</ele>
        <time>2019-04-17T08:00:12Z</time>
      </trkpt>
      <trkpt lat="42.44397" lon="-8.6352">
        <ele>3.8</ele>
        <time>2019-04-17T08:00:12Z</time>
      </trkpt>
      <trkpt lat="42.444" lon="-8.63519">
        <ele>4.4</ele>
        <time>2019-04-17T08:00:12Z</time>
      </trkpt>
      <trkpt lat="42.44404" lon="-8.63517">
        <ele>4.7</ele>
        <time>2019-04-17T08:00:12Z</time>
      </trkpt>
      <trkpt lat="42.44407" lon="-8.63514">
        <ele>4.9</ele>
        <time>2019-04-17T08:00:12Z</time>
      </trkpt>
      <trkpt lat="42.4441" lon="-8.63509">
        <ele>4.7</ele>
        <time>2019-04-17T08:00:12Z</time>
      </trkpt>
      <trkpt lat="42.44414" lon="-8.63505">
        <ele>4.4</ele>
        <time>2019-04-17T08:00:12Z</time>
      </trkpt>
      <trkpt lat="42.44417" lon="-8.635">
        <ele>4</ele>
        <time>2019-04-17T08:00:12Z</time>
      </trkpt>
      <trkpt lat="42.44419" lon="-8.63495">
        <ele>4.5</ele>
        <time>2019-04-17T08:00:12Z</time>
      </trkpt>
      <trkpt lat="42.44423" lon="-8.6349">
        <ele>5.2</ele>
        <time>2019-04-17T08:00:12Z</time>
      </trkpt>
      <trkpt lat="42.44426" lon="-8.63486">
        <ele>5.5</ele>
        <time>2019-04-17T08:00:12Z</time>
      </trkpt>
      <trkpt lat="42.44429" lon="-8.63481">
        <ele>5.5</ele>
        <time>2019-04-17T08:00:12Z</time>
      </trkpt>
      <trkpt lat="42.44432" lon="-8.63476">
        <ele>5.2</ele>
        <time>2019-04-17T08:00:12Z</time>
      </trkpt>
      <trkpt lat="42.44435" lon="-8.63472">
        <ele>4.9</ele>
        <time>2019-04-17T08:00:12Z</time>
      </trkpt>
      <trkpt lat="42.44439" lon="-8.63468">
        <ele>5.2</ele>
        <time>2019-04-17T08:00:12Z</time>
      </trkpt>
      <trkpt lat="42.44443" lon="-8.63465">
        <ele>5.4</ele>
        <time>2019-04-17T08:00:12Z</time>
      </trkpt>
      <trkpt lat="42.44447" lon="-8.63462">
        <ele>5.4</ele>
        <time>2019-04-17T08:00:12Z</time>
      </trkpt>
      <trkpt lat="42.44452" lon="-8.6346">
        <ele>5.2</ele>
        <time>2019-04-17T08:00:12Z</time>
      </trkpt>
      <trkpt lat="42.44456" lon="-8.63458">
        <ele>4.9</ele>
        <time>2019-04-17T08:00:12Z</time>
      </trkpt>
      <trkpt lat="42.44461" lon="-8.63456">
        <ele>4.6</ele>
        <time>2019-04-17T08:00:12Z</time>
      </trkpt>
      <trkpt lat="42.44466" lon="-8.63454">
        <ele>4.3</ele>
        <time>2019-04-17T08:00:12Z</time>
      </trkpt>
      <trkpt lat="42.44471" lon="-8.63453">
        <ele>3.9</ele>
        <time>2019-04-17T08:00:12Z</time>
      </trkpt>
      <trkpt lat="42.44476" lon="-8.63451">
        <ele>3.4</ele>
        <time>2019-04-17T08:00:12Z</time>
      </trkpt>
      <trkpt lat="42.4448" lon="-8.63449">
        <ele>3</ele>
        <time>2019-04-17T08:00:12Z</time>
      </trkpt>
      <trkpt lat="42.44485" lon="-8.63447">
        <ele>2.5</ele>
        <time>2019-04-17T08:00:12Z</time>
      </trkpt>
      <trkpt lat="42.44489" lon="-8.63444">
        <ele>2.2</ele>
        <time>2019-04-17T08:00:12Z</time>
      </trkpt>
      <trkpt lat="42.44494" lon="-8.63442">
        <ele>2.4</ele>
        <time>2019-04-17T08:00:12Z</time>
      </trkpt>
      <trkpt lat="42.44498" lon="-8.63441">
        <ele>2.6</ele>
        <time>2019-04-17T08:00:12Z</time>
      </trkpt>
      <trkpt lat="42.44503" lon="-8.63439">
        <ele>2.8</ele>
        <time>2019-04-17T08:00:12Z</time>
      </trkpt>
      <trkpt lat="42.44507" lon="-8.63437">
        <ele>3.1</ele>
        <time>2019-04-17T08:00:12Z</time>
      </trkpt>
      <trkpt lat="42.44511" lon="-8.63434">
        <ele>3.3</ele>
        <time>2019-04-17T08:00:12Z</time>
      </trkpt>
      <trkpt lat="42.44515" lon="-8.63431">
        <ele>3.4</ele>
        <time>2019-04-17T08:00:12Z</time>
      </trkpt>
      <trkpt lat="42.4452" lon="-8.63429">
        <ele>3.7</ele>
        <time>2019-04-17T08:00:12Z</time>
      </trkpt>
      <trkpt lat="42.4453" lon="-8.63417">
        <ele>3.6</ele>
        <time>2019-04-17T08:00:12Z</time>
      </trkpt>
      <trkpt lat="42.44539" lon="-8.63408">
        <ele>4.8</ele>
        <time>2019-04-17T08:00:12Z</time>
      </trkpt>
      <trkpt lat="42.44551" lon="-8.63401">
        <ele>5.1</ele>
        <time>2019-04-17T08:00:12Z</time>
      </trkpt>
      <trkpt lat="42.44571" lon="-8.6339">
        <ele>4.7</ele>
        <time>2019-04-17T08:00:12Z</time>
      </trkpt>
      <trkpt lat="42.44588" lon="-8.63384">
        <ele>5.4</ele>
        <time>2019-04-17T08:00:12Z</time>
      </trkpt>
      <trkpt lat="42.44602" lon="-8.63383">
        <ele>6.7</ele>
        <time>2019-04-17T08:00:12Z</time>
      </trkpt>
      <trkpt lat="42.44611" lon="-8.63379">
        <ele>6.1</ele>
        <time>2019-04-17T08:00:12Z</time>
      </trkpt>
      <trkpt lat="42.4462" lon="-8.63374">
        <ele>6.4</ele>
        <time>2019-04-17T08:00:12Z</time>
      </trkpt>
      <trkpt lat="42.44638" lon="-8.63363">
        <ele>4.5</ele>
        <time>2019-04-17T08:00:12Z</time>
      </trkpt>
      <trkpt lat="42.44652" lon="-8.63359">
        <ele>4.7</ele>
        <time>2019-04-17T08:00:12Z</time>
      </trkpt>
      <trkpt lat="42.44665" lon="-8.63356">
        <ele>5</ele>
        <time>2019-04-17T08:00:12Z</time>
      </trkpt>
      <trkpt lat="42.44676" lon="-8.6335">
        <ele>5.6</ele>
        <time>2019-04-17T08:00:12Z</time>
      </trkpt>
      <trkpt lat="42.44695" lon="-8.63332">
        <ele>3</ele>
        <time>2019-04-17T08:00:12Z</time>
      </trkpt>
      <trkpt lat="42.447" lon="-8.63322">
        <ele>3.4</ele>
        <time>2019-04-17T08:00:12Z</time>
      </trkpt>
      <trkpt lat="42.44717" lon="-8.63293">
        <ele>2.9</ele>
        <time>2019-04-17T08:00:12Z</time>
      </trkpt>
      <trkpt lat="42.44718" lon="-8.63287">
        <ele>2.6</ele>
        <time>2019-04-17T08:00:12Z</time>
      </trkpt>
      <trkpt lat="42.4472" lon="-8.63284">
        <ele>2.4</ele>
        <time>2019-04-17T08:00:12Z</time>
      </trkpt>
      <trkpt lat="42.44721" lon="-8.6328">
        <ele>2.1</ele>
        <time>2019-04-17T08:00:12Z</time>
      </trkpt>
      <trkpt lat="42.44723" lon="-8.63276">
        <ele>2</ele>
        <time>2019-04-17T08:00:12Z</time>
      </trkpt>
      <trkpt lat="42.44724" lon="-8.63272">
        <ele>2.2</ele>
        <time>2019-04-17T08:00:12Z</time>
      </trkpt>
      <trkpt lat="42.44725" lon="-8.63267">
        <ele>2.3</ele>
        <time>2019-04-17T08:00:12Z</time>
      </trkpt>
      <trkpt lat="42.44726" lon="-8.63262">
        <ele>2.3</ele>
        <time>2019-04-17T08:00:12Z</time>
      </trkpt>
      <trkpt lat="42.44726" lon="-8.63258">
        <ele>2.4</ele>
        <time>2019-04-17T08:00:12Z</time>
      </trkpt>
      <trkpt lat="42.44727" lon="-8.63253">
        <ele>2.5</ele>
        <time>2019-04-17T08:00:12Z</time>
      </trkpt>
      <trkpt lat="42.44728" lon="-8.63248">
        <ele>2.6</ele>
        <time>2019-04-17T08:00:12Z</time>
      </trkpt>
      <trkpt lat="42.44729" lon="-8.63242">
        <ele>2.8</ele>
        <time>2019-04-17T08:00:12Z</time>
      </trkpt>
      <trkpt lat="42.44729" lon="-8.63237">
        <ele>2.9</ele>
        <time>2019-04-17T08:00:12Z</time>
      </trkpt>
      <trkpt lat="42.4473" lon="-8.63232">
        <ele>3</ele>
        <time>2019-04-17T08:00:12Z</time>
      </trkpt>
      <trkpt lat="42.4473" lon="-8.63227">
        <ele>3.1</ele>
        <time>2019-04-17T08:00:12Z</time>
      </trkpt>
      <trkpt lat="42.44731" lon="-8.63221">
        <ele>3.2</ele>
        <time>2019-04-17T08:00:12Z</time>
      </trkpt>
      <trkpt lat="42.44731" lon="-8.63216">
        <ele>3.3</ele>
        <time>2019-04-17T08:00:12Z</time>
      </trkpt>
      <trkpt lat="42.44731" lon="-8.63211">
        <ele>3.4</ele>
        <time>2019-04-17T08:00:12Z</time>
      </trkpt>
      <trkpt lat="42.44731" lon="-8.63206">
        <ele>3.4</ele>
        <time>2019-04-17T08:00:12Z</time>
      </trkpt>
      <trkpt lat="42.44731" lon="-8.63201">
        <ele>3.5</ele>
        <time>2019-04-17T08:00:12Z</time>
      </trkpt>
      <trkpt lat="42.44731" lon="-8.63196">
        <ele>3.5</ele>
        <time>2019-04-17T08:00:12Z</time>
      </trkpt>
      <trkpt lat="42.44731" lon="-8.63191">
        <ele>3.5</ele>
        <time>2019-04-17T08:00:12Z</time>
      </trkpt>
      <trkpt lat="42.44731" lon="-8.63187">
        <ele>3.5</ele>
        <time>2019-04-17T08:00:12Z</time>
      </trkpt>
      <trkpt lat="42.44731" lon="-8.63182">
        <ele>3.5</ele>
        <time>2019-04-17T08:00:12Z</time>
      </trkpt>
      <trkpt lat="42.44731" lon="-8.63178">
        <ele>3.5</ele>
        <time>2019-04-17T08:00:12Z</time>
      </trkpt>
      <trkpt lat="42.4473" lon="-8.63172">
        <ele>3.5</ele>
        <time>2019-04-17T08:00:12Z</time>
      </trkpt>
      <trkpt lat="42.4473" lon="-8.63167">
        <ele>3.5</ele>
        <time>2019-04-17T08:00:12Z</time>
      </trkpt>
      <trkpt lat="42.4473" lon="-8.63162">
        <ele>3.4</ele>
        <time>2019-04-17T08:00:12Z</time>
      </trkpt>
      <trkpt lat="42.4473" lon="-8.63157">
        <ele>3.4</ele>
        <time>2019-04-17T08:00:12Z</time>
      </trkpt>
      <trkpt lat="42.44729" lon="-8.63152">
        <ele>3.4</ele>
        <time>2019-04-17T08:00:12Z</time>
      </trkpt>
      <trkpt lat="42.44729" lon="-8.63147">
        <ele>3.4</ele>
        <time>2019-04-17T08:00:12Z</time>
      </trkpt>
      <trkpt lat="42.44728" lon="-8.63142">
        <ele>3.3</ele>
        <time>2019-04-17T08:00:12Z</time>
      </trkpt>
      <trkpt lat="42.44726" lon="-8.63138">
        <ele>3.3</ele>
        <time>2019-04-17T08:00:12Z</time>
      </trkpt>
      <trkpt lat="42.44726" lon="-8.63134">
        <ele>3.4</ele>
        <time>2019-04-17T08:00:12Z</time>
      </trkpt>
      <trkpt lat="42.44725" lon="-8.6313">
        <ele>3.5</ele>
        <time>2019-04-17T08:00:12Z</time>
      </trkpt>
      <trkpt lat="42.44724" lon="-8.63126">
        <ele>3.6</ele>
        <time>2019-04-17T08:00:12Z</time>
      </trkpt>
      <trkpt lat="42.44723" lon="-8.63122">
        <ele>3.6</ele>
        <time>2019-04-17T08:00:12Z</time>
      </trkpt>
      <trkpt lat="42.44722" lon="-8.63118">
        <ele>3.7</ele>
        <time>2019-04-17T08:00:12Z</time>
      </trkpt>
      <trkpt lat="42.44721" lon="-8.63114">
        <ele>3.7</ele>
        <time>2019-04-17T08:00:12Z</time>
      </trkpt>
      <trkpt lat="42.44719" lon="-8.6311">
        <ele>3.9</ele>
        <time>2019-04-17T08:00:12Z</time>
      </trkpt>
      <trkpt lat="42.44718" lon="-8.63105">
        <ele>4.5</ele>
        <time>2019-04-17T08:00:12Z</time>
      </trkpt>
      <trkpt lat="42.44716" lon="-8.63101">
        <ele>4.9</ele>
        <time>2019-04-17T08:00:12Z</time>
      </trkpt>
      <trkpt lat="42.44715" lon="-8.63096">
        <ele>5.3</ele>
        <time>2019-04-17T08:00:12Z</time>
      </trkpt>
      <trkpt lat="42.44714" lon="-8.63091">
        <ele>5.7</ele>
        <time>2019-04-17T08:00:12Z</time>
      </trkpt>
      <trkpt lat="42.44713" lon="-8.63086">
        <ele>6.1</ele>
        <time>2019-04-17T08:00:12Z</time>
      </trkpt>
      <trkpt lat="42.44713" lon="-8.63082">
        <ele>6.4</ele>
        <time>2019-04-17T08:00:12Z</time>
      </trkpt>
      <trkpt lat="42.44713" lon="-8.63078">
        <ele>6.5</ele>
        <time>2019-04-17T08:00:12Z</time>
      </trkpt>
      <trkpt lat="42.44713" lon="-8.63073">
        <ele>6.8</ele>
        <time>2019-04-17T08:00:12Z</time>
      </trkpt>
      <trkpt lat="42.44714" lon="-8.63069">
        <ele>7.2</ele>
        <time>2019-04-17T08:00:12Z</time>
      </trkpt>
      <trkpt lat="42.44714" lon="-8.63064">
        <ele>7.5</ele>
        <time>2019-04-17T08:00:12Z</time>
      </trkpt>
      <trkpt lat="42.44714" lon="-8.63059">
        <ele>7.9</ele>
        <time>2019-04-17T08:00:12Z</time>
      </trkpt>
      <trkpt lat="42.44714" lon="-8.63055">
        <ele>8</ele>
        <time>2019-04-17T08:00:12Z</time>
      </trkpt>
      <trkpt lat="42.44714" lon="-8.63051">
        <ele>8.2</ele>
        <time>2019-04-17T08:00:12Z</time>
      </trkpt>
      <trkpt lat="42.44714" lon="-8.63047">
        <ele>8.4</ele>
        <time>2019-04-17T08:00:12Z</time>
      </trkpt>
      <trkpt lat="42.44714" lon="-8.63043">
        <ele>8.7</ele>
        <time>2019-04-17T08:00:12Z</time>
      </trkpt>
      <trkpt lat="42.44715" lon="-8.63038">
        <ele>9</ele>
        <time>2019-04-17T08:00:12Z</time>
      </trkpt>
      <trkpt lat="42.44715" lon="-8.63034">
        <ele>9.4</ele>
        <time>2019-04-17T08:00:12Z</time>
      </trkpt>
      <trkpt lat="42.44716" lon="-8.6303">
        <ele>9.9</ele>
        <time>2019-04-17T08:00:12Z</time>
      </trkpt>
      <trkpt lat="42.44716" lon="-8.63025">
        <ele>9.9</ele>
        <time>2019-04-17T08:00:12Z</time>
      </trkpt>
      <trkpt lat="42.44717" lon="-8.63019">
        <ele>9.9</ele>
        <time>2019-04-17T08:00:12Z</time>
      </trkpt>
      <trkpt lat="42.44718" lon="-8.63014">
        <ele>9.8</ele>
        <time>2019-04-17T08:00:12Z</time>
      </trkpt>
      <trkpt lat="42.44719" lon="-8.63008">
        <ele>9.6</ele>
        <time>2019-04-17T08:00:12Z</time>
      </trkpt>
      <trkpt lat="42.44719" lon="-8.63002">
        <ele>9.2</ele>
        <time>2019-04-17T08:00:12Z</time>
      </trkpt>
      <trkpt lat="42.44719" lon="-8.62997">
        <ele>9.3</ele>
        <time>2019-04-17T08:00:12Z</time>
      </trkpt>
      <trkpt lat="42.44718" lon="-8.62991">
        <ele>9.4</ele>
        <time>2019-04-17T08:00:12Z</time>
      </trkpt>
      <trkpt lat="42.44717" lon="-8.62986">
        <ele>9.3</ele>
        <time>2019-04-17T08:00:12Z</time>
      </trkpt>
      <trkpt lat="42.44715" lon="-8.6298">
        <ele>9.1</ele>
        <time>2019-04-17T08:00:12Z</time>
      </trkpt>
      <trkpt lat="42.44713" lon="-8.62974">
        <ele>8.6</ele>
        <time>2019-04-17T08:00:12Z</time>
      </trkpt>
      <trkpt lat="42.44711" lon="-8.62968">
        <ele>8.2</ele>
        <time>2019-04-17T08:00:12Z</time>
      </trkpt>
      <trkpt lat="42.4471" lon="-8.62962">
        <ele>7.8</ele>
        <time>2019-04-17T08:00:12Z</time>
      </trkpt>
      <trkpt lat="42.44708" lon="-8.62957">
        <ele>7.3</ele>
        <time>2019-04-17T08:00:12Z</time>
      </trkpt>
      <trkpt lat="42.44706" lon="-8.62951">
        <ele>6.9</ele>
        <time>2019-04-17T08:00:12Z</time>
      </trkpt>
      <trkpt lat="42.44704" lon="-8.62946">
        <ele>6.3</ele>
        <time>2019-04-17T08:00:12Z</time>
      </trkpt>
      <trkpt lat="42.44702" lon="-8.6294">
        <ele>5.8</ele>
        <time>2019-04-17T08:00:12Z</time>
      </trkpt>
      <trkpt lat="42.44699" lon="-8.62935">
        <ele>5.1</ele>
        <time>2019-04-17T08:00:12Z</time>
      </trkpt>
      <trkpt lat="42.44697" lon="-8.62929">
        <ele>4.6</ele>
        <time>2019-04-17T08:00:12Z</time>
      </trkpt>
      <trkpt lat="42.44695" lon="-8.62924">
        <ele>4</ele>
        <time>2019-04-17T08:00:12Z</time>
      </trkpt>
      <trkpt lat="42.44693" lon="-8.62918">
        <ele>4</ele>
        <time>2019-04-17T08:00:12Z</time>
      </trkpt>
      <trkpt lat="42.44691" lon="-8.62912">
        <ele>4.2</ele>
        <time>2019-04-17T08:00:12Z</time>
      </trkpt>
      <trkpt lat="42.44689" lon="-8.62906">
        <ele>4.4</ele>
        <time>2019-04-17T08:00:12Z</time>
      </trkpt>
      <trkpt lat="42.44686" lon="-8.62901">
        <ele>4.6</ele>
        <time>2019-04-17T08:00:12Z</time>
      </trkpt>
      <trkpt lat="42.44685" lon="-8.62895">
        <ele>4.8</ele>
        <time>2019-04-17T08:00:12Z</time>
      </trkpt>
      <trkpt lat="42.44683" lon="-8.62889">
        <ele>5</ele>
        <time>2019-04-17T08:00:12Z</time>
      </trkpt>
      <trkpt lat="42.44682" lon="-8.62883">
        <ele>4.9</ele>
        <time>2019-04-17T08:00:12Z</time>
      </trkpt>
      <trkpt lat="42.44682" lon="-8.62877">
        <ele>4.7</ele>
        <time>2019-04-17T08:00:12Z</time>
      </trkpt>
      <trkpt lat="42.44682" lon="-8.62871">
        <ele>4.6</ele>
        <time>2019-04-17T08:00:12Z</time>
      </trkpt>
      <trkpt lat="42.44683" lon="-8.62865">
        <ele>4.6</ele>
        <time>2019-04-17T08:00:12Z</time>
      </trkpt>
      <trkpt lat="42.44684" lon="-8.62858">
        <ele>5</ele>
        <time>2019-04-17T08:00:12Z</time>
      </trkpt>
      <trkpt lat="42.44685" lon="-8.62852">
        <ele>5.9</ele>
        <time>2019-04-17T08:00:12Z</time>
      </trkpt>
      <trkpt lat="42.44686" lon="-8.62846">
        <ele>6.7</ele>
        <time>2019-04-17T08:00:12Z</time>
      </trkpt>
      <trkpt lat="42.44687" lon="-8.6284">
        <ele>7.4</ele>
        <time>2019-04-17T08:00:12Z</time>
      </trkpt>
      <trkpt lat="42.44688" lon="-8.62834">
        <ele>7.9</ele>
        <time>2019-04-17T08:00:12Z</time>
      </trkpt>
      <trkpt lat="42.4469" lon="-8.62829">
        <ele>7.3</ele>
        <time>2019-04-17T08:00:12Z</time>
      </trkpt>
      <trkpt lat="42.44691" lon="-8.62823">
        <ele>6.5</ele>
        <time>2019-04-17T08:00:12Z</time>
      </trkpt>
      <trkpt lat="42.44693" lon="-8.62818">
        <ele>5.8</ele>
        <time>2019-04-17T08:00:12Z</time>
      </trkpt>
      <trkpt lat="42.44695" lon="-8.62813">
        <ele>5.1</ele>
        <time>2019-04-17T08:00:12Z</time>
      </trkpt>
      <trkpt lat="42.44697" lon="-8.62809">
        <ele>5.6</ele>
        <time>2019-04-17T08:00:12Z</time>
      </trkpt>
      <trkpt lat="42.44699" lon="-8.62804">
        <ele>6</ele>
        <time>2019-04-17T08:00:12Z</time>
      </trkpt>
      <trkpt lat="42.44702" lon="-8.628">
        <ele>6.5</ele>
        <time>2019-04-17T08:00:12Z</time>
      </trkpt>
      <trkpt lat="42.44704" lon="-8.62796">
        <ele>6.6</ele>
        <time>2019-04-17T08:00:12Z</time>
      </trkpt>
      <trkpt lat="42.44707" lon="-8.62791">
        <ele>6.8</ele>
        <time>2019-04-17T08:00:12Z</time>
      </trkpt>
      <trkpt lat="42.44711" lon="-8.62788">
        <ele>7</ele>
        <time>2019-04-17T08:00:12Z</time>
      </trkpt>
      <trkpt lat="42.44714" lon="-8.62785">
        <ele>7.2</ele>
        <time>2019-04-17T08:00:12Z</time>
      </trkpt>
      <trkpt lat="42.44717" lon="-8.62782">
        <ele>7.1</ele>
        <time>2019-04-17T08:00:12Z</time>
      </trkpt>
      <trkpt lat="42.44721" lon="-8.62778">
        <ele>6.7</ele>
        <time>2019-04-17T08:00:12Z</time>
      </trkpt>
      <trkpt lat="42.44724" lon="-8.62774">
        <ele>6.8</ele>
        <time>2019-04-17T08:00:12Z</time>
      </trkpt>
      <trkpt lat="42.44727" lon="-8.62771">
        <ele>6.9</ele>
        <time>2019-04-17T08:00:12Z</time>
      </trkpt>
      <trkpt lat="42.4473" lon="-8.62768">
        <ele>7</ele>
        <time>2019-04-17T08:00:12Z</time>
      </trkpt>
      <trkpt lat="42.44733" lon="-8.62766">
        <ele>7.1</ele>
        <time>2019-04-17T08:00:12Z</time>
      </trkpt>
      <trkpt lat="42.44736" lon="-8.62764">
        <ele>7.2</ele>
        <time>2019-04-17T08:00:12Z</time>
      </trkpt>
      <trkpt lat="42.44739" lon="-8.62761">
        <ele>7.1</ele>
        <time>2019-04-17T08:00:12Z</time>
      </trkpt>
      <trkpt lat="42.44742" lon="-8.62759">
        <ele>6.8</ele>
        <time>2019-04-17T08:00:12Z</time>
      </trkpt>
      <trkpt lat="42.44745" lon="-8.62756">
        <ele>6.3</ele>
        <time>2019-04-17T08:00:12Z</time>
      </trkpt>
      <trkpt lat="42.44748" lon="-8.62753">
        <ele>5.6</ele>
        <time>2019-04-17T08:00:12Z</time>
      </trkpt>
      <trkpt lat="42.44751" lon="-8.62749">
        <ele>5.1</ele>
        <time>2019-04-17T08:00:12Z</time>
      </trkpt>
      <trkpt lat="42.44753" lon="-8.62745">
        <ele>6</ele>
        <time>2019-04-17T08:00:12Z</time>
      </trkpt>
      <trkpt lat="42.44756" lon="-8.62741">
        <ele>6.8</ele>
        <time>2019-04-17T08:00:12Z</time>
      </trkpt>
      <trkpt lat="42.4476" lon="-8.62737">
        <ele>7.5</ele>
        <time>2019-04-17T08:00:12Z</time>
      </trkpt>
      <trkpt lat="42.44763" lon="-8.62733">
        <ele>7.9</ele>
        <time>2019-04-17T08:00:12Z</time>
      </trkpt>
      <trkpt lat="42.44766" lon="-8.62728">
        <ele>8.1</ele>
        <time>2019-04-17T08:00:12Z</time>
      </trkpt>
      <trkpt lat="42.44769" lon="-8.62724">
        <ele>8.2</ele>
        <time>2019-04-17T08:00:12Z</time>
      </trkpt>
      <trkpt lat="42.44771" lon="-8.62721">
        <ele>8.3</ele>
        <time>2019-04-17T08:00:12Z</time>
      </trkpt>
      <trkpt lat="42.44774" lon="-8.62717">
        <ele>8.4</ele>
        <time>2019-04-17T08:00:12Z</time>
      </trkpt>
      <trkpt lat="42.44777" lon="-8.62714">
        <ele>8.3</ele>
        <time>2019-04-17T08:00:12Z</time>
      </trkpt>
      <trkpt lat="42.4478" lon="-8.6271">
        <ele>8.5</ele>
        <time>2019-04-17T08:00:12Z</time>
      </trkpt>
      <trkpt lat="42.44783" lon="-8.62706">
        <ele>8.6</ele>
        <time>2019-04-17T08:00:12Z</time>
      </trkpt>
      <trkpt lat="42.44785" lon="-8.62702">
        <ele>8.5</ele>
        <time>2019-04-17T08:00:12Z</time>
      </trkpt>
      <trkpt lat="42.44787" lon="-8.62697">
        <ele>8.1</ele>
        <time>2019-04-17T08:00:12Z</time>
      </trkpt>
      <trkpt lat="42.4479" lon="-8.62692">
        <ele>8.4</ele>
        <time>2019-04-17T08:00:12Z</time>
      </trkpt>
      <trkpt lat="42.44793" lon="-8.62687">
        <ele>8.9</ele>
        <time>2019-04-17T08:00:12Z</time>
      </trkpt>
      <trkpt lat="42.44796" lon="-8.62683">
        <ele>9.1</ele>
        <time>2019-04-17T08:00:12Z</time>
      </trkpt>
      <trkpt lat="42.44798" lon="-8.62679">
        <ele>8.9</ele>
        <time>2019-04-17T08:00:12Z</time>
      </trkpt>
      <trkpt lat="42.44801" lon="-8.62676">
        <ele>8.6</ele>
        <time>2019-04-17T08:00:12Z</time>
      </trkpt>
      <trkpt lat="42.44804" lon="-8.62672">
        <ele>7.9</ele>
        <time>2019-04-17T08:00:12Z</time>
      </trkpt>
      <trkpt lat="42.44807" lon="-8.62669">
        <ele>7.7</ele>
        <time>2019-04-17T08:00:12Z</time>
      </trkpt>
      <trkpt lat="42.4481" lon="-8.62665">
        <ele>8.4</ele>
        <time>2019-04-17T08:00:12Z</time>
      </trkpt>
      <trkpt lat="42.44813" lon="-8.62662">
        <ele>9.4</ele>
        <time>2019-04-17T08:00:12Z</time>
      </trkpt>
      <trkpt lat="42.44816" lon="-8.62658">
        <ele>10.3</ele>
        <time>2019-04-17T08:00:12Z</time>
      </trkpt>
      <trkpt lat="42.44819" lon="-8.62654">
        <ele>10.9</ele>
        <time>2019-04-17T08:00:12Z</time>
      </trkpt>
      <trkpt lat="42.44822" lon="-8.6265">
        <ele>11.5</ele>
        <time>2019-04-17T08:00:12Z</time>
      </trkpt>
      <trkpt lat="42.44825" lon="-8.62646">
        <ele>11.9</ele>
        <time>2019-04-17T08:00:12Z</time>
      </trkpt>
      <trkpt lat="42.44827" lon="-8.62642">
        <ele>11.9</ele>
        <time>2019-04-17T08:00:12Z</time>
      </trkpt>
      <trkpt lat="42.44829" lon="-8.62638">
        <ele>11.6</ele>
        <time>2019-04-17T08:00:12Z</time>
      </trkpt>
      <trkpt lat="42.44832" lon="-8.62632">
        <ele>10.4</ele>
        <time>2019-04-17T08:00:12Z</time>
      </trkpt>
      <trkpt lat="42.44834" lon="-8.62627">
        <ele>9.2</ele>
        <time>2019-04-17T08:00:12Z</time>
      </trkpt>
      <trkpt lat="42.44837" lon="-8.62621">
        <ele>8.5</ele>
        <time>2019-04-17T08:00:12Z</time>
      </trkpt>
      <trkpt lat="42.4484" lon="-8.62616">
        <ele>8.3</ele>
        <time>2019-04-17T08:00:12Z</time>
      </trkpt>
      <trkpt lat="42.44843" lon="-8.62611">
        <ele>8.5</ele>
        <time>2019-04-17T08:00:12Z</time>
      </trkpt>
      <trkpt lat="42.44847" lon="-8.62607">
        <ele>10.4</ele>
        <time>2019-04-17T08:00:12Z</time>
      </trkpt>
      <trkpt lat="42.4485" lon="-8.62603">
        <ele>11.7</ele>
        <time>2019-04-17T08:00:12Z</time>
      </trkpt>
      <trkpt lat="42.44852" lon="-8.62598">
        <ele>12.3</ele>
        <time>2019-04-17T08:00:12Z</time>
      </trkpt>
      <trkpt lat="42.44855" lon="-8.62594">
        <ele>12.3</ele>
        <time>2019-04-17T08:00:12Z</time>
      </trkpt>
      <trkpt lat="42.44858" lon="-8.6259">
        <ele>11.8</ele>
        <time>2019-04-17T08:00:12Z</time>
      </trkpt>
      <trkpt lat="42.4486" lon="-8.62586">
        <ele>10.8</ele>
        <time>2019-04-17T08:00:12Z</time>
      </trkpt>
      <trkpt lat="42.44862" lon="-8.62581">
        <ele>9.9</ele>
        <time>2019-04-17T08:00:12Z</time>
      </trkpt>
      <trkpt lat="42.44864" lon="-8.62577">
        <ele>9.7</ele>
        <time>2019-04-17T08:00:12Z</time>
      </trkpt>
      <trkpt lat="42.44866" lon="-8.62573">
        <ele>9.5</ele>
        <time>2019-04-17T08:00:12Z</time>
      </trkpt>
      <trkpt lat="42.44868" lon="-8.62569">
        <ele>9.5</ele>
        <time>2019-04-17T08:00:12Z</time>
      </trkpt>
      <trkpt lat="42.44869" lon="-8.62565">
        <ele>9.4</ele>
        <time>2019-04-17T08:00:12Z</time>
      </trkpt>
      <trkpt lat="42.44871" lon="-8.62561">
        <ele>9.3</ele>
        <time>2019-04-17T08:00:12Z</time>
      </trkpt>
      <trkpt lat="42.44873" lon="-8.62556">
        <ele>9</ele>
        <time>2019-04-17T08:00:12Z</time>
      </trkpt>
      <trkpt lat="42.44875" lon="-8.62551">
        <ele>9.8</ele>
        <time>2019-04-17T08:00:12Z</time>
      </trkpt>
      <trkpt lat="42.44876" lon="-8.62545">
        <ele>10.5</ele>
        <time>2019-04-17T08:00:12Z</time>
      </trkpt>
      <trkpt lat="42.44878" lon="-8.6254">
        <ele>10.7</ele>
        <time>2019-04-17T08:00:12Z</time>
      </trkpt>
      <trkpt lat="42.44879" lon="-8.62534">
        <ele>10.6</ele>
        <time>2019-04-17T08:00:12Z</time>
      </trkpt>
      <trkpt lat="42.44881" lon="-8.62529">
        <ele>10.2</ele>
        <time>2019-04-17T08:00:12Z</time>
      </trkpt>
      <trkpt lat="42.44882" lon="-8.62525">
        <ele>9.1</ele>
        <time>2019-04-17T08:00:12Z</time>
      </trkpt>
      <trkpt lat="42.44884" lon="-8.62519">
        <ele>7.8</ele>
        <time>2019-04-17T08:00:12Z</time>
      </trkpt>
      <trkpt lat="42.44885" lon="-8.62514">
        <ele>6.3</ele>
        <time>2019-04-17T08:00:12Z</time>
      </trkpt>
      <trkpt lat="42.44887" lon="-8.62508">
        <ele>4.9</ele>
        <time>2019-04-17T08:00:12Z</time>
      </trkpt>
      <trkpt lat="42.44889" lon="-8.62503">
        <ele>3.7</ele>
        <time>2019-04-17T08:00:12Z</time>
      </trkpt>
      <trkpt lat="42.44891" lon="-8.62498">
        <ele>4.1</ele>
        <time>2019-04-17T08:00:12Z</time>
      </trkpt>
      <trkpt lat="42.44892" lon="-8.62492">
        <ele>4.9</ele>
        <time>2019-04-17T08:00:12Z</time>
      </trkpt>
      <trkpt lat="42.44894" lon="-8.62487">
        <ele>5.8</ele>
        <time>2019-04-17T08:00:12Z</time>
      </trkpt>
      <trkpt lat="42.44898" lon="-8.62483">
        <ele>7.9</ele>
        <time>2019-04-17T08:00:12Z</time>
      </trkpt>
      <trkpt lat="42.44899" lon="-8.62477">
        <ele>8.5</ele>
        <time>2019-04-17T08:00:12Z</time>
      </trkpt>
      <trkpt lat="42.44902" lon="-8.62472">
        <ele>9.2</ele>
        <time>2019-04-17T08:00:12Z</time>
      </trkpt>
      <trkpt lat="42.44903" lon="-8.62466">
        <ele>10.9</ele>
        <time>2019-04-17T08:00:12Z</time>
      </trkpt>
      <trkpt lat="42.44905" lon="-8.62461">
        <ele>12</ele>
        <time>2019-04-17T08:00:12Z</time>
      </trkpt>
      <trkpt lat="42.44907" lon="-8.62451">
        <ele>12.9</ele>
        <time>2019-04-17T08:00:12Z</time>
      </trkpt>
      <trkpt lat="42.44909" lon="-8.62445">
        <ele>13</ele>
        <time>2019-04-17T08:00:12Z</time>
      </trkpt>
      <trkpt lat="42.4491" lon="-8.6244">
        <ele>11.5</ele>
        <time>2019-04-17T08:00:12Z</time>
      </trkpt>
      <trkpt lat="42.44911" lon="-8.62434">
        <ele>9.7</ele>
        <time>2019-04-17T08:00:12Z</time>
      </trkpt>
      <trkpt lat="42.44913" lon="-8.62429">
        <ele>8.1</ele>
        <time>2019-04-17T08:00:12Z</time>
      </trkpt>
      <trkpt lat="42.44915" lon="-8.62424">
        <ele>6.4</ele>
        <time>2019-04-17T08:00:12Z</time>
      </trkpt>
      <trkpt lat="42.44917" lon="-8.62419">
        <ele>5</ele>
        <time>2019-04-17T08:00:12Z</time>
      </trkpt>
      <trkpt lat="42.44919" lon="-8.62413">
        <ele>5.2</ele>
        <time>2019-04-17T08:00:12Z</time>
      </trkpt>
      <trkpt lat="42.44922" lon="-8.62408">
        <ele>5.9</ele>
        <time>2019-04-17T08:00:12Z</time>
      </trkpt>
      <trkpt lat="42.44924" lon="-8.62403">
        <ele>6.6</ele>
        <time>2019-04-17T08:00:12Z</time>
      </trkpt>
      <trkpt lat="42.44926" lon="-8.62398">
        <ele>7.3</ele>
        <time>2019-04-17T08:00:12Z</time>
      </trkpt>
      <trkpt lat="42.44928" lon="-8.62395">
        <ele>8</ele>
        <time>2019-04-17T08:00:12Z</time>
      </trkpt>
      <trkpt lat="42.4493" lon="-8.62391">
        <ele>8.6</ele>
        <time>2019-04-17T08:00:12Z</time>
      </trkpt>
      <trkpt lat="42.44931" lon="-8.62387">
        <ele>9.1</ele>
        <time>2019-04-17T08:00:12Z</time>
      </trkpt>
      <trkpt lat="42.44932" lon="-8.62384">
        <ele>9.3</ele>
        <time>2019-04-17T08:00:12Z</time>
      </trkpt>
      <trkpt lat="42.44934" lon="-8.62382">
        <ele>9.6</ele>
        <time>2019-04-17T08:00:12Z</time>
      </trkpt>
      <trkpt lat="42.44935" lon="-8.6238">
        <ele>9.5</ele>
        <time>2019-04-17T08:00:12Z</time>
      </trkpt>
      <trkpt lat="42.44935" lon="-8.62378">
        <ele>9.3</ele>
        <time>2019-04-17T08:00:12Z</time>
      </trkpt>
      <trkpt lat="42.44935" lon="-8.62378">
        <ele>9.3</ele>
        <time>2019-04-17T08:00:12Z</time>
      </trkpt>
      <trkpt lat="42.44935" lon="-8.62378">
        <ele>9.3</ele>
        <time>2019-04-17T08:00:12Z</time>
      </trkpt>
      <trkpt lat="42.44935" lon="-8.62377">
        <ele>9.2</ele>
        <time>2019-04-17T08:00:12Z</time>
      </trkpt>
      <trkpt lat="42.44939" lon="-8.62373">
        <ele>9.2</ele>
        <time>2019-04-17T08:00:12Z</time>
      </trkpt>
      <trkpt lat="42.4494" lon="-8.62372">
        <ele>9.2</ele>
        <time>2019-04-17T08:00:12Z</time>
      </trkpt>
      <trkpt lat="42.4494" lon="-8.62371">
        <ele>9.1</ele>
        <time>2019-04-17T08:00:12Z</time>
      </trkpt>
      <trkpt lat="42.44941" lon="-8.62371">
        <ele>9.1</ele>
        <time>2019-04-17T08:00:12Z</time>
      </trkpt>
      <trkpt lat="42.44941" lon="-8.6237">
        <ele>9.1</ele>
        <time>2019-04-17T08:00:12Z</time>
      </trkpt>
      <trkpt lat="42.44942" lon="-8.6237">
        <ele>9.1</ele>
        <time>2019-04-17T08:00:12Z</time>
      </trkpt>
      <trkpt lat="42.44943" lon="-8.6237">
        <ele>9.3</ele>
        <time>2019-04-17T08:00:12Z</time>
      </trkpt>
      <trkpt lat="42.44943" lon="-8.62371">
        <ele>9.4</ele>
        <time>2019-04-17T08:00:12Z</time>
      </trkpt>
      <trkpt lat="42.44943" lon="-8.62371">
        <ele>9.5</ele>
        <time>2019-04-17T08:00:12Z</time>
      </trkpt>
      <trkpt lat="42.44943" lon="-8.62371">
        <ele>9.5</ele>
        <time>2019-04-17T08:00:12Z</time>
      </trkpt>
      <trkpt lat="42.44944" lon="-8.62371">
        <ele>9.6</ele>
        <time>2019-04-17T08:00:12Z</time>
      </trkpt>
      <trkpt lat="42.44945" lon="-8.62371">
        <ele>9.8</ele>
        <time>2019-04-17T08:00:12Z</time>
      </trkpt>
      <trkpt lat="42.44946" lon="-8.62371">
        <ele>9.9</ele>
        <time>2019-04-17T08:00:12Z</time>
      </trkpt>
      <trkpt lat="42.44946" lon="-8.6237">
        <ele>9.9</ele>
        <time>2019-04-17T08:00:12Z</time>
      </trkpt>
      <trkpt lat="42.44949" lon="-8.6237">
        <ele>10.2</ele>
        <time>2019-04-17T08:00:12Z</time>
      </trkpt>
      <trkpt lat="42.44949" lon="-8.6237">
        <ele>10.4</ele>
        <time>2019-04-17T08:00:12Z</time>
      </trkpt>
      <trkpt lat="42.4495" lon="-8.6237">
        <ele>10.6</ele>
        <time>2019-04-17T08:00:12Z</time>
      </trkpt>
      <trkpt lat="42.44951" lon="-8.62369">
        <ele>10.7</ele>
        <time>2019-04-17T08:00:12Z</time>
      </trkpt>
      <trkpt lat="42.44952" lon="-8.62369">
        <ele>10.7</ele>
        <time>2019-04-17T08:00:12Z</time>
      </trkpt>
      <trkpt lat="42.44952" lon="-8.62368">
        <ele>10.7</ele>
        <time>2019-04-17T08:00:12Z</time>
      </trkpt>
      <trkpt lat="42.44953" lon="-8.62367">
        <ele>10.6</ele>
        <time>2019-04-17T08:00:12Z</time>
      </trkpt>
      <trkpt lat="42.4498" lon="-8.62386">
        <ele>19.1</ele>
        <time>2019-04-17T08:00:12Z</time>
      </trkpt>
      <trkpt lat="42.45007" lon="-8.62402">
        <ele>27</ele>
        <time>2019-04-17T08:00:12Z</time>
      </trkpt>
      <trkpt lat="42.45028" lon="-8.62411">
        <ele>34.5</ele>
        <time>2019-04-17T08:00:12Z</time>
      </trkpt>
      <trkpt lat="42.45051" lon="-8.6244">
        <ele>42.4</ele>
        <time>2019-04-17T08:00:12Z</time>
      </trkpt>
      <trkpt lat="42.45056" lon="-8.62464">
        <ele>42.7</ele>
        <time>2019-04-17T08:00:12Z</time>
      </trkpt>
      <trkpt lat="42.45081" lon="-8.62486">
        <ele>45.6</ele>
        <time>2019-04-17T08:00:12Z</time>
      </trkpt>
      <trkpt lat="42.45138" lon="-8.62415">
        <ele>50.8</ele>
        <time>2019-04-17T08:00:12Z</time>
      </trkpt>
      <trkpt lat="42.45146" lon="-8.62412">
        <ele>51.3</ele>
        <time>2019-04-17T08:00:12Z</time>
      </trkpt>
      <trkpt lat="42.45153" lon="-8.62409">
        <ele>51.7</ele>
        <time>2019-04-17T08:00:12Z</time>
      </trkpt>
      <trkpt lat="42.45171" lon="-8.62415">
        <ele>53.4</ele>
        <time>2019-04-17T08:00:12Z</time>
      </trkpt>
      <trkpt lat="42.45192" lon="-8.62422">
        <ele>52.5</ele>
        <time>2019-04-17T08:00:12Z</time>
      </trkpt>
      <trkpt lat="42.45226" lon="-8.62433">
        <ele>53.1</ele>
        <time>2019-04-17T08:00:12Z</time>
      </trkpt>
      <trkpt lat="42.4527" lon="-8.62445">
        <ele>56.1</ele>
        <time>2019-04-17T08:00:12Z</time>
      </trkpt>
      <trkpt lat="42.453" lon="-8.62451">
        <ele>60</ele>
        <time>2019-04-17T08:00:12Z</time>
      </trkpt>
      <trkpt lat="42.45338" lon="-8.62474">
        <ele>60.9</ele>
        <time>2019-04-17T08:00:12Z</time>
      </trkpt>
      <trkpt lat="42.45345" lon="-8.62472">
        <ele>61</ele>
        <time>2019-04-17T08:00:12Z</time>
      </trkpt>
      <trkpt lat="42.45351" lon="-8.62466">
        <ele>61.4</ele>
        <time>2019-04-17T08:00:12Z</time>
      </trkpt>
      <trkpt lat="42.45384" lon="-8.62435">
        <ele>64</ele>
        <time>2019-04-17T08:00:12Z</time>
      </trkpt>
      <trkpt lat="42.45399" lon="-8.62421">
        <ele>64.2</ele>
        <time>2019-04-17T08:00:12Z</time>
      </trkpt>
      <trkpt lat="42.45412" lon="-8.62413">
        <ele>63.9</ele>
        <time>2019-04-17T08:00:12Z</time>
      </trkpt>
      <trkpt lat="42.45416" lon="-8.6241">
        <ele>63.8</ele>
        <time>2019-04-17T08:00:12Z</time>
      </trkpt>
      <trkpt lat="42.45427" lon="-8.6241">
        <ele>66.4</ele>
        <time>2019-04-17T08:00:12Z</time>
      </trkpt>
      <trkpt lat="42.45434" lon="-8.62416">
        <ele>68.9</ele>
        <time>2019-04-17T08:00:12Z</time>
      </trkpt>
      <trkpt lat="42.45445" lon="-8.62428">
        <ele>71.6</ele>
        <time>2019-04-17T08:00:12Z</time>
      </trkpt>
      <trkpt lat="42.45448" lon="-8.62432">
        <ele>71.5</ele>
        <time>2019-04-17T08:00:12Z</time>
      </trkpt>
      <trkpt lat="42.4545" lon="-8.62432">
        <ele>71.6</ele>
        <time>2019-04-17T08:00:12Z</time>
      </trkpt>
      <trkpt lat="42.45451" lon="-8.62433">
        <ele>71.6</ele>
        <time>2019-04-17T08:00:12Z</time>
      </trkpt>
      <trkpt lat="42.45452" lon="-8.62433">
        <ele>71.7</ele>
        <time>2019-04-17T08:00:12Z</time>
      </trkpt>
      <trkpt lat="42.45454" lon="-8.62432">
        <ele>71.8</ele>
        <time>2019-04-17T08:00:12Z</time>
      </trkpt>
      <trkpt lat="42.45456" lon="-8.62431">
        <ele>71.9</ele>
        <time>2019-04-17T08:00:12Z</time>
      </trkpt>
      <trkpt lat="42.45458" lon="-8.6243">
        <ele>72</ele>
        <time>2019-04-17T08:00:12Z</time>
      </trkpt>
      <trkpt lat="42.45461" lon="-8.62429">
        <ele>72.2</ele>
        <time>2019-04-17T08:00:12Z</time>
      </trkpt>
      <trkpt lat="42.45463" lon="-8.62427">
        <ele>72.5</ele>
        <time>2019-04-17T08:00:12Z</time>
      </trkpt>
      <trkpt lat="42.45464" lon="-8.62425">
        <ele>72.7</ele>
        <time>2019-04-17T08:00:12Z</time>
      </trkpt>
      <trkpt lat="42.45466" lon="-8.62424">
        <ele>72.9</ele>
        <time>2019-04-17T08:00:12Z</time>
      </trkpt>
      <trkpt lat="42.45467" lon="-8.62422">
        <ele>73.1</ele>
        <time>2019-04-17T08:00:12Z</time>
      </trkpt>
      <trkpt lat="42.45468" lon="-8.62421">
        <ele>73.3</ele>
        <time>2019-04-17T08:00:12Z</time>
      </trkpt>
      <trkpt lat="42.4547" lon="-8.62419">
        <ele>73.6</ele>
        <time>2019-04-17T08:00:12Z</time>
      </trkpt>
      <trkpt lat="42.45471" lon="-8.62417">
        <ele>73.8</ele>
        <time>2019-04-17T08:00:12Z</time>
      </trkpt>
      <trkpt lat="42.45472" lon="-8.62415">
        <ele>74</ele>
        <time>2019-04-17T08:00:12Z</time>
      </trkpt>
      <trkpt lat="42.45473" lon="-8.62414">
        <ele>74.1</ele>
        <time>2019-04-17T08:00:12Z</time>
      </trkpt>
      <trkpt lat="42.45474" lon="-8.62412">
        <ele>74.2</ele>
        <time>2019-04-17T08:00:12Z</time>
      </trkpt>
      <trkpt lat="42.45475" lon="-8.6241">
        <ele>74.2</ele>
        <time>2019-04-17T08:00:12Z</time>
      </trkpt>
      <trkpt lat="42.45476" lon="-8.62408">
        <ele>74.3</ele>
        <time>2019-04-17T08:00:12Z</time>
      </trkpt>
      <trkpt lat="42.45477" lon="-8.62406">
        <ele>74.4</ele>
        <time>2019-04-17T08:00:12Z</time>
      </trkpt>
      <trkpt lat="42.45478" lon="-8.62404">
        <ele>74.5</ele>
        <time>2019-04-17T08:00:12Z</time>
      </trkpt>
      <trkpt lat="42.45479" lon="-8.62402">
        <ele>74.5</ele>
        <time>2019-04-17T08:00:12Z</time>
      </trkpt>
      <trkpt lat="42.4548" lon="-8.62399">
        <ele>74.6</ele>
        <time>2019-04-17T08:00:12Z</time>
      </trkpt>
      <trkpt lat="42.45481" lon="-8.62396">
        <ele>74.8</ele>
        <time>2019-04-17T08:00:12Z</time>
      </trkpt>
      <trkpt lat="42.45483" lon="-8.62393">
        <ele>74.9</ele>
        <time>2019-04-17T08:00:12Z</time>
      </trkpt>
      <trkpt lat="42.45485" lon="-8.6239">
        <ele>75</ele>
        <time>2019-04-17T08:00:12Z</time>
      </trkpt>
      <trkpt lat="42.45487" lon="-8.62388">
        <ele>74.8</ele>
        <time>2019-04-17T08:00:12Z</time>
      </trkpt>
      <trkpt lat="42.4549" lon="-8.62386">
        <ele>74.6</ele>
        <time>2019-04-17T08:00:12Z</time>
      </trkpt>
      <trkpt lat="42.45493" lon="-8.62385">
        <ele>74.5</ele>
        <time>2019-04-17T08:00:12Z</time>
      </trkpt>
      <trkpt lat="42.45495" lon="-8.62384">
        <ele>74.4</ele>
        <time>2019-04-17T08:00:12Z</time>
      </trkpt>
      <trkpt lat="42.45498" lon="-8.62383">
        <ele>74.3</ele>
        <time>2019-04-17T08:00:12Z</time>
      </trkpt>
      <trkpt lat="42.45501" lon="-8.62382">
        <ele>74.4</ele>
        <time>2019-04-17T08:00:12Z</time>
      </trkpt>
      <trkpt lat="42.45504" lon="-8.62381">
        <ele>74.7</ele>
        <time>2019-04-17T08:00:12Z</time>
      </trkpt>
      <trkpt lat="42.45506" lon="-8.6238">
        <ele>74.9</ele>
        <time>2019-04-17T08:00:12Z</time>
      </trkpt>
      <trkpt lat="42.45509" lon="-8.62378">
        <ele>75.1</ele>
        <time>2019-04-17T08:00:12Z</time>
      </trkpt>
      <trkpt lat="42.45511" lon="-8.62377">
        <ele>75.3</ele>
        <time>2019-04-17T08:00:12Z</time>
      </trkpt>
      <trkpt lat="42.45513" lon="-8.62376">
        <ele>75.5</ele>
        <time>2019-04-17T08:00:12Z</time>
      </trkpt>
      <trkpt lat="42.45516" lon="-8.62375">
        <ele>75.7</ele>
        <time>2019-04-17T08:00:12Z</time>
      </trkpt>
      <trkpt lat="42.45517" lon="-8.62375">
        <ele>75.9</ele>
        <time>2019-04-17T08:00:12Z</time>
      </trkpt>
      <trkpt lat="42.4552" lon="-8.62374">
        <ele>76.3</ele>
        <time>2019-04-17T08:00:12Z</time>
      </trkpt>
      <trkpt lat="42.45523" lon="-8.62372">
        <ele>76.5</ele>
        <time>2019-04-17T08:00:12Z</time>
      </trkpt>
      <trkpt lat="42.45528" lon="-8.62371">
        <ele>77.1</ele>
        <time>2019-04-17T08:00:12Z</time>
      </trkpt>
      <trkpt lat="42.45533" lon="-8.6237">
        <ele>77.9</ele>
        <time>2019-04-17T08:00:12Z</time>
      </trkpt>
      <trkpt lat="42.45537" lon="-8.62371">
        <ele>78.5</ele>
        <time>2019-04-17T08:00:12Z</time>
      </trkpt>
      <trkpt lat="42.45541" lon="-8.62371">
        <ele>79.3</ele>
        <time>2019-04-17T08:00:12Z</time>
      </trkpt>
      <trkpt lat="42.45555" lon="-8.62376">
        <ele>82.1</ele>
        <time>2019-04-17T08:00:12Z</time>
      </trkpt>
      <trkpt lat="42.45567" lon="-8.62378">
        <ele>83.7</ele>
        <time>2019-04-17T08:00:12Z</time>
      </trkpt>
      <trkpt lat="42.45574" lon="-8.62379">
        <ele>84.6</ele>
        <time>2019-04-17T08:00:12Z</time>
      </trkpt>
      <trkpt lat="42.45584" lon="-8.62385">
        <ele>86.5</ele>
        <time>2019-04-17T08:00:12Z</time>
      </trkpt>
      <trkpt lat="42.45589" lon="-8.62389">
        <ele>87.3</ele>
        <time>2019-04-17T08:00:12Z</time>
      </trkpt>
      <trkpt lat="42.45592" lon="-8.62393">
        <ele>87.3</ele>
        <time>2019-04-17T08:00:12Z</time>
      </trkpt>
      <trkpt lat="42.45594" lon="-8.62396">
        <ele>87.3</ele>
        <time>2019-04-17T08:00:12Z</time>
      </trkpt>
      <trkpt lat="42.45596" lon="-8.62398">
        <ele>87.3</ele>
        <time>2019-04-17T08:00:12Z</time>
      </trkpt>
      <trkpt lat="42.45598" lon="-8.62401">
        <ele>87.2</ele>
        <time>2019-04-17T08:00:12Z</time>
      </trkpt>
      <trkpt lat="42.45601" lon="-8.62403">
        <ele>87.2</ele>
        <time>2019-04-17T08:00:12Z</time>
      </trkpt>
      <trkpt lat="42.45604" lon="-8.62407">
        <ele>87.2</ele>
        <time>2019-04-17T08:00:12Z</time>
      </trkpt>
      <trkpt lat="42.45607" lon="-8.62411">
        <ele>87.1</ele>
        <time>2019-04-17T08:00:12Z</time>
      </trkpt>
      <trkpt lat="42.4561" lon="-8.62416">
        <ele>87</ele>
        <time>2019-04-17T08:00:12Z</time>
      </trkpt>
      <trkpt lat="42.45613" lon="-8.6242">
        <ele>86.8</ele>
        <time>2019-04-17T08:00:12Z</time>
      </trkpt>
      <trkpt lat="42.4562" lon="-8.6243">
        <ele>86.2</ele>
        <time>2019-04-17T08:00:12Z</time>
      </trkpt>
      <trkpt lat="42.45622" lon="-8.62434">
        <ele>86</ele>
        <time>2019-04-17T08:00:12Z</time>
      </trkpt>
      <trkpt lat="42.45624" lon="-8.62437">
        <ele>85.9</ele>
        <time>2019-04-17T08:00:12Z</time>
      </trkpt>
      <trkpt lat="42.45626" lon="-8.62441">
        <ele>85.7</ele>
        <time>2019-04-17T08:00:12Z</time>
      </trkpt>
      <trkpt lat="42.45628" lon="-8.62445">
        <ele>85.5</ele>
        <time>2019-04-17T08:00:12Z</time>
      </trkpt>
      <trkpt lat="42.45629" lon="-8.6245">
        <ele>85</ele>
        <time>2019-04-17T08:00:12Z</time>
      </trkpt>
      <trkpt lat="42.45631" lon="-8.62454">
        <ele>84.5</ele>
        <time>2019-04-17T08:00:12Z</time>
      </trkpt>
      <trkpt lat="42.45634" lon="-8.62456">
        <ele>84.2</ele>
        <time>2019-04-17T08:00:12Z</time>
      </trkpt>
      <trkpt lat="42.45638" lon="-8.62461">
        <ele>83.6</ele>
        <time>2019-04-17T08:00:12Z</time>
      </trkpt>
      <trkpt lat="42.45642" lon="-8.6246">
        <ele>83.3</ele>
        <time>2019-04-17T08:00:12Z</time>
      </trkpt>
      <trkpt lat="42.45645" lon="-8.62458">
        <ele>83.1</ele>
        <time>2019-04-17T08:00:12Z</time>
      </trkpt>
      <trkpt lat="42.45649" lon="-8.62456">
        <ele>82.8</ele>
        <time>2019-04-17T08:00:12Z</time>
      </trkpt>
      <trkpt lat="42.45652" lon="-8.6245">
        <ele>83.1</ele>
        <time>2019-04-17T08:00:12Z</time>
      </trkpt>
      <trkpt lat="42.45654" lon="-8.62446">
        <ele>83.1</ele>
        <time>2019-04-17T08:00:12Z</time>
      </trkpt>
      <trkpt lat="42.45657" lon="-8.62442">
        <ele>82.9</ele>
        <time>2019-04-17T08:00:12Z</time>
      </trkpt>
      <trkpt lat="42.45659" lon="-8.62438">
        <ele>82.7</ele>
        <time>2019-04-17T08:00:12Z</time>
      </trkpt>
      <trkpt lat="42.45662" lon="-8.62433">
        <ele>82.4</ele>
        <time>2019-04-17T08:00:12Z</time>
      </trkpt>
      <trkpt lat="42.45665" lon="-8.62428">
        <ele>81.9</ele>
        <time>2019-04-17T08:00:12Z</time>
      </trkpt>
      <trkpt lat="42.45669" lon="-8.62423">
        <ele>81.7</ele>
        <time>2019-04-17T08:00:12Z</time>
      </trkpt>
      <trkpt lat="42.45673" lon="-8.62419">
        <ele>81.9</ele>
        <time>2019-04-17T08:00:12Z</time>
      </trkpt>
      <trkpt lat="42.45678" lon="-8.62416">
        <ele>82</ele>
        <time>2019-04-17T08:00:12Z</time>
      </trkpt>
      <trkpt lat="42.45683" lon="-8.62413">
        <ele>82.1</ele>
        <time>2019-04-17T08:00:12Z</time>
      </trkpt>
      <trkpt lat="42.45687" lon="-8.62411">
        <ele>82.3</ele>
        <time>2019-04-17T08:00:12Z</time>
      </trkpt>
      <trkpt lat="42.45691" lon="-8.62409">
        <ele>82.5</ele>
        <time>2019-04-17T08:00:12Z</time>
      </trkpt>
      <trkpt lat="42.45695" lon="-8.62407">
        <ele>82.7</ele>
        <time>2019-04-17T08:00:12Z</time>
      </trkpt>
      <trkpt lat="42.45698" lon="-8.62405">
        <ele>82.9</ele>
        <time>2019-04-17T08:00:12Z</time>
      </trkpt>
      <trkpt lat="42.45701" lon="-8.62403">
        <ele>83.1</ele>
        <time>2019-04-17T08:00:12Z</time>
      </trkpt>
      <trkpt lat="42.45704" lon="-8.62402">
        <ele>83.2</ele>
        <time>2019-04-17T08:00:12Z</time>
      </trkpt>
      <trkpt lat="42.45706" lon="-8.62401">
        <ele>83.4</ele>
        <time>2019-04-17T08:00:12Z</time>
      </trkpt>
      <trkpt lat="42.45709" lon="-8.624">
        <ele>83.5</ele>
        <time>2019-04-17T08:00:12Z</time>
      </trkpt>
      <trkpt lat="42.45711" lon="-8.62398">
        <ele>83.7</ele>
        <time>2019-04-17T08:00:12Z</time>
      </trkpt>
      <trkpt lat="42.45713" lon="-8.62397">
        <ele>83.9</ele>
        <time>2019-04-17T08:00:12Z</time>
      </trkpt>
      <trkpt lat="42.45715" lon="-8.62395">
        <ele>84.1</ele>
        <time>2019-04-17T08:00:12Z</time>
      </trkpt>
      <trkpt lat="42.45717" lon="-8.62394">
        <ele>84.3</ele>
        <time>2019-04-17T08:00:12Z</time>
      </trkpt>
      <trkpt lat="42.45719" lon="-8.62392">
        <ele>84.5</ele>
        <time>2019-04-17T08:00:12Z</time>
      </trkpt>
      <trkpt lat="42.45721" lon="-8.62391">
        <ele>84.8</ele>
        <time>2019-04-17T08:00:12Z</time>
      </trkpt>
      <trkpt lat="42.45723" lon="-8.62389">
        <ele>85</ele>
        <time>2019-04-17T08:00:12Z</time>
      </trkpt>
      <trkpt lat="42.45725" lon="-8.62388">
        <ele>85.2</ele>
        <time>2019-04-17T08:00:12Z</time>
      </trkpt>
      <trkpt lat="42.45727" lon="-8.62386">
        <ele>85.4</ele>
        <time>2019-04-17T08:00:12Z</time>
      </trkpt>
      <trkpt lat="42.45728" lon="-8.62384">
        <ele>85.6</ele>
        <time>2019-04-17T08:00:12Z</time>
      </trkpt>
      <trkpt lat="42.4573" lon="-8.62382">
        <ele>85.8</ele>
        <time>2019-04-17T08:00:12Z</time>
      </trkpt>
      <trkpt lat="42.45732" lon="-8.62381">
        <ele>86</ele>
        <time>2019-04-17T08:00:12Z</time>
      </trkpt>
      <trkpt lat="42.45733" lon="-8.62379">
        <ele>86.2</ele>
        <time>2019-04-17T08:00:12Z</time>
      </trkpt>
      <trkpt lat="42.45735" lon="-8.62378">
        <ele>86.5</ele>
        <time>2019-04-17T08:00:12Z</time>
      </trkpt>
      <trkpt lat="42.45736" lon="-8.62376">
        <ele>86.7</ele>
        <time>2019-04-17T08:00:12Z</time>
      </trkpt>
      <trkpt lat="42.45738" lon="-8.62374">
        <ele>87</ele>
        <time>2019-04-17T08:00:12Z</time>
      </trkpt>
      <trkpt lat="42.4574" lon="-8.62373">
        <ele>87.3</ele>
        <time>2019-04-17T08:00:12Z</time>
      </trkpt>
      <trkpt lat="42.45742" lon="-8.62371">
        <ele>87.7</ele>
        <time>2019-04-17T08:00:12Z</time>
      </trkpt>
      <trkpt lat="42.45743" lon="-8.6237">
        <ele>88.1</ele>
        <time>2019-04-17T08:00:12Z</time>
      </trkpt>
      <trkpt lat="42.45745" lon="-8.62368">
        <ele>88.5</ele>
        <time>2019-04-17T08:00:12Z</time>
      </trkpt>
      <trkpt lat="42.45747" lon="-8.62366">
        <ele>88.9</ele>
        <time>2019-04-17T08:00:12Z</time>
      </trkpt>
      <trkpt lat="42.45748" lon="-8.62364">
        <ele>89.4</ele>
        <time>2019-04-17T08:00:12Z</time>
      </trkpt>
      <trkpt lat="42.4575" lon="-8.62362">
        <ele>89.8</ele>
        <time>2019-04-17T08:00:12Z</time>
      </trkpt>
      <trkpt lat="42.45751" lon="-8.62361">
        <ele>90.1</ele>
        <time>2019-04-17T08:00:12Z</time>
      </trkpt>
      <trkpt lat="42.45752" lon="-8.62359">
        <ele>90.3</ele>
        <time>2019-04-17T08:00:12Z</time>
      </trkpt>
      <trkpt lat="42.45753" lon="-8.62358">
        <ele>90.5</ele>
        <time>2019-04-17T08:00:12Z</time>
      </trkpt>
      <trkpt lat="42.45754" lon="-8.62357">
        <ele>90.6</ele>
        <time>2019-04-17T08:00:12Z</time>
      </trkpt>
      <trkpt lat="42.45755" lon="-8.62356">
        <ele>90.8</ele>
        <time>2019-04-17T08:00:12Z</time>
      </trkpt>
      <trkpt lat="42.45756" lon="-8.62355">
        <ele>91</ele>
        <time>2019-04-17T08:00:12Z</time>
      </trkpt>
      <trkpt lat="42.45756" lon="-8.62353">
        <ele>91.1</ele>
        <time>2019-04-17T08:00:12Z</time>
      </trkpt>
      <trkpt lat="42.45757" lon="-8.62352">
        <ele>91.4</ele>
        <time>2019-04-17T08:00:12Z</time>
      </trkpt>
      <trkpt lat="42.45758" lon="-8.62351">
        <ele>91.6</ele>
        <time>2019-04-17T08:00:12Z</time>
      </trkpt>
      <trkpt lat="42.4576" lon="-8.62349">
        <ele>91.9</ele>
        <time>2019-04-17T08:00:12Z</time>
      </trkpt>
      <trkpt lat="42.45761" lon="-8.62348">
        <ele>92.1</ele>
        <time>2019-04-17T08:00:12Z</time>
      </trkpt>
      <trkpt lat="42.45762" lon="-8.62347">
        <ele>92.4</ele>
        <time>2019-04-17T08:00:12Z</time>
      </trkpt>
      <trkpt lat="42.45764" lon="-8.62346">
        <ele>92.6</ele>
        <time>2019-04-17T08:00:12Z</time>
      </trkpt>
      <trkpt lat="42.45766" lon="-8.62345">
        <ele>92.9</ele>
        <time>2019-04-17T08:00:12Z</time>
      </trkpt>
      <trkpt lat="42.45767" lon="-8.62344">
        <ele>93.2</ele>
        <time>2019-04-17T08:00:12Z</time>
      </trkpt>
      <trkpt lat="42.45769" lon="-8.62343">
        <ele>93.5</ele>
        <time>2019-04-17T08:00:12Z</time>
      </trkpt>
      <trkpt lat="42.45771" lon="-8.62343">
        <ele>93.8</ele>
        <time>2019-04-17T08:00:12Z</time>
      </trkpt>
      <trkpt lat="42.45772" lon="-8.62342">
        <ele>94.1</ele>
        <time>2019-04-17T08:00:12Z</time>
      </trkpt>
      <trkpt lat="42.45774" lon="-8.62342">
        <ele>94.3</ele>
        <time>2019-04-17T08:00:12Z</time>
      </trkpt>
      <trkpt lat="42.45776" lon="-8.62341">
        <ele>94.6</ele>
        <time>2019-04-17T08:00:12Z</time>
      </trkpt>
      <trkpt lat="42.45777" lon="-8.62341">
        <ele>94.9</ele>
        <time>2019-04-17T08:00:12Z</time>
      </trkpt>
      <trkpt lat="42.45779" lon="-8.6234">
        <ele>95.3</ele>
        <time>2019-04-17T08:00:12Z</time>
      </trkpt>
      <trkpt lat="42.45781" lon="-8.6234">
        <ele>95.6</ele>
        <time>2019-04-17T08:00:12Z</time>
      </trkpt>
      <trkpt lat="42.45783" lon="-8.6234">
        <ele>95.8</ele>
        <time>2019-04-17T08:00:12Z</time>
      </trkpt>
      <trkpt lat="42.45785" lon="-8.62341">
        <ele>96.1</ele>
        <time>2019-04-17T08:00:12Z</time>
      </trkpt>
      <trkpt lat="42.45786" lon="-8.62341">
        <ele>96.4</ele>
        <time>2019-04-17T08:00:12Z</time>
      </trkpt>
      <trkpt lat="42.45788" lon="-8.62342">
        <ele>96.6</ele>
        <time>2019-04-17T08:00:12Z</time>
      </trkpt>
      <trkpt lat="42.4579" lon="-8.62342">
        <ele>96.9</ele>
        <time>2019-04-17T08:00:12Z</time>
      </trkpt>
      <trkpt lat="42.45792" lon="-8.62343">
        <ele>97.1</ele>
        <time>2019-04-17T08:00:12Z</time>
      </trkpt>
      <trkpt lat="42.45794" lon="-8.62344">
        <ele>97.4</ele>
        <time>2019-04-17T08:00:12Z</time>
      </trkpt>
      <trkpt lat="42.45795" lon="-8.62345">
        <ele>97.6</ele>
        <time>2019-04-17T08:00:12Z</time>
      </trkpt>
      <trkpt lat="42.45797" lon="-8.62346">
        <ele>97.8</ele>
        <time>2019-04-17T08:00:12Z</time>
      </trkpt>
      <trkpt lat="42.45798" lon="-8.62348">
        <ele>98</ele>
        <time>2019-04-17T08:00:12Z</time>
      </trkpt>
      <trkpt lat="42.458" lon="-8.62349">
        <ele>98.2</ele>
        <time>2019-04-17T08:00:12Z</time>
      </trkpt>
      <trkpt lat="42.45801" lon="-8.62351">
        <ele>98.4</ele>
        <time>2019-04-17T08:00:12Z</time>
      </trkpt>
      <trkpt lat="42.45802" lon="-8.62353">
        <ele>98.5</ele>
        <time>2019-04-17T08:00:12Z</time>
      </trkpt>
      <trkpt lat="42.45803" lon="-8.62355">
        <ele>98.7</ele>
        <time>2019-04-17T08:00:12Z</time>
      </trkpt>
      <trkpt lat="42.45805" lon="-8.62357">
        <ele>99</ele>
        <time>2019-04-17T08:00:12Z</time>
      </trkpt>
      <trkpt lat="42.45806" lon="-8.62359">
        <ele>99.3</ele>
        <time>2019-04-17T08:00:12Z</time>
      </trkpt>
      <trkpt lat="42.45808" lon="-8.62361">
        <ele>99.7</ele>
        <time>2019-04-17T08:00:12Z</time>
      </trkpt>
      <trkpt lat="42.45809" lon="-8.62363">
        <ele>100</ele>
        <time>2019-04-17T08:00:12Z</time>
      </trkpt>
      <trkpt lat="42.45811" lon="-8.62365">
        <ele>100.2</ele>
        <time>2019-04-17T08:00:12Z</time>
      </trkpt>
      <trkpt lat="42.45812" lon="-8.62367">
        <ele>100.4</ele>
        <time>2019-04-17T08:00:12Z</time>
      </trkpt>
      <trkpt lat="42.45814" lon="-8.62369">
        <ele>100.7</ele>
        <time>2019-04-17T08:00:12Z</time>
      </trkpt>
      <trkpt lat="42.45815" lon="-8.62371">
        <ele>100.9</ele>
        <time>2019-04-17T08:00:12Z</time>
      </trkpt>
      <trkpt lat="42.45817" lon="-8.62372">
        <ele>101.2</ele>
        <time>2019-04-17T08:00:12Z</time>
      </trkpt>
      <trkpt lat="42.45818" lon="-8.62373">
        <ele>101.5</ele>
        <time>2019-04-17T08:00:12Z</time>
      </trkpt>
      <trkpt lat="42.4582" lon="-8.62374">
        <ele>102</ele>
        <time>2019-04-17T08:00:12Z</time>
      </trkpt>
      <trkpt lat="42.45821" lon="-8.62373">
        <ele>102.5</ele>
        <time>2019-04-17T08:00:12Z</time>
      </trkpt>
      <trkpt lat="42.45823" lon="-8.62371">
        <ele>102.9</ele>
        <time>2019-04-17T08:00:12Z</time>
      </trkpt>
      <trkpt lat="42.45823" lon="-8.62369">
        <ele>103.3</ele>
        <time>2019-04-17T08:00:12Z</time>
      </trkpt>
      <trkpt lat="42.45824" lon="-8.62367">
        <ele>103.6</ele>
        <time>2019-04-17T08:00:12Z</time>
      </trkpt>
      <trkpt lat="42.45824" lon="-8.62366">
        <ele>104</ele>
        <time>2019-04-17T08:00:12Z</time>
      </trkpt>
      <trkpt lat="42.45825" lon="-8.62364">
        <ele>104.3</ele>
        <time>2019-04-17T08:00:12Z</time>
      </trkpt>
      <trkpt lat="42.45825" lon="-8.62362">
        <ele>104.5</ele>
        <time>2019-04-17T08:00:12Z</time>
      </trkpt>
      <trkpt lat="42.45825" lon="-8.6236">
        <ele>104.7</ele>
        <time>2019-04-17T08:00:12Z</time>
      </trkpt>
      <trkpt lat="42.45826" lon="-8.62358">
        <ele>104.7</ele>
        <time>2019-04-17T08:00:12Z</time>
      </trkpt>
      <trkpt lat="42.45826" lon="-8.62357">
        <ele>104.9</ele>
        <time>2019-04-17T08:00:12Z</time>
      </trkpt>
      <trkpt lat="42.45827" lon="-8.62355">
        <ele>104.9</ele>
        <time>2019-04-17T08:00:12Z</time>
      </trkpt>
      <trkpt lat="42.45827" lon="-8.62353">
        <ele>105</ele>
        <time>2019-04-17T08:00:12Z</time>
      </trkpt>
      <trkpt lat="42.45828" lon="-8.62351">
        <ele>105.2</ele>
        <time>2019-04-17T08:00:12Z</time>
      </trkpt>
      <trkpt lat="42.45829" lon="-8.62349">
        <ele>105.3</ele>
        <time>2019-04-17T08:00:12Z</time>
      </trkpt>
      <trkpt lat="42.45829" lon="-8.62347">
        <ele>105.5</ele>
        <time>2019-04-17T08:00:12Z</time>
      </trkpt>
      <trkpt lat="42.4583" lon="-8.62346">
        <ele>105.5</ele>
        <time>2019-04-17T08:00:12Z</time>
      </trkpt>
      <trkpt lat="42.4583" lon="-8.62344">
        <ele>105.6</ele>
        <time>2019-04-17T08:00:12Z</time>
      </trkpt>
      <trkpt lat="42.45831" lon="-8.62342">
        <ele>105.8</ele>
        <time>2019-04-17T08:00:12Z</time>
      </trkpt>
      <trkpt lat="42.45832" lon="-8.62341">
        <ele>106</ele>
        <time>2019-04-17T08:00:12Z</time>
      </trkpt>
      <trkpt lat="42.45833" lon="-8.62339">
        <ele>106.1</ele>
        <time>2019-04-17T08:00:12Z</time>
      </trkpt>
      <trkpt lat="42.45834" lon="-8.62338">
        <ele>106.2</ele>
        <time>2019-04-17T08:00:12Z</time>
      </trkpt>
      <trkpt lat="42.45835" lon="-8.62336">
        <ele>106.4</ele>
        <time>2019-04-17T08:00:12Z</time>
      </trkpt>
      <trkpt lat="42.45836" lon="-8.62335">
        <ele>106.6</ele>
        <time>2019-04-17T08:00:12Z</time>
      </trkpt>
      <trkpt lat="42.45837" lon="-8.62334">
        <ele>106.7</ele>
        <time>2019-04-17T08:00:12Z</time>
      </trkpt>
      <trkpt lat="42.45838" lon="-8.62333">
        <ele>106.9</ele>
        <time>2019-04-17T08:00:12Z</time>
      </trkpt>
      <trkpt lat="42.45839" lon="-8.62331">
        <ele>107</ele>
        <time>2019-04-17T08:00:12Z</time>
      </trkpt>
      <trkpt lat="42.4584" lon="-8.6233">
        <ele>107.1</ele>
        <time>2019-04-17T08:00:12Z</time>
      </trkpt>
      <trkpt lat="42.45841" lon="-8.62329">
        <ele>107.3</ele>
        <time>2019-04-17T08:00:12Z</time>
      </trkpt>
      <trkpt lat="42.45842" lon="-8.62328">
        <ele>107.6</ele>
        <time>2019-04-17T08:00:12Z</time>
      </trkpt>
      <trkpt lat="42.45844" lon="-8.62327">
        <ele>107.8</ele>
        <time>2019-04-17T08:00:12Z</time>
      </trkpt>
      <trkpt lat="42.45845" lon="-8.62326">
        <ele>108</ele>
        <time>2019-04-17T08:00:12Z</time>
      </trkpt>
      <trkpt lat="42.45846" lon="-8.62324">
        <ele>108.3</ele>
        <time>2019-04-17T08:00:12Z</time>
      </trkpt>
      <trkpt lat="42.45847" lon="-8.62323">
        <ele>108.5</ele>
        <time>2019-04-17T08:00:12Z</time>
      </trkpt>
      <trkpt lat="42.45849" lon="-8.62321">
        <ele>108.8</ele>
        <time>2019-04-17T08:00:12Z</time>
      </trkpt>
      <trkpt lat="42.4585" lon="-8.6232">
        <ele>109</ele>
        <time>2019-04-17T08:00:12Z</time>
      </trkpt>
      <trkpt lat="42.45851" lon="-8.62318">
        <ele>109.3</ele>
        <time>2019-04-17T08:00:12Z</time>
      </trkpt>
      <trkpt lat="42.45852" lon="-8.62316">
        <ele>109.5</ele>
        <time>2019-04-17T08:00:12Z</time>
      </trkpt>
      <trkpt lat="42.45853" lon="-8.62315">
        <ele>109.7</ele>
        <time>2019-04-17T08:00:12Z</time>
      </trkpt>
      <trkpt lat="42.45853" lon="-8.62313">
        <ele>109.9</ele>
        <time>2019-04-17T08:00:12Z</time>
      </trkpt>
      <trkpt lat="42.45854" lon="-8.62311">
        <ele>110.2</ele>
        <time>2019-04-17T08:00:12Z</time>
      </trkpt>
      <trkpt lat="42.45855" lon="-8.62309">
        <ele>110.4</ele>
        <time>2019-04-17T08:00:12Z</time>
      </trkpt>
      <trkpt lat="42.45856" lon="-8.62307">
        <ele>110.6</ele>
        <time>2019-04-17T08:00:12Z</time>
      </trkpt>
      <trkpt lat="42.45856" lon="-8.62305">
        <ele>110.8</ele>
        <time>2019-04-17T08:00:12Z</time>
      </trkpt>
      <trkpt lat="42.45857" lon="-8.62303">
        <ele>111</ele>
        <time>2019-04-17T08:00:12Z</time>
      </trkpt>
      <trkpt lat="42.45858" lon="-8.62301">
        <ele>111.2</ele>
        <time>2019-04-17T08:00:12Z</time>
      </trkpt>
      <trkpt lat="42.45858" lon="-8.62299">
        <ele>111.5</ele>
        <time>2019-04-17T08:00:12Z</time>
      </trkpt>
      <trkpt lat="42.45859" lon="-8.62297">
        <ele>111.7</ele>
        <time>2019-04-17T08:00:12Z</time>
      </trkpt>
      <trkpt lat="42.45859" lon="-8.62295">
        <ele>111.9</ele>
        <time>2019-04-17T08:00:12Z</time>
      </trkpt>
      <trkpt lat="42.4586" lon="-8.62293">
        <ele>112.1</ele>
        <time>2019-04-17T08:00:12Z</time>
      </trkpt>
      <trkpt lat="42.4586" lon="-8.6229">
        <ele>112.3</ele>
        <time>2019-04-17T08:00:12Z</time>
      </trkpt>
      <trkpt lat="42.45861" lon="-8.62288">
        <ele>112.5</ele>
        <time>2019-04-17T08:00:12Z</time>
      </trkpt>
      <trkpt lat="42.45861" lon="-8.62286">
        <ele>112.8</ele>
        <time>2019-04-17T08:00:12Z</time>
      </trkpt>
      <trkpt lat="42.45862" lon="-8.62284">
        <ele>112.9</ele>
        <time>2019-04-17T08:00:12Z</time>
      </trkpt>
      <trkpt lat="42.45862" lon="-8.62281">
        <ele>113.1</ele>
        <time>2019-04-17T08:00:12Z</time>
      </trkpt>
      <trkpt lat="42.45862" lon="-8.62279">
        <ele>113.2</ele>
        <time>2019-04-17T08:00:12Z</time>
      </trkpt>
      <trkpt lat="42.45862" lon="-8.62276">
        <ele>113.2</ele>
        <time>2019-04-17T08:00:12Z</time>
      </trkpt>
      <trkpt lat="42.45862" lon="-8.62274">
        <ele>113.2</ele>
        <time>2019-04-17T08:00:12Z</time>
      </trkpt>
      <trkpt lat="42.45862" lon="-8.62271">
        <ele>113.1</ele>
        <time>2019-04-17T08:00:12Z</time>
      </trkpt>
      <trkpt lat="42.45861" lon="-8.62268">
        <ele>113.1</ele>
        <time>2019-04-17T08:00:12Z</time>
      </trkpt>
      <trkpt lat="42.45861" lon="-8.62265">
        <ele>113</ele>
        <time>2019-04-17T08:00:12Z</time>
      </trkpt>
      <trkpt lat="42.45861" lon="-8.62261">
        <ele>112.9</ele>
        <time>2019-04-17T08:00:12Z</time>
      </trkpt>
      <trkpt lat="42.4586" lon="-8.62258">
        <ele>112.8</ele>
        <time>2019-04-17T08:00:12Z</time>
      </trkpt>
      <trkpt lat="42.4586" lon="-8.62255">
        <ele>112.8</ele>
        <time>2019-04-17T08:00:12Z</time>
      </trkpt>
      <trkpt lat="42.4586" lon="-8.62252">
        <ele>112.7</ele>
        <time>2019-04-17T08:00:12Z</time>
      </trkpt>
      <trkpt lat="42.45859" lon="-8.62249">
        <ele>112.7</ele>
        <time>2019-04-17T08:00:12Z</time>
      </trkpt>
      <trkpt lat="42.45859" lon="-8.62246">
        <ele>112.8</ele>
        <time>2019-04-17T08:00:12Z</time>
      </trkpt>
      <trkpt lat="42.45858" lon="-8.62243">
        <ele>112.8</ele>
        <time>2019-04-17T08:00:12Z</time>
      </trkpt>
      <trkpt lat="42.45858" lon="-8.6224">
        <ele>112.8</ele>
        <time>2019-04-17T08:00:12Z</time>
      </trkpt>
      <trkpt lat="42.45857" lon="-8.62237">
        <ele>112.8</ele>
        <time>2019-04-17T08:00:12Z</time>
      </trkpt>
      <trkpt lat="42.45856" lon="-8.62234">
        <ele>112.7</ele>
        <time>2019-04-17T08:00:12Z</time>
      </trkpt>
      <trkpt lat="42.45855" lon="-8.62231">
        <ele>112.7</ele>
        <time>2019-04-17T08:00:12Z</time>
      </trkpt>
      <trkpt lat="42.45854" lon="-8.62229">
        <ele>112.6</ele>
        <time>2019-04-17T08:00:12Z</time>
      </trkpt>
      <trkpt lat="42.45853" lon="-8.62227">
        <ele>112.6</ele>
        <time>2019-04-17T08:00:12Z</time>
      </trkpt>
      <trkpt lat="42.45853" lon="-8.62227">
        <ele>112.6</ele>
        <time>2019-04-17T08:00:12Z</time>
      </trkpt>
      <trkpt lat="42.45853" lon="-8.62226">
        <ele>112.6</ele>
        <time>2019-04-17T08:00:12Z</time>
      </trkpt>
      <trkpt lat="42.45852" lon="-8.62226">
        <ele>112.5</ele>
        <time>2019-04-17T08:00:12Z</time>
      </trkpt>
      <trkpt lat="42.45852" lon="-8.62226">
        <ele>112.5</ele>
        <time>2019-04-17T08:00:12Z</time>
      </trkpt>
      <trkpt lat="42.45852" lon="-8.62226">
        <ele>112.5</ele>
        <time>2019-04-17T08:00:12Z</time>
      </trkpt>
      <trkpt lat="42.45852" lon="-8.62226">
        <ele>112.5</ele>
        <time>2019-04-17T08:00:12Z</time>
      </trkpt>
      <trkpt lat="42.45852" lon="-8.62226">
        <ele>112.5</ele>
        <time>2019-04-17T08:00:12Z</time>
      </trkpt>
      <trkpt lat="42.45852" lon="-8.62226">
        <ele>112.5</ele>
        <time>2019-04-17T08:00:12Z</time>
      </trkpt>
      <trkpt lat="42.45852" lon="-8.62226">
        <ele>112.5</ele>
        <time>2019-04-17T08:00:12Z</time>
      </trkpt>
      <trkpt lat="42.45852" lon="-8.62226">
        <ele>112.5</ele>
        <time>2019-04-17T08:00:12Z</time>
      </trkpt>
      <trkpt lat="42.45852" lon="-8.62226">
        <ele>112.5</ele>
        <time>2019-04-17T08:00:12Z</time>
      </trkpt>
      <trkpt lat="42.45852" lon="-8.62226">
        <ele>112.5</ele>
        <time>2019-04-17T08:00:12Z</time>
      </trkpt>
      <trkpt lat="42.45852" lon="-8.62226">
        <ele>112.5</ele>
        <time>2019-04-17T08:00:12Z</time>
      </trkpt>
      <trkpt lat="42.45852" lon="-8.62226">
        <ele>112.5</ele>
        <time>2019-04-17T08:00:12Z</time>
      </trkpt>
      <trkpt lat="42.45852" lon="-8.62226">
        <ele>112.5</ele>
        <time>2019-04-17T08:00:12Z</time>
      </trkpt>
      <trkpt lat="42.45852" lon="-8.62226">
        <ele>112.5</ele>
        <time>2019-04-17T08:00:12Z</time>
      </trkpt>
      <trkpt lat="42.45852" lon="-8.62226">
        <ele>112.5</ele>
        <time>2019-04-17T08:00:12Z</time>
      </trkpt>
      <trkpt lat="42.45852" lon="-8.62226">
        <ele>112.5</ele>
        <time>2019-04-17T08:00:12Z</time>
      </trkpt>
      <trkpt lat="42.45852" lon="-8.62226">
        <ele>112.5</ele>
        <time>2019-04-17T08:00:12Z</time>
      </trkpt>
      <trkpt lat="42.45852" lon="-8.62226">
        <ele>112.5</ele>
        <time>2019-04-17T08:00:12Z</time>
      </trkpt>
      <trkpt lat="42.45852" lon="-8.62226">
        <ele>112.5</ele>
        <time>2019-04-17T08:00:12Z</time>
      </trkpt>
      <trkpt lat="42.45852" lon="-8.62226">
        <ele>112.5</ele>
        <time>2019-04-17T08:00:12Z</time>
      </trkpt>
      <trkpt lat="42.45852" lon="-8.62226">
        <ele>112.5</ele>
        <time>2019-04-17T08:00:12Z</time>
      </trkpt>
      <trkpt lat="42.45852" lon="-8.62226">
        <ele>112.5</ele>
        <time>2019-04-17T08:00:12Z</time>
      </trkpt>
      <trkpt lat="42.45852" lon="-8.62226">
        <ele>112.5</ele>
        <time>2019-04-17T08:00:12Z</time>
      </trkpt>
      <trkpt lat="42.45852" lon="-8.62226">
        <ele>112.5</ele>
        <time>2019-04-17T08:00:12Z</time>
      </trkpt>
      <trkpt lat="42.45852" lon="-8.62226">
        <ele>112.5</ele>
        <time>2019-04-17T08:00:12Z</time>
      </trkpt>
      <trkpt lat="42.45852" lon="-8.62226">
        <ele>112.5</ele>
        <time>2019-04-17T08:00:12Z</time>
      </trkpt>
      <trkpt lat="42.45852" lon="-8.62226">
        <ele>112.5</ele>
        <time>2019-04-17T08:00:12Z</time>
      </trkpt>
      <trkpt lat="42.45852" lon="-8.62226">
        <ele>112.5</ele>
        <time>2019-04-17T08:00:12Z</time>
      </trkpt>
      <trkpt lat="42.45852" lon="-8.62225">
        <ele>112.5</ele>
        <time>2019-04-17T08:00:12Z</time>
      </trkpt>
      <trkpt lat="42.45851" lon="-8.62224">
        <ele>112.4</ele>
        <time>2019-04-17T08:00:12Z</time>
      </trkpt>
      <trkpt lat="42.4585" lon="-8.62223">
        <ele>112.3</ele>
        <time>2019-04-17T08:00:12Z</time>
      </trkpt>
      <trkpt lat="42.45849" lon="-8.62222">
        <ele>112.3</ele>
        <time>2019-04-17T08:00:12Z</time>
      </trkpt>
      <trkpt lat="42.45848" lon="-8.6222">
        <ele>112.4</ele>
        <time>2019-04-17T08:00:12Z</time>
      </trkpt>
      <trkpt lat="42.45846" lon="-8.62218">
        <ele>112.4</ele>
        <time>2019-04-17T08:00:12Z</time>
      </trkpt>
      <trkpt lat="42.45845" lon="-8.62216">
        <ele>112.5</ele>
        <time>2019-04-17T08:00:12Z</time>
      </trkpt>
      <trkpt lat="42.45843" lon="-8.62214">
        <ele>112.5</ele>
        <time>2019-04-17T08:00:12Z</time>
      </trkpt>
      <trkpt lat="42.45841" lon="-8.62211">
        <ele>112.6</ele>
        <time>2019-04-17T08:00:12Z</time>
      </trkpt>
      <trkpt lat="42.4584" lon="-8.62209">
        <ele>112.6</ele>
        <time>2019-04-17T08:00:12Z</time>
      </trkpt>
      <trkpt lat="42.45838" lon="-8.62206">
        <ele>112.6</ele>
        <time>2019-04-17T08:00:12Z</time>
      </trkpt>
      <trkpt lat="42.45837" lon="-8.62204">
        <ele>112.7</ele>
        <time>2019-04-17T08:00:12Z</time>
      </trkpt>
      <trkpt lat="42.45836" lon="-8.62201">
        <ele>112.8</ele>
        <time>2019-04-17T08:00:12Z</time>
      </trkpt>
      <trkpt lat="42.45835" lon="-8.62198">
        <ele>113</ele>
        <time>2019-04-17T08:00:12Z</time>
      </trkpt>
      <trkpt lat="42.45835" lon="-8.62195">
        <ele>113.2</ele>
        <time>2019-04-17T08:00:12Z</time>
      </trkpt>
      <trkpt lat="42.45834" lon="-8.62192">
        <ele>113.5</ele>
        <time>2019-04-17T08:00:12Z</time>
      </trkpt>
      <trkpt lat="42.45834" lon="-8.6219">
        <ele>113.8</ele>
        <time>2019-04-17T08:00:12Z</time>
      </trkpt>
      <trkpt lat="42.45834" lon="-8.62188">
        <ele>114.1</ele>
        <time>2019-04-17T08:00:12Z</time>
      </trkpt>
      <trkpt lat="42.45834" lon="-8.62185">
        <ele>114.4</ele>
        <time>2019-04-17T08:00:12Z</time>
      </trkpt>
      <trkpt lat="42.45833" lon="-8.62183">
        <ele>114.6</ele>
        <time>2019-04-17T08:00:12Z</time>
      </trkpt>
      <trkpt lat="42.45833" lon="-8.6218">
        <ele>114.9</ele>
        <time>2019-04-17T08:00:12Z</time>
      </trkpt>
      <trkpt lat="42.45833" lon="-8.62178">
        <ele>115.1</ele>
        <time>2019-04-17T08:00:12Z</time>
      </trkpt>
      <trkpt lat="42.45833" lon="-8.62176">
        <ele>115.5</ele>
        <time>2019-04-17T08:00:12Z</time>
      </trkpt>
      <trkpt lat="42.45833" lon="-8.62174">
        <ele>115.8</ele>
        <time>2019-04-17T08:00:12Z</time>
      </trkpt>
      <trkpt lat="42.45833" lon="-8.62172">
        <ele>116.1</ele>
        <time>2019-04-17T08:00:12Z</time>
      </trkpt>
      <trkpt lat="42.45833" lon="-8.6217">
        <ele>116.4</ele>
        <time>2019-04-17T08:00:12Z</time>
      </trkpt>
      <trkpt lat="42.45833" lon="-8.62168">
        <ele>116.7</ele>
        <time>2019-04-17T08:00:12Z</time>
      </trkpt>
      <trkpt lat="42.45833" lon="-8.62165">
        <ele>117.1</ele>
        <time>2019-04-17T08:00:12Z</time>
      </trkpt>
      <trkpt lat="42.45833" lon="-8.62163">
        <ele>117.3</ele>
        <time>2019-04-17T08:00:12Z</time>
      </trkpt>
      <trkpt lat="42.45833" lon="-8.62161">
        <ele>117.6</ele>
        <time>2019-04-17T08:00:12Z</time>
      </trkpt>
      <trkpt lat="42.45833" lon="-8.62159">
        <ele>117.8</ele>
        <time>2019-04-17T08:00:12Z</time>
      </trkpt>
      <trkpt lat="42.45833" lon="-8.62157">
        <ele>118</ele>
        <time>2019-04-17T08:00:12Z</time>
      </trkpt>
      <trkpt lat="42.45833" lon="-8.62154">
        <ele>118.2</ele>
        <time>2019-04-17T08:00:12Z</time>
      </trkpt>
      <trkpt lat="42.45833" lon="-8.62152">
        <ele>118.5</ele>
        <time>2019-04-17T08:00:12Z</time>
      </trkpt>
      <trkpt lat="42.45833" lon="-8.6215">
        <ele>118.8</ele>
        <time>2019-04-17T08:00:12Z</time>
      </trkpt>
      <trkpt lat="42.45833" lon="-8.62148">
        <ele>119</ele>
        <time>2019-04-17T08:00:12Z</time>
      </trkpt>
      <trkpt lat="42.45833" lon="-8.62146">
        <ele>119.2</ele>
        <time>2019-04-17T08:00:12Z</time>
      </trkpt>
      <trkpt lat="42.45833" lon="-8.62144">
        <ele>119.4</ele>
        <time>2019-04-17T08:00:12Z</time>
      </trkpt>
      <trkpt lat="42.45833" lon="-8.62142">
        <ele>119.6</ele>
        <time>2019-04-17T08:00:12Z</time>
      </trkpt>
      <trkpt lat="42.45833" lon="-8.6214">
        <ele>119.7</ele>
        <time>2019-04-17T08:00:12Z</time>
      </trkpt>
      <trkpt lat="42.45832" lon="-8.62138">
        <ele>119.7</ele>
        <time>2019-04-17T08:00:12Z</time>
      </trkpt>
      <trkpt lat="42.45832" lon="-8.62136">
        <ele>119.6</ele>
        <time>2019-04-17T08:00:12Z</time>
      </trkpt>
      <trkpt lat="42.45831" lon="-8.62134">
        <ele>119.6</ele>
        <time>2019-04-17T08:00:12Z</time>
      </trkpt>
      <trkpt lat="42.45831" lon="-8.62131">
        <ele>119.6</ele>
        <time>2019-04-17T08:00:12Z</time>
      </trkpt>
      <trkpt lat="42.45831" lon="-8.62129">
        <ele>119.7</ele>
        <time>2019-04-17T08:00:12Z</time>
      </trkpt>
      <trkpt lat="42.45831" lon="-8.62128">
        <ele>119.8</ele>
        <time>2019-04-17T08:00:12Z</time>
      </trkpt>
      <trkpt lat="42.45831" lon="-8.62127">
        <ele>119.9</ele>
        <time>2019-04-17T08:00:12Z</time>
      </trkpt>
      <trkpt lat="42.45831" lon="-8.62127">
        <ele>119.9</ele>
        <time>2019-04-17T08:00:12Z</time>
      </trkpt>
      <trkpt lat="42.45831" lon="-8.62127">
        <ele>119.9</ele>
        <time>2019-04-17T08:00:12Z</time>
      </trkpt>
      <trkpt lat="42.45831" lon="-8.62127">
        <ele>119.9</ele>
        <time>2019-04-17T08:00:12Z</time>
      </trkpt>
      <trkpt lat="42.45831" lon="-8.62127">
        <ele>119.9</ele>
        <time>2019-04-17T08:00:12Z</time>
      </trkpt>
      <trkpt lat="42.45831" lon="-8.62127">
        <ele>119.8</ele>
        <time>2019-04-17T08:00:12Z</time>
      </trkpt>
      <trkpt lat="42.45831" lon="-8.62127">
        <ele>119.8</ele>
        <time>2019-04-17T08:00:12Z</time>
      </trkpt>
      <trkpt lat="42.45831" lon="-8.62127">
        <ele>119.8</ele>
        <time>2019-04-17T08:00:12Z</time>
      </trkpt>
      <trkpt lat="42.45831" lon="-8.62127">
        <ele>119.8</ele>
        <time>2019-04-17T08:00:12Z</time>
      </trkpt>
      <trkpt lat="42.45831" lon="-8.62127">
        <ele>119.8</ele>
        <time>2019-04-17T08:00:12Z</time>
      </trkpt>
      <trkpt lat="42.45831" lon="-8.62127">
        <ele>119.8</ele>
        <time>2019-04-17T08:00:12Z</time>
      </trkpt>
      <trkpt lat="42.45831" lon="-8.62127">
        <ele>119.8</ele>
        <time>2019-04-17T08:00:12Z</time>
      </trkpt>
      <trkpt lat="42.45831" lon="-8.62126">
        <ele>119.8</ele>
        <time>2019-04-17T08:00:12Z</time>
      </trkpt>
      <trkpt lat="42.45831" lon="-8.62126">
        <ele>119.8</ele>
        <time>2019-04-17T08:00:12Z</time>
      </trkpt>
      <trkpt lat="42.45831" lon="-8.62126">
        <ele>119.8</ele>
        <time>2019-04-17T08:00:12Z</time>
      </trkpt>
      <trkpt lat="42.45831" lon="-8.62126">
        <ele>119.8</ele>
        <time>2019-04-17T08:00:12Z</time>
      </trkpt>
      <trkpt lat="42.45831" lon="-8.62126">
        <ele>119.8</ele>
        <time>2019-04-17T08:00:12Z</time>
      </trkpt>
      <trkpt lat="42.45831" lon="-8.62126">
        <ele>119.8</ele>
        <time>2019-04-17T08:00:12Z</time>
      </trkpt>
      <trkpt lat="42.45831" lon="-8.62126">
        <ele>119.8</ele>
        <time>2019-04-17T08:00:12Z</time>
      </trkpt>
      <trkpt lat="42.45831" lon="-8.62126">
        <ele>119.8</ele>
        <time>2019-04-17T08:00:12Z</time>
      </trkpt>
      <trkpt lat="42.45831" lon="-8.62126">
        <ele>119.8</ele>
        <time>2019-04-17T08:00:12Z</time>
      </trkpt>
      <trkpt lat="42.45831" lon="-8.62126">
        <ele>119.8</ele>
        <time>2019-04-17T08:00:12Z</time>
      </trkpt>
      <trkpt lat="42.45831" lon="-8.62126">
        <ele>119.8</ele>
        <time>2019-04-17T08:00:12Z</time>
      </trkpt>
      <trkpt lat="42.45831" lon="-8.62126">
        <ele>119.8</ele>
        <time>2019-04-17T08:00:12Z</time>
      </trkpt>
      <trkpt lat="42.45831" lon="-8.62126">
        <ele>119.8</ele>
        <time>2019-04-17T08:00:12Z</time>
      </trkpt>
      <trkpt lat="42.45831" lon="-8.62126">
        <ele>119.8</ele>
        <time>2019-04-17T08:00:12Z</time>
      </trkpt>
      <trkpt lat="42.45831" lon="-8.62126">
        <ele>119.8</ele>
        <time>2019-04-17T08:00:12Z</time>
      </trkpt>
      <trkpt lat="42.45831" lon="-8.62126">
        <ele>119.8</ele>
        <time>2019-04-17T08:00:12Z</time>
      </trkpt>
      <trkpt lat="42.45831" lon="-8.62126">
        <ele>119.8</ele>
        <time>2019-04-17T08:00:12Z</time>
      </trkpt>
      <trkpt lat="42.45831" lon="-8.62126">
        <ele>119.8</ele>
        <time>2019-04-17T08:00:12Z</time>
      </trkpt>
      <trkpt lat="42.45831" lon="-8.62126">
        <ele>119.8</ele>
        <time>2019-04-17T08:00:12Z</time>
      </trkpt>
      <trkpt lat="42.45831" lon="-8.62126">
        <ele>119.8</ele>
        <time>2019-04-17T08:00:12Z</time>
      </trkpt>
      <trkpt lat="42.45831" lon="-8.62126">
        <ele>119.8</ele>
        <time>2019-04-17T08:00:12Z</time>
      </trkpt>
      <trkpt lat="42.45831" lon="-8.62127">
        <ele>119.8</ele>
        <time>2019-04-17T08:00:12Z</time>
      </trkpt>
      <trkpt lat="42.45831" lon="-8.62127">
        <ele>119.8</ele>
        <time>2019-04-17T08:00:12Z</time>
      </trkpt>
      <trkpt lat="42.45831" lon="-8.62127">
        <ele>119.8</ele>
        <time>2019-04-17T08:00:12Z</time>
      </trkpt>
      <trkpt lat="42.45831" lon="-8.62126">
        <ele>119.8</ele>
        <time>2019-04-17T08:00:12Z</time>
      </trkpt>
      <trkpt lat="42.45831" lon="-8.62126">
        <ele>119.8</ele>
        <time>2019-04-17T08:00:12Z</time>
      </trkpt>
      <trkpt lat="42.45831" lon="-8.62126">
        <ele>119.8</ele>
        <time>2019-04-17T08:00:12Z</time>
      </trkpt>
      <trkpt lat="42.45831" lon="-8.62126">
        <ele>119.8</ele>
        <time>2019-04-17T08:00:12Z</time>
      </trkpt>
      <trkpt lat="42.45831" lon="-8.62126">
        <ele>119.8</ele>
        <time>2019-04-17T08:00:12Z</time>
      </trkpt>
      <trkpt lat="42.45831" lon="-8.62126">
        <ele>119.8</ele>
        <time>2019-04-17T08:00:12Z</time>
      </trkpt>
      <trkpt lat="42.45831" lon="-8.62126">
        <ele>119.8</ele>
        <time>2019-04-17T08:00:12Z</time>
      </trkpt>
      <trkpt lat="42.45831" lon="-8.62126">
        <ele>119.8</ele>
        <time>2019-04-17T08:00:12Z</time>
      </trkpt>
      <trkpt lat="42.45831" lon="-8.62126">
        <ele>119.9</ele>
        <time>2019-04-17T08:00:12Z</time>
      </trkpt>
      <trkpt lat="42.45832" lon="-8.62125">
        <ele>120.2</ele>
        <time>2019-04-17T08:00:12Z</time>
      </trkpt>
      <trkpt lat="42.45833" lon="-8.62124">
        <ele>120.5</ele>
        <time>2019-04-17T08:00:12Z</time>
      </trkpt>
      <trkpt lat="42.45834" lon="-8.62124">
        <ele>120.8</ele>
        <time>2019-04-17T08:00:12Z</time>
      </trkpt>
      <trkpt lat="42.45835" lon="-8.62127">
        <ele>120.9</ele>
        <time>2019-04-17T08:00:12Z</time>
      </trkpt>
      <trkpt lat="42.45836" lon="-8.62129">
        <ele>120.9</ele>
        <time>2019-04-17T08:00:12Z</time>
      </trkpt>
      <trkpt lat="42.45836" lon="-8.62131">
        <ele>120.9</ele>
        <time>2019-04-17T08:00:12Z</time>
      </trkpt>
      <trkpt lat="42.45837" lon="-8.62133">
        <ele>121.1</ele>
        <time>2019-04-17T08:00:12Z</time>
      </trkpt>
      <trkpt lat="42.45838" lon="-8.62134">
        <ele>121.3</ele>
        <time>2019-04-17T08:00:12Z</time>
      </trkpt>
      <trkpt lat="42.45839" lon="-8.62135">
        <ele>121.5</ele>
        <time>2019-04-17T08:00:12Z</time>
      </trkpt>
      <trkpt lat="42.4584" lon="-8.62137">
        <ele>121.6</ele>
        <time>2019-04-17T08:00:12Z</time>
      </trkpt>
      <trkpt lat="42.45841" lon="-8.62137">
        <ele>121.8</ele>
        <time>2019-04-17T08:00:12Z</time>
      </trkpt>
      <trkpt lat="42.45843" lon="-8.62137">
        <ele>122.1</ele>
        <time>2019-04-17T08:00:12Z</time>
      </trkpt>
      <trkpt lat="42.45844" lon="-8.62138">
        <ele>122.3</ele>
        <time>2019-04-17T08:00:12Z</time>
      </trkpt>
      <trkpt lat="42.45845" lon="-8.62139">
        <ele>122.5</ele>
        <time>2019-04-17T08:00:12Z</time>
      </trkpt>
      <trkpt lat="42.45846" lon="-8.6214">
        <ele>122.6</ele>
        <time>2019-04-17T08:00:12Z</time>
      </trkpt>
      <trkpt lat="42.45847" lon="-8.62141">
        <ele>122.6</ele>
        <time>2019-04-17T08:00:12Z</time>
      </trkpt>
      <trkpt lat="42.45848" lon="-8.62143">
        <ele>122.7</ele>
        <time>2019-04-17T08:00:12Z</time>
      </trkpt>
      <trkpt lat="42.45849" lon="-8.62144">
        <ele>122.8</ele>
        <time>2019-04-17T08:00:12Z</time>
      </trkpt>
      <trkpt lat="42.4585" lon="-8.62145">
        <ele>122.9</ele>
        <time>2019-04-17T08:00:12Z</time>
      </trkpt>
      <trkpt lat="42.45851" lon="-8.62146">
        <ele>123</ele>
        <time>2019-04-17T08:00:12Z</time>
      </trkpt>
      <trkpt lat="42.45852" lon="-8.62147">
        <ele>123.2</ele>
        <time>2019-04-17T08:00:12Z</time>
      </trkpt>
      <trkpt lat="42.45853" lon="-8.62148">
        <ele>123.4</ele>
        <time>2019-04-17T08:00:12Z</time>
      </trkpt>
      <trkpt lat="42.45855" lon="-8.62148">
        <ele>123.6</ele>
        <time>2019-04-17T08:00:12Z</time>
      </trkpt>
      <trkpt lat="42.45856" lon="-8.62149">
        <ele>123.8</ele>
        <time>2019-04-17T08:00:12Z</time>
      </trkpt>
      <trkpt lat="42.45857" lon="-8.6215">
        <ele>124</ele>
        <time>2019-04-17T08:00:12Z</time>
      </trkpt>
      <trkpt lat="42.45859" lon="-8.6215">
        <ele>124.3</ele>
        <time>2019-04-17T08:00:12Z</time>
      </trkpt>
      <trkpt lat="42.4586" lon="-8.62151">
        <ele>124.5</ele>
        <time>2019-04-17T08:00:12Z</time>
      </trkpt>
      <trkpt lat="42.45862" lon="-8.62152">
        <ele>124.7</ele>
        <time>2019-04-17T08:00:12Z</time>
      </trkpt>
      <trkpt lat="42.45863" lon="-8.62152">
        <ele>124.8</ele>
        <time>2019-04-17T08:00:12Z</time>
      </trkpt>
      <trkpt lat="42.45863" lon="-8.62152">
        <ele>124.8</ele>
        <time>2019-04-17T08:00:12Z</time>
      </trkpt>
      <trkpt lat="42.45863" lon="-8.62152">
        <ele>124.9</ele>
        <time>2019-04-17T08:00:12Z</time>
      </trkpt>
      <trkpt lat="42.45863" lon="-8.62152">
        <ele>124.9</ele>
        <time>2019-04-17T08:00:12Z</time>
      </trkpt>
      <trkpt lat="42.45864" lon="-8.62152">
        <ele>124.9</ele>
        <time>2019-04-17T08:00:12Z</time>
      </trkpt>
      <trkpt lat="42.45865" lon="-8.62152">
        <ele>125</ele>
        <time>2019-04-17T08:00:12Z</time>
      </trkpt>
      <trkpt lat="42.45865" lon="-8.62152">
        <ele>125.1</ele>
        <time>2019-04-17T08:00:12Z</time>
      </trkpt>
      <trkpt lat="42.45866" lon="-8.62152">
        <ele>125.2</ele>
        <time>2019-04-17T08:00:12Z</time>
      </trkpt>
      <trkpt lat="42.45866" lon="-8.62152">
        <ele>125.2</ele>
        <time>2019-04-17T08:00:12Z</time>
      </trkpt>
      <trkpt lat="42.45866" lon="-8.62152">
        <ele>125.2</ele>
        <time>2019-04-17T08:00:12Z</time>
      </trkpt>
      <trkpt lat="42.45867" lon="-8.62152">
        <ele>125.2</ele>
        <time>2019-04-17T08:00:12Z</time>
      </trkpt>
      <trkpt lat="42.45868" lon="-8.62153">
        <ele>125.3</ele>
        <time>2019-04-17T08:00:12Z</time>
      </trkpt>
      <trkpt lat="42.45869" lon="-8.62153">
        <ele>125.5</ele>
        <time>2019-04-17T08:00:12Z</time>
      </trkpt>
      <trkpt lat="42.4587" lon="-8.62153">
        <ele>125.6</ele>
        <time>2019-04-17T08:00:12Z</time>
      </trkpt>
      <trkpt lat="42.45872" lon="-8.62153">
        <ele>125.7</ele>
        <time>2019-04-17T08:00:12Z</time>
      </trkpt>
      <trkpt lat="42.45873" lon="-8.62154">
        <ele>125.9</ele>
        <time>2019-04-17T08:00:12Z</time>
      </trkpt>
      <trkpt lat="42.45875" lon="-8.62154">
        <ele>126.1</ele>
        <time>2019-04-17T08:00:12Z</time>
      </trkpt>
      <trkpt lat="42.45876" lon="-8.62154">
        <ele>126.3</ele>
        <time>2019-04-17T08:00:12Z</time>
      </trkpt>
      <trkpt lat="42.45878" lon="-8.62154">
        <ele>126.5</ele>
        <time>2019-04-17T08:00:12Z</time>
      </trkpt>
      <trkpt lat="42.45879" lon="-8.62153">
        <ele>126.7</ele>
        <time>2019-04-17T08:00:12Z</time>
      </trkpt>
      <trkpt lat="42.45881" lon="-8.62153">
        <ele>127</ele>
        <time>2019-04-17T08:00:12Z</time>
      </trkpt>
      <trkpt lat="42.45882" lon="-8.62152">
        <ele>127.2</ele>
        <time>2019-04-17T08:00:12Z</time>
      </trkpt>
      <trkpt lat="42.45884" lon="-8.62152">
        <ele>127.5</ele>
        <time>2019-04-17T08:00:12Z</time>
      </trkpt>
      <trkpt lat="42.45885" lon="-8.62151">
        <ele>127.7</ele>
        <time>2019-04-17T08:00:12Z</time>
      </trkpt>
      <trkpt lat="42.45886" lon="-8.62151">
        <ele>128</ele>
        <time>2019-04-17T08:00:12Z</time>
      </trkpt>
      <trkpt lat="42.45888" lon="-8.6215">
        <ele>128.2</ele>
        <time>2019-04-17T08:00:12Z</time>
      </trkpt>
      <trkpt lat="42.45889" lon="-8.62149">
        <ele>128.5</ele>
        <time>2019-04-17T08:00:12Z</time>
      </trkpt>
      <trkpt lat="42.4589" lon="-8.62149">
        <ele>128.6</ele>
        <time>2019-04-17T08:00:12Z</time>
      </trkpt>
      <trkpt lat="42.45892" lon="-8.62149">
        <ele>128.8</ele>
        <time>2019-04-17T08:00:12Z</time>
      </trkpt>
      <trkpt lat="42.45893" lon="-8.62149">
        <ele>128.9</ele>
        <time>2019-04-17T08:00:12Z</time>
      </trkpt>
      <trkpt lat="42.45895" lon="-8.62148">
        <ele>129.1</ele>
        <time>2019-04-17T08:00:12Z</time>
      </trkpt>
      <trkpt lat="42.45896" lon="-8.62148">
        <ele>129.3</ele>
        <time>2019-04-17T08:00:12Z</time>
      </trkpt>
      <trkpt lat="42.45898" lon="-8.62147">
        <ele>129.4</ele>
        <time>2019-04-17T08:00:12Z</time>
      </trkpt>
      <trkpt lat="42.45899" lon="-8.62147">
        <ele>129.6</ele>
        <time>2019-04-17T08:00:12Z</time>
      </trkpt>
      <trkpt lat="42.45901" lon="-8.62146">
        <ele>129.8</ele>
        <time>2019-04-17T08:00:12Z</time>
      </trkpt>
      <trkpt lat="42.45902" lon="-8.62146">
        <ele>130</ele>
        <time>2019-04-17T08:00:12Z</time>
      </trkpt>
      <trkpt lat="42.45903" lon="-8.62145">
        <ele>130.1</ele>
        <time>2019-04-17T08:00:12Z</time>
      </trkpt>
      <trkpt lat="42.45905" lon="-8.62145">
        <ele>130.3</ele>
        <time>2019-04-17T08:00:12Z</time>
      </trkpt>
      <trkpt lat="42.45906" lon="-8.62144">
        <ele>130.6</ele>
        <time>2019-04-17T08:00:12Z</time>
      </trkpt>
      <trkpt lat="42.45908" lon="-8.62143">
        <ele>130.7</ele>
        <time>2019-04-17T08:00:12Z</time>
      </trkpt>
      <trkpt lat="42.45909" lon="-8.62143">
        <ele>130.9</ele>
        <time>2019-04-17T08:00:12Z</time>
      </trkpt>
      <trkpt lat="42.45911" lon="-8.62142">
        <ele>131.1</ele>
        <time>2019-04-17T08:00:12Z</time>
      </trkpt>
      <trkpt lat="42.45912" lon="-8.62142">
        <ele>131.3</ele>
        <time>2019-04-17T08:00:12Z</time>
      </trkpt>
      <trkpt lat="42.45913" lon="-8.62141">
        <ele>131.5</ele>
        <time>2019-04-17T08:00:12Z</time>
      </trkpt>
      <trkpt lat="42.45915" lon="-8.6214">
        <ele>131.8</ele>
        <time>2019-04-17T08:00:12Z</time>
      </trkpt>
      <trkpt lat="42.45916" lon="-8.62139">
        <ele>132</ele>
        <time>2019-04-17T08:00:12Z</time>
      </trkpt>
      <trkpt lat="42.45918" lon="-8.62138">
        <ele>132.3</ele>
        <time>2019-04-17T08:00:12Z</time>
      </trkpt>
      <trkpt lat="42.45919" lon="-8.62137">
        <ele>132.5</ele>
        <time>2019-04-17T08:00:12Z</time>
      </trkpt>
      <trkpt lat="42.4592" lon="-8.62136">
        <ele>132.8</ele>
        <time>2019-04-17T08:00:12Z</time>
      </trkpt>
      <trkpt lat="42.45922" lon="-8.62135">
        <ele>133.1</ele>
        <time>2019-04-17T08:00:12Z</time>
      </trkpt>
      <trkpt lat="42.45923" lon="-8.62133">
        <ele>133.3</ele>
        <time>2019-04-17T08:00:12Z</time>
      </trkpt>
      <trkpt lat="42.45924" lon="-8.62132">
        <ele>133.6</ele>
        <time>2019-04-17T08:00:12Z</time>
      </trkpt>
      <trkpt lat="42.45926" lon="-8.62131">
        <ele>133.8</ele>
        <time>2019-04-17T08:00:12Z</time>
      </trkpt>
      <trkpt lat="42.45927" lon="-8.6213">
        <ele>134.1</ele>
        <time>2019-04-17T08:00:12Z</time>
      </trkpt>
      <trkpt lat="42.45929" lon="-8.62128">
        <ele>134.3</ele>
        <time>2019-04-17T08:00:12Z</time>
      </trkpt>
      <trkpt lat="42.4593" lon="-8.62127">
        <ele>134.5</ele>
        <time>2019-04-17T08:00:12Z</time>
      </trkpt>
      <trkpt lat="42.45931" lon="-8.62125">
        <ele>134.7</ele>
        <time>2019-04-17T08:00:12Z</time>
      </trkpt>
      <trkpt lat="42.45932" lon="-8.62124">
        <ele>134.9</ele>
        <time>2019-04-17T08:00:12Z</time>
      </trkpt>
      <trkpt lat="42.45934" lon="-8.62123">
        <ele>135.1</ele>
        <time>2019-04-17T08:00:12Z</time>
      </trkpt>
      <trkpt lat="42.45935" lon="-8.62122">
        <ele>135.2</ele>
        <time>2019-04-17T08:00:12Z</time>
      </trkpt>
      <trkpt lat="42.45936" lon="-8.62121">
        <ele>135.3</ele>
        <time>2019-04-17T08:00:12Z</time>
      </trkpt>
      <trkpt lat="42.45938" lon="-8.62121">
        <ele>135.4</ele>
        <time>2019-04-17T08:00:12Z</time>
      </trkpt>
      <trkpt lat="42.4594" lon="-8.62121">
        <ele>135.5</ele>
        <time>2019-04-17T08:00:12Z</time>
      </trkpt>
      <trkpt lat="42.45942" lon="-8.62121">
        <ele>135.5</ele>
        <time>2019-04-17T08:00:12Z</time>
      </trkpt>
      <trkpt lat="42.45943" lon="-8.62122">
        <ele>135.6</ele>
        <time>2019-04-17T08:00:12Z</time>
      </trkpt>
      <trkpt lat="42.45945" lon="-8.62123">
        <ele>135.6</ele>
        <time>2019-04-17T08:00:12Z</time>
      </trkpt>
      <trkpt lat="42.45946" lon="-8.62124">
        <ele>135.9</ele>
        <time>2019-04-17T08:00:12Z</time>
      </trkpt>
      <trkpt lat="42.45947" lon="-8.62126">
        <ele>136.2</ele>
        <time>2019-04-17T08:00:12Z</time>
      </trkpt>
      <trkpt lat="42.45948" lon="-8.62128">
        <ele>136.3</ele>
        <time>2019-04-17T08:00:12Z</time>
      </trkpt>
      <trkpt lat="42.45949" lon="-8.6213">
        <ele>136.5</ele>
        <time>2019-04-17T08:00:12Z</time>
      </trkpt>
      <trkpt lat="42.4595" lon="-8.62133">
        <ele>136.7</ele>
        <time>2019-04-17T08:00:12Z</time>
      </trkpt>
      <trkpt lat="42.4595" lon="-8.62134">
        <ele>136.9</ele>
        <time>2019-04-17T08:00:12Z</time>
      </trkpt>
      <trkpt lat="42.45951" lon="-8.62137">
        <ele>137.1</ele>
        <time>2019-04-17T08:00:12Z</time>
      </trkpt>
      <trkpt lat="42.45952" lon="-8.62139">
        <ele>137.3</ele>
        <time>2019-04-17T08:00:12Z</time>
      </trkpt>
      <trkpt lat="42.45952" lon="-8.62141">
        <ele>137.5</ele>
        <time>2019-04-17T08:00:12Z</time>
      </trkpt>
      <trkpt lat="42.45952" lon="-8.62143">
        <ele>137.6</ele>
        <time>2019-04-17T08:00:12Z</time>
      </trkpt>
      <trkpt lat="42.45953" lon="-8.62146">
        <ele>137.8</ele>
        <time>2019-04-17T08:00:12Z</time>
      </trkpt>
      <trkpt lat="42.45953" lon="-8.62148">
        <ele>138</ele>
        <time>2019-04-17T08:00:12Z</time>
      </trkpt>
      <trkpt lat="42.45954" lon="-8.6215">
        <ele>138.3</ele>
        <time>2019-04-17T08:00:12Z</time>
      </trkpt>
      <trkpt lat="42.45954" lon="-8.62152">
        <ele>138.4</ele>
        <time>2019-04-17T08:00:12Z</time>
      </trkpt>
      <trkpt lat="42.45955" lon="-8.62154">
        <ele>138.6</ele>
        <time>2019-04-17T08:00:12Z</time>
      </trkpt>
      <trkpt lat="42.45955" lon="-8.62157">
        <ele>138.8</ele>
        <time>2019-04-17T08:00:12Z</time>
      </trkpt>
      <trkpt lat="42.45955" lon="-8.62159">
        <ele>138.9</ele>
        <time>2019-04-17T08:00:12Z</time>
      </trkpt>
      <trkpt lat="42.45956" lon="-8.62161">
        <ele>139.2</ele>
        <time>2019-04-17T08:00:12Z</time>
      </trkpt>
      <trkpt lat="42.45956" lon="-8.62163">
        <ele>139.3</ele>
        <time>2019-04-17T08:00:12Z</time>
      </trkpt>
      <trkpt lat="42.45957" lon="-8.62166">
        <ele>139.5</ele>
        <time>2019-04-17T08:00:12Z</time>
      </trkpt>
      <trkpt lat="42.45957" lon="-8.62168">
        <ele>139.6</ele>
        <time>2019-04-17T08:00:12Z</time>
      </trkpt>
      <trkpt lat="42.45958" lon="-8.6217">
        <ele>139.9</ele>
        <time>2019-04-17T08:00:12Z</time>
      </trkpt>
      <trkpt lat="42.45958" lon="-8.62172">
        <ele>140.2</ele>
        <time>2019-04-17T08:00:12Z</time>
      </trkpt>
      <trkpt lat="42.45959" lon="-8.62173">
        <ele>140.5</ele>
        <time>2019-04-17T08:00:12Z</time>
      </trkpt>
      <trkpt lat="42.45959" lon="-8.62175">
        <ele>140.7</ele>
        <time>2019-04-17T08:00:12Z</time>
      </trkpt>
      <trkpt lat="42.4596" lon="-8.62177">
        <ele>140.9</ele>
        <time>2019-04-17T08:00:12Z</time>
      </trkpt>
      <trkpt lat="42.4596" lon="-8.62179">
        <ele>141.2</ele>
        <time>2019-04-17T08:00:12Z</time>
      </trkpt>
      <trkpt lat="42.45961" lon="-8.62181">
        <ele>141.4</ele>
        <time>2019-04-17T08:00:12Z</time>
      </trkpt>
      <trkpt lat="42.45961" lon="-8.62183">
        <ele>141.6</ele>
        <time>2019-04-17T08:00:12Z</time>
      </trkpt>
      <trkpt lat="42.45962" lon="-8.62185">
        <ele>141.8</ele>
        <time>2019-04-17T08:00:12Z</time>
      </trkpt>
      <trkpt lat="42.45962" lon="-8.62187">
        <ele>142</ele>
        <time>2019-04-17T08:00:12Z</time>
      </trkpt>
      <trkpt lat="42.45962" lon="-8.62189">
        <ele>142.2</ele>
        <time>2019-04-17T08:00:12Z</time>
      </trkpt>
      <trkpt lat="42.45962" lon="-8.62191">
        <ele>142.3</ele>
        <time>2019-04-17T08:00:12Z</time>
      </trkpt>
      <trkpt lat="42.45963" lon="-8.62194">
        <ele>142.5</ele>
        <time>2019-04-17T08:00:12Z</time>
      </trkpt>
      <trkpt lat="42.45963" lon="-8.62195">
        <ele>142.7</ele>
        <time>2019-04-17T08:00:12Z</time>
      </trkpt>
      <trkpt lat="42.45964" lon="-8.62197">
        <ele>142.7</ele>
        <time>2019-04-17T08:00:12Z</time>
      </trkpt>
      <trkpt lat="42.45965" lon="-8.62199">
        <ele>142.8</ele>
        <time>2019-04-17T08:00:12Z</time>
      </trkpt>
      <trkpt lat="42.45965" lon="-8.62201">
        <ele>142.9</ele>
        <time>2019-04-17T08:00:12Z</time>
      </trkpt>
      <trkpt lat="42.45966" lon="-8.62203">
        <ele>143</ele>
        <time>2019-04-17T08:00:12Z</time>
      </trkpt>
      <trkpt lat="42.45967" lon="-8.62205">
        <ele>143.2</ele>
        <time>2019-04-17T08:00:12Z</time>
      </trkpt>
      <trkpt lat="42.45968" lon="-8.62206">
        <ele>143.3</ele>
        <time>2019-04-17T08:00:12Z</time>
      </trkpt>
      <trkpt lat="42.4597" lon="-8.62208">
        <ele>143.4</ele>
        <time>2019-04-17T08:00:12Z</time>
      </trkpt>
      <trkpt lat="42.45971" lon="-8.62209">
        <ele>143.6</ele>
        <time>2019-04-17T08:00:12Z</time>
      </trkpt>
      <trkpt lat="42.45972" lon="-8.62211">
        <ele>143.7</ele>
        <time>2019-04-17T08:00:12Z</time>
      </trkpt>
      <trkpt lat="42.45973" lon="-8.62212">
        <ele>143.9</ele>
        <time>2019-04-17T08:00:12Z</time>
      </trkpt>
      <trkpt lat="42.45974" lon="-8.62213">
        <ele>144.1</ele>
        <time>2019-04-17T08:00:12Z</time>
      </trkpt>
      <trkpt lat="42.45976" lon="-8.62215">
        <ele>144.2</ele>
        <time>2019-04-17T08:00:12Z</time>
      </trkpt>
      <trkpt lat="42.45977" lon="-8.62216">
        <ele>144.4</ele>
        <time>2019-04-17T08:00:12Z</time>
      </trkpt>
      <trkpt lat="42.45978" lon="-8.62217">
        <ele>144.6</ele>
        <time>2019-04-17T08:00:12Z</time>
      </trkpt>
      <trkpt lat="42.4598" lon="-8.62219">
        <ele>144.8</ele>
        <time>2019-04-17T08:00:12Z</time>
      </trkpt>
      <trkpt lat="42.45981" lon="-8.6222">
        <ele>145.1</ele>
        <time>2019-04-17T08:00:12Z</time>
      </trkpt>
      <trkpt lat="42.45982" lon="-8.62221">
        <ele>145.3</ele>
        <time>2019-04-17T08:00:12Z</time>
      </trkpt>
      <trkpt lat="42.45984" lon="-8.62222">
        <ele>145.5</ele>
        <time>2019-04-17T08:00:12Z</time>
      </trkpt>
      <trkpt lat="42.45985" lon="-8.62223">
        <ele>145.7</ele>
        <time>2019-04-17T08:00:12Z</time>
      </trkpt>
      <trkpt lat="42.45987" lon="-8.62224">
        <ele>145.9</ele>
        <time>2019-04-17T08:00:12Z</time>
      </trkpt>
      <trkpt lat="42.45988" lon="-8.62225">
        <ele>146.1</ele>
        <time>2019-04-17T08:00:12Z</time>
      </trkpt>
      <trkpt lat="42.45989" lon="-8.62226">
        <ele>146.3</ele>
        <time>2019-04-17T08:00:12Z</time>
      </trkpt>
      <trkpt lat="42.45991" lon="-8.62227">
        <ele>146.4</ele>
        <time>2019-04-17T08:00:12Z</time>
      </trkpt>
      <trkpt lat="42.45992" lon="-8.62229">
        <ele>146.6</ele>
        <time>2019-04-17T08:00:12Z</time>
      </trkpt>
      <trkpt lat="42.45994" lon="-8.6223">
        <ele>146.8</ele>
        <time>2019-04-17T08:00:12Z</time>
      </trkpt>
      <trkpt lat="42.45995" lon="-8.62231">
        <ele>146.9</ele>
        <time>2019-04-17T08:00:12Z</time>
      </trkpt>
      <trkpt lat="42.45997" lon="-8.62233">
        <ele>147.1</ele>
        <time>2019-04-17T08:00:12Z</time>
      </trkpt>
      <trkpt lat="42.45998" lon="-8.62234">
        <ele>147.3</ele>
        <time>2019-04-17T08:00:12Z</time>
      </trkpt>
      <trkpt lat="42.45999" lon="-8.62235">
        <ele>147.5</ele>
        <time>2019-04-17T08:00:12Z</time>
      </trkpt>
      <trkpt lat="42.46001" lon="-8.62237">
        <ele>147.6</ele>
        <time>2019-04-17T08:00:12Z</time>
      </trkpt>
      <trkpt lat="42.46002" lon="-8.62238">
        <ele>147.7</ele>
        <time>2019-04-17T08:00:12Z</time>
      </trkpt>
      <trkpt lat="42.46003" lon="-8.62239">
        <ele>147.9</ele>
        <time>2019-04-17T08:00:12Z</time>
      </trkpt>
      <trkpt lat="42.46005" lon="-8.6224">
        <ele>148</ele>
        <time>2019-04-17T08:00:12Z</time>
      </trkpt>
      <trkpt lat="42.46006" lon="-8.62241">
        <ele>148.1</ele>
        <time>2019-04-17T08:00:12Z</time>
      </trkpt>
      <trkpt lat="42.46008" lon="-8.62242">
        <ele>148.3</ele>
        <time>2019-04-17T08:00:12Z</time>
      </trkpt>
      <trkpt lat="42.46009" lon="-8.62243">
        <ele>148.4</ele>
        <time>2019-04-17T08:00:12Z</time>
      </trkpt>
      <trkpt lat="42.4601" lon="-8.62244">
        <ele>148.5</ele>
        <time>2019-04-17T08:00:12Z</time>
      </trkpt>
      <trkpt lat="42.46012" lon="-8.62245">
        <ele>148.7</ele>
        <time>2019-04-17T08:00:12Z</time>
      </trkpt>
      <trkpt lat="42.46014" lon="-8.62246">
        <ele>149</ele>
        <time>2019-04-17T08:00:12Z</time>
      </trkpt>
      <trkpt lat="42.46015" lon="-8.62247">
        <ele>149.2</ele>
        <time>2019-04-17T08:00:12Z</time>
      </trkpt>
      <trkpt lat="42.46017" lon="-8.62248">
        <ele>149.3</ele>
        <time>2019-04-17T08:00:12Z</time>
      </trkpt>
      <trkpt lat="42.46018" lon="-8.62249">
        <ele>149.4</ele>
        <time>2019-04-17T08:00:12Z</time>
      </trkpt>
      <trkpt lat="42.4602" lon="-8.62249">
        <ele>149.6</ele>
        <time>2019-04-17T08:00:12Z</time>
      </trkpt>
      <trkpt lat="42.46021" lon="-8.6225">
        <ele>149.7</ele>
        <time>2019-04-17T08:00:12Z</time>
      </trkpt>
      <trkpt lat="42.46023" lon="-8.62251">
        <ele>149.9</ele>
        <time>2019-04-17T08:00:12Z</time>
      </trkpt>
      <trkpt lat="42.46024" lon="-8.62252">
        <ele>150.1</ele>
        <time>2019-04-17T08:00:12Z</time>
      </trkpt>
      <trkpt lat="42.46026" lon="-8.62252">
        <ele>150.3</ele>
        <time>2019-04-17T08:00:12Z</time>
      </trkpt>
      <trkpt lat="42.46027" lon="-8.62252">
        <ele>150.5</ele>
        <time>2019-04-17T08:00:12Z</time>
      </trkpt>
      <trkpt lat="42.46029" lon="-8.62252">
        <ele>150.8</ele>
        <time>2019-04-17T08:00:12Z</time>
      </trkpt>
      <trkpt lat="42.46031" lon="-8.62253">
        <ele>150.9</ele>
        <time>2019-04-17T08:00:12Z</time>
      </trkpt>
      <trkpt lat="42.46032" lon="-8.62253">
        <ele>151.1</ele>
        <time>2019-04-17T08:00:12Z</time>
      </trkpt>
      <trkpt lat="42.46034" lon="-8.62253">
        <ele>151.2</ele>
        <time>2019-04-17T08:00:12Z</time>
      </trkpt>
      <trkpt lat="42.46035" lon="-8.62253">
        <ele>151.4</ele>
        <time>2019-04-17T08:00:12Z</time>
      </trkpt>
      <trkpt lat="42.46037" lon="-8.62253">
        <ele>151.6</ele>
        <time>2019-04-17T08:00:12Z</time>
      </trkpt>
      <trkpt lat="42.46038" lon="-8.62254">
        <ele>151.8</ele>
        <time>2019-04-17T08:00:12Z</time>
      </trkpt>
      <trkpt lat="42.4604" lon="-8.62253">
        <ele>152.1</ele>
        <time>2019-04-17T08:00:12Z</time>
      </trkpt>
      <trkpt lat="42.46041" lon="-8.62253">
        <ele>152.3</ele>
        <time>2019-04-17T08:00:12Z</time>
      </trkpt>
      <trkpt lat="42.46043" lon="-8.62253">
        <ele>152.6</ele>
        <time>2019-04-17T08:00:12Z</time>
      </trkpt>
      <trkpt lat="42.46044" lon="-8.62252">
        <ele>152.9</ele>
        <time>2019-04-17T08:00:12Z</time>
      </trkpt>
      <trkpt lat="42.46045" lon="-8.62251">
        <ele>153.2</ele>
        <time>2019-04-17T08:00:12Z</time>
      </trkpt>
      <trkpt lat="42.46046" lon="-8.62251">
        <ele>153.5</ele>
        <time>2019-04-17T08:00:12Z</time>
      </trkpt>
      <trkpt lat="42.46048" lon="-8.6225">
        <ele>153.9</ele>
        <time>2019-04-17T08:00:12Z</time>
      </trkpt>
      <trkpt lat="42.46048" lon="-8.62249">
        <ele>154.1</ele>
        <time>2019-04-17T08:00:12Z</time>
      </trkpt>
      <trkpt lat="42.46049" lon="-8.62248">
        <ele>154.4</ele>
        <time>2019-04-17T08:00:12Z</time>
      </trkpt>
      <trkpt lat="42.46051" lon="-8.62247">
        <ele>154.8</ele>
        <time>2019-04-17T08:00:12Z</time>
      </trkpt>
      <trkpt lat="42.46052" lon="-8.62246">
        <ele>155</ele>
        <time>2019-04-17T08:00:12Z</time>
      </trkpt>
      <trkpt lat="42.46053" lon="-8.62245">
        <ele>155.3</ele>
        <time>2019-04-17T08:00:12Z</time>
      </trkpt>
      <trkpt lat="42.46054" lon="-8.62244">
        <ele>155.6</ele>
        <time>2019-04-17T08:00:12Z</time>
      </trkpt>
      <trkpt lat="42.46055" lon="-8.62243">
        <ele>155.9</ele>
        <time>2019-04-17T08:00:12Z</time>
      </trkpt>
      <trkpt lat="42.46055" lon="-8.62242">
        <ele>156.2</ele>
        <time>2019-04-17T08:00:12Z</time>
      </trkpt>
      <trkpt lat="42.46056" lon="-8.62241">
        <ele>156.4</ele>
        <time>2019-04-17T08:00:12Z</time>
      </trkpt>
      <trkpt lat="42.46057" lon="-8.6224">
        <ele>156.6</ele>
        <time>2019-04-17T08:00:12Z</time>
      </trkpt>
      <trkpt lat="42.46058" lon="-8.62239">
        <ele>156.8</ele>
        <time>2019-04-17T08:00:12Z</time>
      </trkpt>
      <trkpt lat="42.46059" lon="-8.62238">
        <ele>157</ele>
        <time>2019-04-17T08:00:12Z</time>
      </trkpt>
      <trkpt lat="42.46059" lon="-8.62237">
        <ele>157.2</ele>
        <time>2019-04-17T08:00:12Z</time>
      </trkpt>
      <trkpt lat="42.4606" lon="-8.62236">
        <ele>157.4</ele>
        <time>2019-04-17T08:00:12Z</time>
      </trkpt>
      <trkpt lat="42.46061" lon="-8.62234">
        <ele>157.7</ele>
        <time>2019-04-17T08:00:12Z</time>
      </trkpt>
      <trkpt lat="42.46062" lon="-8.62233">
        <ele>157.9</ele>
        <time>2019-04-17T08:00:12Z</time>
      </trkpt>
      <trkpt lat="42.46063" lon="-8.62232">
        <ele>158.1</ele>
        <time>2019-04-17T08:00:12Z</time>
      </trkpt>
      <trkpt lat="42.46064" lon="-8.62232">
        <ele>158.3</ele>
        <time>2019-04-17T08:00:12Z</time>
      </trkpt>
      <trkpt lat="42.46065" lon="-8.62231">
        <ele>158.5</ele>
        <time>2019-04-17T08:00:12Z</time>
      </trkpt>
      <trkpt lat="42.46066" lon="-8.6223">
        <ele>158.7</ele>
        <time>2019-04-17T08:00:12Z</time>
      </trkpt>
      <trkpt lat="42.46067" lon="-8.62229">
        <ele>158.9</ele>
        <time>2019-04-17T08:00:12Z</time>
      </trkpt>
      <trkpt lat="42.46068" lon="-8.62228">
        <ele>159.1</ele>
        <time>2019-04-17T08:00:12Z</time>
      </trkpt>
      <trkpt lat="42.46069" lon="-8.62227">
        <ele>159.3</ele>
        <time>2019-04-17T08:00:12Z</time>
      </trkpt>
      <trkpt lat="42.4607" lon="-8.62226">
        <ele>159.6</ele>
        <time>2019-04-17T08:00:12Z</time>
      </trkpt>
      <trkpt lat="42.46071" lon="-8.62225">
        <ele>159.8</ele>
        <time>2019-04-17T08:00:12Z</time>
      </trkpt>
      <trkpt lat="42.46073" lon="-8.62223">
        <ele>160.1</ele>
        <time>2019-04-17T08:00:12Z</time>
      </trkpt>
      <trkpt lat="42.46073" lon="-8.62222">
        <ele>160.3</ele>
        <time>2019-04-17T08:00:12Z</time>
      </trkpt>
      <trkpt lat="42.46074" lon="-8.62221">
        <ele>160.6</ele>
        <time>2019-04-17T08:00:12Z</time>
      </trkpt>
      <trkpt lat="42.46075" lon="-8.62219">
        <ele>160.8</ele>
        <time>2019-04-17T08:00:12Z</time>
      </trkpt>
      <trkpt lat="42.46076" lon="-8.62218">
        <ele>161.1</ele>
        <time>2019-04-17T08:00:12Z</time>
      </trkpt>
      <trkpt lat="42.46077" lon="-8.62216">
        <ele>161.3</ele>
        <time>2019-04-17T08:00:12Z</time>
      </trkpt>
      <trkpt lat="42.46078" lon="-8.62215">
        <ele>161.6</ele>
        <time>2019-04-17T08:00:12Z</time>
      </trkpt>
      <trkpt lat="42.46079" lon="-8.62213">
        <ele>161.9</ele>
        <time>2019-04-17T08:00:12Z</time>
      </trkpt>
      <trkpt lat="42.46079" lon="-8.62212">
        <ele>162.2</ele>
        <time>2019-04-17T08:00:12Z</time>
      </trkpt>
      <trkpt lat="42.4608" lon="-8.6221">
        <ele>162.4</ele>
        <time>2019-04-17T08:00:12Z</time>
      </trkpt>
      <trkpt lat="42.46081" lon="-8.62209">
        <ele>162.7</ele>
        <time>2019-04-17T08:00:12Z</time>
      </trkpt>
      <trkpt lat="42.46081" lon="-8.62207">
        <ele>163</ele>
        <time>2019-04-17T08:00:12Z</time>
      </trkpt>
      <trkpt lat="42.46082" lon="-8.62205">
        <ele>163.3</ele>
        <time>2019-04-17T08:00:12Z</time>
      </trkpt>
      <trkpt lat="42.46083" lon="-8.62204">
        <ele>163.6</ele>
        <time>2019-04-17T08:00:12Z</time>
      </trkpt>
      <trkpt lat="42.46084" lon="-8.62202">
        <ele>163.9</ele>
        <time>2019-04-17T08:00:12Z</time>
      </trkpt>
      <trkpt lat="42.46084" lon="-8.62201">
        <ele>164.2</ele>
        <time>2019-04-17T08:00:12Z</time>
      </trkpt>
      <trkpt lat="42.46085" lon="-8.62199">
        <ele>164.4</ele>
        <time>2019-04-17T08:00:12Z</time>
      </trkpt>
      <trkpt lat="42.46085" lon="-8.62197">
        <ele>164.7</ele>
        <time>2019-04-17T08:00:12Z</time>
      </trkpt>
      <trkpt lat="42.46086" lon="-8.62196">
        <ele>164.9</ele>
        <time>2019-04-17T08:00:12Z</time>
      </trkpt>
      <trkpt lat="42.46087" lon="-8.62194">
        <ele>165.2</ele>
        <time>2019-04-17T08:00:12Z</time>
      </trkpt>
      <trkpt lat="42.46087" lon="-8.62192">
        <ele>165.4</ele>
        <time>2019-04-17T08:00:12Z</time>
      </trkpt>
      <trkpt lat="42.46088" lon="-8.6219">
        <ele>165.6</ele>
        <time>2019-04-17T08:00:12Z</time>
      </trkpt>
      <trkpt lat="42.46089" lon="-8.62189">
        <ele>165.8</ele>
        <time>2019-04-17T08:00:12Z</time>
      </trkpt>
      <trkpt lat="42.4609" lon="-8.62187">
        <ele>166</ele>
        <time>2019-04-17T08:00:12Z</time>
      </trkpt>
      <trkpt lat="42.4609" lon="-8.62185">
        <ele>166.3</ele>
        <time>2019-04-17T08:00:12Z</time>
      </trkpt>
      <trkpt lat="42.46091" lon="-8.62183">
        <ele>166.5</ele>
        <time>2019-04-17T08:00:12Z</time>
      </trkpt>
      <trkpt lat="42.46092" lon="-8.62182">
        <ele>166.7</ele>
        <time>2019-04-17T08:00:12Z</time>
      </trkpt>
      <trkpt lat="42.46093" lon="-8.6218">
        <ele>166.9</ele>
        <time>2019-04-17T08:00:12Z</time>
      </trkpt>
      <trkpt lat="42.46093" lon="-8.62178">
        <ele>167.1</ele>
        <time>2019-04-17T08:00:12Z</time>
      </trkpt>
      <trkpt lat="42.46094" lon="-8.62176">
        <ele>167.3</ele>
        <time>2019-04-17T08:00:12Z</time>
      </trkpt>
      <trkpt lat="42.46094" lon="-8.62175">
        <ele>167.5</ele>
        <time>2019-04-17T08:00:12Z</time>
      </trkpt>
      <trkpt lat="42.46095" lon="-8.62173">
        <ele>167.7</ele>
        <time>2019-04-17T08:00:12Z</time>
      </trkpt>
      <trkpt lat="42.46096" lon="-8.62173">
        <ele>167.8</ele>
        <time>2019-04-17T08:00:12Z</time>
      </trkpt>
      <trkpt lat="42.46098" lon="-8.62172">
        <ele>167.9</ele>
        <time>2019-04-17T08:00:12Z</time>
      </trkpt>
      <trkpt lat="42.46099" lon="-8.62172">
        <ele>168</ele>
        <time>2019-04-17T08:00:12Z</time>
      </trkpt>
      <trkpt lat="42.461" lon="-8.62171">
        <ele>168.1</ele>
        <time>2019-04-17T08:00:12Z</time>
      </trkpt>
      <trkpt lat="42.46101" lon="-8.62172">
        <ele>168.1</ele>
        <time>2019-04-17T08:00:12Z</time>
      </trkpt>
      <trkpt lat="42.46103" lon="-8.62172">
        <ele>168.2</ele>
        <time>2019-04-17T08:00:12Z</time>
      </trkpt>
      <trkpt lat="42.46104" lon="-8.62172">
        <ele>168.2</ele>
        <time>2019-04-17T08:00:12Z</time>
      </trkpt>
      <trkpt lat="42.46106" lon="-8.62172">
        <ele>168.3</ele>
        <time>2019-04-17T08:00:12Z</time>
      </trkpt>
      <trkpt lat="42.46107" lon="-8.62172">
        <ele>168.3</ele>
        <time>2019-04-17T08:00:12Z</time>
      </trkpt>
      <trkpt lat="42.46109" lon="-8.62171">
        <ele>168.4</ele>
        <time>2019-04-17T08:00:12Z</time>
      </trkpt>
      <trkpt lat="42.46111" lon="-8.62171">
        <ele>168.5</ele>
        <time>2019-04-17T08:00:12Z</time>
      </trkpt>
      <trkpt lat="42.46113" lon="-8.62171">
        <ele>168.6</ele>
        <time>2019-04-17T08:00:12Z</time>
      </trkpt>
      <trkpt lat="42.46115" lon="-8.62171">
        <ele>168.6</ele>
        <time>2019-04-17T08:00:12Z</time>
      </trkpt>
      <trkpt lat="42.46116" lon="-8.6217">
        <ele>168.6</ele>
        <time>2019-04-17T08:00:12Z</time>
      </trkpt>
      <trkpt lat="42.46118" lon="-8.6217">
        <ele>168.7</ele>
        <time>2019-04-17T08:00:12Z</time>
      </trkpt>
      <trkpt lat="42.4612" lon="-8.6217">
        <ele>168.7</ele>
        <time>2019-04-17T08:00:12Z</time>
      </trkpt>
      <trkpt lat="42.46122" lon="-8.6217">
        <ele>168.7</ele>
        <time>2019-04-17T08:00:12Z</time>
      </trkpt>
      <trkpt lat="42.46124" lon="-8.6217">
        <ele>168.7</ele>
        <time>2019-04-17T08:00:12Z</time>
      </trkpt>
      <trkpt lat="42.46125" lon="-8.6217">
        <ele>168.7</ele>
        <time>2019-04-17T08:00:12Z</time>
      </trkpt>
      <trkpt lat="42.46127" lon="-8.6217">
        <ele>168.7</ele>
        <time>2019-04-17T08:00:12Z</time>
      </trkpt>
      <trkpt lat="42.46128" lon="-8.6217">
        <ele>168.7</ele>
        <time>2019-04-17T08:00:12Z</time>
      </trkpt>
      <trkpt lat="42.4613" lon="-8.62169">
        <ele>168.8</ele>
        <time>2019-04-17T08:00:12Z</time>
      </trkpt>
      <trkpt lat="42.46132" lon="-8.62169">
        <ele>168.8</ele>
        <time>2019-04-17T08:00:12Z</time>
      </trkpt>
      <trkpt lat="42.46134" lon="-8.62169">
        <ele>168.9</ele>
        <time>2019-04-17T08:00:12Z</time>
      </trkpt>
      <trkpt lat="42.46137" lon="-8.62168">
        <ele>168.9</ele>
        <time>2019-04-17T08:00:12Z</time>
      </trkpt>
      <trkpt lat="42.46139" lon="-8.62167">
        <ele>169</ele>
        <time>2019-04-17T08:00:12Z</time>
      </trkpt>
      <trkpt lat="42.46141" lon="-8.62166">
        <ele>169.1</ele>
        <time>2019-04-17T08:00:12Z</time>
      </trkpt>
      <trkpt lat="42.46143" lon="-8.62165">
        <ele>169.2</ele>
        <time>2019-04-17T08:00:12Z</time>
      </trkpt>
      <trkpt lat="42.46144" lon="-8.62164">
        <ele>169.3</ele>
        <time>2019-04-17T08:00:12Z</time>
      </trkpt>
      <trkpt lat="42.46146" lon="-8.62163">
        <ele>169.4</ele>
        <time>2019-04-17T08:00:12Z</time>
      </trkpt>
      <trkpt lat="42.46148" lon="-8.62163">
        <ele>169.6</ele>
        <time>2019-04-17T08:00:12Z</time>
      </trkpt>
      <trkpt lat="42.4615" lon="-8.62162">
        <ele>169.7</ele>
        <time>2019-04-17T08:00:12Z</time>
      </trkpt>
      <trkpt lat="42.46152" lon="-8.62161">
        <ele>169.7</ele>
        <time>2019-04-17T08:00:12Z</time>
      </trkpt>
      <trkpt lat="42.46154" lon="-8.6216">
        <ele>169.9</ele>
        <time>2019-04-17T08:00:12Z</time>
      </trkpt>
      <trkpt lat="42.46156" lon="-8.62159">
        <ele>170</ele>
        <time>2019-04-17T08:00:12Z</time>
      </trkpt>
      <trkpt lat="42.46158" lon="-8.62158">
        <ele>170.1</ele>
        <time>2019-04-17T08:00:12Z</time>
      </trkpt>
      <trkpt lat="42.4616" lon="-8.62157">
        <ele>170.2</ele>
        <time>2019-04-17T08:00:12Z</time>
      </trkpt>
      <trkpt lat="42.46161" lon="-8.62156">
        <ele>170.2</ele>
        <time>2019-04-17T08:00:12Z</time>
      </trkpt>
      <trkpt lat="42.46163" lon="-8.62155">
        <ele>170.3</ele>
        <time>2019-04-17T08:00:12Z</time>
      </trkpt>
      <trkpt lat="42.46165" lon="-8.62154">
        <ele>170.4</ele>
        <time>2019-04-17T08:00:12Z</time>
      </trkpt>
      <trkpt lat="42.46167" lon="-8.62153">
        <ele>170.5</ele>
        <time>2019-04-17T08:00:12Z</time>
      </trkpt>
      <trkpt lat="42.46168" lon="-8.62151">
        <ele>170.6</ele>
        <time>2019-04-17T08:00:12Z</time>
      </trkpt>
      <trkpt lat="42.4617" lon="-8.62149">
        <ele>170.8</ele>
        <time>2019-04-17T08:00:12Z</time>
      </trkpt>
      <trkpt lat="42.46172" lon="-8.62147">
        <ele>171</ele>
        <time>2019-04-17T08:00:12Z</time>
      </trkpt>
      <trkpt lat="42.46173" lon="-8.62145">
        <ele>171.1</ele>
        <time>2019-04-17T08:00:12Z</time>
      </trkpt>
      <trkpt lat="42.46174" lon="-8.62143">
        <ele>171.2</ele>
        <time>2019-04-17T08:00:12Z</time>
      </trkpt>
      <trkpt lat="42.46176" lon="-8.62141">
        <ele>171.4</ele>
        <time>2019-04-17T08:00:12Z</time>
      </trkpt>
      <trkpt lat="42.46177" lon="-8.62139">
        <ele>171.6</ele>
        <time>2019-04-17T08:00:12Z</time>
      </trkpt>
      <trkpt lat="42.46178" lon="-8.62137">
        <ele>171.8</ele>
        <time>2019-04-17T08:00:12Z</time>
      </trkpt>
      <trkpt lat="42.46179" lon="-8.62136">
        <ele>171.9</ele>
        <time>2019-04-17T08:00:12Z</time>
      </trkpt>
      <trkpt lat="42.4618" lon="-8.62134">
        <ele>172.1</ele>
        <time>2019-04-17T08:00:12Z</time>
      </trkpt>
      <trkpt lat="42.46181" lon="-8.62132">
        <ele>172.2</ele>
        <time>2019-04-17T08:00:12Z</time>
      </trkpt>
      <trkpt lat="42.46183" lon="-8.62131">
        <ele>172.3</ele>
        <time>2019-04-17T08:00:12Z</time>
      </trkpt>
      <trkpt lat="42.46184" lon="-8.62129">
        <ele>172.5</ele>
        <time>2019-04-17T08:00:12Z</time>
      </trkpt>
      <trkpt lat="42.46185" lon="-8.62127">
        <ele>172.6</ele>
        <time>2019-04-17T08:00:12Z</time>
      </trkpt>
      <trkpt lat="42.46187" lon="-8.62126">
        <ele>172.6</ele>
        <time>2019-04-17T08:00:12Z</time>
      </trkpt>
      <trkpt lat="42.46188" lon="-8.62125">
        <ele>172.7</ele>
        <time>2019-04-17T08:00:12Z</time>
      </trkpt>
      <trkpt lat="42.46189" lon="-8.62124">
        <ele>172.8</ele>
        <time>2019-04-17T08:00:12Z</time>
      </trkpt>
      <trkpt lat="42.46191" lon="-8.62123">
        <ele>172.9</ele>
        <time>2019-04-17T08:00:12Z</time>
      </trkpt>
      <trkpt lat="42.46192" lon="-8.62121">
        <ele>173</ele>
        <time>2019-04-17T08:00:12Z</time>
      </trkpt>
      <trkpt lat="42.46194" lon="-8.62119">
        <ele>173.1</ele>
        <time>2019-04-17T08:00:12Z</time>
      </trkpt>
      <trkpt lat="42.46196" lon="-8.62118">
        <ele>173.1</ele>
        <time>2019-04-17T08:00:12Z</time>
      </trkpt>
      <trkpt lat="42.46199" lon="-8.62116">
        <ele>173</ele>
        <time>2019-04-17T08:00:12Z</time>
      </trkpt>
      <trkpt lat="42.46201" lon="-8.62114">
        <ele>173</ele>
        <time>2019-04-17T08:00:12Z</time>
      </trkpt>
      <trkpt lat="42.46204" lon="-8.62112">
        <ele>172.9</ele>
        <time>2019-04-17T08:00:12Z</time>
      </trkpt>
      <trkpt lat="42.46206" lon="-8.6211">
        <ele>172.8</ele>
        <time>2019-04-17T08:00:12Z</time>
      </trkpt>
      <trkpt lat="42.4621" lon="-8.62109">
        <ele>172.6</ele>
        <time>2019-04-17T08:00:12Z</time>
      </trkpt>
      <trkpt lat="42.46213" lon="-8.62108">
        <ele>172.3</ele>
        <time>2019-04-17T08:00:12Z</time>
      </trkpt>
      <trkpt lat="42.46216" lon="-8.62107">
        <ele>172.1</ele>
        <time>2019-04-17T08:00:12Z</time>
      </trkpt>
      <trkpt lat="42.4622" lon="-8.62105">
        <ele>171.8</ele>
        <time>2019-04-17T08:00:12Z</time>
      </trkpt>
      <trkpt lat="42.46223" lon="-8.62104">
        <ele>171.7</ele>
        <time>2019-04-17T08:00:12Z</time>
      </trkpt>
      <trkpt lat="42.46226" lon="-8.62102">
        <ele>171.7</ele>
        <time>2019-04-17T08:00:12Z</time>
      </trkpt>
      <trkpt lat="42.46229" lon="-8.62101">
        <ele>171.7</ele>
        <time>2019-04-17T08:00:12Z</time>
      </trkpt>
      <trkpt lat="42.46232" lon="-8.62099">
        <ele>171.7</ele>
        <time>2019-04-17T08:00:12Z</time>
      </trkpt>
      <trkpt lat="42.46235" lon="-8.62098">
        <ele>171.8</ele>
        <time>2019-04-17T08:00:12Z</time>
      </trkpt>
      <trkpt lat="42.46238" lon="-8.62096">
        <ele>171.8</ele>
        <time>2019-04-17T08:00:12Z</time>
      </trkpt>
      <trkpt lat="42.4624" lon="-8.62095">
        <ele>171.8</ele>
        <time>2019-04-17T08:00:12Z</time>
      </trkpt>
      <trkpt lat="42.46243" lon="-8.62095">
        <ele>171.7</ele>
        <time>2019-04-17T08:00:12Z</time>
      </trkpt>
      <trkpt lat="42.46245" lon="-8.62095">
        <ele>171.6</ele>
        <time>2019-04-17T08:00:12Z</time>
      </trkpt>
      <trkpt lat="42.46248" lon="-8.62095">
        <ele>171.5</ele>
        <time>2019-04-17T08:00:12Z</time>
      </trkpt>
      <trkpt lat="42.4625" lon="-8.62096">
        <ele>171.2</ele>
        <time>2019-04-17T08:00:12Z</time>
      </trkpt>
      <trkpt lat="42.46253" lon="-8.62098">
        <ele>171.2</ele>
        <time>2019-04-17T08:00:12Z</time>
      </trkpt>
      <trkpt lat="42.46255" lon="-8.62099">
        <ele>171.3</ele>
        <time>2019-04-17T08:00:12Z</time>
      </trkpt>
      <trkpt lat="42.46258" lon="-8.62101">
        <ele>171.4</ele>
        <time>2019-04-17T08:00:12Z</time>
      </trkpt>
      <trkpt lat="42.4626" lon="-8.62102">
        <ele>171.3</ele>
        <time>2019-04-17T08:00:12Z</time>
      </trkpt>
      <trkpt lat="42.46262" lon="-8.62104">
        <ele>171.3</ele>
        <time>2019-04-17T08:00:12Z</time>
      </trkpt>
      <trkpt lat="42.46265" lon="-8.62106">
        <ele>171.3</ele>
        <time>2019-04-17T08:00:12Z</time>
      </trkpt>
      <trkpt lat="42.46267" lon="-8.62109">
        <ele>171.1</ele>
        <time>2019-04-17T08:00:12Z</time>
      </trkpt>
      <trkpt lat="42.46269" lon="-8.62112">
        <ele>171</ele>
        <time>2019-04-17T08:00:12Z</time>
      </trkpt>
      <trkpt lat="42.46272" lon="-8.62114">
        <ele>170.9</ele>
        <time>2019-04-17T08:00:12Z</time>
      </trkpt>
      <trkpt lat="42.46274" lon="-8.62116">
        <ele>170.9</ele>
        <time>2019-04-17T08:00:12Z</time>
      </trkpt>
      <trkpt lat="42.46276" lon="-8.62118">
        <ele>170.9</ele>
        <time>2019-04-17T08:00:12Z</time>
      </trkpt>
      <trkpt lat="42.46279" lon="-8.62119">
        <ele>170.8</ele>
        <time>2019-04-17T08:00:12Z</time>
      </trkpt>
      <trkpt lat="42.46281" lon="-8.6212">
        <ele>170.6</ele>
        <time>2019-04-17T08:00:12Z</time>
      </trkpt>
      <trkpt lat="42.46284" lon="-8.62121">
        <ele>170.4</ele>
        <time>2019-04-17T08:00:12Z</time>
      </trkpt>
      <trkpt lat="42.46286" lon="-8.62121">
        <ele>170.2</ele>
        <time>2019-04-17T08:00:12Z</time>
      </trkpt>
      <trkpt lat="42.46289" lon="-8.62122">
        <ele>170</ele>
        <time>2019-04-17T08:00:12Z</time>
      </trkpt>
      <trkpt lat="42.46291" lon="-8.62123">
        <ele>169.8</ele>
        <time>2019-04-17T08:00:12Z</time>
      </trkpt>
      <trkpt lat="42.46294" lon="-8.62124">
        <ele>169.6</ele>
        <time>2019-04-17T08:00:12Z</time>
      </trkpt>
      <trkpt lat="42.46296" lon="-8.62125">
        <ele>169.3</ele>
        <time>2019-04-17T08:00:12Z</time>
      </trkpt>
      <trkpt lat="42.46298" lon="-8.62127">
        <ele>169</ele>
        <time>2019-04-17T08:00:12Z</time>
      </trkpt>
      <trkpt lat="42.46299" lon="-8.62129">
        <ele>168.6</ele>
        <time>2019-04-17T08:00:12Z</time>
      </trkpt>
      <trkpt lat="42.463" lon="-8.62132">
        <ele>168.2</ele>
        <time>2019-04-17T08:00:12Z</time>
      </trkpt>
      <trkpt lat="42.463" lon="-8.62136">
        <ele>167.7</ele>
        <time>2019-04-17T08:00:12Z</time>
      </trkpt>
      <trkpt lat="42.46299" lon="-8.62139">
        <ele>167.2</ele>
        <time>2019-04-17T08:00:12Z</time>
      </trkpt>
      <trkpt lat="42.46298" lon="-8.62143">
        <ele>166.7</ele>
        <time>2019-04-17T08:00:12Z</time>
      </trkpt>
      <trkpt lat="42.46298" lon="-8.62147">
        <ele>166.1</ele>
        <time>2019-04-17T08:00:12Z</time>
      </trkpt>
      <trkpt lat="42.46297" lon="-8.6215">
        <ele>165.6</ele>
        <time>2019-04-17T08:00:12Z</time>
      </trkpt>
      <trkpt lat="42.46297" lon="-8.62153">
        <ele>165.1</ele>
        <time>2019-04-17T08:00:12Z</time>
      </trkpt>
      <trkpt lat="42.46297" lon="-8.62157">
        <ele>164.6</ele>
        <time>2019-04-17T08:00:12Z</time>
      </trkpt>
      <trkpt lat="42.46297" lon="-8.6216">
        <ele>164.1</ele>
        <time>2019-04-17T08:00:12Z</time>
      </trkpt>
      <trkpt lat="42.46297" lon="-8.62163">
        <ele>163.6</ele>
        <time>2019-04-17T08:00:12Z</time>
      </trkpt>
      <trkpt lat="42.46297" lon="-8.62166">
        <ele>163.2</ele>
        <time>2019-04-17T08:00:12Z</time>
      </trkpt>
      <trkpt lat="42.46297" lon="-8.62169">
        <ele>162.7</ele>
        <time>2019-04-17T08:00:12Z</time>
      </trkpt>
      <trkpt lat="42.46297" lon="-8.62171">
        <ele>162.3</ele>
        <time>2019-04-17T08:00:12Z</time>
      </trkpt>
      <trkpt lat="42.46298" lon="-8.62174">
        <ele>161.9</ele>
        <time>2019-04-17T08:00:12Z</time>
      </trkpt>
      <trkpt lat="42.46298" lon="-8.62176">
        <ele>161.6</ele>
        <time>2019-04-17T08:00:12Z</time>
      </trkpt>
      <trkpt lat="42.46299" lon="-8.62178">
        <ele>161.2</ele>
        <time>2019-04-17T08:00:12Z</time>
      </trkpt>
      <trkpt lat="42.46299" lon="-8.62181">
        <ele>160.8</ele>
        <time>2019-04-17T08:00:12Z</time>
      </trkpt>
      <trkpt lat="42.463" lon="-8.62184">
        <ele>160.4</ele>
        <time>2019-04-17T08:00:12Z</time>
      </trkpt>
      <trkpt lat="42.46301" lon="-8.62187">
        <ele>160</ele>
        <time>2019-04-17T08:00:12Z</time>
      </trkpt>
      <trkpt lat="42.46301" lon="-8.62189">
        <ele>159.7</ele>
        <time>2019-04-17T08:00:12Z</time>
      </trkpt>
      <trkpt lat="42.46302" lon="-8.6219">
        <ele>159.5</ele>
        <time>2019-04-17T08:00:12Z</time>
      </trkpt>
      <trkpt lat="42.46303" lon="-8.62191">
        <ele>159.4</ele>
        <time>2019-04-17T08:00:12Z</time>
      </trkpt>
      <trkpt lat="42.46303" lon="-8.62191">
        <ele>159.4</ele>
        <time>2019-04-17T08:00:12Z</time>
      </trkpt>
      <trkpt lat="42.46304" lon="-8.62191">
        <ele>159.5</ele>
        <time>2019-04-17T08:00:12Z</time>
      </trkpt>
      <trkpt lat="42.46305" lon="-8.6219">
        <ele>159.7</ele>
        <time>2019-04-17T08:00:12Z</time>
      </trkpt>
      <trkpt lat="42.46307" lon="-8.62188">
        <ele>159.8</ele>
        <time>2019-04-17T08:00:12Z</time>
      </trkpt>
      <trkpt lat="42.46309" lon="-8.62187">
        <ele>159.9</ele>
        <time>2019-04-17T08:00:12Z</time>
      </trkpt>
      <trkpt lat="42.4631" lon="-8.62186">
        <ele>159.9</ele>
        <time>2019-04-17T08:00:12Z</time>
      </trkpt>
      <trkpt lat="42.46312" lon="-8.62186">
        <ele>159.9</ele>
        <time>2019-04-17T08:00:12Z</time>
      </trkpt>
      <trkpt lat="42.46314" lon="-8.62185">
        <ele>159.8</ele>
        <time>2019-04-17T08:00:12Z</time>
      </trkpt>
      <trkpt lat="42.46316" lon="-8.62184">
        <ele>159.8</ele>
        <time>2019-04-17T08:00:12Z</time>
      </trkpt>
      <trkpt lat="42.46319" lon="-8.62183">
        <ele>159.9</ele>
        <time>2019-04-17T08:00:12Z</time>
      </trkpt>
      <trkpt lat="42.46322" lon="-8.62182">
        <ele>159.9</ele>
        <time>2019-04-17T08:00:12Z</time>
      </trkpt>
      <trkpt lat="42.46325" lon="-8.6218">
        <ele>160</ele>
        <time>2019-04-17T08:00:12Z</time>
      </trkpt>
      <trkpt lat="42.46328" lon="-8.62178">
        <ele>160.2</ele>
        <time>2019-04-17T08:00:12Z</time>
      </trkpt>
      <trkpt lat="42.46332" lon="-8.62176">
        <ele>160.5</ele>
        <time>2019-04-17T08:00:12Z</time>
      </trkpt>
      <trkpt lat="42.46335" lon="-8.62173">
        <ele>160.6</ele>
        <time>2019-04-17T08:00:12Z</time>
      </trkpt>
      <trkpt lat="42.46338" lon="-8.62171">
        <ele>160.7</ele>
        <time>2019-04-17T08:00:12Z</time>
      </trkpt>
      <trkpt lat="42.46341" lon="-8.62168">
        <ele>160.7</ele>
        <time>2019-04-17T08:00:12Z</time>
      </trkpt>
      <trkpt lat="42.46344" lon="-8.62165">
        <ele>160.7</ele>
        <time>2019-04-17T08:00:12Z</time>
      </trkpt>
      <trkpt lat="42.46346" lon="-8.62161">
        <ele>160.7</ele>
        <time>2019-04-17T08:00:12Z</time>
      </trkpt>
      <trkpt lat="42.46348" lon="-8.62158">
        <ele>160.7</ele>
        <time>2019-04-17T08:00:12Z</time>
      </trkpt>
      <trkpt lat="42.4635" lon="-8.62154">
        <ele>160.7</ele>
        <time>2019-04-17T08:00:12Z</time>
      </trkpt>
      <trkpt lat="42.46352" lon="-8.62151">
        <ele>160.6</ele>
        <time>2019-04-17T08:00:12Z</time>
      </trkpt>
      <trkpt lat="42.46354" lon="-8.62148">
        <ele>160.5</ele>
        <time>2019-04-17T08:00:12Z</time>
      </trkpt>
      <trkpt lat="42.46357" lon="-8.62144">
        <ele>160.4</ele>
        <time>2019-04-17T08:00:12Z</time>
      </trkpt>
      <trkpt lat="42.46359" lon="-8.62141">
        <ele>160.3</ele>
        <time>2019-04-17T08:00:12Z</time>
      </trkpt>
      <trkpt lat="42.46361" lon="-8.62138">
        <ele>160.3</ele>
        <time>2019-04-17T08:00:12Z</time>
      </trkpt>
      <trkpt lat="42.46362" lon="-8.62134">
        <ele>160.6</ele>
        <time>2019-04-17T08:00:12Z</time>
      </trkpt>
      <trkpt lat="42.46364" lon="-8.62131">
        <ele>161</ele>
        <time>2019-04-17T08:00:12Z</time>
      </trkpt>
      <trkpt lat="42.46365" lon="-8.62127">
        <ele>161.4</ele>
        <time>2019-04-17T08:00:12Z</time>
      </trkpt>
      <trkpt lat="42.46366" lon="-8.62124">
        <ele>161.7</ele>
        <time>2019-04-17T08:00:12Z</time>
      </trkpt>
      <trkpt lat="42.46367" lon="-8.62121">
        <ele>161.9</ele>
        <time>2019-04-17T08:00:12Z</time>
      </trkpt>
      <trkpt lat="42.4637" lon="-8.62121">
        <ele>161.7</ele>
        <time>2019-04-17T08:00:12Z</time>
      </trkpt>
      <trkpt lat="42.46372" lon="-8.62121">
        <ele>161.4</ele>
        <time>2019-04-17T08:00:12Z</time>
      </trkpt>
      <trkpt lat="42.46375" lon="-8.62122">
        <ele>161</ele>
        <time>2019-04-17T08:00:12Z</time>
      </trkpt>
      <trkpt lat="42.46379" lon="-8.62124">
        <ele>160.5</ele>
        <time>2019-04-17T08:00:12Z</time>
      </trkpt>
      <trkpt lat="42.46382" lon="-8.62125">
        <ele>160.1</ele>
        <time>2019-04-17T08:00:12Z</time>
      </trkpt>
      <trkpt lat="42.46386" lon="-8.62127">
        <ele>159.7</ele>
        <time>2019-04-17T08:00:12Z</time>
      </trkpt>
      <trkpt lat="42.4639" lon="-8.62129">
        <ele>159.4</ele>
        <time>2019-04-17T08:00:12Z</time>
      </trkpt>
      <trkpt lat="42.46393" lon="-8.62131">
        <ele>159.5</ele>
        <time>2019-04-17T08:00:12Z</time>
      </trkpt>
      <trkpt lat="42.46397" lon="-8.62133">
        <ele>159.6</ele>
        <time>2019-04-17T08:00:12Z</time>
      </trkpt>
      <trkpt lat="42.464" lon="-8.62136">
        <ele>159.6</ele>
        <time>2019-04-17T08:00:12Z</time>
      </trkpt>
      <trkpt lat="42.46403" lon="-8.62138">
        <ele>159.6</ele>
        <time>2019-04-17T08:00:12Z</time>
      </trkpt>
      <trkpt lat="42.46406" lon="-8.62141">
        <ele>159.5</ele>
        <time>2019-04-17T08:00:12Z</time>
      </trkpt>
      <trkpt lat="42.46409" lon="-8.62144">
        <ele>159.4</ele>
        <time>2019-04-17T08:00:12Z</time>
      </trkpt>
      <trkpt lat="42.46412" lon="-8.62146">
        <ele>159.3</ele>
        <time>2019-04-17T08:00:12Z</time>
      </trkpt>
      <trkpt lat="42.46415" lon="-8.62149">
        <ele>159.2</ele>
        <time>2019-04-17T08:00:12Z</time>
      </trkpt>
      <trkpt lat="42.46418" lon="-8.62152">
        <ele>159.1</ele>
        <time>2019-04-17T08:00:12Z</time>
      </trkpt>
      <trkpt lat="42.4642" lon="-8.62155">
        <ele>159.1</ele>
        <time>2019-04-17T08:00:12Z</time>
      </trkpt>
      <trkpt lat="42.46423" lon="-8.62158">
        <ele>159.1</ele>
        <time>2019-04-17T08:00:12Z</time>
      </trkpt>
      <trkpt lat="42.46426" lon="-8.62161">
        <ele>159</ele>
        <time>2019-04-17T08:00:12Z</time>
      </trkpt>
      <trkpt lat="42.46428" lon="-8.62164">
        <ele>159</ele>
        <time>2019-04-17T08:00:12Z</time>
      </trkpt>
      <trkpt lat="42.46431" lon="-8.62168">
        <ele>159</ele>
        <time>2019-04-17T08:00:12Z</time>
      </trkpt>
      <trkpt lat="42.46433" lon="-8.62171">
        <ele>159.1</ele>
        <time>2019-04-17T08:00:12Z</time>
      </trkpt>
      <trkpt lat="42.46436" lon="-8.62174">
        <ele>159.1</ele>
        <time>2019-04-17T08:00:12Z</time>
      </trkpt>
      <trkpt lat="42.46438" lon="-8.62177">
        <ele>159.2</ele>
        <time>2019-04-17T08:00:12Z</time>
      </trkpt>
      <trkpt lat="42.46441" lon="-8.6218">
        <ele>159.3</ele>
        <time>2019-04-17T08:00:12Z</time>
      </trkpt>
      <trkpt lat="42.46443" lon="-8.62183">
        <ele>159.3</ele>
        <time>2019-04-17T08:00:12Z</time>
      </trkpt>
      <trkpt lat="42.46445" lon="-8.62187">
        <ele>159.4</ele>
        <time>2019-04-17T08:00:12Z</time>
      </trkpt>
      <trkpt lat="42.46447" lon="-8.6219">
        <ele>159.5</ele>
        <time>2019-04-17T08:00:12Z</time>
      </trkpt>
      <trkpt lat="42.46449" lon="-8.62193">
        <ele>159.6</ele>
        <time>2019-04-17T08:00:12Z</time>
      </trkpt>
      <trkpt lat="42.46451" lon="-8.62197">
        <ele>159.7</ele>
        <time>2019-04-17T08:00:12Z</time>
      </trkpt>
      <trkpt lat="42.46452" lon="-8.622">
        <ele>160</ele>
        <time>2019-04-17T08:00:12Z</time>
      </trkpt>
      <trkpt lat="42.46454" lon="-8.62203">
        <ele>160.2</ele>
        <time>2019-04-17T08:00:12Z</time>
      </trkpt>
      <trkpt lat="42.46455" lon="-8.62206">
        <ele>160.4</ele>
        <time>2019-04-17T08:00:12Z</time>
      </trkpt>
      <trkpt lat="42.46457" lon="-8.62209">
        <ele>160.6</ele>
        <time>2019-04-17T08:00:12Z</time>
      </trkpt>
      <trkpt lat="42.46458" lon="-8.62211">
        <ele>160.8</ele>
        <time>2019-04-17T08:00:12Z</time>
      </trkpt>
      <trkpt lat="42.46459" lon="-8.62214">
        <ele>160.9</ele>
        <time>2019-04-17T08:00:12Z</time>
      </trkpt>
      <trkpt lat="42.4646" lon="-8.62217">
        <ele>161</ele>
        <time>2019-04-17T08:00:12Z</time>
      </trkpt>
      <trkpt lat="42.46461" lon="-8.62219">
        <ele>161.1</ele>
        <time>2019-04-17T08:00:12Z</time>
      </trkpt>
      <trkpt lat="42.46462" lon="-8.62221">
        <ele>161.2</ele>
        <time>2019-04-17T08:00:12Z</time>
      </trkpt>
      <trkpt lat="42.46463" lon="-8.62224">
        <ele>161.3</ele>
        <time>2019-04-17T08:00:12Z</time>
      </trkpt>
      <trkpt lat="42.46464" lon="-8.62226">
        <ele>161.4</ele>
        <time>2019-04-17T08:00:12Z</time>
      </trkpt>
      <trkpt lat="42.46465" lon="-8.62229">
        <ele>161.5</ele>
        <time>2019-04-17T08:00:12Z</time>
      </trkpt>
      <trkpt lat="42.46466" lon="-8.62232">
        <ele>161.6</ele>
        <time>2019-04-17T08:00:12Z</time>
      </trkpt>
      <trkpt lat="42.46468" lon="-8.62235">
        <ele>161.7</ele>
        <time>2019-04-17T08:00:12Z</time>
      </trkpt>
      <trkpt lat="42.46469" lon="-8.62238">
        <ele>161.8</ele>
        <time>2019-04-17T08:00:12Z</time>
      </trkpt>
      <trkpt lat="42.46471" lon="-8.6224">
        <ele>161.9</ele>
        <time>2019-04-17T08:00:12Z</time>
      </trkpt>
      <trkpt lat="42.46473" lon="-8.62243">
        <ele>162</ele>
        <time>2019-04-17T08:00:12Z</time>
      </trkpt>
      <trkpt lat="42.46474" lon="-8.62246">
        <ele>162.1</ele>
        <time>2019-04-17T08:00:12Z</time>
      </trkpt>
      <trkpt lat="42.46475" lon="-8.62249">
        <ele>162.2</ele>
        <time>2019-04-17T08:00:12Z</time>
      </trkpt>
      <trkpt lat="42.46476" lon="-8.62252">
        <ele>162.2</ele>
        <time>2019-04-17T08:00:12Z</time>
      </trkpt>
      <trkpt lat="42.46478" lon="-8.62255">
        <ele>162.2</ele>
        <time>2019-04-17T08:00:12Z</time>
      </trkpt>
      <trkpt lat="42.46479" lon="-8.62257">
        <ele>162.2</ele>
        <time>2019-04-17T08:00:12Z</time>
      </trkpt>
      <trkpt lat="42.4648" lon="-8.6226">
        <ele>162.1</ele>
        <time>2019-04-17T08:00:12Z</time>
      </trkpt>
      <trkpt lat="42.46481" lon="-8.62262">
        <ele>162</ele>
        <time>2019-04-17T08:00:12Z</time>
      </trkpt>
      <trkpt lat="42.46482" lon="-8.62264">
        <ele>162</ele>
        <time>2019-04-17T08:00:12Z</time>
      </trkpt>
      <trkpt lat="42.46483" lon="-8.62266">
        <ele>161.9</ele>
        <time>2019-04-17T08:00:12Z</time>
      </trkpt>
      <trkpt lat="42.46484" lon="-8.62268">
        <ele>161.9</ele>
        <time>2019-04-17T08:00:12Z</time>
      </trkpt>
      <trkpt lat="42.46485" lon="-8.6227">
        <ele>161.9</ele>
        <time>2019-04-17T08:00:12Z</time>
      </trkpt>
      <trkpt lat="42.46487" lon="-8.6227">
        <ele>162</ele>
        <time>2019-04-17T08:00:12Z</time>
      </trkpt>
      <trkpt lat="42.46489" lon="-8.62269">
        <ele>162.1</ele>
        <time>2019-04-17T08:00:12Z</time>
      </trkpt>
      <trkpt lat="42.4649" lon="-8.62268">
        <ele>162.2</ele>
        <time>2019-04-17T08:00:12Z</time>
      </trkpt>
      <trkpt lat="42.46492" lon="-8.62267">
        <ele>162.4</ele>
        <time>2019-04-17T08:00:12Z</time>
      </trkpt>
      <trkpt lat="42.46494" lon="-8.62265">
        <ele>162.6</ele>
        <time>2019-04-17T08:00:12Z</time>
      </trkpt>
      <trkpt lat="42.46495" lon="-8.62264">
        <ele>162.8</ele>
        <time>2019-04-17T08:00:12Z</time>
      </trkpt>
      <trkpt lat="42.46497" lon="-8.62262">
        <ele>163</ele>
        <time>2019-04-17T08:00:12Z</time>
      </trkpt>
      <trkpt lat="42.465" lon="-8.62261">
        <ele>163.2</ele>
        <time>2019-04-17T08:00:12Z</time>
      </trkpt>
      <trkpt lat="42.46502" lon="-8.6226">
        <ele>163.4</ele>
        <time>2019-04-17T08:00:12Z</time>
      </trkpt>
      <trkpt lat="42.46504" lon="-8.62258">
        <ele>163.6</ele>
        <time>2019-04-17T08:00:12Z</time>
      </trkpt>
      <trkpt lat="42.46506" lon="-8.62257">
        <ele>163.8</ele>
        <time>2019-04-17T08:00:12Z</time>
      </trkpt>
      <trkpt lat="42.46508" lon="-8.62255">
        <ele>164</ele>
        <time>2019-04-17T08:00:12Z</time>
      </trkpt>
      <trkpt lat="42.4651" lon="-8.62253">
        <ele>164.2</ele>
        <time>2019-04-17T08:00:12Z</time>
      </trkpt>
      <trkpt lat="42.46512" lon="-8.62252">
        <ele>164.3</ele>
        <time>2019-04-17T08:00:12Z</time>
      </trkpt>
      <trkpt lat="42.46513" lon="-8.6225">
        <ele>164.5</ele>
        <time>2019-04-17T08:00:12Z</time>
      </trkpt>
      <trkpt lat="42.46515" lon="-8.62248">
        <ele>164.6</ele>
        <time>2019-04-17T08:00:12Z</time>
      </trkpt>
      <trkpt lat="42.46517" lon="-8.62246">
        <ele>164.8</ele>
        <time>2019-04-17T08:00:12Z</time>
      </trkpt>
      <trkpt lat="42.46519" lon="-8.62245">
        <ele>164.9</ele>
        <time>2019-04-17T08:00:12Z</time>
      </trkpt>
      <trkpt lat="42.4652" lon="-8.62243">
        <ele>165.1</ele>
        <time>2019-04-17T08:00:12Z</time>
      </trkpt>
      <trkpt lat="42.46522" lon="-8.62242">
        <ele>165.2</ele>
        <time>2019-04-17T08:00:12Z</time>
      </trkpt>
      <trkpt lat="42.46523" lon="-8.62241">
        <ele>165.4</ele>
        <time>2019-04-17T08:00:12Z</time>
      </trkpt>
      <trkpt lat="42.46525" lon="-8.62239">
        <ele>165.6</ele>
        <time>2019-04-17T08:00:12Z</time>
      </trkpt>
      <trkpt lat="42.46526" lon="-8.62237">
        <ele>165.8</ele>
        <time>2019-04-17T08:00:12Z</time>
      </trkpt>
      <trkpt lat="42.46526" lon="-8.62235">
        <ele>165.9</ele>
        <time>2019-04-17T08:00:12Z</time>
      </trkpt>
      <trkpt lat="42.46527" lon="-8.62234">
        <ele>166.1</ele>
        <time>2019-04-17T08:00:12Z</time>
      </trkpt>
      <trkpt lat="42.46527" lon="-8.62231">
        <ele>166.2</ele>
        <time>2019-04-17T08:00:12Z</time>
      </trkpt>
      <trkpt lat="42.46526" lon="-8.62229">
        <ele>166.4</ele>
        <time>2019-04-17T08:00:12Z</time>
      </trkpt>
      <trkpt lat="42.46526" lon="-8.62227">
        <ele>166.5</ele>
        <time>2019-04-17T08:00:12Z</time>
      </trkpt>
      <trkpt lat="42.46525" lon="-8.62225">
        <ele>166.5</ele>
        <time>2019-04-17T08:00:12Z</time>
      </trkpt>
      <trkpt lat="42.46524" lon="-8.62222">
        <ele>166.5</ele>
        <time>2019-04-17T08:00:12Z</time>
      </trkpt>
      <trkpt lat="42.46522" lon="-8.6222">
        <ele>166.5</ele>
        <time>2019-04-17T08:00:12Z</time>
      </trkpt>
      <trkpt lat="42.46521" lon="-8.62218">
        <ele>166.4</ele>
        <time>2019-04-17T08:00:12Z</time>
      </trkpt>
      <trkpt lat="42.4652" lon="-8.62216">
        <ele>166.4</ele>
        <time>2019-04-17T08:00:12Z</time>
      </trkpt>
      <trkpt lat="42.46519" lon="-8.62214">
        <ele>166.4</ele>
        <time>2019-04-17T08:00:12Z</time>
      </trkpt>
      <trkpt lat="42.46518" lon="-8.62212">
        <ele>166.3</ele>
        <time>2019-04-17T08:00:12Z</time>
      </trkpt>
      <trkpt lat="42.46517" lon="-8.6221">
        <ele>166.3</ele>
        <time>2019-04-17T08:00:12Z</time>
      </trkpt>
      <trkpt lat="42.46517" lon="-8.62208">
        <ele>166.3</ele>
        <time>2019-04-17T08:00:12Z</time>
      </trkpt>
      <trkpt lat="42.46516" lon="-8.62205">
        <ele>166.3</ele>
        <time>2019-04-17T08:00:12Z</time>
      </trkpt>
      <trkpt lat="42.46515" lon="-8.62202">
        <ele>166.3</ele>
        <time>2019-04-17T08:00:12Z</time>
      </trkpt>
      <trkpt lat="42.46514" lon="-8.62199">
        <ele>166.3</ele>
        <time>2019-04-17T08:00:12Z</time>
      </trkpt>
      <trkpt lat="42.46513" lon="-8.62196">
        <ele>166.3</ele>
        <time>2019-04-17T08:00:12Z</time>
      </trkpt>
      <trkpt lat="42.46512" lon="-8.62194">
        <ele>166.3</ele>
        <time>2019-04-17T08:00:12Z</time>
      </trkpt>
      <trkpt lat="42.46511" lon="-8.62191">
        <ele>166.5</ele>
        <time>2019-04-17T08:00:12Z</time>
      </trkpt>
      <trkpt lat="42.46511" lon="-8.62188">
        <ele>166.6</ele>
        <time>2019-04-17T08:00:12Z</time>
      </trkpt>
      <trkpt lat="42.46511" lon="-8.62185">
        <ele>166.8</ele>
        <time>2019-04-17T08:00:12Z</time>
      </trkpt>
      <trkpt lat="42.46511" lon="-8.62182">
        <ele>167.1</ele>
        <time>2019-04-17T08:00:12Z</time>
      </trkpt>
      <trkpt lat="42.46512" lon="-8.62179">
        <ele>167.3</ele>
        <time>2019-04-17T08:00:12Z</time>
      </trkpt>
      <trkpt lat="42.46512" lon="-8.62177">
        <ele>167.6</ele>
        <time>2019-04-17T08:00:12Z</time>
      </trkpt>
      <trkpt lat="42.46513" lon="-8.62174">
        <ele>167.9</ele>
        <time>2019-04-17T08:00:12Z</time>
      </trkpt>
      <trkpt lat="42.46514" lon="-8.62172">
        <ele>168.2</ele>
        <time>2019-04-17T08:00:12Z</time>
      </trkpt>
      <trkpt lat="42.46515" lon="-8.62169">
        <ele>168.4</ele>
        <time>2019-04-17T08:00:12Z</time>
      </trkpt>
      <trkpt lat="42.46516" lon="-8.62167">
        <ele>168.7</ele>
        <time>2019-04-17T08:00:12Z</time>
      </trkpt>
      <trkpt lat="42.46516" lon="-8.62164">
        <ele>168.8</ele>
        <time>2019-04-17T08:00:12Z</time>
      </trkpt>
      <trkpt lat="42.46517" lon="-8.62162">
        <ele>169</ele>
        <time>2019-04-17T08:00:12Z</time>
      </trkpt>
      <trkpt lat="42.46518" lon="-8.6216">
        <ele>169.2</ele>
        <time>2019-04-17T08:00:12Z</time>
      </trkpt>
      <trkpt lat="42.4652" lon="-8.62158">
        <ele>169.4</ele>
        <time>2019-04-17T08:00:12Z</time>
      </trkpt>
      <trkpt lat="42.46521" lon="-8.62157">
        <ele>169.6</ele>
        <time>2019-04-17T08:00:12Z</time>
      </trkpt>
      <trkpt lat="42.46522" lon="-8.62157">
        <ele>169.7</ele>
        <time>2019-04-17T08:00:12Z</time>
      </trkpt>
      <trkpt lat="42.46524" lon="-8.62158">
        <ele>169.9</ele>
        <time>2019-04-17T08:00:12Z</time>
      </trkpt>
      <trkpt lat="42.46525" lon="-8.62159">
        <ele>170</ele>
        <time>2019-04-17T08:00:12Z</time>
      </trkpt>
      <trkpt lat="42.46527" lon="-8.62159">
        <ele>170.2</ele>
        <time>2019-04-17T08:00:12Z</time>
      </trkpt>
      <trkpt lat="42.46529" lon="-8.62159">
        <ele>170.4</ele>
        <time>2019-04-17T08:00:12Z</time>
      </trkpt>
      <trkpt lat="42.4653" lon="-8.62159">
        <ele>170.6</ele>
        <time>2019-04-17T08:00:12Z</time>
      </trkpt>
      <trkpt lat="42.46532" lon="-8.6216">
        <ele>170.8</ele>
        <time>2019-04-17T08:00:12Z</time>
      </trkpt>
      <trkpt lat="42.46534" lon="-8.6216">
        <ele>171</ele>
        <time>2019-04-17T08:00:12Z</time>
      </trkpt>
      <trkpt lat="42.46535" lon="-8.6216">
        <ele>171.2</ele>
        <time>2019-04-17T08:00:12Z</time>
      </trkpt>
      <trkpt lat="42.46537" lon="-8.6216">
        <ele>171.3</ele>
        <time>2019-04-17T08:00:12Z</time>
      </trkpt>
      <trkpt lat="42.46538" lon="-8.6216">
        <ele>171.5</ele>
        <time>2019-04-17T08:00:12Z</time>
      </trkpt>
      <trkpt lat="42.4654" lon="-8.6216">
        <ele>171.8</ele>
        <time>2019-04-17T08:00:12Z</time>
      </trkpt>
      <trkpt lat="42.46542" lon="-8.6216">
        <ele>172</ele>
        <time>2019-04-17T08:00:12Z</time>
      </trkpt>
      <trkpt lat="42.46544" lon="-8.62161">
        <ele>172.2</ele>
        <time>2019-04-17T08:00:12Z</time>
      </trkpt>
      <trkpt lat="42.46545" lon="-8.62161">
        <ele>172.4</ele>
        <time>2019-04-17T08:00:12Z</time>
      </trkpt>
      <trkpt lat="42.46547" lon="-8.62162">
        <ele>172.6</ele>
        <time>2019-04-17T08:00:12Z</time>
      </trkpt>
      <trkpt lat="42.46548" lon="-8.62162">
        <ele>172.8</ele>
        <time>2019-04-17T08:00:12Z</time>
      </trkpt>
      <trkpt lat="42.46549" lon="-8.62163">
        <ele>173</ele>
        <time>2019-04-17T08:00:12Z</time>
      </trkpt>
      <trkpt lat="42.46551" lon="-8.62163">
        <ele>173.2</ele>
        <time>2019-04-17T08:00:12Z</time>
      </trkpt>
      <trkpt lat="42.46552" lon="-8.62164">
        <ele>173.4</ele>
        <time>2019-04-17T08:00:12Z</time>
      </trkpt>
      <trkpt lat="42.46554" lon="-8.62165">
        <ele>173.6</ele>
        <time>2019-04-17T08:00:12Z</time>
      </trkpt>
      <trkpt lat="42.46555" lon="-8.62166">
        <ele>173.9</ele>
        <time>2019-04-17T08:00:12Z</time>
      </trkpt>
      <trkpt lat="42.46556" lon="-8.62167">
        <ele>174.1</ele>
        <time>2019-04-17T08:00:12Z</time>
      </trkpt>
      <trkpt lat="42.46557" lon="-8.62168">
        <ele>174.3</ele>
        <time>2019-04-17T08:00:12Z</time>
      </trkpt>
      <trkpt lat="42.46559" lon="-8.62169">
        <ele>174.5</ele>
        <time>2019-04-17T08:00:12Z</time>
      </trkpt>
      <trkpt lat="42.4656" lon="-8.6217">
        <ele>174.7</ele>
        <time>2019-04-17T08:00:12Z</time>
      </trkpt>
      <trkpt lat="42.46561" lon="-8.62171">
        <ele>175</ele>
        <time>2019-04-17T08:00:12Z</time>
      </trkpt>
      <trkpt lat="42.46563" lon="-8.62172">
        <ele>175.3</ele>
        <time>2019-04-17T08:00:12Z</time>
      </trkpt>
      <trkpt lat="42.46564" lon="-8.62173">
        <ele>175.6</ele>
        <time>2019-04-17T08:00:12Z</time>
      </trkpt>
      <trkpt lat="42.46566" lon="-8.62174">
        <ele>175.9</ele>
        <time>2019-04-17T08:00:12Z</time>
      </trkpt>
      <trkpt lat="42.46568" lon="-8.62175">
        <ele>176.1</ele>
        <time>2019-04-17T08:00:12Z</time>
      </trkpt>
      <trkpt lat="42.46569" lon="-8.62176">
        <ele>176.4</ele>
        <time>2019-04-17T08:00:12Z</time>
      </trkpt>
      <trkpt lat="42.46571" lon="-8.62177">
        <ele>176.7</ele>
        <time>2019-04-17T08:00:12Z</time>
      </trkpt>
      <trkpt lat="42.46572" lon="-8.62178">
        <ele>177</ele>
        <time>2019-04-17T08:00:12Z</time>
      </trkpt>
      <trkpt lat="42.46573" lon="-8.62178">
        <ele>177.2</ele>
        <time>2019-04-17T08:00:12Z</time>
      </trkpt>
      <trkpt lat="42.46574" lon="-8.62178">
        <ele>177.4</ele>
        <time>2019-04-17T08:00:12Z</time>
      </trkpt>
      <trkpt lat="42.46576" lon="-8.62179">
        <ele>177.6</ele>
        <time>2019-04-17T08:00:12Z</time>
      </trkpt>
      <trkpt lat="42.46577" lon="-8.62179">
        <ele>177.8</ele>
        <time>2019-04-17T08:00:12Z</time>
      </trkpt>
      <trkpt lat="42.46578" lon="-8.62179">
        <ele>178.1</ele>
        <time>2019-04-17T08:00:12Z</time>
      </trkpt>
      <trkpt lat="42.4658" lon="-8.62179">
        <ele>178.3</ele>
        <time>2019-04-17T08:00:12Z</time>
      </trkpt>
      <trkpt lat="42.46581" lon="-8.6218">
        <ele>178.6</ele>
        <time>2019-04-17T08:00:12Z</time>
      </trkpt>
      <trkpt lat="42.46583" lon="-8.62179">
        <ele>178.9</ele>
        <time>2019-04-17T08:00:12Z</time>
      </trkpt>
      <trkpt lat="42.46584" lon="-8.62179">
        <ele>179.1</ele>
        <time>2019-04-17T08:00:12Z</time>
      </trkpt>
      <trkpt lat="42.46585" lon="-8.62179">
        <ele>179.2</ele>
        <time>2019-04-17T08:00:12Z</time>
      </trkpt>
      <trkpt lat="42.46586" lon="-8.62179">
        <ele>179.4</ele>
        <time>2019-04-17T08:00:12Z</time>
      </trkpt>
      <trkpt lat="42.46588" lon="-8.62179">
        <ele>179.5</ele>
        <time>2019-04-17T08:00:12Z</time>
      </trkpt>
      <trkpt lat="42.46589" lon="-8.62179">
        <ele>179.7</ele>
        <time>2019-04-17T08:00:12Z</time>
      </trkpt>
      <trkpt lat="42.4659" lon="-8.62179">
        <ele>179.8</ele>
        <time>2019-04-17T08:00:12Z</time>
      </trkpt>
      <trkpt lat="42.46591" lon="-8.62178">
        <ele>180</ele>
        <time>2019-04-17T08:00:12Z</time>
      </trkpt>
      <trkpt lat="42.46593" lon="-8.62177">
        <ele>180.1</ele>
        <time>2019-04-17T08:00:12Z</time>
      </trkpt>
      <trkpt lat="42.46594" lon="-8.62177">
        <ele>180.3</ele>
        <time>2019-04-17T08:00:12Z</time>
      </trkpt>
      <trkpt lat="42.46596" lon="-8.62176">
        <ele>180.5</ele>
        <time>2019-04-17T08:00:12Z</time>
      </trkpt>
      <trkpt lat="42.46597" lon="-8.62175">
        <ele>180.6</ele>
        <time>2019-04-17T08:00:12Z</time>
      </trkpt>
      <trkpt lat="42.46598" lon="-8.62174">
        <ele>180.8</ele>
        <time>2019-04-17T08:00:12Z</time>
      </trkpt>
      <trkpt lat="42.466" lon="-8.62174">
        <ele>180.9</ele>
        <time>2019-04-17T08:00:12Z</time>
      </trkpt>
      <trkpt lat="42.46601" lon="-8.62173">
        <ele>181.1</ele>
        <time>2019-04-17T08:00:12Z</time>
      </trkpt>
      <trkpt lat="42.46603" lon="-8.62173">
        <ele>181.2</ele>
        <time>2019-04-17T08:00:12Z</time>
      </trkpt>
      <trkpt lat="42.46604" lon="-8.62173">
        <ele>181.4</ele>
        <time>2019-04-17T08:00:12Z</time>
      </trkpt>
      <trkpt lat="42.46605" lon="-8.62172">
        <ele>181.5</ele>
        <time>2019-04-17T08:00:12Z</time>
      </trkpt>
      <trkpt lat="42.46607" lon="-8.62171">
        <ele>181.6</ele>
        <time>2019-04-17T08:00:12Z</time>
      </trkpt>
      <trkpt lat="42.46608" lon="-8.62171">
        <ele>181.8</ele>
        <time>2019-04-17T08:00:12Z</time>
      </trkpt>
      <trkpt lat="42.4661" lon="-8.62171">
        <ele>182</ele>
        <time>2019-04-17T08:00:12Z</time>
      </trkpt>
      <trkpt lat="42.46612" lon="-8.62171">
        <ele>182.2</ele>
        <time>2019-04-17T08:00:12Z</time>
      </trkpt>
      <trkpt lat="42.46614" lon="-8.62171">
        <ele>182.2</ele>
        <time>2019-04-17T08:00:12Z</time>
      </trkpt>
      <trkpt lat="42.46616" lon="-8.62171">
        <ele>182.2</ele>
        <time>2019-04-17T08:00:12Z</time>
      </trkpt>
      <trkpt lat="42.46618" lon="-8.62171">
        <ele>182.2</ele>
        <time>2019-04-17T08:00:12Z</time>
      </trkpt>
      <trkpt lat="42.46621" lon="-8.62171">
        <ele>182.3</ele>
        <time>2019-04-17T08:00:12Z</time>
      </trkpt>
      <trkpt lat="42.46623" lon="-8.62171">
        <ele>182.4</ele>
        <time>2019-04-17T08:00:12Z</time>
      </trkpt>
      <trkpt lat="42.46625" lon="-8.62172">
        <ele>182.5</ele>
        <time>2019-04-17T08:00:12Z</time>
      </trkpt>
      <trkpt lat="42.46627" lon="-8.62173">
        <ele>182.6</ele>
        <time>2019-04-17T08:00:12Z</time>
      </trkpt>
      <trkpt lat="42.46629" lon="-8.62174">
        <ele>182.7</ele>
        <time>2019-04-17T08:00:12Z</time>
      </trkpt>
      <trkpt lat="42.46631" lon="-8.62174">
        <ele>182.8</ele>
        <time>2019-04-17T08:00:12Z</time>
      </trkpt>
      <trkpt lat="42.46633" lon="-8.62173">
        <ele>182.8</ele>
        <time>2019-04-17T08:00:12Z</time>
      </trkpt>
      <trkpt lat="42.46635" lon="-8.62172">
        <ele>182.7</ele>
        <time>2019-04-17T08:00:12Z</time>
      </trkpt>
      <trkpt lat="42.46637" lon="-8.62172">
        <ele>182.7</ele>
        <time>2019-04-17T08:00:12Z</time>
      </trkpt>
      <trkpt lat="42.46639" lon="-8.62172">
        <ele>182.7</ele>
        <time>2019-04-17T08:00:12Z</time>
      </trkpt>
      <trkpt lat="42.46642" lon="-8.62172">
        <ele>182.7</ele>
        <time>2019-04-17T08:00:12Z</time>
      </trkpt>
      <trkpt lat="42.46644" lon="-8.62173">
        <ele>182.7</ele>
        <time>2019-04-17T08:00:12Z</time>
      </trkpt>
      <trkpt lat="42.46647" lon="-8.62175">
        <ele>182.7</ele>
        <time>2019-04-17T08:00:12Z</time>
      </trkpt>
      <trkpt lat="42.4665" lon="-8.62176">
        <ele>182.7</ele>
        <time>2019-04-17T08:00:12Z</time>
      </trkpt>
      <trkpt lat="42.46653" lon="-8.62178">
        <ele>182.7</ele>
        <time>2019-04-17T08:00:12Z</time>
      </trkpt>
      <trkpt lat="42.46655" lon="-8.6218">
        <ele>182.8</ele>
        <time>2019-04-17T08:00:12Z</time>
      </trkpt>
      <trkpt lat="42.46658" lon="-8.62183">
        <ele>182.8</ele>
        <time>2019-04-17T08:00:12Z</time>
      </trkpt>
      <trkpt lat="42.4666" lon="-8.62185">
        <ele>182.9</ele>
        <time>2019-04-17T08:00:12Z</time>
      </trkpt>
      <trkpt lat="42.46661" lon="-8.62188">
        <ele>183</ele>
        <time>2019-04-17T08:00:12Z</time>
      </trkpt>
      <trkpt lat="42.46663" lon="-8.62191">
        <ele>183.1</ele>
        <time>2019-04-17T08:00:12Z</time>
      </trkpt>
      <trkpt lat="42.46665" lon="-8.62194">
        <ele>183.2</ele>
        <time>2019-04-17T08:00:12Z</time>
      </trkpt>
      <trkpt lat="42.46666" lon="-8.62197">
        <ele>183.3</ele>
        <time>2019-04-17T08:00:12Z</time>
      </trkpt>
      <trkpt lat="42.46667" lon="-8.622">
        <ele>183.6</ele>
        <time>2019-04-17T08:00:12Z</time>
      </trkpt>
      <trkpt lat="42.46669" lon="-8.62203">
        <ele>183.9</ele>
        <time>2019-04-17T08:00:12Z</time>
      </trkpt>
      <trkpt lat="42.4667" lon="-8.62206">
        <ele>184.2</ele>
        <time>2019-04-17T08:00:12Z</time>
      </trkpt>
      <trkpt lat="42.46672" lon="-8.62209">
        <ele>184.4</ele>
        <time>2019-04-17T08:00:12Z</time>
      </trkpt>
      <trkpt lat="42.46674" lon="-8.62212">
        <ele>184.6</ele>
        <time>2019-04-17T08:00:12Z</time>
      </trkpt>
      <trkpt lat="42.46675" lon="-8.62214">
        <ele>184.8</ele>
        <time>2019-04-17T08:00:12Z</time>
      </trkpt>
      <trkpt lat="42.46677" lon="-8.62217">
        <ele>184.9</ele>
        <time>2019-04-17T08:00:12Z</time>
      </trkpt>
      <trkpt lat="42.46679" lon="-8.62219">
        <ele>184.9</ele>
        <time>2019-04-17T08:00:12Z</time>
      </trkpt>
      <trkpt lat="42.46681" lon="-8.62221">
        <ele>184.9</ele>
        <time>2019-04-17T08:00:12Z</time>
      </trkpt>
      <trkpt lat="42.46683" lon="-8.62223">
        <ele>184.8</ele>
        <time>2019-04-17T08:00:12Z</time>
      </trkpt>
      <trkpt lat="42.46686" lon="-8.62225">
        <ele>184.6</ele>
        <time>2019-04-17T08:00:12Z</time>
      </trkpt>
      <trkpt lat="42.46689" lon="-8.62228">
        <ele>184.4</ele>
        <time>2019-04-17T08:00:12Z</time>
      </trkpt>
      <trkpt lat="42.46692" lon="-8.6223">
        <ele>184.2</ele>
        <time>2019-04-17T08:00:12Z</time>
      </trkpt>
      <trkpt lat="42.46695" lon="-8.62233">
        <ele>184</ele>
        <time>2019-04-17T08:00:12Z</time>
      </trkpt>
      <trkpt lat="42.46698" lon="-8.62235">
        <ele>184</ele>
        <time>2019-04-17T08:00:12Z</time>
      </trkpt>
      <trkpt lat="42.46701" lon="-8.62238">
        <ele>184</ele>
        <time>2019-04-17T08:00:12Z</time>
      </trkpt>
      <trkpt lat="42.46703" lon="-8.62241">
        <ele>184</ele>
        <time>2019-04-17T08:00:12Z</time>
      </trkpt>
      <trkpt lat="42.46706" lon="-8.62243">
        <ele>184</ele>
        <time>2019-04-17T08:00:12Z</time>
      </trkpt>
      <trkpt lat="42.46709" lon="-8.62246">
        <ele>184</ele>
        <time>2019-04-17T08:00:12Z</time>
      </trkpt>
      <trkpt lat="42.46712" lon="-8.62248">
        <ele>184</ele>
        <time>2019-04-17T08:00:12Z</time>
      </trkpt>
      <trkpt lat="42.46715" lon="-8.6225">
        <ele>184</ele>
        <time>2019-04-17T08:00:12Z</time>
      </trkpt>
      <trkpt lat="42.46718" lon="-8.62252">
        <ele>184</ele>
        <time>2019-04-17T08:00:12Z</time>
      </trkpt>
      <trkpt lat="42.46721" lon="-8.62254">
        <ele>184</ele>
        <time>2019-04-17T08:00:12Z</time>
      </trkpt>
      <trkpt lat="42.46723" lon="-8.62256">
        <ele>184</ele>
        <time>2019-04-17T08:00:12Z</time>
      </trkpt>
      <trkpt lat="42.46726" lon="-8.62258">
        <ele>183.9</ele>
        <time>2019-04-17T08:00:12Z</time>
      </trkpt>
      <trkpt lat="42.46729" lon="-8.6226">
        <ele>183.9</ele>
        <time>2019-04-17T08:00:12Z</time>
      </trkpt>
      <trkpt lat="42.46732" lon="-8.6227">
        <ele>184.2</ele>
        <time>2019-04-17T08:00:12Z</time>
      </trkpt>
      <trkpt lat="42.46711" lon="-8.6234">
        <ele>184.4</ele>
        <time>2019-04-17T08:00:12Z</time>
      </trkpt>
      <trkpt lat="42.46711" lon="-8.62358">
        <ele>184.4</ele>
        <time>2019-04-17T08:00:12Z</time>
      </trkpt>
      <trkpt lat="42.46714" lon="-8.62397">
        <ele>185.1</ele>
        <time>2019-04-17T08:00:12Z</time>
      </trkpt>
      <trkpt lat="42.46734" lon="-8.62386">
        <ele>185.9</ele>
        <time>2019-04-17T08:00:12Z</time>
      </trkpt>
      <trkpt lat="42.46762" lon="-8.62377">
        <ele>186.5</ele>
        <time>2019-04-17T08:00:12Z</time>
      </trkpt>
      <trkpt lat="42.46767" lon="-8.6238">
        <ele>186.5</ele>
        <time>2019-04-17T08:00:12Z</time>
      </trkpt>
      <trkpt lat="42.46768" lon="-8.62383">
        <ele>186.4</ele>
        <time>2019-04-17T08:00:12Z</time>
      </trkpt>
      <trkpt lat="42.46769" lon="-8.62387">
        <ele>186.3</ele>
        <time>2019-04-17T08:00:12Z</time>
      </trkpt>
      <trkpt lat="42.4677" lon="-8.6239">
        <ele>186.4</ele>
        <time>2019-04-17T08:00:12Z</time>
      </trkpt>
      <trkpt lat="42.46771" lon="-8.62393">
        <ele>186.7</ele>
        <time>2019-04-17T08:00:12Z</time>
      </trkpt>
      <trkpt lat="42.46772" lon="-8.62397">
        <ele>187</ele>
        <time>2019-04-17T08:00:12Z</time>
      </trkpt>
      <trkpt lat="42.46773" lon="-8.624">
        <ele>187.4</ele>
        <time>2019-04-17T08:00:12Z</time>
      </trkpt>
      <trkpt lat="42.46773" lon="-8.62403">
        <ele>187.7</ele>
        <time>2019-04-17T08:00:12Z</time>
      </trkpt>
      <trkpt lat="42.46774" lon="-8.62405">
        <ele>187.9</ele>
        <time>2019-04-17T08:00:12Z</time>
      </trkpt>
      <trkpt lat="42.46774" lon="-8.62408">
        <ele>188.2</ele>
        <time>2019-04-17T08:00:12Z</time>
      </trkpt>
      <trkpt lat="42.46775" lon="-8.62411">
        <ele>188.5</ele>
        <time>2019-04-17T08:00:12Z</time>
      </trkpt>
      <trkpt lat="42.46776" lon="-8.62414">
        <ele>188.8</ele>
        <time>2019-04-17T08:00:12Z</time>
      </trkpt>
      <trkpt lat="42.46776" lon="-8.62417">
        <ele>189.1</ele>
        <time>2019-04-17T08:00:12Z</time>
      </trkpt>
      <trkpt lat="42.46777" lon="-8.6242">
        <ele>189.3</ele>
        <time>2019-04-17T08:00:12Z</time>
      </trkpt>
      <trkpt lat="42.46778" lon="-8.62422">
        <ele>189.4</ele>
        <time>2019-04-17T08:00:12Z</time>
      </trkpt>
      <trkpt lat="42.46778" lon="-8.62425">
        <ele>189.5</ele>
        <time>2019-04-17T08:00:12Z</time>
      </trkpt>
      <trkpt lat="42.46779" lon="-8.62428">
        <ele>189.6</ele>
        <time>2019-04-17T08:00:12Z</time>
      </trkpt>
      <trkpt lat="42.4678" lon="-8.6243">
        <ele>189.8</ele>
        <time>2019-04-17T08:00:12Z</time>
      </trkpt>
      <trkpt lat="42.46781" lon="-8.62433">
        <ele>189.8</ele>
        <time>2019-04-17T08:00:12Z</time>
      </trkpt>
      <trkpt lat="42.46782" lon="-8.62436">
        <ele>189.9</ele>
        <time>2019-04-17T08:00:12Z</time>
      </trkpt>
      <trkpt lat="42.46783" lon="-8.62438">
        <ele>190</ele>
        <time>2019-04-17T08:00:12Z</time>
      </trkpt>
      <trkpt lat="42.46784" lon="-8.6244">
        <ele>190.1</ele>
        <time>2019-04-17T08:00:12Z</time>
      </trkpt>
      <trkpt lat="42.46785" lon="-8.62443">
        <ele>190.2</ele>
        <time>2019-04-17T08:00:12Z</time>
      </trkpt>
      <trkpt lat="42.46786" lon="-8.62446">
        <ele>190.3</ele>
        <time>2019-04-17T08:00:12Z</time>
      </trkpt>
      <trkpt lat="42.46787" lon="-8.62448">
        <ele>190.4</ele>
        <time>2019-04-17T08:00:12Z</time>
      </trkpt>
      <trkpt lat="42.46788" lon="-8.62451">
        <ele>190.6</ele>
        <time>2019-04-17T08:00:12Z</time>
      </trkpt>
      <trkpt lat="42.4679" lon="-8.62454">
        <ele>190.7</ele>
        <time>2019-04-17T08:00:12Z</time>
      </trkpt>
      <trkpt lat="42.46791" lon="-8.62456">
        <ele>190.9</ele>
        <time>2019-04-17T08:00:12Z</time>
      </trkpt>
      <trkpt lat="42.46792" lon="-8.62459">
        <ele>191</ele>
        <time>2019-04-17T08:00:12Z</time>
      </trkpt>
      <trkpt lat="42.46794" lon="-8.62462">
        <ele>191.2</ele>
        <time>2019-04-17T08:00:12Z</time>
      </trkpt>
      <trkpt lat="42.46795" lon="-8.62465">
        <ele>191.3</ele>
        <time>2019-04-17T08:00:12Z</time>
      </trkpt>
      <trkpt lat="42.46796" lon="-8.62468">
        <ele>191.5</ele>
        <time>2019-04-17T08:00:12Z</time>
      </trkpt>
      <trkpt lat="42.46797" lon="-8.6247">
        <ele>191.7</ele>
        <time>2019-04-17T08:00:12Z</time>
      </trkpt>
      <trkpt lat="42.46798" lon="-8.62473">
        <ele>191.8</ele>
        <time>2019-04-17T08:00:12Z</time>
      </trkpt>
      <trkpt lat="42.46799" lon="-8.62476">
        <ele>192</ele>
        <time>2019-04-17T08:00:12Z</time>
      </trkpt>
      <trkpt lat="42.468" lon="-8.62478">
        <ele>192.1</ele>
        <time>2019-04-17T08:00:12Z</time>
      </trkpt>
      <trkpt lat="42.46801" lon="-8.62482">
        <ele>192.2</ele>
        <time>2019-04-17T08:00:12Z</time>
      </trkpt>
      <trkpt lat="42.46802" lon="-8.62484">
        <ele>192.3</ele>
        <time>2019-04-17T08:00:12Z</time>
      </trkpt>
      <trkpt lat="42.46803" lon="-8.62487">
        <ele>192.4</ele>
        <time>2019-04-17T08:00:12Z</time>
      </trkpt>
      <trkpt lat="42.46804" lon="-8.6249">
        <ele>192.4</ele>
        <time>2019-04-17T08:00:12Z</time>
      </trkpt>
      <trkpt lat="42.46805" lon="-8.62492">
        <ele>192.5</ele>
        <time>2019-04-17T08:00:12Z</time>
      </trkpt>
      <trkpt lat="42.46807" lon="-8.62495">
        <ele>192.6</ele>
        <time>2019-04-17T08:00:12Z</time>
      </trkpt>
      <trkpt lat="42.46808" lon="-8.62498">
        <ele>192.7</ele>
        <time>2019-04-17T08:00:12Z</time>
      </trkpt>
      <trkpt lat="42.46809" lon="-8.62501">
        <ele>192.7</ele>
        <time>2019-04-17T08:00:12Z</time>
      </trkpt>
      <trkpt lat="42.46811" lon="-8.62505">
        <ele>192.6</ele>
        <time>2019-04-17T08:00:12Z</time>
      </trkpt>
      <trkpt lat="42.46813" lon="-8.62508">
        <ele>192.5</ele>
        <time>2019-04-17T08:00:12Z</time>
      </trkpt>
      <trkpt lat="42.46815" lon="-8.62512">
        <ele>192.4</ele>
        <time>2019-04-17T08:00:12Z</time>
      </trkpt>
      <trkpt lat="42.46817" lon="-8.62515">
        <ele>192.2</ele>
        <time>2019-04-17T08:00:12Z</time>
      </trkpt>
      <trkpt lat="42.46819" lon="-8.62518">
        <ele>192</ele>
        <time>2019-04-17T08:00:12Z</time>
      </trkpt>
      <trkpt lat="42.46822" lon="-8.6252">
        <ele>191.8</ele>
        <time>2019-04-17T08:00:12Z</time>
      </trkpt>
      <trkpt lat="42.46825" lon="-8.62521">
        <ele>191.6</ele>
        <time>2019-04-17T08:00:12Z</time>
      </trkpt>
      <trkpt lat="42.46828" lon="-8.62521">
        <ele>191.4</ele>
        <time>2019-04-17T08:00:12Z</time>
      </trkpt>
      <trkpt lat="42.4683" lon="-8.62521">
        <ele>191.2</ele>
        <time>2019-04-17T08:00:12Z</time>
      </trkpt>
      <trkpt lat="42.46833" lon="-8.62521">
        <ele>191</ele>
        <time>2019-04-17T08:00:12Z</time>
      </trkpt>
      <trkpt lat="42.46836" lon="-8.62522">
        <ele>191</ele>
        <time>2019-04-17T08:00:12Z</time>
      </trkpt>
      <trkpt lat="42.46838" lon="-8.62523">
        <ele>191</ele>
        <time>2019-04-17T08:00:12Z</time>
      </trkpt>
      <trkpt lat="42.46841" lon="-8.62523">
        <ele>191</ele>
        <time>2019-04-17T08:00:12Z</time>
      </trkpt>
      <trkpt lat="42.46844" lon="-8.62524">
        <ele>191</ele>
        <time>2019-04-17T08:00:12Z</time>
      </trkpt>
      <trkpt lat="42.46847" lon="-8.62525">
        <ele>191</ele>
        <time>2019-04-17T08:00:12Z</time>
      </trkpt>
      <trkpt lat="42.46851" lon="-8.62526">
        <ele>191</ele>
        <time>2019-04-17T08:00:12Z</time>
      </trkpt>
      <trkpt lat="42.46854" lon="-8.62526">
        <ele>191</ele>
        <time>2019-04-17T08:00:12Z</time>
      </trkpt>
      <trkpt lat="42.46857" lon="-8.62527">
        <ele>191</ele>
        <time>2019-04-17T08:00:12Z</time>
      </trkpt>
      <trkpt lat="42.46859" lon="-8.62528">
        <ele>191</ele>
        <time>2019-04-17T08:00:12Z</time>
      </trkpt>
      <trkpt lat="42.46863" lon="-8.62529">
        <ele>191</ele>
        <time>2019-04-17T08:00:12Z</time>
      </trkpt>
      <trkpt lat="42.46866" lon="-8.62531">
        <ele>190.9</ele>
        <time>2019-04-17T08:00:12Z</time>
      </trkpt>
      <trkpt lat="42.46869" lon="-8.62532">
        <ele>190.9</ele>
        <time>2019-04-17T08:00:12Z</time>
      </trkpt>
      <trkpt lat="42.46872" lon="-8.62533">
        <ele>190.9</ele>
        <time>2019-04-17T08:00:12Z</time>
      </trkpt>
      <trkpt lat="42.46875" lon="-8.62535">
        <ele>190.9</ele>
        <time>2019-04-17T08:00:12Z</time>
      </trkpt>
      <trkpt lat="42.46878" lon="-8.62536">
        <ele>190.9</ele>
        <time>2019-04-17T08:00:12Z</time>
      </trkpt>
      <trkpt lat="42.46881" lon="-8.62537">
        <ele>190.9</ele>
        <time>2019-04-17T08:00:12Z</time>
      </trkpt>
      <trkpt lat="42.46884" lon="-8.62539">
        <ele>190.9</ele>
        <time>2019-04-17T08:00:12Z</time>
      </trkpt>
      <trkpt lat="42.46887" lon="-8.6254">
        <ele>191</ele>
        <time>2019-04-17T08:00:12Z</time>
      </trkpt>
      <trkpt lat="42.46891" lon="-8.62542">
        <ele>191.1</ele>
        <time>2019-04-17T08:00:12Z</time>
      </trkpt>
      <trkpt lat="42.46894" lon="-8.62543">
        <ele>191.3</ele>
        <time>2019-04-17T08:00:12Z</time>
      </trkpt>
      <trkpt lat="42.46898" lon="-8.62544">
        <ele>191.5</ele>
        <time>2019-04-17T08:00:12Z</time>
      </trkpt>
      <trkpt lat="42.46901" lon="-8.62545">
        <ele>191.7</ele>
        <time>2019-04-17T08:00:12Z</time>
      </trkpt>
      <trkpt lat="42.46905" lon="-8.62546">
        <ele>191.9</ele>
        <time>2019-04-17T08:00:12Z</time>
      </trkpt>
      <trkpt lat="42.46908" lon="-8.62547">
        <ele>192.2</ele>
        <time>2019-04-17T08:00:12Z</time>
      </trkpt>
      <trkpt lat="42.46911" lon="-8.62548">
        <ele>192.4</ele>
        <time>2019-04-17T08:00:12Z</time>
      </trkpt>
      <trkpt lat="42.46914" lon="-8.62549">
        <ele>192.6</ele>
        <time>2019-04-17T08:00:12Z</time>
      </trkpt>
      <trkpt lat="42.46917" lon="-8.62549">
        <ele>192.8</ele>
        <time>2019-04-17T08:00:12Z</time>
      </trkpt>
      <trkpt lat="42.4692" lon="-8.6255">
        <ele>193.1</ele>
        <time>2019-04-17T08:00:12Z</time>
      </trkpt>
      <trkpt lat="42.46923" lon="-8.62551">
        <ele>193.3</ele>
        <time>2019-04-17T08:00:12Z</time>
      </trkpt>
      <trkpt lat="42.46925" lon="-8.62552">
        <ele>193.5</ele>
        <time>2019-04-17T08:00:12Z</time>
      </trkpt>
      <trkpt lat="42.46928" lon="-8.62552">
        <ele>193.7</ele>
        <time>2019-04-17T08:00:12Z</time>
      </trkpt>
      <trkpt lat="42.4693" lon="-8.62552">
        <ele>193.8</ele>
        <time>2019-04-17T08:00:12Z</time>
      </trkpt>
      <trkpt lat="42.46932" lon="-8.62553">
        <ele>194</ele>
        <time>2019-04-17T08:00:12Z</time>
      </trkpt>
      <trkpt lat="42.46935" lon="-8.62553">
        <ele>194.2</ele>
        <time>2019-04-17T08:00:12Z</time>
      </trkpt>
      <trkpt lat="42.46937" lon="-8.62554">
        <ele>194.4</ele>
        <time>2019-04-17T08:00:12Z</time>
      </trkpt>
      <trkpt lat="42.46939" lon="-8.62554">
        <ele>194.5</ele>
        <time>2019-04-17T08:00:12Z</time>
      </trkpt>
      <trkpt lat="42.4694" lon="-8.62554">
        <ele>194.6</ele>
        <time>2019-04-17T08:00:12Z</time>
      </trkpt>
      <trkpt lat="42.46942" lon="-8.62554">
        <ele>194.8</ele>
        <time>2019-04-17T08:00:12Z</time>
      </trkpt>
      <trkpt lat="42.46944" lon="-8.62553">
        <ele>194.9</ele>
        <time>2019-04-17T08:00:12Z</time>
      </trkpt>
      <trkpt lat="42.46946" lon="-8.62553">
        <ele>195</ele>
        <time>2019-04-17T08:00:12Z</time>
      </trkpt>
      <trkpt lat="42.46948" lon="-8.62552">
        <ele>195.1</ele>
        <time>2019-04-17T08:00:12Z</time>
      </trkpt>
      <trkpt lat="42.46951" lon="-8.62552">
        <ele>195.3</ele>
        <time>2019-04-17T08:00:12Z</time>
      </trkpt>
      <trkpt lat="42.46953" lon="-8.62551">
        <ele>195.4</ele>
        <time>2019-04-17T08:00:12Z</time>
      </trkpt>
      <trkpt lat="42.46955" lon="-8.6255">
        <ele>195.5</ele>
        <time>2019-04-17T08:00:12Z</time>
      </trkpt>
      <trkpt lat="42.46957" lon="-8.62551">
        <ele>195.7</ele>
        <time>2019-04-17T08:00:12Z</time>
      </trkpt>
      <trkpt lat="42.46959" lon="-8.62551">
        <ele>195.8</ele>
        <time>2019-04-17T08:00:12Z</time>
      </trkpt>
      <trkpt lat="42.46961" lon="-8.62552">
        <ele>196</ele>
        <time>2019-04-17T08:00:12Z</time>
      </trkpt>
      <trkpt lat="42.46963" lon="-8.62552">
        <ele>196.1</ele>
        <time>2019-04-17T08:00:12Z</time>
      </trkpt>
      <trkpt lat="42.46964" lon="-8.62553">
        <ele>196.3</ele>
        <time>2019-04-17T08:00:12Z</time>
      </trkpt>
      <trkpt lat="42.46966" lon="-8.62554">
        <ele>196.5</ele>
        <time>2019-04-17T08:00:12Z</time>
      </trkpt>
      <trkpt lat="42.46968" lon="-8.62556">
        <ele>196.7</ele>
        <time>2019-04-17T08:00:12Z</time>
      </trkpt>
      <trkpt lat="42.46969" lon="-8.62558">
        <ele>197</ele>
        <time>2019-04-17T08:00:12Z</time>
      </trkpt>
      <trkpt lat="42.46971" lon="-8.62559">
        <ele>197.3</ele>
        <time>2019-04-17T08:00:12Z</time>
      </trkpt>
      <trkpt lat="42.46973" lon="-8.62561">
        <ele>197.5</ele>
        <time>2019-04-17T08:00:12Z</time>
      </trkpt>
      <trkpt lat="42.46976" lon="-8.62562">
        <ele>197.7</ele>
        <time>2019-04-17T08:00:12Z</time>
      </trkpt>
      <trkpt lat="42.46978" lon="-8.62564">
        <ele>197.9</ele>
        <time>2019-04-17T08:00:12Z</time>
      </trkpt>
      <trkpt lat="42.4698" lon="-8.62566">
        <ele>198</ele>
        <time>2019-04-17T08:00:12Z</time>
      </trkpt>
      <trkpt lat="42.46982" lon="-8.62568">
        <ele>198.2</ele>
        <time>2019-04-17T08:00:12Z</time>
      </trkpt>
      <trkpt lat="42.46985" lon="-8.6257">
        <ele>198.3</ele>
        <time>2019-04-17T08:00:12Z</time>
      </trkpt>
      <trkpt lat="42.46987" lon="-8.62571">
        <ele>198.4</ele>
        <time>2019-04-17T08:00:12Z</time>
      </trkpt>
      <trkpt lat="42.46989" lon="-8.62572">
        <ele>198.4</ele>
        <time>2019-04-17T08:00:12Z</time>
      </trkpt>
      <trkpt lat="42.46992" lon="-8.62574">
        <ele>198.5</ele>
        <time>2019-04-17T08:00:12Z</time>
      </trkpt>
      <trkpt lat="42.46994" lon="-8.62576">
        <ele>198.6</ele>
        <time>2019-04-17T08:00:12Z</time>
      </trkpt>
      <trkpt lat="42.46997" lon="-8.62577">
        <ele>198.6</ele>
        <time>2019-04-17T08:00:12Z</time>
      </trkpt>
      <trkpt lat="42.46999" lon="-8.62578">
        <ele>198.7</ele>
        <time>2019-04-17T08:00:12Z</time>
      </trkpt>
      <trkpt lat="42.47002" lon="-8.6258">
        <ele>198.8</ele>
        <time>2019-04-17T08:00:12Z</time>
      </trkpt>
      <trkpt lat="42.47004" lon="-8.62582">
        <ele>198.9</ele>
        <time>2019-04-17T08:00:12Z</time>
      </trkpt>
      <trkpt lat="42.47006" lon="-8.62583">
        <ele>199</ele>
        <time>2019-04-17T08:00:12Z</time>
      </trkpt>
      <trkpt lat="42.47008" lon="-8.62584">
        <ele>199</ele>
        <time>2019-04-17T08:00:12Z</time>
      </trkpt>
      <trkpt lat="42.47011" lon="-8.62585">
        <ele>199</ele>
        <time>2019-04-17T08:00:12Z</time>
      </trkpt>
      <trkpt lat="42.47013" lon="-8.62586">
        <ele>199</ele>
        <time>2019-04-17T08:00:12Z</time>
      </trkpt>
      <trkpt lat="42.47015" lon="-8.62587">
        <ele>198.9</ele>
        <time>2019-04-17T08:00:12Z</time>
      </trkpt>
      <trkpt lat="42.47017" lon="-8.62589">
        <ele>198.9</ele>
        <time>2019-04-17T08:00:12Z</time>
      </trkpt>
      <trkpt lat="42.47019" lon="-8.6259">
        <ele>198.8</ele>
        <time>2019-04-17T08:00:12Z</time>
      </trkpt>
      <trkpt lat="42.47019" lon="-8.6259">
        <ele>198.8</ele>
        <time>2019-04-17T08:00:12Z</time>
      </trkpt>
      <trkpt lat="42.47019" lon="-8.6259">
        <ele>198.8</ele>
        <time>2019-04-17T08:00:12Z</time>
      </trkpt>
      <trkpt lat="42.4702" lon="-8.6259">
        <ele>198.8</ele>
        <time>2019-04-17T08:00:12Z</time>
      </trkpt>
      <trkpt lat="42.4702" lon="-8.6259">
        <ele>198.8</ele>
        <time>2019-04-17T08:00:12Z</time>
      </trkpt>
      <trkpt lat="42.4702" lon="-8.62591">
        <ele>198.8</ele>
        <time>2019-04-17T08:00:12Z</time>
      </trkpt>
      <trkpt lat="42.4702" lon="-8.62591">
        <ele>198.8</ele>
        <time>2019-04-17T08:00:12Z</time>
      </trkpt>
      <trkpt lat="42.4702" lon="-8.62591">
        <ele>198.8</ele>
        <time>2019-04-17T08:00:12Z</time>
      </trkpt>
      <trkpt lat="42.4702" lon="-8.62591">
        <ele>198.8</ele>
        <time>2019-04-17T08:00:12Z</time>
      </trkpt>
      <trkpt lat="42.47021" lon="-8.62591">
        <ele>198.8</ele>
        <time>2019-04-17T08:00:12Z</time>
      </trkpt>
      <trkpt lat="42.47021" lon="-8.62591">
        <ele>198.8</ele>
        <time>2019-04-17T08:00:12Z</time>
      </trkpt>
      <trkpt lat="42.47021" lon="-8.62591">
        <ele>198.8</ele>
        <time>2019-04-17T08:00:12Z</time>
      </trkpt>
      <trkpt lat="42.47021" lon="-8.62591">
        <ele>198.8</ele>
        <time>2019-04-17T08:00:12Z</time>
      </trkpt>
      <trkpt lat="42.47021" lon="-8.62591">
        <ele>198.8</ele>
        <time>2019-04-17T08:00:12Z</time>
      </trkpt>
      <trkpt lat="42.47021" lon="-8.62591">
        <ele>198.8</ele>
        <time>2019-04-17T08:00:12Z</time>
      </trkpt>
      <trkpt lat="42.47021" lon="-8.62591">
        <ele>198.8</ele>
        <time>2019-04-17T08:00:12Z</time>
      </trkpt>
      <trkpt lat="42.47021" lon="-8.62592">
        <ele>198.8</ele>
        <time>2019-04-17T08:00:12Z</time>
      </trkpt>
      <trkpt lat="42.47022" lon="-8.62592">
        <ele>198.8</ele>
        <time>2019-04-17T08:00:12Z</time>
      </trkpt>
      <trkpt lat="42.47023" lon="-8.62592">
        <ele>198.7</ele>
        <time>2019-04-17T08:00:12Z</time>
      </trkpt>
      <trkpt lat="42.47025" lon="-8.62593">
        <ele>198.7</ele>
        <time>2019-04-17T08:00:12Z</time>
      </trkpt>
      <trkpt lat="42.47026" lon="-8.62594">
        <ele>198.6</ele>
        <time>2019-04-17T08:00:12Z</time>
      </trkpt>
      <trkpt lat="42.47027" lon="-8.62596">
        <ele>198.6</ele>
        <time>2019-04-17T08:00:12Z</time>
      </trkpt>
      <trkpt lat="42.47029" lon="-8.62597">
        <ele>198.5</ele>
        <time>2019-04-17T08:00:12Z</time>
      </trkpt>
      <trkpt lat="42.47031" lon="-8.62598">
        <ele>198.5</ele>
        <time>2019-04-17T08:00:12Z</time>
      </trkpt>
      <trkpt lat="42.47034" lon="-8.62599">
        <ele>198.5</ele>
        <time>2019-04-17T08:00:12Z</time>
      </trkpt>
      <trkpt lat="42.47036" lon="-8.62601">
        <ele>198.6</ele>
        <time>2019-04-17T08:00:12Z</time>
      </trkpt>
      <trkpt lat="42.47039" lon="-8.62602">
        <ele>198.6</ele>
        <time>2019-04-17T08:00:12Z</time>
      </trkpt>
      <trkpt lat="42.47041" lon="-8.62603">
        <ele>198.6</ele>
        <time>2019-04-17T08:00:12Z</time>
      </trkpt>
      <trkpt lat="42.47044" lon="-8.62605">
        <ele>198.7</ele>
        <time>2019-04-17T08:00:12Z</time>
      </trkpt>
      <trkpt lat="42.47047" lon="-8.62606">
        <ele>198.7</ele>
        <time>2019-04-17T08:00:12Z</time>
      </trkpt>
      <trkpt lat="42.47049" lon="-8.62607">
        <ele>198.8</ele>
        <time>2019-04-17T08:00:12Z</time>
      </trkpt>
      <trkpt lat="42.47052" lon="-8.62608">
        <ele>198.9</ele>
        <time>2019-04-17T08:00:12Z</time>
      </trkpt>
      <trkpt lat="42.47054" lon="-8.62609">
        <ele>199</ele>
        <time>2019-04-17T08:00:12Z</time>
      </trkpt>
      <trkpt lat="42.47057" lon="-8.6261">
        <ele>198.9</ele>
        <time>2019-04-17T08:00:12Z</time>
      </trkpt>
      <trkpt lat="42.4706" lon="-8.62611">
        <ele>198.8</ele>
        <time>2019-04-17T08:00:12Z</time>
      </trkpt>
      <trkpt lat="42.47064" lon="-8.62611">
        <ele>198.7</ele>
        <time>2019-04-17T08:00:12Z</time>
      </trkpt>
      <trkpt lat="42.47067" lon="-8.62612">
        <ele>198.6</ele>
        <time>2019-04-17T08:00:12Z</time>
      </trkpt>
      <trkpt lat="42.4707" lon="-8.62613">
        <ele>198.5</ele>
        <time>2019-04-17T08:00:12Z</time>
      </trkpt>
      <trkpt lat="42.47073" lon="-8.62613">
        <ele>198.4</ele>
        <time>2019-04-17T08:00:12Z</time>
      </trkpt>
      <trkpt lat="42.47076" lon="-8.62615">
        <ele>198.2</ele>
        <time>2019-04-17T08:00:12Z</time>
      </trkpt>
      <trkpt lat="42.47079" lon="-8.62616">
        <ele>198.1</ele>
        <time>2019-04-17T08:00:12Z</time>
      </trkpt>
      <trkpt lat="42.47083" lon="-8.62618">
        <ele>198</ele>
        <time>2019-04-17T08:00:12Z</time>
      </trkpt>
      <trkpt lat="42.47087" lon="-8.62619">
        <ele>197.7</ele>
        <time>2019-04-17T08:00:12Z</time>
      </trkpt>
      <trkpt lat="42.4709" lon="-8.62621">
        <ele>197.4</ele>
        <time>2019-04-17T08:00:12Z</time>
      </trkpt>
      <trkpt lat="42.47094" lon="-8.62623">
        <ele>197.2</ele>
        <time>2019-04-17T08:00:12Z</time>
      </trkpt>
      <trkpt lat="42.47097" lon="-8.62625">
        <ele>197</ele>
        <time>2019-04-17T08:00:12Z</time>
      </trkpt>
      <trkpt lat="42.471" lon="-8.62627">
        <ele>196.9</ele>
        <time>2019-04-17T08:00:12Z</time>
      </trkpt>
      <trkpt lat="42.47103" lon="-8.6263">
        <ele>196.8</ele>
        <time>2019-04-17T08:00:12Z</time>
      </trkpt>
      <trkpt lat="42.47106" lon="-8.62631">
        <ele>196.7</ele>
        <time>2019-04-17T08:00:12Z</time>
      </trkpt>
      <trkpt lat="42.47108" lon="-8.62633">
        <ele>196.7</ele>
        <time>2019-04-17T08:00:12Z</time>
      </trkpt>
      <trkpt lat="42.47112" lon="-8.62634">
        <ele>196.7</ele>
        <time>2019-04-17T08:00:12Z</time>
      </trkpt>
      <trkpt lat="42.47115" lon="-8.62637">
        <ele>196.8</ele>
        <time>2019-04-17T08:00:12Z</time>
      </trkpt>
      <trkpt lat="42.47118" lon="-8.62639">
        <ele>197</ele>
        <time>2019-04-17T08:00:12Z</time>
      </trkpt>
      <trkpt lat="42.4712" lon="-8.62643">
        <ele>197.3</ele>
        <time>2019-04-17T08:00:12Z</time>
      </trkpt>
      <trkpt lat="42.47122" lon="-8.62646">
        <ele>197.6</ele>
        <time>2019-04-17T08:00:12Z</time>
      </trkpt>
      <trkpt lat="42.47123" lon="-8.6265">
        <ele>198</ele>
        <time>2019-04-17T08:00:12Z</time>
      </trkpt>
      <trkpt lat="42.47124" lon="-8.62654">
        <ele>198.3</ele>
        <time>2019-04-17T08:00:12Z</time>
      </trkpt>
      <trkpt lat="42.47124" lon="-8.62657">
        <ele>198.6</ele>
        <time>2019-04-17T08:00:12Z</time>
      </trkpt>
      <trkpt lat="42.47124" lon="-8.62659">
        <ele>198.8</ele>
        <time>2019-04-17T08:00:12Z</time>
      </trkpt>
      <trkpt lat="42.47123" lon="-8.62661">
        <ele>198.9</ele>
        <time>2019-04-17T08:00:12Z</time>
      </trkpt>
      <trkpt lat="42.47122" lon="-8.62662">
        <ele>199</ele>
        <time>2019-04-17T08:00:12Z</time>
      </trkpt>
      <trkpt lat="42.4712" lon="-8.62663">
        <ele>199</ele>
        <time>2019-04-17T08:00:12Z</time>
      </trkpt>
      <trkpt lat="42.47118" lon="-8.62665">
        <ele>199.1</ele>
        <time>2019-04-17T08:00:12Z</time>
      </trkpt>
      <trkpt lat="42.47116" lon="-8.62666">
        <ele>199.1</ele>
        <time>2019-04-17T08:00:12Z</time>
      </trkpt>
      <trkpt lat="42.47113" lon="-8.62668">
        <ele>199.1</ele>
        <time>2019-04-17T08:00:12Z</time>
      </trkpt>
      <trkpt lat="42.47111" lon="-8.62669">
        <ele>199.1</ele>
        <time>2019-04-17T08:00:12Z</time>
      </trkpt>
      <trkpt lat="42.47109" lon="-8.62671">
        <ele>199.2</ele>
        <time>2019-04-17T08:00:12Z</time>
      </trkpt>
      <trkpt lat="42.47107" lon="-8.62672">
        <ele>199.2</ele>
        <time>2019-04-17T08:00:12Z</time>
      </trkpt>
      <trkpt lat="42.47104" lon="-8.62674">
        <ele>199.3</ele>
        <time>2019-04-17T08:00:12Z</time>
      </trkpt>
      <trkpt lat="42.47101" lon="-8.62676">
        <ele>199.4</ele>
        <time>2019-04-17T08:00:12Z</time>
      </trkpt>
      <trkpt lat="42.47098" lon="-8.62677">
        <ele>199.6</ele>
        <time>2019-04-17T08:00:12Z</time>
      </trkpt>
      <trkpt lat="42.47095" lon="-8.62679">
        <ele>199.7</ele>
        <time>2019-04-17T08:00:12Z</time>
      </trkpt>
      <trkpt lat="42.47092" lon="-8.6268">
        <ele>199.8</ele>
        <time>2019-04-17T08:00:12Z</time>
      </trkpt>
      <trkpt lat="42.47089" lon="-8.62681">
        <ele>199.9</ele>
        <time>2019-04-17T08:00:12Z</time>
      </trkpt>
      <trkpt lat="42.47088" lon="-8.62681">
        <ele>200</ele>
        <time>2019-04-17T08:00:12Z</time>
      </trkpt>
      <trkpt lat="42.47088" lon="-8.62682">
        <ele>200</ele>
        <time>2019-04-17T08:00:12Z</time>
      </trkpt>
      <trkpt lat="42.47088" lon="-8.62682">
        <ele>200</ele>
        <time>2019-04-17T08:00:12Z</time>
      </trkpt>
      <trkpt lat="42.47088" lon="-8.62682">
        <ele>200</ele>
        <time>2019-04-17T08:00:12Z</time>
      </trkpt>
      <trkpt lat="42.47087" lon="-8.62683">
        <ele>200.1</ele>
        <time>2019-04-17T08:00:12Z</time>
      </trkpt>
      <trkpt lat="42.47087" lon="-8.62683">
        <ele>200.1</ele>
        <time>2019-04-17T08:00:12Z</time>
      </trkpt>
      <trkpt lat="42.47086" lon="-8.62684">
        <ele>200.2</ele>
        <time>2019-04-17T08:00:12Z</time>
      </trkpt>
      <trkpt lat="42.47086" lon="-8.62684">
        <ele>200.2</ele>
        <time>2019-04-17T08:00:12Z</time>
      </trkpt>
      <trkpt lat="42.47086" lon="-8.62684">
        <ele>200.2</ele>
        <time>2019-04-17T08:00:12Z</time>
      </trkpt>
      <trkpt lat="42.47086" lon="-8.62684">
        <ele>200.2</ele>
        <time>2019-04-17T08:00:12Z</time>
      </trkpt>
      <trkpt lat="42.47086" lon="-8.62685">
        <ele>200.2</ele>
        <time>2019-04-17T08:00:12Z</time>
      </trkpt>
      <trkpt lat="42.47085" lon="-8.62685">
        <ele>200.3</ele>
        <time>2019-04-17T08:00:12Z</time>
      </trkpt>
      <trkpt lat="42.47085" lon="-8.62685">
        <ele>200.3</ele>
        <time>2019-04-17T08:00:12Z</time>
      </trkpt>
      <trkpt lat="42.47084" lon="-8.62686">
        <ele>200.4</ele>
        <time>2019-04-17T08:00:12Z</time>
      </trkpt>
      <trkpt lat="42.47081" lon="-8.62687">
        <ele>200.3</ele>
        <time>2019-04-17T08:00:12Z</time>
      </trkpt>
      <trkpt lat="42.47078" lon="-8.62689">
        <ele>200.1</ele>
        <time>2019-04-17T08:00:12Z</time>
      </trkpt>
      <trkpt lat="42.47075" lon="-8.6269">
        <ele>199.8</ele>
        <time>2019-04-17T08:00:12Z</time>
      </trkpt>
      <trkpt lat="42.47071" lon="-8.62691">
        <ele>199.5</ele>
        <time>2019-04-17T08:00:12Z</time>
      </trkpt>
      <trkpt lat="42.47067" lon="-8.62693">
        <ele>199.2</ele>
        <time>2019-04-17T08:00:12Z</time>
      </trkpt>
      <trkpt lat="42.47064" lon="-8.62694">
        <ele>198.9</ele>
        <time>2019-04-17T08:00:12Z</time>
      </trkpt>
      <trkpt lat="42.4706" lon="-8.62695">
        <ele>198.5</ele>
        <time>2019-04-17T08:00:12Z</time>
      </trkpt>
      <trkpt lat="42.47056" lon="-8.62696">
        <ele>198.3</ele>
        <time>2019-04-17T08:00:12Z</time>
      </trkpt>
      <trkpt lat="42.47053" lon="-8.62696">
        <ele>198.2</ele>
        <time>2019-04-17T08:00:12Z</time>
      </trkpt>
      <trkpt lat="42.4705" lon="-8.62697">
        <ele>198.3</ele>
        <time>2019-04-17T08:00:12Z</time>
      </trkpt>
      <trkpt lat="42.47047" lon="-8.62699">
        <ele>198.4</ele>
        <time>2019-04-17T08:00:12Z</time>
      </trkpt>
      <trkpt lat="42.47045" lon="-8.627">
        <ele>198.5</ele>
        <time>2019-04-17T08:00:12Z</time>
      </trkpt>
      <trkpt lat="42.47044" lon="-8.62702">
        <ele>198.8</ele>
        <time>2019-04-17T08:00:12Z</time>
      </trkpt>
      <trkpt lat="42.47043" lon="-8.62704">
        <ele>199.1</ele>
        <time>2019-04-17T08:00:12Z</time>
      </trkpt>
      <trkpt lat="42.47042" lon="-8.62707">
        <ele>199.5</ele>
        <time>2019-04-17T08:00:12Z</time>
      </trkpt>
      <trkpt lat="42.47042" lon="-8.62709">
        <ele>199.9</ele>
        <time>2019-04-17T08:00:12Z</time>
      </trkpt>
      <trkpt lat="42.47042" lon="-8.62711">
        <ele>200.2</ele>
        <time>2019-04-17T08:00:12Z</time>
      </trkpt>
      <trkpt lat="42.47043" lon="-8.62713">
        <ele>200.5</ele>
        <time>2019-04-17T08:00:12Z</time>
      </trkpt>
      <trkpt lat="42.47044" lon="-8.62714">
        <ele>200.7</ele>
        <time>2019-04-17T08:00:12Z</time>
      </trkpt>
      <trkpt lat="42.47045" lon="-8.62714">
        <ele>200.8</ele>
        <time>2019-04-17T08:00:12Z</time>
      </trkpt>
      <trkpt lat="42.47045" lon="-8.62714">
        <ele>200.8</ele>
        <time>2019-04-17T08:00:12Z</time>
      </trkpt>
      <trkpt lat="42.47046" lon="-8.62714">
        <ele>201</ele>
        <time>2019-04-17T08:00:12Z</time>
      </trkpt>
      <trkpt lat="42.47047" lon="-8.62715">
        <ele>201.1</ele>
        <time>2019-04-17T08:00:12Z</time>
      </trkpt>
      <trkpt lat="42.47048" lon="-8.62715">
        <ele>201.2</ele>
        <time>2019-04-17T08:00:12Z</time>
      </trkpt>
      <trkpt lat="42.47048" lon="-8.62715">
        <ele>201.3</ele>
        <time>2019-04-17T08:00:12Z</time>
      </trkpt>
      <trkpt lat="42.47049" lon="-8.62716">
        <ele>201.4</ele>
        <time>2019-04-17T08:00:12Z</time>
      </trkpt>
      <trkpt lat="42.47051" lon="-8.62716">
        <ele>201.6</ele>
        <time>2019-04-17T08:00:12Z</time>
      </trkpt>
      <trkpt lat="42.47052" lon="-8.62717">
        <ele>201.7</ele>
        <time>2019-04-17T08:00:12Z</time>
      </trkpt>
      <trkpt lat="42.47053" lon="-8.62717">
        <ele>201.8</ele>
        <time>2019-04-17T08:00:12Z</time>
      </trkpt>
      <trkpt lat="42.47054" lon="-8.62717">
        <ele>201.9</ele>
        <time>2019-04-17T08:00:12Z</time>
      </trkpt>
      <trkpt lat="42.47055" lon="-8.62717">
        <ele>202</ele>
        <time>2019-04-17T08:00:12Z</time>
      </trkpt>
      <trkpt lat="42.47056" lon="-8.62717">
        <ele>202.1</ele>
        <time>2019-04-17T08:00:12Z</time>
      </trkpt>
      <trkpt lat="42.47057" lon="-8.62717">
        <ele>202.2</ele>
        <time>2019-04-17T08:00:12Z</time>
      </trkpt>
      <trkpt lat="42.47057" lon="-8.62717">
        <ele>202.1</ele>
        <time>2019-04-17T08:00:12Z</time>
      </trkpt>
      <trkpt lat="42.47057" lon="-8.62717">
        <ele>202.1</ele>
        <time>2019-04-17T08:00:12Z</time>
      </trkpt>
      <trkpt lat="42.47057" lon="-8.62717">
        <ele>202.1</ele>
        <time>2019-04-17T08:00:12Z</time>
      </trkpt>
      <trkpt lat="42.47058" lon="-8.62717">
        <ele>202.2</ele>
        <time>2019-04-17T08:00:12Z</time>
      </trkpt>
      <trkpt lat="42.47059" lon="-8.62717">
        <ele>202.3</ele>
        <time>2019-04-17T08:00:12Z</time>
      </trkpt>
      <trkpt lat="42.47061" lon="-8.62717">
        <ele>202.3</ele>
        <time>2019-04-17T08:00:12Z</time>
      </trkpt>
      <trkpt lat="42.47062" lon="-8.62716">
        <ele>202.3</ele>
        <time>2019-04-17T08:00:12Z</time>
      </trkpt>
      <trkpt lat="42.47064" lon="-8.62716">
        <ele>202.3</ele>
        <time>2019-04-17T08:00:12Z</time>
      </trkpt>
      <trkpt lat="42.47065" lon="-8.62715">
        <ele>202.2</ele>
        <time>2019-04-17T08:00:12Z</time>
      </trkpt>
      <trkpt lat="42.47067" lon="-8.62714">
        <ele>202.2</ele>
        <time>2019-04-17T08:00:12Z</time>
      </trkpt>
      <trkpt lat="42.47069" lon="-8.62713">
        <ele>202.1</ele>
        <time>2019-04-17T08:00:12Z</time>
      </trkpt>
      <trkpt lat="42.4707" lon="-8.62712">
        <ele>202</ele>
        <time>2019-04-17T08:00:12Z</time>
      </trkpt>
      <trkpt lat="42.47071" lon="-8.62711">
        <ele>202</ele>
        <time>2019-04-17T08:00:12Z</time>
      </trkpt>
      <trkpt lat="42.47072" lon="-8.62711">
        <ele>201.9</ele>
        <time>2019-04-17T08:00:12Z</time>
      </trkpt>
      <trkpt lat="42.47072" lon="-8.6271">
        <ele>201.9</ele>
        <time>2019-04-17T08:00:12Z</time>
      </trkpt>
      <trkpt lat="42.47073" lon="-8.62709">
        <ele>201.9</ele>
        <time>2019-04-17T08:00:12Z</time>
      </trkpt>
      <trkpt lat="42.47075" lon="-8.62708">
        <ele>201.9</ele>
        <time>2019-04-17T08:00:12Z</time>
      </trkpt>
      <trkpt lat="42.47076" lon="-8.62707">
        <ele>201.8</ele>
        <time>2019-04-17T08:00:12Z</time>
      </trkpt>
      <trkpt lat="42.47078" lon="-8.62705">
        <ele>201.7</ele>
        <time>2019-04-17T08:00:12Z</time>
      </trkpt>
      <trkpt lat="42.4708" lon="-8.62703">
        <ele>201.6</ele>
        <time>2019-04-17T08:00:12Z</time>
      </trkpt>
      <trkpt lat="42.47083" lon="-8.627">
        <ele>201.6</ele>
        <time>2019-04-17T08:00:12Z</time>
      </trkpt>
      <trkpt lat="42.47086" lon="-8.62697">
        <ele>201.2</ele>
        <time>2019-04-17T08:00:12Z</time>
      </trkpt>
      <trkpt lat="42.4709" lon="-8.62694">
        <ele>200.8</ele>
        <time>2019-04-17T08:00:12Z</time>
      </trkpt>
      <trkpt lat="42.47093" lon="-8.62692">
        <ele>200.5</ele>
        <time>2019-04-17T08:00:12Z</time>
      </trkpt>
      <trkpt lat="42.47096" lon="-8.62689">
        <ele>200.2</ele>
        <time>2019-04-17T08:00:12Z</time>
      </trkpt>
      <trkpt lat="42.47099" lon="-8.62688">
        <ele>200.1</ele>
        <time>2019-04-17T08:00:12Z</time>
      </trkpt>
      <trkpt lat="42.47102" lon="-8.62688">
        <ele>200</ele>
        <time>2019-04-17T08:00:12Z</time>
      </trkpt>
      <trkpt lat="42.47104" lon="-8.62689">
        <ele>200</ele>
        <time>2019-04-17T08:00:12Z</time>
      </trkpt>
      <trkpt lat="42.47106" lon="-8.6269">
        <ele>200</ele>
        <time>2019-04-17T08:00:12Z</time>
      </trkpt>
      <trkpt lat="42.47107" lon="-8.62693">
        <ele>200.1</ele>
        <time>2019-04-17T08:00:12Z</time>
      </trkpt>
      <trkpt lat="42.47107" lon="-8.62696">
        <ele>200.3</ele>
        <time>2019-04-17T08:00:12Z</time>
      </trkpt>
      <trkpt lat="42.47107" lon="-8.62698">
        <ele>200.6</ele>
        <time>2019-04-17T08:00:12Z</time>
      </trkpt>
      <trkpt lat="42.47105" lon="-8.627">
        <ele>200.8</ele>
        <time>2019-04-17T08:00:12Z</time>
      </trkpt>
      <trkpt lat="42.47103" lon="-8.62701">
        <ele>201</ele>
        <time>2019-04-17T08:00:12Z</time>
      </trkpt>
      <trkpt lat="42.47101" lon="-8.62702">
        <ele>201.2</ele>
        <time>2019-04-17T08:00:12Z</time>
      </trkpt>
      <trkpt lat="42.471" lon="-8.62703">
        <ele>201.4</ele>
        <time>2019-04-17T08:00:12Z</time>
      </trkpt>
      <trkpt lat="42.47098" lon="-8.62704">
        <ele>201.5</ele>
        <time>2019-04-17T08:00:12Z</time>
      </trkpt>
      <trkpt lat="42.47096" lon="-8.62705">
        <ele>201.7</ele>
        <time>2019-04-17T08:00:12Z</time>
      </trkpt>
      <trkpt lat="42.47094" lon="-8.62706">
        <ele>201.8</ele>
        <time>2019-04-17T08:00:12Z</time>
      </trkpt>
      <trkpt lat="42.47092" lon="-8.62706">
        <ele>202</ele>
        <time>2019-04-17T08:00:12Z</time>
      </trkpt>
      <trkpt lat="42.4709" lon="-8.62707">
        <ele>202.1</ele>
        <time>2019-04-17T08:00:12Z</time>
      </trkpt>
      <trkpt lat="42.47088" lon="-8.62707">
        <ele>202.2</ele>
        <time>2019-04-17T08:00:12Z</time>
      </trkpt>
      <trkpt lat="42.47086" lon="-8.62708">
        <ele>202.3</ele>
        <time>2019-04-17T08:00:12Z</time>
      </trkpt>
      <trkpt lat="42.47085" lon="-8.62709">
        <ele>202.5</ele>
        <time>2019-04-17T08:00:12Z</time>
      </trkpt>
      <trkpt lat="42.47083" lon="-8.6271">
        <ele>202.7</ele>
        <time>2019-04-17T08:00:12Z</time>
      </trkpt>
      <trkpt lat="42.47082" lon="-8.62711">
        <ele>202.7</ele>
        <time>2019-04-17T08:00:12Z</time>
      </trkpt>
      <trkpt lat="42.47081" lon="-8.62712">
        <ele>202.8</ele>
        <time>2019-04-17T08:00:12Z</time>
      </trkpt>
      <trkpt lat="42.4708" lon="-8.62714">
        <ele>202.9</ele>
        <time>2019-04-17T08:00:12Z</time>
      </trkpt>
      <trkpt lat="42.47079" lon="-8.62716">
        <ele>203.1</ele>
        <time>2019-04-17T08:00:12Z</time>
      </trkpt>
      <trkpt lat="42.47079" lon="-8.62719">
        <ele>203.4</ele>
        <time>2019-04-17T08:00:12Z</time>
      </trkpt>
      <trkpt lat="42.4708" lon="-8.62721">
        <ele>203.7</ele>
        <time>2019-04-17T08:00:12Z</time>
      </trkpt>
      <trkpt lat="42.47081" lon="-8.62723">
        <ele>204</ele>
        <time>2019-04-17T08:00:12Z</time>
      </trkpt>
      <trkpt lat="42.47083" lon="-8.62723">
        <ele>204.1</ele>
        <time>2019-04-17T08:00:12Z</time>
      </trkpt>
      <trkpt lat="42.47085" lon="-8.62722">
        <ele>203.9</ele>
        <time>2019-04-17T08:00:12Z</time>
      </trkpt>
      <trkpt lat="42.47087" lon="-8.62721">
        <ele>203.7</ele>
        <time>2019-04-17T08:00:12Z</time>
      </trkpt>
      <trkpt lat="42.47089" lon="-8.62718">
        <ele>203.4</ele>
        <time>2019-04-17T08:00:12Z</time>
      </trkpt>
      <trkpt lat="42.47091" lon="-8.62715">
        <ele>203</ele>
        <time>2019-04-17T08:00:12Z</time>
      </trkpt>
      <trkpt lat="42.47094" lon="-8.62713">
        <ele>202.6</ele>
        <time>2019-04-17T08:00:12Z</time>
      </trkpt>
      <trkpt lat="42.47097" lon="-8.62711">
        <ele>202.3</ele>
        <time>2019-04-17T08:00:12Z</time>
      </trkpt>
      <trkpt lat="42.471" lon="-8.62712">
        <ele>202.3</ele>
        <time>2019-04-17T08:00:12Z</time>
      </trkpt>
      <trkpt lat="42.47104" lon="-8.62713">
        <ele>202.2</ele>
        <time>2019-04-17T08:00:12Z</time>
      </trkpt>
      <trkpt lat="42.47107" lon="-8.62714">
        <ele>202.3</ele>
        <time>2019-04-17T08:00:12Z</time>
      </trkpt>
      <trkpt lat="42.4711" lon="-8.62715">
        <ele>202.3</ele>
        <time>2019-04-17T08:00:12Z</time>
      </trkpt>
      <trkpt lat="42.47112" lon="-8.62716">
        <ele>202.4</ele>
        <time>2019-04-17T08:00:12Z</time>
      </trkpt>
      <trkpt lat="42.47113" lon="-8.62717">
        <ele>202.5</ele>
        <time>2019-04-17T08:00:12Z</time>
      </trkpt>
      <trkpt lat="42.47116" lon="-8.62719">
        <ele>202.7</ele>
        <time>2019-04-17T08:00:12Z</time>
      </trkpt>
      <trkpt lat="42.47118" lon="-8.6272">
        <ele>202.8</ele>
        <time>2019-04-17T08:00:12Z</time>
      </trkpt>
      <trkpt lat="42.4712" lon="-8.62722">
        <ele>203</ele>
        <time>2019-04-17T08:00:12Z</time>
      </trkpt>
      <trkpt lat="42.47122" lon="-8.62724">
        <ele>203.1</ele>
        <time>2019-04-17T08:00:12Z</time>
      </trkpt>
      <trkpt lat="42.47124" lon="-8.62726">
        <ele>203.2</ele>
        <time>2019-04-17T08:00:12Z</time>
      </trkpt>
      <trkpt lat="42.47125" lon="-8.62729">
        <ele>203.3</ele>
        <time>2019-04-17T08:00:12Z</time>
      </trkpt>
      <trkpt lat="42.47126" lon="-8.62731">
        <ele>203.5</ele>
        <time>2019-04-17T08:00:12Z</time>
      </trkpt>
      <trkpt lat="42.47127" lon="-8.62733">
        <ele>203.6</ele>
        <time>2019-04-17T08:00:12Z</time>
      </trkpt>
      <trkpt lat="42.47127" lon="-8.62736">
        <ele>203.7</ele>
        <time>2019-04-17T08:00:12Z</time>
      </trkpt>
      <trkpt lat="42.47127" lon="-8.62738">
        <ele>203.8</ele>
        <time>2019-04-17T08:00:12Z</time>
      </trkpt>
      <trkpt lat="42.47127" lon="-8.6274">
        <ele>203.9</ele>
        <time>2019-04-17T08:00:12Z</time>
      </trkpt>
      <trkpt lat="42.47126" lon="-8.62742">
        <ele>204</ele>
        <time>2019-04-17T08:00:12Z</time>
      </trkpt>
      <trkpt lat="42.47124" lon="-8.62744">
        <ele>204.2</ele>
        <time>2019-04-17T08:00:12Z</time>
      </trkpt>
      <trkpt lat="42.47122" lon="-8.62745">
        <ele>204.3</ele>
        <time>2019-04-17T08:00:12Z</time>
      </trkpt>
      <trkpt lat="42.4712" lon="-8.62746">
        <ele>204.5</ele>
        <time>2019-04-17T08:00:12Z</time>
      </trkpt>
      <trkpt lat="42.47118" lon="-8.62748">
        <ele>204.6</ele>
        <time>2019-04-17T08:00:12Z</time>
      </trkpt>
      <trkpt lat="42.47116" lon="-8.6275">
        <ele>204.8</ele>
        <time>2019-04-17T08:00:12Z</time>
      </trkpt>
      <trkpt lat="42.47115" lon="-8.62751">
        <ele>204.9</ele>
        <time>2019-04-17T08:00:12Z</time>
      </trkpt>
      <trkpt lat="42.47114" lon="-8.62753">
        <ele>204.9</ele>
        <time>2019-04-17T08:00:12Z</time>
      </trkpt>
      <trkpt lat="42.47113" lon="-8.62755">
        <ele>204.9</ele>
        <time>2019-04-17T08:00:12Z</time>
      </trkpt>
      <trkpt lat="42.47113" lon="-8.62757">
        <ele>204.9</ele>
        <time>2019-04-17T08:00:12Z</time>
      </trkpt>
      <trkpt lat="42.47113" lon="-8.62759">
        <ele>204.9</ele>
        <time>2019-04-17T08:00:12Z</time>
      </trkpt>
      <trkpt lat="42.47113" lon="-8.62762">
        <ele>204.9</ele>
        <time>2019-04-17T08:00:12Z</time>
      </trkpt>
      <trkpt lat="42.47113" lon="-8.62765">
        <ele>204.9</ele>
        <time>2019-04-17T08:00:12Z</time>
      </trkpt>
      <trkpt lat="42.47113" lon="-8.62767">
        <ele>204.9</ele>
        <time>2019-04-17T08:00:12Z</time>
      </trkpt>
      <trkpt lat="42.47115" lon="-8.62769">
        <ele>204.9</ele>
        <time>2019-04-17T08:00:12Z</time>
      </trkpt>
      <trkpt lat="42.47116" lon="-8.62771">
        <ele>204.8</ele>
        <time>2019-04-17T08:00:12Z</time>
      </trkpt>
      <trkpt lat="42.47118" lon="-8.62772">
        <ele>204.7</ele>
        <time>2019-04-17T08:00:12Z</time>
      </trkpt>
      <trkpt lat="42.47121" lon="-8.62774">
        <ele>204.6</ele>
        <time>2019-04-17T08:00:12Z</time>
      </trkpt>
      <trkpt lat="42.47124" lon="-8.62776">
        <ele>204.5</ele>
        <time>2019-04-17T08:00:12Z</time>
      </trkpt>
      <trkpt lat="42.47126" lon="-8.62779">
        <ele>204.4</ele>
        <time>2019-04-17T08:00:12Z</time>
      </trkpt>
      <trkpt lat="42.47127" lon="-8.62782">
        <ele>204.2</ele>
        <time>2019-04-17T08:00:12Z</time>
      </trkpt>
      <trkpt lat="42.47127" lon="-8.62785">
        <ele>203.9</ele>
        <time>2019-04-17T08:00:12Z</time>
      </trkpt>
      <trkpt lat="42.47127" lon="-8.62787">
        <ele>203.8</ele>
        <time>2019-04-17T08:00:12Z</time>
      </trkpt>
      <trkpt lat="42.47126" lon="-8.62789">
        <ele>203.7</ele>
        <time>2019-04-17T08:00:12Z</time>
      </trkpt>
      <trkpt lat="42.47125" lon="-8.62791">
        <ele>203.5</ele>
        <time>2019-04-17T08:00:12Z</time>
      </trkpt>
      <trkpt lat="42.47124" lon="-8.62794">
        <ele>203.4</ele>
        <time>2019-04-17T08:00:12Z</time>
      </trkpt>
      <trkpt lat="42.47122" lon="-8.62796">
        <ele>203.3</ele>
        <time>2019-04-17T08:00:12Z</time>
      </trkpt>
      <trkpt lat="42.4712" lon="-8.62798">
        <ele>203.2</ele>
        <time>2019-04-17T08:00:12Z</time>
      </trkpt>
      <trkpt lat="42.47118" lon="-8.628">
        <ele>203.2</ele>
        <time>2019-04-17T08:00:12Z</time>
      </trkpt>
      <trkpt lat="42.47116" lon="-8.62802">
        <ele>203.1</ele>
        <time>2019-04-17T08:00:12Z</time>
      </trkpt>
      <trkpt lat="42.47114" lon="-8.62803">
        <ele>203.1</ele>
        <time>2019-04-17T08:00:12Z</time>
      </trkpt>
      <trkpt lat="42.47112" lon="-8.62804">
        <ele>203.1</ele>
        <time>2019-04-17T08:00:12Z</time>
      </trkpt>
      <trkpt lat="42.47111" lon="-8.62806">
        <ele>203.1</ele>
        <time>2019-04-17T08:00:12Z</time>
      </trkpt>
      <trkpt lat="42.47109" lon="-8.62808">
        <ele>203.2</ele>
        <time>2019-04-17T08:00:12Z</time>
      </trkpt>
      <trkpt lat="42.47108" lon="-8.6281">
        <ele>203.1</ele>
        <time>2019-04-17T08:00:12Z</time>
      </trkpt>
      <trkpt lat="42.47107" lon="-8.62813">
        <ele>202.8</ele>
        <time>2019-04-17T08:00:12Z</time>
      </trkpt>
      <trkpt lat="42.47107" lon="-8.62816">
        <ele>202.4</ele>
        <time>2019-04-17T08:00:12Z</time>
      </trkpt>
      <trkpt lat="42.47108" lon="-8.62817">
        <ele>202.1</ele>
        <time>2019-04-17T08:00:12Z</time>
      </trkpt>
      <trkpt lat="42.47108" lon="-8.62818">
        <ele>201.9</ele>
        <time>2019-04-17T08:00:12Z</time>
      </trkpt>
      <trkpt lat="42.47109" lon="-8.62819">
        <ele>201.5</ele>
        <time>2019-04-17T08:00:12Z</time>
      </trkpt>
      <trkpt lat="42.4711" lon="-8.6282">
        <ele>201.1</ele>
        <time>2019-04-17T08:00:12Z</time>
      </trkpt>
      <trkpt lat="42.47111" lon="-8.62821">
        <ele>200.8</ele>
        <time>2019-04-17T08:00:12Z</time>
      </trkpt>
      <trkpt lat="42.47112" lon="-8.62821">
        <ele>200.8</ele>
        <time>2019-04-17T08:00:12Z</time>
      </trkpt>
      <trkpt lat="42.47113" lon="-8.62821">
        <ele>200.8</ele>
        <time>2019-04-17T08:00:12Z</time>
      </trkpt>
      <trkpt lat="42.47114" lon="-8.62821">
        <ele>200.8</ele>
        <time>2019-04-17T08:00:12Z</time>
      </trkpt>
      <trkpt lat="42.47116" lon="-8.62821">
        <ele>200.9</ele>
        <time>2019-04-17T08:00:12Z</time>
      </trkpt>
      <trkpt lat="42.47118" lon="-8.62821">
        <ele>201</ele>
        <time>2019-04-17T08:00:12Z</time>
      </trkpt>
      <trkpt lat="42.47119" lon="-8.6282">
        <ele>201</ele>
        <time>2019-04-17T08:00:12Z</time>
      </trkpt>
      <trkpt lat="42.47121" lon="-8.6282">
        <ele>201.1</ele>
        <time>2019-04-17T08:00:12Z</time>
      </trkpt>
      <trkpt lat="42.47122" lon="-8.62819">
        <ele>201.3</ele>
        <time>2019-04-17T08:00:12Z</time>
      </trkpt>
      <trkpt lat="42.47124" lon="-8.62818">
        <ele>201.4</ele>
        <time>2019-04-17T08:00:12Z</time>
      </trkpt>
      <trkpt lat="42.47126" lon="-8.62817">
        <ele>201.5</ele>
        <time>2019-04-17T08:00:12Z</time>
      </trkpt>
      <trkpt lat="42.47127" lon="-8.62817">
        <ele>201.5</ele>
        <time>2019-04-17T08:00:12Z</time>
      </trkpt>
      <trkpt lat="42.47128" lon="-8.62818">
        <ele>201.4</ele>
        <time>2019-04-17T08:00:12Z</time>
      </trkpt>
      <trkpt lat="42.47128" lon="-8.6282">
        <ele>201.3</ele>
        <time>2019-04-17T08:00:12Z</time>
      </trkpt>
      <trkpt lat="42.47128" lon="-8.62823">
        <ele>201</ele>
        <time>2019-04-17T08:00:12Z</time>
      </trkpt>
      <trkpt lat="42.47127" lon="-8.62826">
        <ele>200.7</ele>
        <time>2019-04-17T08:00:12Z</time>
      </trkpt>
      <trkpt lat="42.47126" lon="-8.6283">
        <ele>200.4</ele>
        <time>2019-04-17T08:00:12Z</time>
      </trkpt>
      <trkpt lat="42.47126" lon="-8.62834">
        <ele>200</ele>
        <time>2019-04-17T08:00:12Z</time>
      </trkpt>
      <trkpt lat="42.47125" lon="-8.62837">
        <ele>199.6</ele>
        <time>2019-04-17T08:00:12Z</time>
      </trkpt>
      <trkpt lat="42.47124" lon="-8.6284">
        <ele>199.1</ele>
        <time>2019-04-17T08:00:12Z</time>
      </trkpt>
      <trkpt lat="42.47124" lon="-8.62844">
        <ele>198.6</ele>
        <time>2019-04-17T08:00:12Z</time>
      </trkpt>
      <trkpt lat="42.47123" lon="-8.62847">
        <ele>198.1</ele>
        <time>2019-04-17T08:00:12Z</time>
      </trkpt>
      <trkpt lat="42.47123" lon="-8.6285">
        <ele>197.7</ele>
        <time>2019-04-17T08:00:12Z</time>
      </trkpt>
      <trkpt lat="42.47123" lon="-8.62854">
        <ele>197.2</ele>
        <time>2019-04-17T08:00:12Z</time>
      </trkpt>
      <trkpt lat="42.47122" lon="-8.62857">
        <ele>196.8</ele>
        <time>2019-04-17T08:00:12Z</time>
      </trkpt>
      <trkpt lat="42.47122" lon="-8.62859">
        <ele>196.5</ele>
        <time>2019-04-17T08:00:12Z</time>
      </trkpt>
      <trkpt lat="42.47123" lon="-8.6286">
        <ele>196.4</ele>
        <time>2019-04-17T08:00:12Z</time>
      </trkpt>
      <trkpt lat="42.47123" lon="-8.62861">
        <ele>196.2</ele>
        <time>2019-04-17T08:00:12Z</time>
      </trkpt>
      <trkpt lat="42.47123" lon="-8.62863">
        <ele>195.8</ele>
        <time>2019-04-17T08:00:12Z</time>
      </trkpt>
      <trkpt lat="42.47123" lon="-8.62864">
        <ele>195.5</ele>
        <time>2019-04-17T08:00:12Z</time>
      </trkpt>
      <trkpt lat="42.47122" lon="-8.62866">
        <ele>195.2</ele>
        <time>2019-04-17T08:00:12Z</time>
      </trkpt>
      <trkpt lat="42.47122" lon="-8.62867">
        <ele>194.9</ele>
        <time>2019-04-17T08:00:12Z</time>
      </trkpt>
      <trkpt lat="42.47122" lon="-8.62869">
        <ele>194.5</ele>
        <time>2019-04-17T08:00:12Z</time>
      </trkpt>
      <trkpt lat="42.47122" lon="-8.62871">
        <ele>194.1</ele>
        <time>2019-04-17T08:00:12Z</time>
      </trkpt>
      <trkpt lat="42.47122" lon="-8.62872">
        <ele>193.8</ele>
        <time>2019-04-17T08:00:12Z</time>
      </trkpt>
      <trkpt lat="42.47122" lon="-8.62873">
        <ele>193.7</ele>
        <time>2019-04-17T08:00:12Z</time>
      </trkpt>
      <trkpt lat="42.47122" lon="-8.62873">
        <ele>193.5</ele>
        <time>2019-04-17T08:00:12Z</time>
      </trkpt>
      <trkpt lat="42.47122" lon="-8.62876">
        <ele>192.9</ele>
        <time>2019-04-17T08:00:12Z</time>
      </trkpt>
      <trkpt lat="42.47122" lon="-8.62879">
        <ele>192.2</ele>
        <time>2019-04-17T08:00:12Z</time>
      </trkpt>
      <trkpt lat="42.47121" lon="-8.62882">
        <ele>191.4</ele>
        <time>2019-04-17T08:00:12Z</time>
      </trkpt>
      <trkpt lat="42.4712" lon="-8.62886">
        <ele>190.4</ele>
        <time>2019-04-17T08:00:12Z</time>
      </trkpt>
      <trkpt lat="42.4712" lon="-8.62889">
        <ele>189.6</ele>
        <time>2019-04-17T08:00:12Z</time>
      </trkpt>
      <trkpt lat="42.4712" lon="-8.62892">
        <ele>188.9</ele>
        <time>2019-04-17T08:00:12Z</time>
      </trkpt>
      <trkpt lat="42.47119" lon="-8.62896">
        <ele>188.1</ele>
        <time>2019-04-17T08:00:12Z</time>
      </trkpt>
      <trkpt lat="42.47118" lon="-8.62901">
        <ele>186.9</ele>
        <time>2019-04-17T08:00:12Z</time>
      </trkpt>
      <trkpt lat="42.47118" lon="-8.62907">
        <ele>185.6</ele>
        <time>2019-04-17T08:00:12Z</time>
      </trkpt>
      <trkpt lat="42.47117" lon="-8.62912">
        <ele>184.3</ele>
        <time>2019-04-17T08:00:12Z</time>
      </trkpt>
      <trkpt lat="42.47116" lon="-8.62918">
        <ele>183</ele>
        <time>2019-04-17T08:00:12Z</time>
      </trkpt>
      <trkpt lat="42.47116" lon="-8.62924">
        <ele>181.9</ele>
        <time>2019-04-17T08:00:12Z</time>
      </trkpt>
      <trkpt lat="42.47115" lon="-8.62931">
        <ele>180.8</ele>
        <time>2019-04-17T08:00:12Z</time>
      </trkpt>
      <trkpt lat="42.47115" lon="-8.62937">
        <ele>179.8</ele>
        <time>2019-04-17T08:00:12Z</time>
      </trkpt>
      <trkpt lat="42.47115" lon="-8.62943">
        <ele>179</ele>
        <time>2019-04-17T08:00:12Z</time>
      </trkpt>
      <trkpt lat="42.47116" lon="-8.62949">
        <ele>178.1</ele>
        <time>2019-04-17T08:00:12Z</time>
      </trkpt>
      <trkpt lat="42.47118" lon="-8.62955">
        <ele>177.3</ele>
        <time>2019-04-17T08:00:12Z</time>
      </trkpt>
      <trkpt lat="42.4712" lon="-8.62961">
        <ele>176.5</ele>
        <time>2019-04-17T08:00:12Z</time>
      </trkpt>
      <trkpt lat="42.47123" lon="-8.62968">
        <ele>175.5</ele>
        <time>2019-04-17T08:00:12Z</time>
      </trkpt>
      <trkpt lat="42.47125" lon="-8.62975">
        <ele>174.6</ele>
        <time>2019-04-17T08:00:12Z</time>
      </trkpt>
      <trkpt lat="42.47128" lon="-8.62982">
        <ele>173.7</ele>
        <time>2019-04-17T08:00:12Z</time>
      </trkpt>
      <trkpt lat="42.4713" lon="-8.62989">
        <ele>172.8</ele>
        <time>2019-04-17T08:00:12Z</time>
      </trkpt>
      <trkpt lat="42.47132" lon="-8.62997">
        <ele>171.9</ele>
        <time>2019-04-17T08:00:12Z</time>
      </trkpt>
      <trkpt lat="42.47133" lon="-8.63004">
        <ele>171.1</ele>
        <time>2019-04-17T08:00:12Z</time>
      </trkpt>
      <trkpt lat="42.47135" lon="-8.63012">
        <ele>170.2</ele>
        <time>2019-04-17T08:00:12Z</time>
      </trkpt>
      <trkpt lat="42.47135" lon="-8.63018">
        <ele>169.3</ele>
        <time>2019-04-17T08:00:12Z</time>
      </trkpt>
      <trkpt lat="42.47136" lon="-8.63024">
        <ele>168.5</ele>
        <time>2019-04-17T08:00:12Z</time>
      </trkpt>
      <trkpt lat="42.47136" lon="-8.6303">
        <ele>167.7</ele>
        <time>2019-04-17T08:00:12Z</time>
      </trkpt>
      <trkpt lat="42.47136" lon="-8.63036">
        <ele>167</ele>
        <time>2019-04-17T08:00:12Z</time>
      </trkpt>
      <trkpt lat="42.47137" lon="-8.63041">
        <ele>166.5</ele>
        <time>2019-04-17T08:00:12Z</time>
      </trkpt>
      <trkpt lat="42.47138" lon="-8.63045">
        <ele>166.2</ele>
        <time>2019-04-17T08:00:12Z</time>
      </trkpt>
      <trkpt lat="42.47139" lon="-8.63048">
        <ele>166.1</ele>
        <time>2019-04-17T08:00:12Z</time>
      </trkpt>
      <trkpt lat="42.47141" lon="-8.63051">
        <ele>165.6</ele>
        <time>2019-04-17T08:00:12Z</time>
      </trkpt>
      <trkpt lat="42.47143" lon="-8.63054">
        <ele>165.1</ele>
        <time>2019-04-17T08:00:12Z</time>
      </trkpt>
      <trkpt lat="42.47145" lon="-8.63057">
        <ele>164.5</ele>
        <time>2019-04-17T08:00:12Z</time>
      </trkpt>
      <trkpt lat="42.47148" lon="-8.6306">
        <ele>164.1</ele>
        <time>2019-04-17T08:00:12Z</time>
      </trkpt>
      <trkpt lat="42.47151" lon="-8.63061">
        <ele>163.7</ele>
        <time>2019-04-17T08:00:12Z</time>
      </trkpt>
      <trkpt lat="42.47153" lon="-8.63063">
        <ele>163.4</ele>
        <time>2019-04-17T08:00:12Z</time>
      </trkpt>
      <trkpt lat="42.47155" lon="-8.63063">
        <ele>163.1</ele>
        <time>2019-04-17T08:00:12Z</time>
      </trkpt>
      <trkpt lat="42.47156" lon="-8.63064">
        <ele>163</ele>
        <time>2019-04-17T08:00:12Z</time>
      </trkpt>
      <trkpt lat="42.47157" lon="-8.63063">
        <ele>163</ele>
        <time>2019-04-17T08:00:12Z</time>
      </trkpt>
      <trkpt lat="42.47157" lon="-8.63063">
        <ele>163.1</ele>
        <time>2019-04-17T08:00:12Z</time>
      </trkpt>
      <trkpt lat="42.47157" lon="-8.63063">
        <ele>163.1</ele>
        <time>2019-04-17T08:00:12Z</time>
      </trkpt>
      <trkpt lat="42.47157" lon="-8.63063">
        <ele>163.1</ele>
        <time>2019-04-17T08:00:12Z</time>
      </trkpt>
      <trkpt lat="42.47157" lon="-8.63062">
        <ele>163.2</ele>
        <time>2019-04-17T08:00:12Z</time>
      </trkpt>
      <trkpt lat="42.47157" lon="-8.63062">
        <ele>163.2</ele>
        <time>2019-04-17T08:00:12Z</time>
      </trkpt>
      <trkpt lat="42.47157" lon="-8.63062">
        <ele>163.3</ele>
        <time>2019-04-17T08:00:12Z</time>
      </trkpt>
      <trkpt lat="42.47157" lon="-8.63061">
        <ele>163.3</ele>
        <time>2019-04-17T08:00:12Z</time>
      </trkpt>
      <trkpt lat="42.47157" lon="-8.63061">
        <ele>163.4</ele>
        <time>2019-04-17T08:00:12Z</time>
      </trkpt>
      <trkpt lat="42.47157" lon="-8.63061">
        <ele>163.4</ele>
        <time>2019-04-17T08:00:12Z</time>
      </trkpt>
      <trkpt lat="42.47157" lon="-8.6306">
        <ele>163.5</ele>
        <time>2019-04-17T08:00:12Z</time>
      </trkpt>
      <trkpt lat="42.47158" lon="-8.6306">
        <ele>163.5</ele>
        <time>2019-04-17T08:00:12Z</time>
      </trkpt>
      <trkpt lat="42.47158" lon="-8.6306">
        <ele>163.5</ele>
        <time>2019-04-17T08:00:12Z</time>
      </trkpt>
      <trkpt lat="42.47158" lon="-8.6306">
        <ele>163.6</ele>
        <time>2019-04-17T08:00:12Z</time>
      </trkpt>
      <trkpt lat="42.47158" lon="-8.6306">
        <ele>163.6</ele>
        <time>2019-04-17T08:00:12Z</time>
      </trkpt>
      <trkpt lat="42.47158" lon="-8.6306">
        <ele>163.6</ele>
        <time>2019-04-17T08:00:12Z</time>
      </trkpt>
      <trkpt lat="42.47158" lon="-8.63059">
        <ele>163.6</ele>
        <time>2019-04-17T08:00:12Z</time>
      </trkpt>
      <trkpt lat="42.47158" lon="-8.63059">
        <ele>163.7</ele>
        <time>2019-04-17T08:00:12Z</time>
      </trkpt>
      <trkpt lat="42.47158" lon="-8.63059">
        <ele>163.7</ele>
        <time>2019-04-17T08:00:12Z</time>
      </trkpt>
      <trkpt lat="42.47159" lon="-8.6306">
        <ele>163.6</ele>
        <time>2019-04-17T08:00:12Z</time>
      </trkpt>
      <trkpt lat="42.4716" lon="-8.6306">
        <ele>163.4</ele>
        <time>2019-04-17T08:00:12Z</time>
      </trkpt>
      <trkpt lat="42.47161" lon="-8.6306">
        <ele>163.3</ele>
        <time>2019-04-17T08:00:12Z</time>
      </trkpt>
      <trkpt lat="42.47163" lon="-8.63061">
        <ele>163.1</ele>
        <time>2019-04-17T08:00:12Z</time>
      </trkpt>
      <trkpt lat="42.47165" lon="-8.63061">
        <ele>162.8</ele>
        <time>2019-04-17T08:00:12Z</time>
      </trkpt>
      <trkpt lat="42.47167" lon="-8.63062">
        <ele>162.6</ele>
        <time>2019-04-17T08:00:12Z</time>
      </trkpt>
      <trkpt lat="42.4717" lon="-8.63062">
        <ele>162</ele>
        <time>2019-04-17T08:00:12Z</time>
      </trkpt>
      <trkpt lat="42.47174" lon="-8.63062">
        <ele>161.4</ele>
        <time>2019-04-17T08:00:12Z</time>
      </trkpt>
      <trkpt lat="42.47177" lon="-8.63061">
        <ele>160.8</ele>
        <time>2019-04-17T08:00:12Z</time>
      </trkpt>
      <trkpt lat="42.47181" lon="-8.63061">
        <ele>160.3</ele>
        <time>2019-04-17T08:00:12Z</time>
      </trkpt>
      <trkpt lat="42.47184" lon="-8.63061">
        <ele>159.8</ele>
        <time>2019-04-17T08:00:12Z</time>
      </trkpt>
      <trkpt lat="42.47186" lon="-8.63062">
        <ele>159.2</ele>
        <time>2019-04-17T08:00:12Z</time>
      </trkpt>
      <trkpt lat="42.47188" lon="-8.63062">
        <ele>158.7</ele>
        <time>2019-04-17T08:00:12Z</time>
      </trkpt>
      <trkpt lat="42.4719" lon="-8.63063">
        <ele>158.2</ele>
        <time>2019-04-17T08:00:12Z</time>
      </trkpt>
      <trkpt lat="42.47191" lon="-8.63065">
        <ele>157.6</ele>
        <time>2019-04-17T08:00:12Z</time>
      </trkpt>
      <trkpt lat="42.47193" lon="-8.63067">
        <ele>156.9</ele>
        <time>2019-04-17T08:00:12Z</time>
      </trkpt>
      <trkpt lat="42.47195" lon="-8.63069">
        <ele>155.9</ele>
        <time>2019-04-17T08:00:12Z</time>
      </trkpt>
      <trkpt lat="42.47198" lon="-8.63073">
        <ele>154.7</ele>
        <time>2019-04-17T08:00:12Z</time>
      </trkpt>
      <trkpt lat="42.472" lon="-8.63076">
        <ele>153.5</ele>
        <time>2019-04-17T08:00:12Z</time>
      </trkpt>
      <trkpt lat="42.47202" lon="-8.6308">
        <ele>152.4</ele>
        <time>2019-04-17T08:00:12Z</time>
      </trkpt>
      <trkpt lat="42.47203" lon="-8.63084">
        <ele>151.3</ele>
        <time>2019-04-17T08:00:12Z</time>
      </trkpt>
      <trkpt lat="42.47205" lon="-8.63089">
        <ele>150.8</ele>
        <time>2019-04-17T08:00:12Z</time>
      </trkpt>
      <trkpt lat="42.47206" lon="-8.63093">
        <ele>150.3</ele>
        <time>2019-04-17T08:00:12Z</time>
      </trkpt>
      <trkpt lat="42.47207" lon="-8.63098">
        <ele>149.6</ele>
        <time>2019-04-17T08:00:12Z</time>
      </trkpt>
      <trkpt lat="42.47208" lon="-8.63103">
        <ele>149.1</ele>
        <time>2019-04-17T08:00:12Z</time>
      </trkpt>
      <trkpt lat="42.4721" lon="-8.63108">
        <ele>148.5</ele>
        <time>2019-04-17T08:00:12Z</time>
      </trkpt>
      <trkpt lat="42.4721" lon="-8.63112">
        <ele>148.1</ele>
        <time>2019-04-17T08:00:12Z</time>
      </trkpt>
      <trkpt lat="42.47211" lon="-8.63117">
        <ele>147.8</ele>
        <time>2019-04-17T08:00:12Z</time>
      </trkpt>
      <trkpt lat="42.47211" lon="-8.6312">
        <ele>147.5</ele>
        <time>2019-04-17T08:00:12Z</time>
      </trkpt>
      <trkpt lat="42.47211" lon="-8.63123">
        <ele>147.3</ele>
        <time>2019-04-17T08:00:12Z</time>
      </trkpt>
      <trkpt lat="42.47212" lon="-8.63125">
        <ele>147.2</ele>
        <time>2019-04-17T08:00:12Z</time>
      </trkpt>
      <trkpt lat="42.47212" lon="-8.63125">
        <ele>147.2</ele>
        <time>2019-04-17T08:00:12Z</time>
      </trkpt>
      <trkpt lat="42.47212" lon="-8.63126">
        <ele>147.2</ele>
        <time>2019-04-17T08:00:12Z</time>
      </trkpt>
      <trkpt lat="42.47212" lon="-8.63126">
        <ele>147.2</ele>
        <time>2019-04-17T08:00:12Z</time>
      </trkpt>
      <trkpt lat="42.47212" lon="-8.63126">
        <ele>147.1</ele>
        <time>2019-04-17T08:00:12Z</time>
      </trkpt>
      <trkpt lat="42.47212" lon="-8.63126">
        <ele>147.1</ele>
        <time>2019-04-17T08:00:12Z</time>
      </trkpt>
      <trkpt lat="42.47212" lon="-8.63127">
        <ele>147</ele>
        <time>2019-04-17T08:00:12Z</time>
      </trkpt>
      <trkpt lat="42.47213" lon="-8.63129">
        <ele>146.8</ele>
        <time>2019-04-17T08:00:12Z</time>
      </trkpt>
      <trkpt lat="42.47214" lon="-8.63146">
        <ele>145.7</ele>
        <time>2019-04-17T08:00:12Z</time>
      </trkpt>
      <trkpt lat="42.47211" lon="-8.63155">
        <ele>145.5</ele>
        <time>2019-04-17T08:00:12Z</time>
      </trkpt>
      <trkpt lat="42.47208" lon="-8.63172">
        <ele>144.7</ele>
        <time>2019-04-17T08:00:12Z</time>
      </trkpt>
      <trkpt lat="42.47197" lon="-8.63184">
        <ele>144.9</ele>
        <time>2019-04-17T08:00:12Z</time>
      </trkpt>
      <trkpt lat="42.47178" lon="-8.63196">
        <ele>142.6</ele>
        <time>2019-04-17T08:00:12Z</time>
      </trkpt>
      <trkpt lat="42.47164" lon="-8.63207">
        <ele>141</ele>
        <time>2019-04-17T08:00:12Z</time>
      </trkpt>
      <trkpt lat="42.47157" lon="-8.63241">
        <ele>139.6</ele>
        <time>2019-04-17T08:00:12Z</time>
      </trkpt>
      <trkpt lat="42.47149" lon="-8.6327">
        <ele>138.2</ele>
        <time>2019-04-17T08:00:12Z</time>
      </trkpt>
      <trkpt lat="42.47151" lon="-8.63282">
        <ele>136.9</ele>
        <time>2019-04-17T08:00:12Z</time>
      </trkpt>
      <trkpt lat="42.47161" lon="-8.63288">
        <ele>135</ele>
        <time>2019-04-17T08:00:12Z</time>
      </trkpt>
      <trkpt lat="42.47183" lon="-8.63287">
        <ele>132.4</ele>
        <time>2019-04-17T08:00:12Z</time>
      </trkpt>
      <trkpt lat="42.4721" lon="-8.63284">
        <ele>130.1</ele>
        <time>2019-04-17T08:00:12Z</time>
      </trkpt>
      <trkpt lat="42.47223" lon="-8.63293">
        <ele>128.3</ele>
        <time>2019-04-17T08:00:12Z</time>
      </trkpt>
      <trkpt lat="42.47239" lon="-8.63299">
        <ele>125.9</ele>
        <time>2019-04-17T08:00:12Z</time>
      </trkpt>
      <trkpt lat="42.47255" lon="-8.63295">
        <ele>123.3</ele>
        <time>2019-04-17T08:00:12Z</time>
      </trkpt>
      <trkpt lat="42.47271" lon="-8.63272">
        <ele>118.5</ele>
        <time>2019-04-17T08:00:12Z</time>
      </trkpt>
      <trkpt lat="42.47289" lon="-8.63255">
        <ele>114.8</ele>
        <time>2019-04-17T08:00:12Z</time>
      </trkpt>
      <trkpt lat="42.47296" lon="-8.63255">
        <ele>113.8</ele>
        <time>2019-04-17T08:00:12Z</time>
      </trkpt>
      <trkpt lat="42.47304" lon="-8.63256">
        <ele>112.5</ele>
        <time>2019-04-17T08:00:12Z</time>
      </trkpt>
      <trkpt lat="42.47305" lon="-8.63261">
        <ele>111.6</ele>
        <time>2019-04-17T08:00:12Z</time>
      </trkpt>
      <trkpt lat="42.47306" lon="-8.63265">
        <ele>110.9</ele>
        <time>2019-04-17T08:00:12Z</time>
      </trkpt>
      <trkpt lat="42.47307" lon="-8.63269">
        <ele>110.4</ele>
        <time>2019-04-17T08:00:12Z</time>
      </trkpt>
      <trkpt lat="42.47308" lon="-8.63274">
        <ele>110</ele>
        <time>2019-04-17T08:00:12Z</time>
      </trkpt>
      <trkpt lat="42.4731" lon="-8.63279">
        <ele>109.5</ele>
        <time>2019-04-17T08:00:12Z</time>
      </trkpt>
      <trkpt lat="42.47312" lon="-8.63284">
        <ele>109.4</ele>
        <time>2019-04-17T08:00:12Z</time>
      </trkpt>
      <trkpt lat="42.47314" lon="-8.63289">
        <ele>109.2</ele>
        <time>2019-04-17T08:00:12Z</time>
      </trkpt>
      <trkpt lat="42.47317" lon="-8.63296">
        <ele>108.8</ele>
        <time>2019-04-17T08:00:12Z</time>
      </trkpt>
      <trkpt lat="42.47319" lon="-8.63303">
        <ele>108.3</ele>
        <time>2019-04-17T08:00:12Z</time>
      </trkpt>
      <trkpt lat="42.47321" lon="-8.63311">
        <ele>107.8</ele>
        <time>2019-04-17T08:00:12Z</time>
      </trkpt>
      <trkpt lat="42.47321" lon="-8.63319">
        <ele>107.3</ele>
        <time>2019-04-17T08:00:12Z</time>
      </trkpt>
      <trkpt lat="42.47322" lon="-8.63328">
        <ele>106.8</ele>
        <time>2019-04-17T08:00:12Z</time>
      </trkpt>
      <trkpt lat="42.47322" lon="-8.63336">
        <ele>106.2</ele>
        <time>2019-04-17T08:00:12Z</time>
      </trkpt>
      <trkpt lat="42.47322" lon="-8.63345">
        <ele>105.6</ele>
        <time>2019-04-17T08:00:12Z</time>
      </trkpt>
      <trkpt lat="42.47321" lon="-8.63354">
        <ele>105.1</ele>
        <time>2019-04-17T08:00:12Z</time>
      </trkpt>
      <trkpt lat="42.47321" lon="-8.63362">
        <ele>104.6</ele>
        <time>2019-04-17T08:00:12Z</time>
      </trkpt>
      <trkpt lat="42.47321" lon="-8.63369">
        <ele>104.2</ele>
        <time>2019-04-17T08:00:12Z</time>
      </trkpt>
      <trkpt lat="42.4732" lon="-8.63375">
        <ele>103.8</ele>
        <time>2019-04-17T08:00:12Z</time>
      </trkpt>
      <trkpt lat="42.4732" lon="-8.6338">
        <ele>103.6</ele>
        <time>2019-04-17T08:00:12Z</time>
      </trkpt>
      <trkpt lat="42.47319" lon="-8.63383">
        <ele>103.4</ele>
        <time>2019-04-17T08:00:12Z</time>
      </trkpt>
      <trkpt lat="42.47319" lon="-8.63386">
        <ele>103.2</ele>
        <time>2019-04-17T08:00:12Z</time>
      </trkpt>
      <trkpt lat="42.47319" lon="-8.6339">
        <ele>103</ele>
        <time>2019-04-17T08:00:12Z</time>
      </trkpt>
      <trkpt lat="42.47319" lon="-8.63393">
        <ele>102.6</ele>
        <time>2019-04-17T08:00:12Z</time>
      </trkpt>
      <trkpt lat="42.47319" lon="-8.63397">
        <ele>102.2</ele>
        <time>2019-04-17T08:00:12Z</time>
      </trkpt>
      <trkpt lat="42.47319" lon="-8.63402">
        <ele>101.8</ele>
        <time>2019-04-17T08:00:12Z</time>
      </trkpt>
      <trkpt lat="42.47318" lon="-8.63406">
        <ele>101.4</ele>
        <time>2019-04-17T08:00:12Z</time>
      </trkpt>
      <trkpt lat="42.47317" lon="-8.63411">
        <ele>101</ele>
        <time>2019-04-17T08:00:12Z</time>
      </trkpt>
      <trkpt lat="42.47316" lon="-8.63416">
        <ele>100.6</ele>
        <time>2019-04-17T08:00:12Z</time>
      </trkpt>
      <trkpt lat="42.47314" lon="-8.63421">
        <ele>100.3</ele>
        <time>2019-04-17T08:00:12Z</time>
      </trkpt>
      <trkpt lat="42.47313" lon="-8.63425">
        <ele>100</ele>
        <time>2019-04-17T08:00:12Z</time>
      </trkpt>
      <trkpt lat="42.47311" lon="-8.63428">
        <ele>99.7</ele>
        <time>2019-04-17T08:00:12Z</time>
      </trkpt>
      <trkpt lat="42.47309" lon="-8.63432">
        <ele>99.5</ele>
        <time>2019-04-17T08:00:12Z</time>
      </trkpt>
      <trkpt lat="42.47309" lon="-8.63435">
        <ele>99.1</ele>
        <time>2019-04-17T08:00:12Z</time>
      </trkpt>
      <trkpt lat="42.47308" lon="-8.63438">
        <ele>98.7</ele>
        <time>2019-04-17T08:00:12Z</time>
      </trkpt>
      <trkpt lat="42.47309" lon="-8.63441">
        <ele>98.2</ele>
        <time>2019-04-17T08:00:12Z</time>
      </trkpt>
      <trkpt lat="42.47312" lon="-8.63444">
        <ele>97.7</ele>
        <time>2019-04-17T08:00:12Z</time>
      </trkpt>
      <trkpt lat="42.47315" lon="-8.63444">
        <ele>97.3</ele>
        <time>2019-04-17T08:00:12Z</time>
      </trkpt>
      <trkpt lat="42.47318" lon="-8.63443">
        <ele>97.2</ele>
        <time>2019-04-17T08:00:12Z</time>
      </trkpt>
      <trkpt lat="42.47321" lon="-8.63441">
        <ele>97.2</ele>
        <time>2019-04-17T08:00:12Z</time>
      </trkpt>
      <trkpt lat="42.47324" lon="-8.63439">
        <ele>97.2</ele>
        <time>2019-04-17T08:00:12Z</time>
      </trkpt>
      <trkpt lat="42.47327" lon="-8.63436">
        <ele>97.2</ele>
        <time>2019-04-17T08:00:12Z</time>
      </trkpt>
      <trkpt lat="42.4733" lon="-8.63433">
        <ele>97.2</ele>
        <time>2019-04-17T08:00:12Z</time>
      </trkpt>
      <trkpt lat="42.47333" lon="-8.6343">
        <ele>97.1</ele>
        <time>2019-04-17T08:00:12Z</time>
      </trkpt>
      <trkpt lat="42.47336" lon="-8.63427">
        <ele>96.8</ele>
        <time>2019-04-17T08:00:12Z</time>
      </trkpt>
      <trkpt lat="42.47339" lon="-8.63424">
        <ele>96.5</ele>
        <time>2019-04-17T08:00:12Z</time>
      </trkpt>
      <trkpt lat="42.47342" lon="-8.63421">
        <ele>96.1</ele>
        <time>2019-04-17T08:00:12Z</time>
      </trkpt>
      <trkpt lat="42.47346" lon="-8.63417">
        <ele>95.8</ele>
        <time>2019-04-17T08:00:12Z</time>
      </trkpt>
      <trkpt lat="42.4735" lon="-8.63413">
        <ele>95.5</ele>
        <time>2019-04-17T08:00:12Z</time>
      </trkpt>
      <trkpt lat="42.47354" lon="-8.63409">
        <ele>95.2</ele>
        <time>2019-04-17T08:00:12Z</time>
      </trkpt>
      <trkpt lat="42.47359" lon="-8.63406">
        <ele>95</ele>
        <time>2019-04-17T08:00:12Z</time>
      </trkpt>
      <trkpt lat="42.47363" lon="-8.63402">
        <ele>95</ele>
        <time>2019-04-17T08:00:12Z</time>
      </trkpt>
      <trkpt lat="42.47368" lon="-8.63401">
        <ele>95.2</ele>
        <time>2019-04-17T08:00:12Z</time>
      </trkpt>
      <trkpt lat="42.47372" lon="-8.634">
        <ele>95.1</ele>
        <time>2019-04-17T08:00:12Z</time>
      </trkpt>
      <trkpt lat="42.47377" lon="-8.63402">
        <ele>94.7</ele>
        <time>2019-04-17T08:00:12Z</time>
      </trkpt>
      <trkpt lat="42.47381" lon="-8.63404">
        <ele>94.1</ele>
        <time>2019-04-17T08:00:12Z</time>
      </trkpt>
      <trkpt lat="42.47386" lon="-8.63406">
        <ele>93.2</ele>
        <time>2019-04-17T08:00:12Z</time>
      </trkpt>
      <trkpt lat="42.47391" lon="-8.6341">
        <ele>92.1</ele>
        <time>2019-04-17T08:00:12Z</time>
      </trkpt>
      <trkpt lat="42.47395" lon="-8.63414">
        <ele>91.1</ele>
        <time>2019-04-17T08:00:12Z</time>
      </trkpt>
      <trkpt lat="42.47399" lon="-8.63418">
        <ele>90.1</ele>
        <time>2019-04-17T08:00:12Z</time>
      </trkpt>
      <trkpt lat="42.47402" lon="-8.63422">
        <ele>89.3</ele>
        <time>2019-04-17T08:00:12Z</time>
      </trkpt>
      <trkpt lat="42.47405" lon="-8.63425">
        <ele>88.5</ele>
        <time>2019-04-17T08:00:12Z</time>
      </trkpt>
      <trkpt lat="42.47409" lon="-8.63427">
        <ele>88</ele>
        <time>2019-04-17T08:00:12Z</time>
      </trkpt>
      <trkpt lat="42.47412" lon="-8.63428">
        <ele>87.7</ele>
        <time>2019-04-17T08:00:12Z</time>
      </trkpt>
      <trkpt lat="42.47417" lon="-8.6343">
        <ele>87.1</ele>
        <time>2019-04-17T08:00:12Z</time>
      </trkpt>
      <trkpt lat="42.47421" lon="-8.63432">
        <ele>85.8</ele>
        <time>2019-04-17T08:00:12Z</time>
      </trkpt>
      <trkpt lat="42.47426" lon="-8.63434">
        <ele>84.7</ele>
        <time>2019-04-17T08:00:12Z</time>
      </trkpt>
      <trkpt lat="42.4743" lon="-8.63435">
        <ele>83.8</ele>
        <time>2019-04-17T08:00:12Z</time>
      </trkpt>
      <trkpt lat="42.47434" lon="-8.63435">
        <ele>83.1</ele>
        <time>2019-04-17T08:00:12Z</time>
      </trkpt>
      <trkpt lat="42.47439" lon="-8.63434">
        <ele>82.5</ele>
        <time>2019-04-17T08:00:12Z</time>
      </trkpt>
      <trkpt lat="42.47443" lon="-8.63434">
        <ele>81.9</ele>
        <time>2019-04-17T08:00:12Z</time>
      </trkpt>
      <trkpt lat="42.47449" lon="-8.63432">
        <ele>81.1</ele>
        <time>2019-04-17T08:00:12Z</time>
      </trkpt>
      <trkpt lat="42.47454" lon="-8.63431">
        <ele>80.3</ele>
        <time>2019-04-17T08:00:12Z</time>
      </trkpt>
      <trkpt lat="42.47459" lon="-8.63429">
        <ele>79.5</ele>
        <time>2019-04-17T08:00:12Z</time>
      </trkpt>
      <trkpt lat="42.47463" lon="-8.63427">
        <ele>78.7</ele>
        <time>2019-04-17T08:00:12Z</time>
      </trkpt>
      <trkpt lat="42.47468" lon="-8.63426">
        <ele>77.6</ele>
        <time>2019-04-17T08:00:12Z</time>
      </trkpt>
      <trkpt lat="42.47474" lon="-8.63427">
        <ele>76.4</ele>
        <time>2019-04-17T08:00:12Z</time>
      </trkpt>
      <trkpt lat="42.47479" lon="-8.63429">
        <ele>75.4</ele>
        <time>2019-04-17T08:00:12Z</time>
      </trkpt>
      <trkpt lat="42.47484" lon="-8.6343">
        <ele>74.4</ele>
        <time>2019-04-17T08:00:12Z</time>
      </trkpt>
      <trkpt lat="42.47489" lon="-8.63431">
        <ele>73.4</ele>
        <time>2019-04-17T08:00:12Z</time>
      </trkpt>
      <trkpt lat="42.47495" lon="-8.63432">
        <ele>72.5</ele>
        <time>2019-04-17T08:00:12Z</time>
      </trkpt>
      <trkpt lat="42.47501" lon="-8.63432">
        <ele>71.7</ele>
        <time>2019-04-17T08:00:12Z</time>
      </trkpt>
      <trkpt lat="42.47507" lon="-8.63431">
        <ele>71</ele>
        <time>2019-04-17T08:00:12Z</time>
      </trkpt>
      <trkpt lat="42.47513" lon="-8.6343">
        <ele>70.3</ele>
        <time>2019-04-17T08:00:12Z</time>
      </trkpt>
      <trkpt lat="42.47519" lon="-8.63429">
        <ele>69.5</ele>
        <time>2019-04-17T08:00:12Z</time>
      </trkpt>
      <trkpt lat="42.47526" lon="-8.63428">
        <ele>68.9</ele>
        <time>2019-04-17T08:00:12Z</time>
      </trkpt>
      <trkpt lat="42.47533" lon="-8.63427">
        <ele>68.2</ele>
        <time>2019-04-17T08:00:12Z</time>
      </trkpt>
      <trkpt lat="42.47539" lon="-8.63426">
        <ele>67.6</ele>
        <time>2019-04-17T08:00:12Z</time>
      </trkpt>
      <trkpt lat="42.47545" lon="-8.63424">
        <ele>67.1</ele>
        <time>2019-04-17T08:00:12Z</time>
      </trkpt>
      <trkpt lat="42.4755" lon="-8.63423">
        <ele>66.6</ele>
        <time>2019-04-17T08:00:12Z</time>
      </trkpt>
      <trkpt lat="42.47554" lon="-8.63422">
        <ele>66.3</ele>
        <time>2019-04-17T08:00:12Z</time>
      </trkpt>
      <trkpt lat="42.47557" lon="-8.63422">
        <ele>66.1</ele>
        <time>2019-04-17T08:00:12Z</time>
      </trkpt>
      <trkpt lat="42.4756" lon="-8.63422">
        <ele>66</ele>
        <time>2019-04-17T08:00:12Z</time>
      </trkpt>
      <trkpt lat="42.47561" lon="-8.63422">
        <ele>66</ele>
        <time>2019-04-17T08:00:12Z</time>
      </trkpt>
      <trkpt lat="42.47562" lon="-8.63422">
        <ele>65.9</ele>
        <time>2019-04-17T08:00:12Z</time>
      </trkpt>
      <trkpt lat="42.47563" lon="-8.63423">
        <ele>65.8</ele>
        <time>2019-04-17T08:00:12Z</time>
      </trkpt>
      <trkpt lat="42.47563" lon="-8.63425">
        <ele>65.5</ele>
        <time>2019-04-17T08:00:12Z</time>
      </trkpt>
      <trkpt lat="42.47563" lon="-8.63427">
        <ele>65.1</ele>
        <time>2019-04-17T08:00:12Z</time>
      </trkpt>
      <trkpt lat="42.47563" lon="-8.6343">
        <ele>64.8</ele>
        <time>2019-04-17T08:00:12Z</time>
      </trkpt>
      <trkpt lat="42.47561" lon="-8.63433">
        <ele>64.3</ele>
        <time>2019-04-17T08:00:12Z</time>
      </trkpt>
      <trkpt lat="42.47558" lon="-8.63436">
        <ele>63.7</ele>
        <time>2019-04-17T08:00:12Z</time>
      </trkpt>
      <trkpt lat="42.47556" lon="-8.6344">
        <ele>62.9</ele>
        <time>2019-04-17T08:00:12Z</time>
      </trkpt>
      <trkpt lat="42.47554" lon="-8.63444">
        <ele>62.3</ele>
        <time>2019-04-17T08:00:12Z</time>
      </trkpt>
      <trkpt lat="42.47552" lon="-8.63448">
        <ele>61.9</ele>
        <time>2019-04-17T08:00:12Z</time>
      </trkpt>
      <trkpt lat="42.47551" lon="-8.63452">
        <ele>61.6</ele>
        <time>2019-04-17T08:00:12Z</time>
      </trkpt>
      <trkpt lat="42.47551" lon="-8.63456">
        <ele>61.1</ele>
        <time>2019-04-17T08:00:12Z</time>
      </trkpt>
      <trkpt lat="42.47553" lon="-8.63459">
        <ele>60.7</ele>
        <time>2019-04-17T08:00:12Z</time>
      </trkpt>
      <trkpt lat="42.47555" lon="-8.63462">
        <ele>60.2</ele>
        <time>2019-04-17T08:00:12Z</time>
      </trkpt>
      <trkpt lat="42.47557" lon="-8.63464">
        <ele>60.2</ele>
        <time>2019-04-17T08:00:12Z</time>
      </trkpt>
      <trkpt lat="42.4756" lon="-8.63467">
        <ele>60.4</ele>
        <time>2019-04-17T08:00:12Z</time>
      </trkpt>
      <trkpt lat="42.47562" lon="-8.6347">
        <ele>60.6</ele>
        <time>2019-04-17T08:00:12Z</time>
      </trkpt>
      <trkpt lat="42.47565" lon="-8.63473">
        <ele>61</ele>
        <time>2019-04-17T08:00:12Z</time>
      </trkpt>
      <trkpt lat="42.47567" lon="-8.63476">
        <ele>61</ele>
        <time>2019-04-17T08:00:12Z</time>
      </trkpt>
      <trkpt lat="42.4757" lon="-8.6348">
        <ele>61.1</ele>
        <time>2019-04-17T08:00:12Z</time>
      </trkpt>
      <trkpt lat="42.47572" lon="-8.63483">
        <ele>61.2</ele>
        <time>2019-04-17T08:00:12Z</time>
      </trkpt>
      <trkpt lat="42.47575" lon="-8.63487">
        <ele>61.2</ele>
        <time>2019-04-17T08:00:12Z</time>
      </trkpt>
      <trkpt lat="42.47577" lon="-8.6349">
        <ele>61.2</ele>
        <time>2019-04-17T08:00:12Z</time>
      </trkpt>
      <trkpt lat="42.4758" lon="-8.63493">
        <ele>61.3</ele>
        <time>2019-04-17T08:00:12Z</time>
      </trkpt>
      <trkpt lat="42.47582" lon="-8.63496">
        <ele>61.3</ele>
        <time>2019-04-17T08:00:12Z</time>
      </trkpt>
      <trkpt lat="42.47585" lon="-8.63499">
        <ele>61.4</ele>
        <time>2019-04-17T08:00:12Z</time>
      </trkpt>
      <trkpt lat="42.47588" lon="-8.63502">
        <ele>61.4</ele>
        <time>2019-04-17T08:00:12Z</time>
      </trkpt>
      <trkpt lat="42.47591" lon="-8.63504">
        <ele>61.5</ele>
        <time>2019-04-17T08:00:12Z</time>
      </trkpt>
      <trkpt lat="42.47594" lon="-8.63505">
        <ele>61.7</ele>
        <time>2019-04-17T08:00:12Z</time>
      </trkpt>
      <trkpt lat="42.47598" lon="-8.63506">
        <ele>62</ele>
        <time>2019-04-17T08:00:12Z</time>
      </trkpt>
      <trkpt lat="42.47601" lon="-8.63507">
        <ele>62.3</ele>
        <time>2019-04-17T08:00:12Z</time>
      </trkpt>
      <trkpt lat="42.47604" lon="-8.63508">
        <ele>62.7</ele>
        <time>2019-04-17T08:00:12Z</time>
      </trkpt>
      <trkpt lat="42.47608" lon="-8.63508">
        <ele>63.1</ele>
        <time>2019-04-17T08:00:12Z</time>
      </trkpt>
      <trkpt lat="42.47611" lon="-8.63508">
        <ele>63.5</ele>
        <time>2019-04-17T08:00:12Z</time>
      </trkpt>
      <trkpt lat="42.47614" lon="-8.63508">
        <ele>63.6</ele>
        <time>2019-04-17T08:00:12Z</time>
      </trkpt>
      <trkpt lat="42.47618" lon="-8.63508">
        <ele>63.7</ele>
        <time>2019-04-17T08:00:12Z</time>
      </trkpt>
      <trkpt lat="42.47621" lon="-8.63508">
        <ele>63.7</ele>
        <time>2019-04-17T08:00:12Z</time>
      </trkpt>
      <trkpt lat="42.47625" lon="-8.63509">
        <ele>63.6</ele>
        <time>2019-04-17T08:00:12Z</time>
      </trkpt>
      <trkpt lat="42.47628" lon="-8.63511">
        <ele>63.5</ele>
        <time>2019-04-17T08:00:12Z</time>
      </trkpt>
      <trkpt lat="42.47632" lon="-8.63514">
        <ele>63.3</ele>
        <time>2019-04-17T08:00:12Z</time>
      </trkpt>
      <trkpt lat="42.47635" lon="-8.63517">
        <ele>63.1</ele>
        <time>2019-04-17T08:00:12Z</time>
      </trkpt>
      <trkpt lat="42.47639" lon="-8.6352">
        <ele>62.8</ele>
        <time>2019-04-17T08:00:12Z</time>
      </trkpt>
      <trkpt lat="42.47643" lon="-8.63525">
        <ele>62.3</ele>
        <time>2019-04-17T08:00:12Z</time>
      </trkpt>
      <trkpt lat="42.47647" lon="-8.63529">
        <ele>61.9</ele>
        <time>2019-04-17T08:00:12Z</time>
      </trkpt>
      <trkpt lat="42.47651" lon="-8.63532">
        <ele>61.5</ele>
        <time>2019-04-17T08:00:12Z</time>
      </trkpt>
      <trkpt lat="42.47656" lon="-8.63535">
        <ele>61.1</ele>
        <time>2019-04-17T08:00:12Z</time>
      </trkpt>
      <trkpt lat="42.47661" lon="-8.63538">
        <ele>60.6</ele>
        <time>2019-04-17T08:00:12Z</time>
      </trkpt>
      <trkpt lat="42.47666" lon="-8.63542">
        <ele>60</ele>
        <time>2019-04-17T08:00:12Z</time>
      </trkpt>
      <trkpt lat="42.47671" lon="-8.63547">
        <ele>59.8</ele>
        <time>2019-04-17T08:00:12Z</time>
      </trkpt>
      <trkpt lat="42.47675" lon="-8.63554">
        <ele>59.5</ele>
        <time>2019-04-17T08:00:12Z</time>
      </trkpt>
      <trkpt lat="42.47679" lon="-8.63561">
        <ele>58.6</ele>
        <time>2019-04-17T08:00:12Z</time>
      </trkpt>
      <trkpt lat="42.47682" lon="-8.63569">
        <ele>57.2</ele>
        <time>2019-04-17T08:00:12Z</time>
      </trkpt>
      <trkpt lat="42.47684" lon="-8.63576">
        <ele>55.8</ele>
        <time>2019-04-17T08:00:12Z</time>
      </trkpt>
      <trkpt lat="42.47685" lon="-8.63583">
        <ele>54.4</ele>
        <time>2019-04-17T08:00:12Z</time>
      </trkpt>
      <trkpt lat="42.47686" lon="-8.63588">
        <ele>53.8</ele>
        <time>2019-04-17T08:00:12Z</time>
      </trkpt>
      <trkpt lat="42.47687" lon="-8.63593">
        <ele>53.2</ele>
        <time>2019-04-17T08:00:12Z</time>
      </trkpt>
      <trkpt lat="42.47688" lon="-8.63598">
        <ele>52.7</ele>
        <time>2019-04-17T08:00:12Z</time>
      </trkpt>
      <trkpt lat="42.47689" lon="-8.63602">
        <ele>52.2</ele>
        <time>2019-04-17T08:00:12Z</time>
      </trkpt>
      <trkpt lat="42.47689" lon="-8.63605">
        <ele>51.8</ele>
        <time>2019-04-17T08:00:12Z</time>
      </trkpt>
      <trkpt lat="42.47689" lon="-8.63608">
        <ele>51.4</ele>
        <time>2019-04-17T08:00:12Z</time>
      </trkpt>
      <trkpt lat="42.47689" lon="-8.63611">
        <ele>51</ele>
        <time>2019-04-17T08:00:12Z</time>
      </trkpt>
      <trkpt lat="42.47689" lon="-8.63614">
        <ele>51.2</ele>
        <time>2019-04-17T08:00:12Z</time>
      </trkpt>
      <trkpt lat="42.47689" lon="-8.63618">
        <ele>51.4</ele>
        <time>2019-04-17T08:00:12Z</time>
      </trkpt>
      <trkpt lat="42.47689" lon="-8.6362">
        <ele>51.6</ele>
        <time>2019-04-17T08:00:12Z</time>
      </trkpt>
      <trkpt lat="42.47689" lon="-8.63623">
        <ele>51.7</ele>
        <time>2019-04-17T08:00:12Z</time>
      </trkpt>
      <trkpt lat="42.47688" lon="-8.63625">
        <ele>51.8</ele>
        <time>2019-04-17T08:00:12Z</time>
      </trkpt>
      <trkpt lat="42.47686" lon="-8.63627">
        <ele>51.9</ele>
        <time>2019-04-17T08:00:12Z</time>
      </trkpt>
      <trkpt lat="42.47684" lon="-8.63629">
        <ele>52</ele>
        <time>2019-04-17T08:00:12Z</time>
      </trkpt>
      <trkpt lat="42.47682" lon="-8.63631">
        <ele>52.1</ele>
        <time>2019-04-17T08:00:12Z</time>
      </trkpt>
      <trkpt lat="42.4768" lon="-8.63634">
        <ele>52.2</ele>
        <time>2019-04-17T08:00:12Z</time>
      </trkpt>
      <trkpt lat="42.47678" lon="-8.63637">
        <ele>52.3</ele>
        <time>2019-04-17T08:00:12Z</time>
      </trkpt>
      <trkpt lat="42.47676" lon="-8.63639">
        <ele>52.3</ele>
        <time>2019-04-17T08:00:12Z</time>
      </trkpt>
      <trkpt lat="42.47674" lon="-8.63642">
        <ele>52.4</ele>
        <time>2019-04-17T08:00:12Z</time>
      </trkpt>
      <trkpt lat="42.47673" lon="-8.63646">
        <ele>52.5</ele>
        <time>2019-04-17T08:00:12Z</time>
      </trkpt>
      <trkpt lat="42.47671" lon="-8.63649">
        <ele>52.5</ele>
        <time>2019-04-17T08:00:12Z</time>
      </trkpt>
      <trkpt lat="42.47669" lon="-8.63652">
        <ele>52.6</ele>
        <time>2019-04-17T08:00:12Z</time>
      </trkpt>
      <trkpt lat="42.47668" lon="-8.63655">
        <ele>52.6</ele>
        <time>2019-04-17T08:00:12Z</time>
      </trkpt>
      <trkpt lat="42.47666" lon="-8.63658">
        <ele>52.6</ele>
        <time>2019-04-17T08:00:12Z</time>
      </trkpt>
      <trkpt lat="42.47664" lon="-8.63661">
        <ele>52.6</ele>
        <time>2019-04-17T08:00:12Z</time>
      </trkpt>
      <trkpt lat="42.47663" lon="-8.63664">
        <ele>52.6</ele>
        <time>2019-04-17T08:00:12Z</time>
      </trkpt>
      <trkpt lat="42.47661" lon="-8.63667">
        <ele>52.6</ele>
        <time>2019-04-17T08:00:12Z</time>
      </trkpt>
      <trkpt lat="42.4766" lon="-8.6367">
        <ele>52.9</ele>
        <time>2019-04-17T08:00:12Z</time>
      </trkpt>
      <trkpt lat="42.4766" lon="-8.63673">
        <ele>53.3</ele>
        <time>2019-04-17T08:00:12Z</time>
      </trkpt>
      <trkpt lat="42.4766" lon="-8.63677">
        <ele>53.6</ele>
        <time>2019-04-17T08:00:12Z</time>
      </trkpt>
      <trkpt lat="42.4766" lon="-8.6368">
        <ele>53.9</ele>
        <time>2019-04-17T08:00:12Z</time>
      </trkpt>
      <trkpt lat="42.4766" lon="-8.63682">
        <ele>54.2</ele>
        <time>2019-04-17T08:00:12Z</time>
      </trkpt>
      <trkpt lat="42.4766" lon="-8.63685">
        <ele>54.5</ele>
        <time>2019-04-17T08:00:12Z</time>
      </trkpt>
      <trkpt lat="42.4766" lon="-8.63687">
        <ele>54.7</ele>
        <time>2019-04-17T08:00:12Z</time>
      </trkpt>
      <trkpt lat="42.4766" lon="-8.6369">
        <ele>55</ele>
        <time>2019-04-17T08:00:12Z</time>
      </trkpt>
      <trkpt lat="42.4766" lon="-8.63692">
        <ele>55.3</ele>
        <time>2019-04-17T08:00:12Z</time>
      </trkpt>
      <trkpt lat="42.47661" lon="-8.63695">
        <ele>55.6</ele>
        <time>2019-04-17T08:00:12Z</time>
      </trkpt>
      <trkpt lat="42.47661" lon="-8.63697">
        <ele>55.9</ele>
        <time>2019-04-17T08:00:12Z</time>
      </trkpt>
      <trkpt lat="42.47661" lon="-8.63699">
        <ele>56.1</ele>
        <time>2019-04-17T08:00:12Z</time>
      </trkpt>
      <trkpt lat="42.47661" lon="-8.637">
        <ele>56.4</ele>
        <time>2019-04-17T08:00:12Z</time>
      </trkpt>
      <trkpt lat="42.47662" lon="-8.63702">
        <ele>56.6</ele>
        <time>2019-04-17T08:00:12Z</time>
      </trkpt>
      <trkpt lat="42.47662" lon="-8.63704">
        <ele>56.9</ele>
        <time>2019-04-17T08:00:12Z</time>
      </trkpt>
      <trkpt lat="42.47663" lon="-8.63706">
        <ele>57.1</ele>
        <time>2019-04-17T08:00:12Z</time>
      </trkpt>
      <trkpt lat="42.47663" lon="-8.63708">
        <ele>57.4</ele>
        <time>2019-04-17T08:00:12Z</time>
      </trkpt>
      <trkpt lat="42.47663" lon="-8.6371">
        <ele>57.7</ele>
        <time>2019-04-17T08:00:12Z</time>
      </trkpt>
      <trkpt lat="42.47664" lon="-8.63713">
        <ele>57.9</ele>
        <time>2019-04-17T08:00:12Z</time>
      </trkpt>
      <trkpt lat="42.47664" lon="-8.63715">
        <ele>58.2</ele>
        <time>2019-04-17T08:00:12Z</time>
      </trkpt>
      <trkpt lat="42.47665" lon="-8.63717">
        <ele>58.5</ele>
        <time>2019-04-17T08:00:12Z</time>
      </trkpt>
      <trkpt lat="42.47665" lon="-8.6372">
        <ele>58.8</ele>
        <time>2019-04-17T08:00:12Z</time>
      </trkpt>
      <trkpt lat="42.47666" lon="-8.63722">
        <ele>59</ele>
        <time>2019-04-17T08:00:12Z</time>
      </trkpt>
      <trkpt lat="42.47667" lon="-8.63725">
        <ele>59.4</ele>
        <time>2019-04-17T08:00:12Z</time>
      </trkpt>
      <trkpt lat="42.47669" lon="-8.63727">
        <ele>59.8</ele>
        <time>2019-04-17T08:00:12Z</time>
      </trkpt>
      <trkpt lat="42.4767" lon="-8.63728">
        <ele>60.2</ele>
        <time>2019-04-17T08:00:12Z</time>
      </trkpt>
      <trkpt lat="42.47672" lon="-8.63729">
        <ele>60.3</ele>
        <time>2019-04-17T08:00:12Z</time>
      </trkpt>
      <trkpt lat="42.47674" lon="-8.63729">
        <ele>60.4</ele>
        <time>2019-04-17T08:00:12Z</time>
      </trkpt>
      <trkpt lat="42.47676" lon="-8.63729">
        <ele>60.4</ele>
        <time>2019-04-17T08:00:12Z</time>
      </trkpt>
      <trkpt lat="42.47678" lon="-8.63728">
        <ele>60.3</ele>
        <time>2019-04-17T08:00:12Z</time>
      </trkpt>
      <trkpt lat="42.47681" lon="-8.63727">
        <ele>60.3</ele>
        <time>2019-04-17T08:00:12Z</time>
      </trkpt>
      <trkpt lat="42.47683" lon="-8.63725">
        <ele>60.1</ele>
        <time>2019-04-17T08:00:12Z</time>
      </trkpt>
      <trkpt lat="42.47686" lon="-8.63724">
        <ele>59.9</ele>
        <time>2019-04-17T08:00:12Z</time>
      </trkpt>
      <trkpt lat="42.47689" lon="-8.63722">
        <ele>59.8</ele>
        <time>2019-04-17T08:00:12Z</time>
      </trkpt>
      <trkpt lat="42.47692" lon="-8.6372">
        <ele>59.6</ele>
        <time>2019-04-17T08:00:12Z</time>
      </trkpt>
      <trkpt lat="42.47695" lon="-8.63718">
        <ele>59.3</ele>
        <time>2019-04-17T08:00:12Z</time>
      </trkpt>
      <trkpt lat="42.47698" lon="-8.63716">
        <ele>59.1</ele>
        <time>2019-04-17T08:00:12Z</time>
      </trkpt>
      <trkpt lat="42.47701" lon="-8.63714">
        <ele>58.8</ele>
        <time>2019-04-17T08:00:12Z</time>
      </trkpt>
      <trkpt lat="42.47705" lon="-8.63711">
        <ele>58.5</ele>
        <time>2019-04-17T08:00:12Z</time>
      </trkpt>
      <trkpt lat="42.47709" lon="-8.6371">
        <ele>58.2</ele>
        <time>2019-04-17T08:00:12Z</time>
      </trkpt>
      <trkpt lat="42.47713" lon="-8.63709">
        <ele>58.1</ele>
        <time>2019-04-17T08:00:12Z</time>
      </trkpt>
      <trkpt lat="42.47717" lon="-8.63708">
        <ele>58</ele>
        <time>2019-04-17T08:00:12Z</time>
      </trkpt>
      <trkpt lat="42.47721" lon="-8.63709">
        <ele>58</ele>
        <time>2019-04-17T08:00:12Z</time>
      </trkpt>
      <trkpt lat="42.47726" lon="-8.63709">
        <ele>58.1</ele>
        <time>2019-04-17T08:00:12Z</time>
      </trkpt>
      <trkpt lat="42.47729" lon="-8.6371">
        <ele>58.2</ele>
        <time>2019-04-17T08:00:12Z</time>
      </trkpt>
      <trkpt lat="42.47733" lon="-8.63711">
        <ele>58.3</ele>
        <time>2019-04-17T08:00:12Z</time>
      </trkpt>
      <trkpt lat="42.47736" lon="-8.63712">
        <ele>58.4</ele>
        <time>2019-04-17T08:00:12Z</time>
      </trkpt>
      <trkpt lat="42.4774" lon="-8.63713">
        <ele>58.6</ele>
        <time>2019-04-17T08:00:12Z</time>
      </trkpt>
      <trkpt lat="42.47743" lon="-8.63714">
        <ele>58.6</ele>
        <time>2019-04-17T08:00:12Z</time>
      </trkpt>
      <trkpt lat="42.47745" lon="-8.63714">
        <ele>58.6</ele>
        <time>2019-04-17T08:00:12Z</time>
      </trkpt>
      <trkpt lat="42.47748" lon="-8.63714">
        <ele>58.6</ele>
        <time>2019-04-17T08:00:12Z</time>
      </trkpt>
      <trkpt lat="42.47751" lon="-8.63714">
        <ele>58.6</ele>
        <time>2019-04-17T08:00:12Z</time>
      </trkpt>
      <trkpt lat="42.47754" lon="-8.63714">
        <ele>58.9</ele>
        <time>2019-04-17T08:00:12Z</time>
      </trkpt>
      <trkpt lat="42.47757" lon="-8.63713">
        <ele>59.2</ele>
        <time>2019-04-17T08:00:12Z</time>
      </trkpt>
      <trkpt lat="42.47759" lon="-8.63711">
        <ele>59.2</ele>
        <time>2019-04-17T08:00:12Z</time>
      </trkpt>
      <trkpt lat="42.47762" lon="-8.6371">
        <ele>59.3</ele>
        <time>2019-04-17T08:00:12Z</time>
      </trkpt>
      <trkpt lat="42.47764" lon="-8.63708">
        <ele>59.3</ele>
        <time>2019-04-17T08:00:12Z</time>
      </trkpt>
      <trkpt lat="42.47767" lon="-8.63706">
        <ele>59.2</ele>
        <time>2019-04-17T08:00:12Z</time>
      </trkpt>
      <trkpt lat="42.47769" lon="-8.63704">
        <ele>59</ele>
        <time>2019-04-17T08:00:12Z</time>
      </trkpt>
      <trkpt lat="42.47772" lon="-8.63701">
        <ele>58.8</ele>
        <time>2019-04-17T08:00:12Z</time>
      </trkpt>
      <trkpt lat="42.47775" lon="-8.63699">
        <ele>58.5</ele>
        <time>2019-04-17T08:00:12Z</time>
      </trkpt>
      <trkpt lat="42.47777" lon="-8.63696">
        <ele>58.2</ele>
        <time>2019-04-17T08:00:12Z</time>
      </trkpt>
      <trkpt lat="42.4778" lon="-8.63692">
        <ele>57.9</ele>
        <time>2019-04-17T08:00:12Z</time>
      </trkpt>
      <trkpt lat="42.47783" lon="-8.63689">
        <ele>57.8</ele>
        <time>2019-04-17T08:00:12Z</time>
      </trkpt>
      <trkpt lat="42.47786" lon="-8.63686">
        <ele>57.7</ele>
        <time>2019-04-17T08:00:12Z</time>
      </trkpt>
      <trkpt lat="42.4779" lon="-8.63683">
        <ele>57.6</ele>
        <time>2019-04-17T08:00:12Z</time>
      </trkpt>
      <trkpt lat="42.47794" lon="-8.63681">
        <ele>57.6</ele>
        <time>2019-04-17T08:00:12Z</time>
      </trkpt>
      <trkpt lat="42.47797" lon="-8.63679">
        <ele>57.7</ele>
        <time>2019-04-17T08:00:12Z</time>
      </trkpt>
      <trkpt lat="42.478" lon="-8.63677">
        <ele>57.7</ele>
        <time>2019-04-17T08:00:12Z</time>
      </trkpt>
      <trkpt lat="42.47803" lon="-8.63676">
        <ele>57.8</ele>
        <time>2019-04-17T08:00:12Z</time>
      </trkpt>
      <trkpt lat="42.47807" lon="-8.63675">
        <ele>57.9</ele>
        <time>2019-04-17T08:00:12Z</time>
      </trkpt>
      <trkpt lat="42.4781" lon="-8.63673">
        <ele>58</ele>
        <time>2019-04-17T08:00:12Z</time>
      </trkpt>
      <trkpt lat="42.47814" lon="-8.63672">
        <ele>58</ele>
        <time>2019-04-17T08:00:12Z</time>
      </trkpt>
      <trkpt lat="42.47818" lon="-8.6367">
        <ele>57.9</ele>
        <time>2019-04-17T08:00:12Z</time>
      </trkpt>
      <trkpt lat="42.47821" lon="-8.63668">
        <ele>57.8</ele>
        <time>2019-04-17T08:00:12Z</time>
      </trkpt>
      <trkpt lat="42.47825" lon="-8.63666">
        <ele>57.7</ele>
        <time>2019-04-17T08:00:12Z</time>
      </trkpt>
      <trkpt lat="42.47829" lon="-8.63664">
        <ele>57.7</ele>
        <time>2019-04-17T08:00:12Z</time>
      </trkpt>
      <trkpt lat="42.47833" lon="-8.63662">
        <ele>57.7</ele>
        <time>2019-04-17T08:00:12Z</time>
      </trkpt>
      <trkpt lat="42.47837" lon="-8.6366">
        <ele>57.9</ele>
        <time>2019-04-17T08:00:12Z</time>
      </trkpt>
      <trkpt lat="42.4784" lon="-8.63658">
        <ele>58.2</ele>
        <time>2019-04-17T08:00:12Z</time>
      </trkpt>
      <trkpt lat="42.47844" lon="-8.63656">
        <ele>58.4</ele>
        <time>2019-04-17T08:00:12Z</time>
      </trkpt>
      <trkpt lat="42.47847" lon="-8.63653">
        <ele>58.5</ele>
        <time>2019-04-17T08:00:12Z</time>
      </trkpt>
      <trkpt lat="42.4785" lon="-8.63651">
        <ele>58.6</ele>
        <time>2019-04-17T08:00:12Z</time>
      </trkpt>
      <trkpt lat="42.47854" lon="-8.63649">
        <ele>58.7</ele>
        <time>2019-04-17T08:00:12Z</time>
      </trkpt>
      <trkpt lat="42.47857" lon="-8.63647">
        <ele>58.7</ele>
        <time>2019-04-17T08:00:12Z</time>
      </trkpt>
      <trkpt lat="42.4786" lon="-8.63645">
        <ele>58.8</ele>
        <time>2019-04-17T08:00:12Z</time>
      </trkpt>
      <trkpt lat="42.47864" lon="-8.63643">
        <ele>58.9</ele>
        <time>2019-04-17T08:00:12Z</time>
      </trkpt>
      <trkpt lat="42.47867" lon="-8.63641">
        <ele>59.1</ele>
        <time>2019-04-17T08:00:12Z</time>
      </trkpt>
      <trkpt lat="42.4787" lon="-8.63638">
        <ele>59.2</ele>
        <time>2019-04-17T08:00:12Z</time>
      </trkpt>
      <trkpt lat="42.47873" lon="-8.63636">
        <ele>59.4</ele>
        <time>2019-04-17T08:00:12Z</time>
      </trkpt>
      <trkpt lat="42.47876" lon="-8.63634">
        <ele>59.7</ele>
        <time>2019-04-17T08:00:12Z</time>
      </trkpt>
      <trkpt lat="42.47879" lon="-8.63631">
        <ele>59.8</ele>
        <time>2019-04-17T08:00:12Z</time>
      </trkpt>
      <trkpt lat="42.47882" lon="-8.63628">
        <ele>59.9</ele>
        <time>2019-04-17T08:00:12Z</time>
      </trkpt>
      <trkpt lat="42.47884" lon="-8.63624">
        <ele>59.8</ele>
        <time>2019-04-17T08:00:12Z</time>
      </trkpt>
      <trkpt lat="42.47886" lon="-8.6362">
        <ele>59.6</ele>
        <time>2019-04-17T08:00:12Z</time>
      </trkpt>
      <trkpt lat="42.47887" lon="-8.63616">
        <ele>59.3</ele>
        <time>2019-04-17T08:00:12Z</time>
      </trkpt>
      <trkpt lat="42.47888" lon="-8.63612">
        <ele>59</ele>
        <time>2019-04-17T08:00:12Z</time>
      </trkpt>
      <trkpt lat="42.4789" lon="-8.63608">
        <ele>58.9</ele>
        <time>2019-04-17T08:00:12Z</time>
      </trkpt>
      <trkpt lat="42.47893" lon="-8.63605">
        <ele>59</ele>
        <time>2019-04-17T08:00:12Z</time>
      </trkpt>
      <trkpt lat="42.47896" lon="-8.63603">
        <ele>59.2</ele>
        <time>2019-04-17T08:00:12Z</time>
      </trkpt>
      <trkpt lat="42.47899" lon="-8.636">
        <ele>59.3</ele>
        <time>2019-04-17T08:00:12Z</time>
      </trkpt>
      <trkpt lat="42.47902" lon="-8.63598">
        <ele>59.5</ele>
        <time>2019-04-17T08:00:12Z</time>
      </trkpt>
      <trkpt lat="42.47906" lon="-8.63597">
        <ele>59.7</ele>
        <time>2019-04-17T08:00:12Z</time>
      </trkpt>
      <trkpt lat="42.47909" lon="-8.63596">
        <ele>60</ele>
        <time>2019-04-17T08:00:12Z</time>
      </trkpt>
      <trkpt lat="42.47913" lon="-8.63595">
        <ele>60.2</ele>
        <time>2019-04-17T08:00:12Z</time>
      </trkpt>
      <trkpt lat="42.47916" lon="-8.63594">
        <ele>60.5</ele>
        <time>2019-04-17T08:00:12Z</time>
      </trkpt>
      <trkpt lat="42.4792" lon="-8.63593">
        <ele>60.5</ele>
        <time>2019-04-17T08:00:12Z</time>
      </trkpt>
      <trkpt lat="42.47923" lon="-8.63593">
        <ele>60.5</ele>
        <time>2019-04-17T08:00:12Z</time>
      </trkpt>
      <trkpt lat="42.47926" lon="-8.63592">
        <ele>60.5</ele>
        <time>2019-04-17T08:00:12Z</time>
      </trkpt>
      <trkpt lat="42.47929" lon="-8.6359">
        <ele>60.4</ele>
        <time>2019-04-17T08:00:12Z</time>
      </trkpt>
      <trkpt lat="42.47932" lon="-8.63589">
        <ele>60.4</ele>
        <time>2019-04-17T08:00:12Z</time>
      </trkpt>
      <trkpt lat="42.47935" lon="-8.63588">
        <ele>60.3</ele>
        <time>2019-04-17T08:00:12Z</time>
      </trkpt>
      <trkpt lat="42.47938" lon="-8.63587">
        <ele>60.2</ele>
        <time>2019-04-17T08:00:12Z</time>
      </trkpt>
      <trkpt lat="42.47941" lon="-8.63585">
        <ele>60.2</ele>
        <time>2019-04-17T08:00:12Z</time>
      </trkpt>
      <trkpt lat="42.47944" lon="-8.63584">
        <ele>60.1</ele>
        <time>2019-04-17T08:00:12Z</time>
      </trkpt>
      <trkpt lat="42.47947" lon="-8.63583">
        <ele>60.1</ele>
        <time>2019-04-17T08:00:12Z</time>
      </trkpt>
      <trkpt lat="42.4795" lon="-8.63583">
        <ele>60.2</ele>
        <time>2019-04-17T08:00:12Z</time>
      </trkpt>
      <trkpt lat="42.47953" lon="-8.63582">
        <ele>60.2</ele>
        <time>2019-04-17T08:00:12Z</time>
      </trkpt>
      <trkpt lat="42.47956" lon="-8.63582">
        <ele>60.3</ele>
        <time>2019-04-17T08:00:12Z</time>
      </trkpt>
      <trkpt lat="42.47959" lon="-8.63582">
        <ele>60.4</ele>
        <time>2019-04-17T08:00:12Z</time>
      </trkpt>
      <trkpt lat="42.47962" lon="-8.63582">
        <ele>60.5</ele>
        <time>2019-04-17T08:00:12Z</time>
      </trkpt>
      <trkpt lat="42.47964" lon="-8.63582">
        <ele>60.6</ele>
        <time>2019-04-17T08:00:12Z</time>
      </trkpt>
      <trkpt lat="42.47967" lon="-8.63582">
        <ele>60.7</ele>
        <time>2019-04-17T08:00:12Z</time>
      </trkpt>
      <trkpt lat="42.4797" lon="-8.63583">
        <ele>60.9</ele>
        <time>2019-04-17T08:00:12Z</time>
      </trkpt>
      <trkpt lat="42.47973" lon="-8.63583">
        <ele>61</ele>
        <time>2019-04-17T08:00:12Z</time>
      </trkpt>
      <trkpt lat="42.47975" lon="-8.63584">
        <ele>61</ele>
        <time>2019-04-17T08:00:12Z</time>
      </trkpt>
      <trkpt lat="42.47978" lon="-8.63584">
        <ele>61</ele>
        <time>2019-04-17T08:00:12Z</time>
      </trkpt>
      <trkpt lat="42.4798" lon="-8.63584">
        <ele>61</ele>
        <time>2019-04-17T08:00:12Z</time>
      </trkpt>
      <trkpt lat="42.47983" lon="-8.63585">
        <ele>60.9</ele>
        <time>2019-04-17T08:00:12Z</time>
      </trkpt>
      <trkpt lat="42.47985" lon="-8.63585">
        <ele>60.9</ele>
        <time>2019-04-17T08:00:12Z</time>
      </trkpt>
      <trkpt lat="42.47988" lon="-8.63585">
        <ele>60.8</ele>
        <time>2019-04-17T08:00:12Z</time>
      </trkpt>
      <trkpt lat="42.4799" lon="-8.63585">
        <ele>60.8</ele>
        <time>2019-04-17T08:00:12Z</time>
      </trkpt>
      <trkpt lat="42.47993" lon="-8.63586">
        <ele>60.9</ele>
        <time>2019-04-17T08:00:12Z</time>
      </trkpt>
      <trkpt lat="42.47996" lon="-8.63587">
        <ele>61.1</ele>
        <time>2019-04-17T08:00:12Z</time>
      </trkpt>
      <trkpt lat="42.47999" lon="-8.63588">
        <ele>61.3</ele>
        <time>2019-04-17T08:00:12Z</time>
      </trkpt>
      <trkpt lat="42.48002" lon="-8.63589">
        <ele>61.7</ele>
        <time>2019-04-17T08:00:12Z</time>
      </trkpt>
      <trkpt lat="42.48005" lon="-8.63591">
        <ele>62</ele>
        <time>2019-04-17T08:00:12Z</time>
      </trkpt>
      <trkpt lat="42.48008" lon="-8.63592">
        <ele>62.3</ele>
        <time>2019-04-17T08:00:12Z</time>
      </trkpt>
      <trkpt lat="42.48012" lon="-8.63594">
        <ele>62.6</ele>
        <time>2019-04-17T08:00:12Z</time>
      </trkpt>
      <trkpt lat="42.48016" lon="-8.63596">
        <ele>62.7</ele>
        <time>2019-04-17T08:00:12Z</time>
      </trkpt>
      <trkpt lat="42.48019" lon="-8.63598">
        <ele>62.7</ele>
        <time>2019-04-17T08:00:12Z</time>
      </trkpt>
      <trkpt lat="42.48023" lon="-8.63599">
        <ele>62.5</ele>
        <time>2019-04-17T08:00:12Z</time>
      </trkpt>
      <trkpt lat="42.48027" lon="-8.636">
        <ele>62.3</ele>
        <time>2019-04-17T08:00:12Z</time>
      </trkpt>
      <trkpt lat="42.48031" lon="-8.63601">
        <ele>62.3</ele>
        <time>2019-04-17T08:00:12Z</time>
      </trkpt>
      <trkpt lat="42.48035" lon="-8.63601">
        <ele>62.4</ele>
        <time>2019-04-17T08:00:12Z</time>
      </trkpt>
      <trkpt lat="42.48039" lon="-8.63601">
        <ele>62.4</ele>
        <time>2019-04-17T08:00:12Z</time>
      </trkpt>
      <trkpt lat="42.48043" lon="-8.63602">
        <ele>62.5</ele>
        <time>2019-04-17T08:00:12Z</time>
      </trkpt>
      <trkpt lat="42.48046" lon="-8.63602">
        <ele>62.6</ele>
        <time>2019-04-17T08:00:12Z</time>
      </trkpt>
      <trkpt lat="42.4805" lon="-8.63602">
        <ele>62.6</ele>
        <time>2019-04-17T08:00:12Z</time>
      </trkpt>
      <trkpt lat="42.48054" lon="-8.63603">
        <ele>62.7</ele>
        <time>2019-04-17T08:00:12Z</time>
      </trkpt>
      <trkpt lat="42.48057" lon="-8.63603">
        <ele>62.7</ele>
        <time>2019-04-17T08:00:12Z</time>
      </trkpt>
      <trkpt lat="42.48061" lon="-8.63603">
        <ele>62.9</ele>
        <time>2019-04-17T08:00:12Z</time>
      </trkpt>
      <trkpt lat="42.48064" lon="-8.63603">
        <ele>63</ele>
        <time>2019-04-17T08:00:12Z</time>
      </trkpt>
      <trkpt lat="42.48067" lon="-8.63604">
        <ele>63.2</ele>
        <time>2019-04-17T08:00:12Z</time>
      </trkpt>
      <trkpt lat="42.48071" lon="-8.63604">
        <ele>63.3</ele>
        <time>2019-04-17T08:00:12Z</time>
      </trkpt>
      <trkpt lat="42.48074" lon="-8.63605">
        <ele>63.4</ele>
        <time>2019-04-17T08:00:12Z</time>
      </trkpt>
      <trkpt lat="42.48077" lon="-8.63605">
        <ele>63.6</ele>
        <time>2019-04-17T08:00:12Z</time>
      </trkpt>
      <trkpt lat="42.4808" lon="-8.63606">
        <ele>63.7</ele>
        <time>2019-04-17T08:00:12Z</time>
      </trkpt>
      <trkpt lat="42.48083" lon="-8.63606">
        <ele>63.8</ele>
        <time>2019-04-17T08:00:12Z</time>
      </trkpt>
      <trkpt lat="42.48086" lon="-8.63607">
        <ele>64</ele>
        <time>2019-04-17T08:00:12Z</time>
      </trkpt>
      <trkpt lat="42.48089" lon="-8.63608">
        <ele>64.1</ele>
        <time>2019-04-17T08:00:12Z</time>
      </trkpt>
      <trkpt lat="42.48092" lon="-8.63608">
        <ele>64.2</ele>
        <time>2019-04-17T08:00:12Z</time>
      </trkpt>
      <trkpt lat="42.48095" lon="-8.63609">
        <ele>64.3</ele>
        <time>2019-04-17T08:00:12Z</time>
      </trkpt>
      <trkpt lat="42.48098" lon="-8.63609">
        <ele>64.4</ele>
        <time>2019-04-17T08:00:12Z</time>
      </trkpt>
      <trkpt lat="42.48101" lon="-8.63609">
        <ele>64.5</ele>
        <time>2019-04-17T08:00:12Z</time>
      </trkpt>
      <trkpt lat="42.48104" lon="-8.63609">
        <ele>64.7</ele>
        <time>2019-04-17T08:00:12Z</time>
      </trkpt>
      <trkpt lat="42.48107" lon="-8.6361">
        <ele>64.8</ele>
        <time>2019-04-17T08:00:12Z</time>
      </trkpt>
      <trkpt lat="42.48109" lon="-8.6361">
        <ele>64.9</ele>
        <time>2019-04-17T08:00:12Z</time>
      </trkpt>
      <trkpt lat="42.48112" lon="-8.6361">
        <ele>65.1</ele>
        <time>2019-04-17T08:00:12Z</time>
      </trkpt>
      <trkpt lat="42.48115" lon="-8.6361">
        <ele>65.3</ele>
        <time>2019-04-17T08:00:12Z</time>
      </trkpt>
      <trkpt lat="42.48119" lon="-8.6361">
        <ele>65.5</ele>
        <time>2019-04-17T08:00:12Z</time>
      </trkpt>
      <trkpt lat="42.48122" lon="-8.6361">
        <ele>65.7</ele>
        <time>2019-04-17T08:00:12Z</time>
      </trkpt>
      <trkpt lat="42.48125" lon="-8.6361">
        <ele>65.9</ele>
        <time>2019-04-17T08:00:12Z</time>
      </trkpt>
      <trkpt lat="42.48128" lon="-8.63609">
        <ele>66.1</ele>
        <time>2019-04-17T08:00:12Z</time>
      </trkpt>
      <trkpt lat="42.48131" lon="-8.63608">
        <ele>66.3</ele>
        <time>2019-04-17T08:00:12Z</time>
      </trkpt>
      <trkpt lat="42.48134" lon="-8.63608">
        <ele>66.4</ele>
        <time>2019-04-17T08:00:12Z</time>
      </trkpt>
      <trkpt lat="42.48137" lon="-8.63606">
        <ele>66.5</ele>
        <time>2019-04-17T08:00:12Z</time>
      </trkpt>
      <trkpt lat="42.4814" lon="-8.63605">
        <ele>66.7</ele>
        <time>2019-04-17T08:00:12Z</time>
      </trkpt>
      <trkpt lat="42.48143" lon="-8.63604">
        <ele>66.7</ele>
        <time>2019-04-17T08:00:12Z</time>
      </trkpt>
      <trkpt lat="42.48146" lon="-8.63603">
        <ele>66.8</ele>
        <time>2019-04-17T08:00:12Z</time>
      </trkpt>
      <trkpt lat="42.48149" lon="-8.63601">
        <ele>66.9</ele>
        <time>2019-04-17T08:00:12Z</time>
      </trkpt>
      <trkpt lat="42.48151" lon="-8.636">
        <ele>66.9</ele>
        <time>2019-04-17T08:00:12Z</time>
      </trkpt>
      <trkpt lat="42.48154" lon="-8.63598">
        <ele>66.9</ele>
        <time>2019-04-17T08:00:12Z</time>
      </trkpt>
      <trkpt lat="42.48156" lon="-8.63597">
        <ele>66.9</ele>
        <time>2019-04-17T08:00:12Z</time>
      </trkpt>
      <trkpt lat="42.48159" lon="-8.63596">
        <ele>66.9</ele>
        <time>2019-04-17T08:00:12Z</time>
      </trkpt>
      <trkpt lat="42.48161" lon="-8.63594">
        <ele>66.9</ele>
        <time>2019-04-17T08:00:12Z</time>
      </trkpt>
      <trkpt lat="42.48164" lon="-8.63593">
        <ele>66.9</ele>
        <time>2019-04-17T08:00:12Z</time>
      </trkpt>
      <trkpt lat="42.48167" lon="-8.63591">
        <ele>66.8</ele>
        <time>2019-04-17T08:00:12Z</time>
      </trkpt>
      <trkpt lat="42.4817" lon="-8.63589">
        <ele>67</ele>
        <time>2019-04-17T08:00:12Z</time>
      </trkpt>
      <trkpt lat="42.48173" lon="-8.63587">
        <ele>67.3</ele>
        <time>2019-04-17T08:00:12Z</time>
      </trkpt>
      <trkpt lat="42.48175" lon="-8.63585">
        <ele>67.4</ele>
        <time>2019-04-17T08:00:12Z</time>
      </trkpt>
      <trkpt lat="42.48178" lon="-8.63583">
        <ele>67.6</ele>
        <time>2019-04-17T08:00:12Z</time>
      </trkpt>
      <trkpt lat="42.4818" lon="-8.63581">
        <ele>67.9</ele>
        <time>2019-04-17T08:00:12Z</time>
      </trkpt>
      <trkpt lat="42.48183" lon="-8.63579">
        <ele>68.1</ele>
        <time>2019-04-17T08:00:12Z</time>
      </trkpt>
      <trkpt lat="42.48185" lon="-8.63576">
        <ele>68.2</ele>
        <time>2019-04-17T08:00:12Z</time>
      </trkpt>
      <trkpt lat="42.48188" lon="-8.63574">
        <ele>68.3</ele>
        <time>2019-04-17T08:00:12Z</time>
      </trkpt>
      <trkpt lat="42.4819" lon="-8.63572">
        <ele>68.4</ele>
        <time>2019-04-17T08:00:12Z</time>
      </trkpt>
      <trkpt lat="42.48193" lon="-8.63569">
        <ele>68.3</ele>
        <time>2019-04-17T08:00:12Z</time>
      </trkpt>
      <trkpt lat="42.48195" lon="-8.63567">
        <ele>68.3</ele>
        <time>2019-04-17T08:00:12Z</time>
      </trkpt>
      <trkpt lat="42.48198" lon="-8.63564">
        <ele>68.4</ele>
        <time>2019-04-17T08:00:12Z</time>
      </trkpt>
      <trkpt lat="42.48201" lon="-8.63562">
        <ele>68.5</ele>
        <time>2019-04-17T08:00:12Z</time>
      </trkpt>
      <trkpt lat="42.48203" lon="-8.6356">
        <ele>68.7</ele>
        <time>2019-04-17T08:00:12Z</time>
      </trkpt>
      <trkpt lat="42.48206" lon="-8.63558">
        <ele>68.8</ele>
        <time>2019-04-17T08:00:12Z</time>
      </trkpt>
      <trkpt lat="42.48208" lon="-8.63555">
        <ele>69</ele>
        <time>2019-04-17T08:00:12Z</time>
      </trkpt>
      <trkpt lat="42.48211" lon="-8.63553">
        <ele>69.3</ele>
        <time>2019-04-17T08:00:12Z</time>
      </trkpt>
      <trkpt lat="42.48214" lon="-8.63551">
        <ele>69.5</ele>
        <time>2019-04-17T08:00:12Z</time>
      </trkpt>
      <trkpt lat="42.48216" lon="-8.63549">
        <ele>69.7</ele>
        <time>2019-04-17T08:00:12Z</time>
      </trkpt>
      <trkpt lat="42.48219" lon="-8.63546">
        <ele>69.7</ele>
        <time>2019-04-17T08:00:12Z</time>
      </trkpt>
      <trkpt lat="42.48221" lon="-8.63544">
        <ele>69.7</ele>
        <time>2019-04-17T08:00:12Z</time>
      </trkpt>
      <trkpt lat="42.48223" lon="-8.63542">
        <ele>69.8</ele>
        <time>2019-04-17T08:00:12Z</time>
      </trkpt>
      <trkpt lat="42.48225" lon="-8.6354">
        <ele>70.1</ele>
        <time>2019-04-17T08:00:12Z</time>
      </trkpt>
      <trkpt lat="42.48227" lon="-8.63539">
        <ele>70.5</ele>
        <time>2019-04-17T08:00:12Z</time>
      </trkpt>
      <trkpt lat="42.48228" lon="-8.63538">
        <ele>70.9</ele>
        <time>2019-04-17T08:00:12Z</time>
      </trkpt>
      <trkpt lat="42.4823" lon="-8.63538">
        <ele>71.3</ele>
        <time>2019-04-17T08:00:12Z</time>
      </trkpt>
      <trkpt lat="42.48231" lon="-8.63538">
        <ele>71.8</ele>
        <time>2019-04-17T08:00:12Z</time>
      </trkpt>
      <trkpt lat="42.48233" lon="-8.63539">
        <ele>72.3</ele>
        <time>2019-04-17T08:00:12Z</time>
      </trkpt>
      <trkpt lat="42.48234" lon="-8.6354">
        <ele>72.8</ele>
        <time>2019-04-17T08:00:12Z</time>
      </trkpt>
      <trkpt lat="42.48236" lon="-8.63542">
        <ele>73.3</ele>
        <time>2019-04-17T08:00:12Z</time>
      </trkpt>
      <trkpt lat="42.48237" lon="-8.63543">
        <ele>73.8</ele>
        <time>2019-04-17T08:00:12Z</time>
      </trkpt>
      <trkpt lat="42.48238" lon="-8.63545">
        <ele>74.2</ele>
        <time>2019-04-17T08:00:12Z</time>
      </trkpt>
      <trkpt lat="42.48239" lon="-8.63547">
        <ele>74.5</ele>
        <time>2019-04-17T08:00:12Z</time>
      </trkpt>
      <trkpt lat="42.48239" lon="-8.63548">
        <ele>74.8</ele>
        <time>2019-04-17T08:00:12Z</time>
      </trkpt>
      <trkpt lat="42.4824" lon="-8.6355">
        <ele>75.2</ele>
        <time>2019-04-17T08:00:12Z</time>
      </trkpt>
      <trkpt lat="42.48241" lon="-8.63552">
        <ele>75.4</ele>
        <time>2019-04-17T08:00:12Z</time>
      </trkpt>
      <trkpt lat="42.48241" lon="-8.63554">
        <ele>75.7</ele>
        <time>2019-04-17T08:00:12Z</time>
      </trkpt>
      <trkpt lat="42.48242" lon="-8.63556">
        <ele>76</ele>
        <time>2019-04-17T08:00:12Z</time>
      </trkpt>
      <trkpt lat="42.48243" lon="-8.63558">
        <ele>76.2</ele>
        <time>2019-04-17T08:00:12Z</time>
      </trkpt>
      <trkpt lat="42.48243" lon="-8.6356">
        <ele>76.3</ele>
        <time>2019-04-17T08:00:12Z</time>
      </trkpt>
      <trkpt lat="42.48244" lon="-8.63562">
        <ele>76.5</ele>
        <time>2019-04-17T08:00:12Z</time>
      </trkpt>
      <trkpt lat="42.48244" lon="-8.63564">
        <ele>76.7</ele>
        <time>2019-04-17T08:00:12Z</time>
      </trkpt>
      <trkpt lat="42.48245" lon="-8.63566">
        <ele>76.9</ele>
        <time>2019-04-17T08:00:12Z</time>
      </trkpt>
      <trkpt lat="42.48246" lon="-8.63568">
        <ele>77</ele>
        <time>2019-04-17T08:00:12Z</time>
      </trkpt>
      <trkpt lat="42.48246" lon="-8.6357">
        <ele>77.2</ele>
        <time>2019-04-17T08:00:12Z</time>
      </trkpt>
      <trkpt lat="42.48247" lon="-8.63572">
        <ele>77.3</ele>
        <time>2019-04-17T08:00:12Z</time>
      </trkpt>
      <trkpt lat="42.48247" lon="-8.63574">
        <ele>77.4</ele>
        <time>2019-04-17T08:00:12Z</time>
      </trkpt>
      <trkpt lat="42.48248" lon="-8.63576">
        <ele>77.5</ele>
        <time>2019-04-17T08:00:12Z</time>
      </trkpt>
      <trkpt lat="42.48248" lon="-8.63578">
        <ele>77.6</ele>
        <time>2019-04-17T08:00:12Z</time>
      </trkpt>
      <trkpt lat="42.48249" lon="-8.6358">
        <ele>77.7</ele>
        <time>2019-04-17T08:00:12Z</time>
      </trkpt>
      <trkpt lat="42.4825" lon="-8.63582">
        <ele>77.9</ele>
        <time>2019-04-17T08:00:12Z</time>
      </trkpt>
      <trkpt lat="42.4825" lon="-8.63584">
        <ele>78.1</ele>
        <time>2019-04-17T08:00:12Z</time>
      </trkpt>
      <trkpt lat="42.48251" lon="-8.63586">
        <ele>78.4</ele>
        <time>2019-04-17T08:00:12Z</time>
      </trkpt>
      <trkpt lat="42.48252" lon="-8.63587">
        <ele>78.8</ele>
        <time>2019-04-17T08:00:12Z</time>
      </trkpt>
      <trkpt lat="42.48253" lon="-8.63589">
        <ele>79.1</ele>
        <time>2019-04-17T08:00:12Z</time>
      </trkpt>
      <trkpt lat="42.48254" lon="-8.6359">
        <ele>79.4</ele>
        <time>2019-04-17T08:00:12Z</time>
      </trkpt>
      <trkpt lat="42.48255" lon="-8.63592">
        <ele>79.7</ele>
        <time>2019-04-17T08:00:12Z</time>
      </trkpt>
      <trkpt lat="42.48256" lon="-8.63593">
        <ele>80</ele>
        <time>2019-04-17T08:00:12Z</time>
      </trkpt>
      <trkpt lat="42.48257" lon="-8.63594">
        <ele>80.4</ele>
        <time>2019-04-17T08:00:12Z</time>
      </trkpt>
      <trkpt lat="42.48258" lon="-8.63595">
        <ele>80.7</ele>
        <time>2019-04-17T08:00:12Z</time>
      </trkpt>
      <trkpt lat="42.48259" lon="-8.63596">
        <ele>81</ele>
        <time>2019-04-17T08:00:12Z</time>
      </trkpt>
      <trkpt lat="42.4826" lon="-8.63597">
        <ele>81.3</ele>
        <time>2019-04-17T08:00:12Z</time>
      </trkpt>
      <trkpt lat="42.48261" lon="-8.63598">
        <ele>81.6</ele>
        <time>2019-04-17T08:00:12Z</time>
      </trkpt>
      <trkpt lat="42.48262" lon="-8.63599">
        <ele>82</ele>
        <time>2019-04-17T08:00:12Z</time>
      </trkpt>
      <trkpt lat="42.48263" lon="-8.636">
        <ele>82.2</ele>
        <time>2019-04-17T08:00:12Z</time>
      </trkpt>
      <trkpt lat="42.48264" lon="-8.63601">
        <ele>82.5</ele>
        <time>2019-04-17T08:00:12Z</time>
      </trkpt>
      <trkpt lat="42.48265" lon="-8.63602">
        <ele>82.7</ele>
        <time>2019-04-17T08:00:12Z</time>
      </trkpt>
      <trkpt lat="42.48266" lon="-8.63603">
        <ele>83</ele>
        <time>2019-04-17T08:00:12Z</time>
      </trkpt>
      <trkpt lat="42.48267" lon="-8.63604">
        <ele>83.3</ele>
        <time>2019-04-17T08:00:12Z</time>
      </trkpt>
      <trkpt lat="42.48268" lon="-8.63605">
        <ele>83.5</ele>
        <time>2019-04-17T08:00:12Z</time>
      </trkpt>
      <trkpt lat="42.48269" lon="-8.63606">
        <ele>83.8</ele>
        <time>2019-04-17T08:00:12Z</time>
      </trkpt>
      <trkpt lat="42.4827" lon="-8.63607">
        <ele>84.1</ele>
        <time>2019-04-17T08:00:12Z</time>
      </trkpt>
      <trkpt lat="42.48271" lon="-8.63608">
        <ele>84.3</ele>
        <time>2019-04-17T08:00:12Z</time>
      </trkpt>
      <trkpt lat="42.48272" lon="-8.63608">
        <ele>84.6</ele>
        <time>2019-04-17T08:00:12Z</time>
      </trkpt>
      <trkpt lat="42.48273" lon="-8.63609">
        <ele>84.9</ele>
        <time>2019-04-17T08:00:12Z</time>
      </trkpt>
      <trkpt lat="42.48274" lon="-8.63609">
        <ele>85.2</ele>
        <time>2019-04-17T08:00:12Z</time>
      </trkpt>
      <trkpt lat="42.48276" lon="-8.63609">
        <ele>85.4</ele>
        <time>2019-04-17T08:00:12Z</time>
      </trkpt>
      <trkpt lat="42.48277" lon="-8.63608">
        <ele>85.6</ele>
        <time>2019-04-17T08:00:12Z</time>
      </trkpt>
      <trkpt lat="42.48277" lon="-8.63607">
        <ele>85.7</ele>
        <time>2019-04-17T08:00:12Z</time>
      </trkpt>
      <trkpt lat="42.48278" lon="-8.63605">
        <ele>85.7</ele>
        <time>2019-04-17T08:00:12Z</time>
      </trkpt>
      <trkpt lat="42.48278" lon="-8.63603">
        <ele>85.7</ele>
        <time>2019-04-17T08:00:12Z</time>
      </trkpt>
      <trkpt lat="42.48277" lon="-8.63601">
        <ele>85.4</ele>
        <time>2019-04-17T08:00:12Z</time>
      </trkpt>
      <trkpt lat="42.48276" lon="-8.63598">
        <ele>85.2</ele>
        <time>2019-04-17T08:00:12Z</time>
      </trkpt>
      <trkpt lat="42.48276" lon="-8.63595">
        <ele>84.9</ele>
        <time>2019-04-17T08:00:12Z</time>
      </trkpt>
      <trkpt lat="42.48275" lon="-8.63592">
        <ele>84.7</ele>
        <time>2019-04-17T08:00:12Z</time>
      </trkpt>
      <trkpt lat="42.48275" lon="-8.63588">
        <ele>84.5</ele>
        <time>2019-04-17T08:00:12Z</time>
      </trkpt>
      <trkpt lat="42.48275" lon="-8.63583">
        <ele>84.3</ele>
        <time>2019-04-17T08:00:12Z</time>
      </trkpt>
      <trkpt lat="42.48276" lon="-8.63579">
        <ele>84.2</ele>
        <time>2019-04-17T08:00:12Z</time>
      </trkpt>
      <trkpt lat="42.48277" lon="-8.63575">
        <ele>84.1</ele>
        <time>2019-04-17T08:00:12Z</time>
      </trkpt>
      <trkpt lat="42.48277" lon="-8.63571">
        <ele>84</ele>
        <time>2019-04-17T08:00:12Z</time>
      </trkpt>
      <trkpt lat="42.48279" lon="-8.63567">
        <ele>84</ele>
        <time>2019-04-17T08:00:12Z</time>
      </trkpt>
      <trkpt lat="42.4828" lon="-8.63564">
        <ele>84</ele>
        <time>2019-04-17T08:00:12Z</time>
      </trkpt>
      <trkpt lat="42.48281" lon="-8.63561">
        <ele>84.1</ele>
        <time>2019-04-17T08:00:12Z</time>
      </trkpt>
      <trkpt lat="42.48282" lon="-8.63559">
        <ele>84.3</ele>
        <time>2019-04-17T08:00:12Z</time>
      </trkpt>
      <trkpt lat="42.48284" lon="-8.63557">
        <ele>84.4</ele>
        <time>2019-04-17T08:00:12Z</time>
      </trkpt>
      <trkpt lat="42.48286" lon="-8.63554">
        <ele>84.7</ele>
        <time>2019-04-17T08:00:12Z</time>
      </trkpt>
      <trkpt lat="42.48288" lon="-8.63552">
        <ele>85</ele>
        <time>2019-04-17T08:00:12Z</time>
      </trkpt>
      <trkpt lat="42.48289" lon="-8.6355">
        <ele>85.3</ele>
        <time>2019-04-17T08:00:12Z</time>
      </trkpt>
      <trkpt lat="42.48291" lon="-8.63548">
        <ele>85.5</ele>
        <time>2019-04-17T08:00:12Z</time>
      </trkpt>
      <trkpt lat="42.48293" lon="-8.63547">
        <ele>85.7</ele>
        <time>2019-04-17T08:00:12Z</time>
      </trkpt>
      <trkpt lat="42.48295" lon="-8.63545">
        <ele>86</ele>
        <time>2019-04-17T08:00:12Z</time>
      </trkpt>
      <trkpt lat="42.48297" lon="-8.63544">
        <ele>86.3</ele>
        <time>2019-04-17T08:00:12Z</time>
      </trkpt>
      <trkpt lat="42.48299" lon="-8.63542">
        <ele>86.4</ele>
        <time>2019-04-17T08:00:12Z</time>
      </trkpt>
      <trkpt lat="42.48301" lon="-8.63541">
        <ele>86.6</ele>
        <time>2019-04-17T08:00:12Z</time>
      </trkpt>
      <trkpt lat="42.48303" lon="-8.6354">
        <ele>86.9</ele>
        <time>2019-04-17T08:00:12Z</time>
      </trkpt>
      <trkpt lat="42.48305" lon="-8.63539">
        <ele>87</ele>
        <time>2019-04-17T08:00:12Z</time>
      </trkpt>
      <trkpt lat="42.48307" lon="-8.63538">
        <ele>87.2</ele>
        <time>2019-04-17T08:00:12Z</time>
      </trkpt>
      <trkpt lat="42.48309" lon="-8.63537">
        <ele>87.3</ele>
        <time>2019-04-17T08:00:12Z</time>
      </trkpt>
      <trkpt lat="42.48311" lon="-8.63535">
        <ele>87.3</ele>
        <time>2019-04-17T08:00:12Z</time>
      </trkpt>
      <trkpt lat="42.48313" lon="-8.63534">
        <ele>87.4</ele>
        <time>2019-04-17T08:00:12Z</time>
      </trkpt>
      <trkpt lat="42.48315" lon="-8.63533">
        <ele>87.4</ele>
        <time>2019-04-17T08:00:12Z</time>
      </trkpt>
      <trkpt lat="42.48317" lon="-8.63532">
        <ele>87.4</ele>
        <time>2019-04-17T08:00:12Z</time>
      </trkpt>
      <trkpt lat="42.48319" lon="-8.63531">
        <ele>87.4</ele>
        <time>2019-04-17T08:00:12Z</time>
      </trkpt>
      <trkpt lat="42.4832" lon="-8.6353">
        <ele>87.4</ele>
        <time>2019-04-17T08:00:12Z</time>
      </trkpt>
      <trkpt lat="42.48322" lon="-8.63529">
        <ele>87.4</ele>
        <time>2019-04-17T08:00:12Z</time>
      </trkpt>
      <trkpt lat="42.48324" lon="-8.63528">
        <ele>87.3</ele>
        <time>2019-04-17T08:00:12Z</time>
      </trkpt>
      <trkpt lat="42.48326" lon="-8.63527">
        <ele>87.4</ele>
        <time>2019-04-17T08:00:12Z</time>
      </trkpt>
      <trkpt lat="42.48328" lon="-8.63526">
        <ele>87.5</ele>
        <time>2019-04-17T08:00:12Z</time>
      </trkpt>
      <trkpt lat="42.4833" lon="-8.63526">
        <ele>87.6</ele>
        <time>2019-04-17T08:00:12Z</time>
      </trkpt>
      <trkpt lat="42.48331" lon="-8.63525">
        <ele>87.7</ele>
        <time>2019-04-17T08:00:12Z</time>
      </trkpt>
      <trkpt lat="42.48333" lon="-8.63525">
        <ele>87.7</ele>
        <time>2019-04-17T08:00:12Z</time>
      </trkpt>
      <trkpt lat="42.48335" lon="-8.63524">
        <ele>88</ele>
        <time>2019-04-17T08:00:12Z</time>
      </trkpt>
      <trkpt lat="42.48336" lon="-8.63524">
        <ele>88.3</ele>
        <time>2019-04-17T08:00:12Z</time>
      </trkpt>
      <trkpt lat="42.48338" lon="-8.63524">
        <ele>88.5</ele>
        <time>2019-04-17T08:00:12Z</time>
      </trkpt>
      <trkpt lat="42.4834" lon="-8.63524">
        <ele>88.8</ele>
        <time>2019-04-17T08:00:12Z</time>
      </trkpt>
      <trkpt lat="42.48341" lon="-8.63524">
        <ele>89.1</ele>
        <time>2019-04-17T08:00:12Z</time>
      </trkpt>
      <trkpt lat="42.48343" lon="-8.63524">
        <ele>89.3</ele>
        <time>2019-04-17T08:00:12Z</time>
      </trkpt>
      <trkpt lat="42.48344" lon="-8.63524">
        <ele>89.6</ele>
        <time>2019-04-17T08:00:12Z</time>
      </trkpt>
      <trkpt lat="42.48346" lon="-8.63523">
        <ele>89.8</ele>
        <time>2019-04-17T08:00:12Z</time>
      </trkpt>
      <trkpt lat="42.48347" lon="-8.63523">
        <ele>90</ele>
        <time>2019-04-17T08:00:12Z</time>
      </trkpt>
      <trkpt lat="42.48349" lon="-8.63523">
        <ele>90.3</ele>
        <time>2019-04-17T08:00:12Z</time>
      </trkpt>
      <trkpt lat="42.4835" lon="-8.63523">
        <ele>90.5</ele>
        <time>2019-04-17T08:00:12Z</time>
      </trkpt>
      <trkpt lat="42.48352" lon="-8.63522">
        <ele>90.7</ele>
        <time>2019-04-17T08:00:12Z</time>
      </trkpt>
      <trkpt lat="42.48353" lon="-8.63522">
        <ele>91</ele>
        <time>2019-04-17T08:00:12Z</time>
      </trkpt>
      <trkpt lat="42.48355" lon="-8.63522">
        <ele>91.2</ele>
        <time>2019-04-17T08:00:12Z</time>
      </trkpt>
      <trkpt lat="42.48356" lon="-8.63522">
        <ele>91.5</ele>
        <time>2019-04-17T08:00:12Z</time>
      </trkpt>
      <trkpt lat="42.48358" lon="-8.63522">
        <ele>91.7</ele>
        <time>2019-04-17T08:00:12Z</time>
      </trkpt>
      <trkpt lat="42.48359" lon="-8.63522">
        <ele>92</ele>
        <time>2019-04-17T08:00:12Z</time>
      </trkpt>
      <trkpt lat="42.4836" lon="-8.63521">
        <ele>92.2</ele>
        <time>2019-04-17T08:00:12Z</time>
      </trkpt>
      <trkpt lat="42.48362" lon="-8.63521">
        <ele>92.4</ele>
        <time>2019-04-17T08:00:12Z</time>
      </trkpt>
      <trkpt lat="42.48363" lon="-8.63521">
        <ele>92.7</ele>
        <time>2019-04-17T08:00:12Z</time>
      </trkpt>
      <trkpt lat="42.48365" lon="-8.63521">
        <ele>92.9</ele>
        <time>2019-04-17T08:00:12Z</time>
      </trkpt>
      <trkpt lat="42.48366" lon="-8.63521">
        <ele>93.2</ele>
        <time>2019-04-17T08:00:12Z</time>
      </trkpt>
      <trkpt lat="42.48367" lon="-8.63521">
        <ele>93.4</ele>
        <time>2019-04-17T08:00:12Z</time>
      </trkpt>
      <trkpt lat="42.48369" lon="-8.6352">
        <ele>93.7</ele>
        <time>2019-04-17T08:00:12Z</time>
      </trkpt>
      <trkpt lat="42.48371" lon="-8.6352">
        <ele>94.1</ele>
        <time>2019-04-17T08:00:12Z</time>
      </trkpt>
      <trkpt lat="42.48372" lon="-8.6352">
        <ele>94.4</ele>
        <time>2019-04-17T08:00:12Z</time>
      </trkpt>
      <trkpt lat="42.48374" lon="-8.6352">
        <ele>94.7</ele>
        <time>2019-04-17T08:00:12Z</time>
      </trkpt>
      <trkpt lat="42.48375" lon="-8.6352">
        <ele>95</ele>
        <time>2019-04-17T08:00:12Z</time>
      </trkpt>
      <trkpt lat="42.48377" lon="-8.6352">
        <ele>95.2</ele>
        <time>2019-04-17T08:00:12Z</time>
      </trkpt>
      <trkpt lat="42.48378" lon="-8.6352">
        <ele>95.5</ele>
        <time>2019-04-17T08:00:12Z</time>
      </trkpt>
      <trkpt lat="42.4838" lon="-8.63519">
        <ele>95.7</ele>
        <time>2019-04-17T08:00:12Z</time>
      </trkpt>
      <trkpt lat="42.48381" lon="-8.63519">
        <ele>95.9</ele>
        <time>2019-04-17T08:00:12Z</time>
      </trkpt>
      <trkpt lat="42.48383" lon="-8.63519">
        <ele>96.2</ele>
        <time>2019-04-17T08:00:12Z</time>
      </trkpt>
      <trkpt lat="42.48384" lon="-8.63519">
        <ele>96.4</ele>
        <time>2019-04-17T08:00:12Z</time>
      </trkpt>
      <trkpt lat="42.48386" lon="-8.63519">
        <ele>96.7</ele>
        <time>2019-04-17T08:00:12Z</time>
      </trkpt>
      <trkpt lat="42.48387" lon="-8.63519">
        <ele>97</ele>
        <time>2019-04-17T08:00:12Z</time>
      </trkpt>
      <trkpt lat="42.48388" lon="-8.63519">
        <ele>97.2</ele>
        <time>2019-04-17T08:00:12Z</time>
      </trkpt>
      <trkpt lat="42.4839" lon="-8.63519">
        <ele>97.4</ele>
        <time>2019-04-17T08:00:12Z</time>
      </trkpt>
      <trkpt lat="42.48391" lon="-8.63519">
        <ele>97.5</ele>
        <time>2019-04-17T08:00:12Z</time>
      </trkpt>
      <trkpt lat="42.48393" lon="-8.63519">
        <ele>97.7</ele>
        <time>2019-04-17T08:00:12Z</time>
      </trkpt>
      <trkpt lat="42.48395" lon="-8.63519">
        <ele>97.8</ele>
        <time>2019-04-17T08:00:12Z</time>
      </trkpt>
      <trkpt lat="42.48396" lon="-8.6352">
        <ele>98</ele>
        <time>2019-04-17T08:00:12Z</time>
      </trkpt>
      <trkpt lat="42.48398" lon="-8.6352">
        <ele>98.1</ele>
        <time>2019-04-17T08:00:12Z</time>
      </trkpt>
      <trkpt lat="42.484" lon="-8.6352">
        <ele>98.3</ele>
        <time>2019-04-17T08:00:12Z</time>
      </trkpt>
      <trkpt lat="42.48401" lon="-8.6352">
        <ele>98.4</ele>
        <time>2019-04-17T08:00:12Z</time>
      </trkpt>
      <trkpt lat="42.48403" lon="-8.63521">
        <ele>98.6</ele>
        <time>2019-04-17T08:00:12Z</time>
      </trkpt>
      <trkpt lat="42.48404" lon="-8.63521">
        <ele>98.8</ele>
        <time>2019-04-17T08:00:12Z</time>
      </trkpt>
      <trkpt lat="42.48406" lon="-8.63521">
        <ele>98.9</ele>
        <time>2019-04-17T08:00:12Z</time>
      </trkpt>
      <trkpt lat="42.48407" lon="-8.63522">
        <ele>99</ele>
        <time>2019-04-17T08:00:12Z</time>
      </trkpt>
      <trkpt lat="42.48409" lon="-8.63522">
        <ele>99.2</ele>
        <time>2019-04-17T08:00:12Z</time>
      </trkpt>
      <trkpt lat="42.48411" lon="-8.63522">
        <ele>99.4</ele>
        <time>2019-04-17T08:00:12Z</time>
      </trkpt>
      <trkpt lat="42.48412" lon="-8.63522">
        <ele>99.5</ele>
        <time>2019-04-17T08:00:12Z</time>
      </trkpt>
      <trkpt lat="42.48414" lon="-8.63522">
        <ele>99.6</ele>
        <time>2019-04-17T08:00:12Z</time>
      </trkpt>
      <trkpt lat="42.48416" lon="-8.63523">
        <ele>99.8</ele>
        <time>2019-04-17T08:00:12Z</time>
      </trkpt>
      <trkpt lat="42.48417" lon="-8.63523">
        <ele>99.9</ele>
        <time>2019-04-17T08:00:12Z</time>
      </trkpt>
      <trkpt lat="42.48419" lon="-8.63523">
        <ele>99.8</ele>
        <time>2019-04-17T08:00:12Z</time>
      </trkpt>
      <trkpt lat="42.4842" lon="-8.63523">
        <ele>99.8</ele>
        <time>2019-04-17T08:00:12Z</time>
      </trkpt>
      <trkpt lat="42.48422" lon="-8.63523">
        <ele>99.7</ele>
        <time>2019-04-17T08:00:12Z</time>
      </trkpt>
      <trkpt lat="42.48424" lon="-8.63523">
        <ele>99.6</ele>
        <time>2019-04-17T08:00:12Z</time>
      </trkpt>
      <trkpt lat="42.48425" lon="-8.63523">
        <ele>99.5</ele>
        <time>2019-04-17T08:00:12Z</time>
      </trkpt>
      <trkpt lat="42.48427" lon="-8.63524">
        <ele>99.6</ele>
        <time>2019-04-17T08:00:12Z</time>
      </trkpt>
      <trkpt lat="42.48428" lon="-8.63525">
        <ele>99.8</ele>
        <time>2019-04-17T08:00:12Z</time>
      </trkpt>
      <trkpt lat="42.48429" lon="-8.63527">
        <ele>100.2</ele>
        <time>2019-04-17T08:00:12Z</time>
      </trkpt>
      <trkpt lat="42.48429" lon="-8.63528">
        <ele>100.6</ele>
        <time>2019-04-17T08:00:12Z</time>
      </trkpt>
      <trkpt lat="42.48429" lon="-8.6353">
        <ele>101.1</ele>
        <time>2019-04-17T08:00:12Z</time>
      </trkpt>
      <trkpt lat="42.48428" lon="-8.63531">
        <ele>101.4</ele>
        <time>2019-04-17T08:00:12Z</time>
      </trkpt>
      <trkpt lat="42.48427" lon="-8.63531">
        <ele>101.6</ele>
        <time>2019-04-17T08:00:12Z</time>
      </trkpt>
      <trkpt lat="42.48425" lon="-8.63532">
        <ele>101.8</ele>
        <time>2019-04-17T08:00:12Z</time>
      </trkpt>
      <trkpt lat="42.48424" lon="-8.63533">
        <ele>102</ele>
        <time>2019-04-17T08:00:12Z</time>
      </trkpt>
      <trkpt lat="42.48422" lon="-8.63533">
        <ele>102.2</ele>
        <time>2019-04-17T08:00:12Z</time>
      </trkpt>
      <trkpt lat="42.48421" lon="-8.63534">
        <ele>102.5</ele>
        <time>2019-04-17T08:00:12Z</time>
      </trkpt>
      <trkpt lat="42.48419" lon="-8.63535">
        <ele>102.8</ele>
        <time>2019-04-17T08:00:12Z</time>
      </trkpt>
      <trkpt lat="42.48418" lon="-8.63536">
        <ele>103.1</ele>
        <time>2019-04-17T08:00:12Z</time>
      </trkpt>
      <trkpt lat="42.48416" lon="-8.63537">
        <ele>103.3</ele>
        <time>2019-04-17T08:00:12Z</time>
      </trkpt>
      <trkpt lat="42.48415" lon="-8.63538">
        <ele>103.5</ele>
        <time>2019-04-17T08:00:12Z</time>
      </trkpt>
      <trkpt lat="42.48413" lon="-8.63539">
        <ele>103.6</ele>
        <time>2019-04-17T08:00:12Z</time>
      </trkpt>
      <trkpt lat="42.48412" lon="-8.6354">
        <ele>103.8</ele>
        <time>2019-04-17T08:00:12Z</time>
      </trkpt>
      <trkpt lat="42.4841" lon="-8.63541">
        <ele>103.9</ele>
        <time>2019-04-17T08:00:12Z</time>
      </trkpt>
      <trkpt lat="42.48408" lon="-8.63542">
        <ele>104</ele>
        <time>2019-04-17T08:00:12Z</time>
      </trkpt>
      <trkpt lat="42.48407" lon="-8.63543">
        <ele>104.2</ele>
        <time>2019-04-17T08:00:12Z</time>
      </trkpt>
      <trkpt lat="42.48405" lon="-8.63545">
        <ele>104.4</ele>
        <time>2019-04-17T08:00:12Z</time>
      </trkpt>
      <trkpt lat="42.48404" lon="-8.63546">
        <ele>104.7</ele>
        <time>2019-04-17T08:00:12Z</time>
      </trkpt>
      <trkpt lat="42.48402" lon="-8.63548">
        <ele>104.9</ele>
        <time>2019-04-17T08:00:12Z</time>
      </trkpt>
      <trkpt lat="42.48401" lon="-8.63549">
        <ele>105.3</ele>
        <time>2019-04-17T08:00:12Z</time>
      </trkpt>
      <trkpt lat="42.484" lon="-8.63551">
        <ele>105.6</ele>
        <time>2019-04-17T08:00:12Z</time>
      </trkpt>
      <trkpt lat="42.48399" lon="-8.63553">
        <ele>106</ele>
        <time>2019-04-17T08:00:12Z</time>
      </trkpt>
      <trkpt lat="42.48397" lon="-8.63555">
        <ele>106.5</ele>
        <time>2019-04-17T08:00:12Z</time>
      </trkpt>
      <trkpt lat="42.48396" lon="-8.63557">
        <ele>106.7</ele>
        <time>2019-04-17T08:00:12Z</time>
      </trkpt>
      <trkpt lat="42.48392" lon="-8.63568">
        <ele>107.1</ele>
        <time>2019-04-17T08:00:12Z</time>
      </trkpt>
      <trkpt lat="42.48391" lon="-8.6357">
        <ele>107.2</ele>
        <time>2019-04-17T08:00:12Z</time>
      </trkpt>
      <trkpt lat="42.4839" lon="-8.63573">
        <ele>107.3</ele>
        <time>2019-04-17T08:00:12Z</time>
      </trkpt>
      <trkpt lat="42.48389" lon="-8.63575">
        <ele>107.4</ele>
        <time>2019-04-17T08:00:12Z</time>
      </trkpt>
      <trkpt lat="42.48389" lon="-8.63577">
        <ele>107.5</ele>
        <time>2019-04-17T08:00:12Z</time>
      </trkpt>
      <trkpt lat="42.48388" lon="-8.6358">
        <ele>107.6</ele>
        <time>2019-04-17T08:00:12Z</time>
      </trkpt>
      <trkpt lat="42.48387" lon="-8.63583">
        <ele>107.7</ele>
        <time>2019-04-17T08:00:12Z</time>
      </trkpt>
      <trkpt lat="42.48386" lon="-8.63586">
        <ele>107.7</ele>
        <time>2019-04-17T08:00:12Z</time>
      </trkpt>
      <trkpt lat="42.48385" lon="-8.63589">
        <ele>107.6</ele>
        <time>2019-04-17T08:00:12Z</time>
      </trkpt>
      <trkpt lat="42.48385" lon="-8.63592">
        <ele>107.6</ele>
        <time>2019-04-17T08:00:12Z</time>
      </trkpt>
      <trkpt lat="42.48385" lon="-8.63595">
        <ele>107.6</ele>
        <time>2019-04-17T08:00:12Z</time>
      </trkpt>
      <trkpt lat="42.48384" lon="-8.63598">
        <ele>107.6</ele>
        <time>2019-04-17T08:00:12Z</time>
      </trkpt>
      <trkpt lat="42.48384" lon="-8.63602">
        <ele>107.6</ele>
        <time>2019-04-17T08:00:12Z</time>
      </trkpt>
      <trkpt lat="42.48384" lon="-8.63605">
        <ele>107.6</ele>
        <time>2019-04-17T08:00:12Z</time>
      </trkpt>
      <trkpt lat="42.48384" lon="-8.63609">
        <ele>107.6</ele>
        <time>2019-04-17T08:00:12Z</time>
      </trkpt>
      <trkpt lat="42.48385" lon="-8.63613">
        <ele>107.7</ele>
        <time>2019-04-17T08:00:12Z</time>
      </trkpt>
      <trkpt lat="42.48386" lon="-8.63617">
        <ele>107.9</ele>
        <time>2019-04-17T08:00:12Z</time>
      </trkpt>
      <trkpt lat="42.48386" lon="-8.6362">
        <ele>108</ele>
        <time>2019-04-17T08:00:12Z</time>
      </trkpt>
      <trkpt lat="42.48387" lon="-8.63624">
        <ele>108.2</ele>
        <time>2019-04-17T08:00:12Z</time>
      </trkpt>
      <trkpt lat="42.48388" lon="-8.63627">
        <ele>108.5</ele>
        <time>2019-04-17T08:00:12Z</time>
      </trkpt>
      <trkpt lat="42.48389" lon="-8.63631">
        <ele>108.7</ele>
        <time>2019-04-17T08:00:12Z</time>
      </trkpt>
      <trkpt lat="42.4839" lon="-8.63634">
        <ele>108.9</ele>
        <time>2019-04-17T08:00:12Z</time>
      </trkpt>
      <trkpt lat="42.4839" lon="-8.63638">
        <ele>109.1</ele>
        <time>2019-04-17T08:00:12Z</time>
      </trkpt>
      <trkpt lat="42.48391" lon="-8.63641">
        <ele>109.2</ele>
        <time>2019-04-17T08:00:12Z</time>
      </trkpt>
      <trkpt lat="42.48392" lon="-8.63645">
        <ele>109.2</ele>
        <time>2019-04-17T08:00:12Z</time>
      </trkpt>
      <trkpt lat="42.48393" lon="-8.63648">
        <ele>109.3</ele>
        <time>2019-04-17T08:00:12Z</time>
      </trkpt>
      <trkpt lat="42.48394" lon="-8.63652">
        <ele>109.3</ele>
        <time>2019-04-17T08:00:12Z</time>
      </trkpt>
      <trkpt lat="42.48394" lon="-8.63655">
        <ele>109.4</ele>
        <time>2019-04-17T08:00:12Z</time>
      </trkpt>
      <trkpt lat="42.48395" lon="-8.63659">
        <ele>109.4</ele>
        <time>2019-04-17T08:00:12Z</time>
      </trkpt>
      <trkpt lat="42.48396" lon="-8.63663">
        <ele>109.5</ele>
        <time>2019-04-17T08:00:12Z</time>
      </trkpt>
      <trkpt lat="42.48397" lon="-8.63666">
        <ele>109.5</ele>
        <time>2019-04-17T08:00:12Z</time>
      </trkpt>
      <trkpt lat="42.48397" lon="-8.6367">
        <ele>109.7</ele>
        <time>2019-04-17T08:00:12Z</time>
      </trkpt>
      <trkpt lat="42.48398" lon="-8.63673">
        <ele>109.8</ele>
        <time>2019-04-17T08:00:12Z</time>
      </trkpt>
      <trkpt lat="42.48399" lon="-8.63677">
        <ele>110</ele>
        <time>2019-04-17T08:00:12Z</time>
      </trkpt>
      <trkpt lat="42.484" lon="-8.6368">
        <ele>110.1</ele>
        <time>2019-04-17T08:00:12Z</time>
      </trkpt>
      <trkpt lat="42.484" lon="-8.63684">
        <ele>110.2</ele>
        <time>2019-04-17T08:00:12Z</time>
      </trkpt>
      <trkpt lat="42.48401" lon="-8.63688">
        <ele>110.3</ele>
        <time>2019-04-17T08:00:12Z</time>
      </trkpt>
      <trkpt lat="42.48401" lon="-8.63691">
        <ele>110.4</ele>
        <time>2019-04-17T08:00:12Z</time>
      </trkpt>
      <trkpt lat="42.48401" lon="-8.63694">
        <ele>110.4</ele>
        <time>2019-04-17T08:00:12Z</time>
      </trkpt>
      <trkpt lat="42.48401" lon="-8.63698">
        <ele>110.8</ele>
        <time>2019-04-17T08:00:12Z</time>
      </trkpt>
      <trkpt lat="42.484" lon="-8.63701">
        <ele>111.1</ele>
        <time>2019-04-17T08:00:12Z</time>
      </trkpt>
      <trkpt lat="42.48399" lon="-8.63704">
        <ele>111.5</ele>
        <time>2019-04-17T08:00:12Z</time>
      </trkpt>
      <trkpt lat="42.48398" lon="-8.63706">
        <ele>111.7</ele>
        <time>2019-04-17T08:00:12Z</time>
      </trkpt>
      <trkpt lat="42.48397" lon="-8.63708">
        <ele>112</ele>
        <time>2019-04-17T08:00:12Z</time>
      </trkpt>
      <trkpt lat="42.48396" lon="-8.63711">
        <ele>112.3</ele>
        <time>2019-04-17T08:00:12Z</time>
      </trkpt>
      <trkpt lat="42.48394" lon="-8.63712">
        <ele>112.5</ele>
        <time>2019-04-17T08:00:12Z</time>
      </trkpt>
      <trkpt lat="42.48392" lon="-8.63714">
        <ele>112.7</ele>
        <time>2019-04-17T08:00:12Z</time>
      </trkpt>
      <trkpt lat="42.4839" lon="-8.63716">
        <ele>113</ele>
        <time>2019-04-17T08:00:12Z</time>
      </trkpt>
      <trkpt lat="42.48389" lon="-8.63717">
        <ele>113.3</ele>
        <time>2019-04-17T08:00:12Z</time>
      </trkpt>
      <trkpt lat="42.48387" lon="-8.63719">
        <ele>113.5</ele>
        <time>2019-04-17T08:00:12Z</time>
      </trkpt>
      <trkpt lat="42.48385" lon="-8.6372">
        <ele>113.8</ele>
        <time>2019-04-17T08:00:12Z</time>
      </trkpt>
      <trkpt lat="42.48383" lon="-8.63721">
        <ele>114</ele>
        <time>2019-04-17T08:00:12Z</time>
      </trkpt>
      <trkpt lat="42.48381" lon="-8.63722">
        <ele>114.2</ele>
        <time>2019-04-17T08:00:12Z</time>
      </trkpt>
      <trkpt lat="42.48379" lon="-8.63723">
        <ele>114.4</ele>
        <time>2019-04-17T08:00:12Z</time>
      </trkpt>
      <trkpt lat="42.48377" lon="-8.63723">
        <ele>114.5</ele>
        <time>2019-04-17T08:00:12Z</time>
      </trkpt>
      <trkpt lat="42.48375" lon="-8.63723">
        <ele>114.6</ele>
        <time>2019-04-17T08:00:12Z</time>
      </trkpt>
      <trkpt lat="42.48373" lon="-8.63723">
        <ele>114.7</ele>
        <time>2019-04-17T08:00:12Z</time>
      </trkpt>
      <trkpt lat="42.48371" lon="-8.63724">
        <ele>114.8</ele>
        <time>2019-04-17T08:00:12Z</time>
      </trkpt>
      <trkpt lat="42.48369" lon="-8.63725">
        <ele>115</ele>
        <time>2019-04-17T08:00:12Z</time>
      </trkpt>
      <trkpt lat="42.48368" lon="-8.63725">
        <ele>115.2</ele>
        <time>2019-04-17T08:00:12Z</time>
      </trkpt>
      <trkpt lat="42.48366" lon="-8.63726">
        <ele>115.3</ele>
        <time>2019-04-17T08:00:12Z</time>
      </trkpt>
      <trkpt lat="42.48364" lon="-8.63727">
        <ele>115.5</ele>
        <time>2019-04-17T08:00:12Z</time>
      </trkpt>
      <trkpt lat="42.48362" lon="-8.63729">
        <ele>115.7</ele>
        <time>2019-04-17T08:00:12Z</time>
      </trkpt>
      <trkpt lat="42.4836" lon="-8.6373">
        <ele>115.8</ele>
        <time>2019-04-17T08:00:12Z</time>
      </trkpt>
      <trkpt lat="42.48358" lon="-8.63732">
        <ele>115.8</ele>
        <time>2019-04-17T08:00:12Z</time>
      </trkpt>
      <trkpt lat="42.48356" lon="-8.63733">
        <ele>115.9</ele>
        <time>2019-04-17T08:00:12Z</time>
      </trkpt>
      <trkpt lat="42.48355" lon="-8.63735">
        <ele>116.1</ele>
        <time>2019-04-17T08:00:12Z</time>
      </trkpt>
      <trkpt lat="42.48353" lon="-8.63738">
        <ele>116.2</ele>
        <time>2019-04-17T08:00:12Z</time>
      </trkpt>
      <trkpt lat="42.48352" lon="-8.6374">
        <ele>116.4</ele>
        <time>2019-04-17T08:00:12Z</time>
      </trkpt>
      <trkpt lat="42.48351" lon="-8.63742">
        <ele>116.7</ele>
        <time>2019-04-17T08:00:12Z</time>
      </trkpt>
      <trkpt lat="42.4835" lon="-8.63745">
        <ele>117</ele>
        <time>2019-04-17T08:00:12Z</time>
      </trkpt>
      <trkpt lat="42.48349" lon="-8.63747">
        <ele>117.2</ele>
        <time>2019-04-17T08:00:12Z</time>
      </trkpt>
      <trkpt lat="42.48349" lon="-8.6375">
        <ele>117.6</ele>
        <time>2019-04-17T08:00:12Z</time>
      </trkpt>
      <trkpt lat="42.48349" lon="-8.63753">
        <ele>117.7</ele>
        <time>2019-04-17T08:00:12Z</time>
      </trkpt>
      <trkpt lat="42.48349" lon="-8.63756">
        <ele>117.9</ele>
        <time>2019-04-17T08:00:12Z</time>
      </trkpt>
      <trkpt lat="42.4835" lon="-8.63759">
        <ele>118.1</ele>
        <time>2019-04-17T08:00:12Z</time>
      </trkpt>
      <trkpt lat="42.48351" lon="-8.63761">
        <ele>118.3</ele>
        <time>2019-04-17T08:00:12Z</time>
      </trkpt>
      <trkpt lat="42.48352" lon="-8.63764">
        <ele>118.5</ele>
        <time>2019-04-17T08:00:12Z</time>
      </trkpt>
      <trkpt lat="42.48354" lon="-8.63766">
        <ele>118.7</ele>
        <time>2019-04-17T08:00:12Z</time>
      </trkpt>
      <trkpt lat="42.48356" lon="-8.63767">
        <ele>118.9</ele>
        <time>2019-04-17T08:00:12Z</time>
      </trkpt>
      <trkpt lat="42.48358" lon="-8.63767">
        <ele>119</ele>
        <time>2019-04-17T08:00:12Z</time>
      </trkpt>
      <trkpt lat="42.4836" lon="-8.63768">
        <ele>119.2</ele>
        <time>2019-04-17T08:00:12Z</time>
      </trkpt>
      <trkpt lat="42.48361" lon="-8.63768">
        <ele>119.3</ele>
        <time>2019-04-17T08:00:12Z</time>
      </trkpt>
      <trkpt lat="42.48363" lon="-8.63769">
        <ele>119.4</ele>
        <time>2019-04-17T08:00:12Z</time>
      </trkpt>
      <trkpt lat="42.48365" lon="-8.63769">
        <ele>119.5</ele>
        <time>2019-04-17T08:00:12Z</time>
      </trkpt>
      <trkpt lat="42.48367" lon="-8.63769">
        <ele>119.6</ele>
        <time>2019-04-17T08:00:12Z</time>
      </trkpt>
      <trkpt lat="42.4837" lon="-8.63769">
        <ele>119.7</ele>
        <time>2019-04-17T08:00:12Z</time>
      </trkpt>
      <trkpt lat="42.48372" lon="-8.63769">
        <ele>119.7</ele>
        <time>2019-04-17T08:00:12Z</time>
      </trkpt>
      <trkpt lat="42.48374" lon="-8.63769">
        <ele>119.9</ele>
        <time>2019-04-17T08:00:12Z</time>
      </trkpt>
      <trkpt lat="42.48376" lon="-8.6377">
        <ele>119.9</ele>
        <time>2019-04-17T08:00:12Z</time>
      </trkpt>
      <trkpt lat="42.48379" lon="-8.6377">
        <ele>120</ele>
        <time>2019-04-17T08:00:12Z</time>
      </trkpt>
      <trkpt lat="42.48381" lon="-8.6377">
        <ele>120.1</ele>
        <time>2019-04-17T08:00:12Z</time>
      </trkpt>
      <trkpt lat="42.48383" lon="-8.6377">
        <ele>120.2</ele>
        <time>2019-04-17T08:00:12Z</time>
      </trkpt>
      <trkpt lat="42.48385" lon="-8.6377">
        <ele>120.3</ele>
        <time>2019-04-17T08:00:12Z</time>
      </trkpt>
      <trkpt lat="42.48387" lon="-8.6377">
        <ele>120.4</ele>
        <time>2019-04-17T08:00:12Z</time>
      </trkpt>
      <trkpt lat="42.48389" lon="-8.63771">
        <ele>120.5</ele>
        <time>2019-04-17T08:00:12Z</time>
      </trkpt>
      <trkpt lat="42.48392" lon="-8.63772">
        <ele>120.6</ele>
        <time>2019-04-17T08:00:12Z</time>
      </trkpt>
      <trkpt lat="42.48394" lon="-8.63772">
        <ele>120.7</ele>
        <time>2019-04-17T08:00:12Z</time>
      </trkpt>
      <trkpt lat="42.48396" lon="-8.63773">
        <ele>120.8</ele>
        <time>2019-04-17T08:00:12Z</time>
      </trkpt>
      <trkpt lat="42.48398" lon="-8.63773">
        <ele>120.9</ele>
        <time>2019-04-17T08:00:12Z</time>
      </trkpt>
      <trkpt lat="42.484" lon="-8.63774">
        <ele>121</ele>
        <time>2019-04-17T08:00:12Z</time>
      </trkpt>
      <trkpt lat="42.48402" lon="-8.63775">
        <ele>121.2</ele>
        <time>2019-04-17T08:00:12Z</time>
      </trkpt>
      <trkpt lat="42.48404" lon="-8.63777">
        <ele>121.4</ele>
        <time>2019-04-17T08:00:12Z</time>
      </trkpt>
      <trkpt lat="42.48406" lon="-8.63778">
        <ele>121.6</ele>
        <time>2019-04-17T08:00:12Z</time>
      </trkpt>
      <trkpt lat="42.48407" lon="-8.63781">
        <ele>121.8</ele>
        <time>2019-04-17T08:00:12Z</time>
      </trkpt>
      <trkpt lat="42.48409" lon="-8.63783">
        <ele>122</ele>
        <time>2019-04-17T08:00:12Z</time>
      </trkpt>
      <trkpt lat="42.4841" lon="-8.63785">
        <ele>122.2</ele>
        <time>2019-04-17T08:00:12Z</time>
      </trkpt>
      <trkpt lat="42.48412" lon="-8.63788">
        <ele>122.4</ele>
        <time>2019-04-17T08:00:12Z</time>
      </trkpt>
      <trkpt lat="42.48414" lon="-8.63789">
        <ele>122.6</ele>
        <time>2019-04-17T08:00:12Z</time>
      </trkpt>
      <trkpt lat="42.48415" lon="-8.6379">
        <ele>122.8</ele>
        <time>2019-04-17T08:00:12Z</time>
      </trkpt>
      <trkpt lat="42.48417" lon="-8.6379">
        <ele>122.8</ele>
        <time>2019-04-17T08:00:12Z</time>
      </trkpt>
      <trkpt lat="42.48419" lon="-8.63789">
        <ele>122.8</ele>
        <time>2019-04-17T08:00:12Z</time>
      </trkpt>
      <trkpt lat="42.4842" lon="-8.63788">
        <ele>122.7</ele>
        <time>2019-04-17T08:00:12Z</time>
      </trkpt>
      <trkpt lat="42.48421" lon="-8.63788">
        <ele>122.7</ele>
        <time>2019-04-17T08:00:12Z</time>
      </trkpt>
      <trkpt lat="42.48426" lon="-8.63785">
        <ele>122.4</ele>
        <time>2019-04-17T08:00:12Z</time>
      </trkpt>
      <trkpt lat="42.48435" lon="-8.63786">
        <ele>122.3</ele>
        <time>2019-04-17T08:00:12Z</time>
      </trkpt>
      <trkpt lat="42.48454" lon="-8.63794">
        <ele>122.7</ele>
        <time>2019-04-17T08:00:12Z</time>
      </trkpt>
      <trkpt lat="42.48466" lon="-8.63796">
        <ele>122.3</ele>
        <time>2019-04-17T08:00:12Z</time>
      </trkpt>
      <trkpt lat="42.48479" lon="-8.638">
        <ele>122.9</ele>
        <time>2019-04-17T08:00:12Z</time>
      </trkpt>
      <trkpt lat="42.48489" lon="-8.63802">
        <ele>123.2</ele>
        <time>2019-04-17T08:00:12Z</time>
      </trkpt>
      <trkpt lat="42.48499" lon="-8.638">
        <ele>122.6</ele>
        <time>2019-04-17T08:00:12Z</time>
      </trkpt>
      <trkpt lat="42.48505" lon="-8.63802">
        <ele>122.8</ele>
        <time>2019-04-17T08:00:12Z</time>
      </trkpt>
      <trkpt lat="42.4851" lon="-8.63805">
        <ele>123.2</ele>
        <time>2019-04-17T08:00:12Z</time>
      </trkpt>
      <trkpt lat="42.48516" lon="-8.63809">
        <ele>123.6</ele>
        <time>2019-04-17T08:00:12Z</time>
      </trkpt>
      <trkpt lat="42.48526" lon="-8.63813">
        <ele>123.6</ele>
        <time>2019-04-17T08:00:12Z</time>
      </trkpt>
      <trkpt lat="42.48534" lon="-8.63811">
        <ele>123.8</ele>
        <time>2019-04-17T08:00:12Z</time>
      </trkpt>
      <trkpt lat="42.48537" lon="-8.63807">
        <ele>123.3</ele>
        <time>2019-04-17T08:00:12Z</time>
      </trkpt>
      <trkpt lat="42.4854" lon="-8.63806">
        <ele>123.4</ele>
        <time>2019-04-17T08:00:12Z</time>
      </trkpt>
      <trkpt lat="42.48542" lon="-8.63805">
        <ele>123.5</ele>
        <time>2019-04-17T08:00:12Z</time>
      </trkpt>
      <trkpt lat="42.48545" lon="-8.63804">
        <ele>123.6</ele>
        <time>2019-04-17T08:00:12Z</time>
      </trkpt>
      <trkpt lat="42.48547" lon="-8.63802">
        <ele>123.6</ele>
        <time>2019-04-17T08:00:12Z</time>
      </trkpt>
      <trkpt lat="42.48548" lon="-8.63799">
        <ele>123.5</ele>
        <time>2019-04-17T08:00:12Z</time>
      </trkpt>
      <trkpt lat="42.4855" lon="-8.63796">
        <ele>123.4</ele>
        <time>2019-04-17T08:00:12Z</time>
      </trkpt>
      <trkpt lat="42.48551" lon="-8.63794">
        <ele>123.3</ele>
        <time>2019-04-17T08:00:12Z</time>
      </trkpt>
      <trkpt lat="42.48552" lon="-8.63791">
        <ele>123.2</ele>
        <time>2019-04-17T08:00:12Z</time>
      </trkpt>
      <trkpt lat="42.48553" lon="-8.63788">
        <ele>123.1</ele>
        <time>2019-04-17T08:00:12Z</time>
      </trkpt>
      <trkpt lat="42.48553" lon="-8.63785">
        <ele>123.1</ele>
        <time>2019-04-17T08:00:12Z</time>
      </trkpt>
      <trkpt lat="42.48554" lon="-8.63782">
        <ele>123</ele>
        <time>2019-04-17T08:00:12Z</time>
      </trkpt>
      <trkpt lat="42.48556" lon="-8.63779">
        <ele>123.1</ele>
        <time>2019-04-17T08:00:12Z</time>
      </trkpt>
      <trkpt lat="42.48557" lon="-8.63775">
        <ele>123.3</ele>
        <time>2019-04-17T08:00:12Z</time>
      </trkpt>
      <trkpt lat="42.48558" lon="-8.63773">
        <ele>123.5</ele>
        <time>2019-04-17T08:00:12Z</time>
      </trkpt>
      <trkpt lat="42.48559" lon="-8.6377">
        <ele>123.6</ele>
        <time>2019-04-17T08:00:12Z</time>
      </trkpt>
      <trkpt lat="42.4856" lon="-8.63768">
        <ele>123.8</ele>
        <time>2019-04-17T08:00:12Z</time>
      </trkpt>
      <trkpt lat="42.48561" lon="-8.63766">
        <ele>123.9</ele>
        <time>2019-04-17T08:00:12Z</time>
      </trkpt>
      <trkpt lat="42.48561" lon="-8.63763">
        <ele>123.9</ele>
        <time>2019-04-17T08:00:12Z</time>
      </trkpt>
      <trkpt lat="42.48561" lon="-8.63761">
        <ele>123.9</ele>
        <time>2019-04-17T08:00:12Z</time>
      </trkpt>
      <trkpt lat="42.48562" lon="-8.63758">
        <ele>123.9</ele>
        <time>2019-04-17T08:00:12Z</time>
      </trkpt>
      <trkpt lat="42.48563" lon="-8.63756">
        <ele>124.1</ele>
        <time>2019-04-17T08:00:12Z</time>
      </trkpt>
      <trkpt lat="42.48564" lon="-8.63754">
        <ele>124.2</ele>
        <time>2019-04-17T08:00:12Z</time>
      </trkpt>
      <trkpt lat="42.48565" lon="-8.63751">
        <ele>124.3</ele>
        <time>2019-04-17T08:00:12Z</time>
      </trkpt>
      <trkpt lat="42.48566" lon="-8.63748">
        <ele>124.3</ele>
        <time>2019-04-17T08:00:12Z</time>
      </trkpt>
      <trkpt lat="42.48568" lon="-8.63745">
        <ele>124.3</ele>
        <time>2019-04-17T08:00:12Z</time>
      </trkpt>
      <trkpt lat="42.48569" lon="-8.63742">
        <ele>124.3</ele>
        <time>2019-04-17T08:00:12Z</time>
      </trkpt>
      <trkpt lat="42.48571" lon="-8.6374">
        <ele>124.4</ele>
        <time>2019-04-17T08:00:12Z</time>
      </trkpt>
      <trkpt lat="42.48573" lon="-8.63737">
        <ele>124.5</ele>
        <time>2019-04-17T08:00:12Z</time>
      </trkpt>
      <trkpt lat="42.48575" lon="-8.63735">
        <ele>124.7</ele>
        <time>2019-04-17T08:00:12Z</time>
      </trkpt>
      <trkpt lat="42.48577" lon="-8.63733">
        <ele>124.8</ele>
        <time>2019-04-17T08:00:12Z</time>
      </trkpt>
      <trkpt lat="42.48578" lon="-8.6373">
        <ele>124.8</ele>
        <time>2019-04-17T08:00:12Z</time>
      </trkpt>
      <trkpt lat="42.4858" lon="-8.63727">
        <ele>124.8</ele>
        <time>2019-04-17T08:00:12Z</time>
      </trkpt>
      <trkpt lat="42.48581" lon="-8.63724">
        <ele>124.6</ele>
        <time>2019-04-17T08:00:12Z</time>
      </trkpt>
      <trkpt lat="42.48582" lon="-8.63721">
        <ele>124.4</ele>
        <time>2019-04-17T08:00:12Z</time>
      </trkpt>
      <trkpt lat="42.48583" lon="-8.63718">
        <ele>124.3</ele>
        <time>2019-04-17T08:00:12Z</time>
      </trkpt>
      <trkpt lat="42.48584" lon="-8.63715">
        <ele>124.1</ele>
        <time>2019-04-17T08:00:12Z</time>
      </trkpt>
      <trkpt lat="42.48585" lon="-8.63712">
        <ele>123.8</ele>
        <time>2019-04-17T08:00:12Z</time>
      </trkpt>
      <trkpt lat="42.48586" lon="-8.63709">
        <ele>123.7</ele>
        <time>2019-04-17T08:00:12Z</time>
      </trkpt>
      <trkpt lat="42.48587" lon="-8.63707">
        <ele>123.6</ele>
        <time>2019-04-17T08:00:12Z</time>
      </trkpt>
      <trkpt lat="42.48587" lon="-8.63704">
        <ele>123.5</ele>
        <time>2019-04-17T08:00:12Z</time>
      </trkpt>
      <trkpt lat="42.48588" lon="-8.63702">
        <ele>123.4</ele>
        <time>2019-04-17T08:00:12Z</time>
      </trkpt>
      <trkpt lat="42.48588" lon="-8.63701">
        <ele>123.3</ele>
        <time>2019-04-17T08:00:12Z</time>
      </trkpt>
      <trkpt lat="42.48589" lon="-8.63701">
        <ele>123.3</ele>
        <time>2019-04-17T08:00:12Z</time>
      </trkpt>
      <trkpt lat="42.48589" lon="-8.63701">
        <ele>123.3</ele>
        <time>2019-04-17T08:00:12Z</time>
      </trkpt>
      <trkpt lat="42.48589" lon="-8.637">
        <ele>123.2</ele>
        <time>2019-04-17T08:00:12Z</time>
      </trkpt>
      <trkpt lat="42.48589" lon="-8.637">
        <ele>123.3</ele>
        <time>2019-04-17T08:00:12Z</time>
      </trkpt>
      <trkpt lat="42.4859" lon="-8.63699">
        <ele>123.3</ele>
        <time>2019-04-17T08:00:12Z</time>
      </trkpt>
      <trkpt lat="42.48591" lon="-8.63698">
        <ele>123.3</ele>
        <time>2019-04-17T08:00:12Z</time>
      </trkpt>
      <trkpt lat="42.48591" lon="-8.63697">
        <ele>123.3</ele>
        <time>2019-04-17T08:00:12Z</time>
      </trkpt>
      <trkpt lat="42.48592" lon="-8.63696">
        <ele>123.3</ele>
        <time>2019-04-17T08:00:12Z</time>
      </trkpt>
      <trkpt lat="42.48592" lon="-8.63694">
        <ele>123.2</ele>
        <time>2019-04-17T08:00:12Z</time>
      </trkpt>
      <trkpt lat="42.48593" lon="-8.63693">
        <ele>123.1</ele>
        <time>2019-04-17T08:00:12Z</time>
      </trkpt>
      <trkpt lat="42.48594" lon="-8.63691">
        <ele>123</ele>
        <time>2019-04-17T08:00:12Z</time>
      </trkpt>
      <trkpt lat="42.48595" lon="-8.6369">
        <ele>123.1</ele>
        <time>2019-04-17T08:00:12Z</time>
      </trkpt>
      <trkpt lat="42.48595" lon="-8.6369">
        <ele>123.1</ele>
        <time>2019-04-17T08:00:12Z</time>
      </trkpt>
      <trkpt lat="42.48596" lon="-8.63689">
        <ele>123.1</ele>
        <time>2019-04-17T08:00:12Z</time>
      </trkpt>
      <trkpt lat="42.48596" lon="-8.63689">
        <ele>123.1</ele>
        <time>2019-04-17T08:00:12Z</time>
      </trkpt>
      <trkpt lat="42.48596" lon="-8.63689">
        <ele>123.1</ele>
        <time>2019-04-17T08:00:12Z</time>
      </trkpt>
      <trkpt lat="42.48596" lon="-8.63688">
        <ele>123.1</ele>
        <time>2019-04-17T08:00:12Z</time>
      </trkpt>
      <trkpt lat="42.48597" lon="-8.63688">
        <ele>123.2</ele>
        <time>2019-04-17T08:00:12Z</time>
      </trkpt>
      <trkpt lat="42.48597" lon="-8.63688">
        <ele>123.2</ele>
        <time>2019-04-17T08:00:12Z</time>
      </trkpt>
      <trkpt lat="42.48597" lon="-8.63688">
        <ele>123.3</ele>
        <time>2019-04-17T08:00:12Z</time>
      </trkpt>
      <trkpt lat="42.48598" lon="-8.63687">
        <ele>123.3</ele>
        <time>2019-04-17T08:00:12Z</time>
      </trkpt>
      <trkpt lat="42.48598" lon="-8.63687">
        <ele>123.3</ele>
        <time>2019-04-17T08:00:12Z</time>
      </trkpt>
      <trkpt lat="42.48598" lon="-8.63687">
        <ele>123.3</ele>
        <time>2019-04-17T08:00:12Z</time>
      </trkpt>
      <trkpt lat="42.48599" lon="-8.63686">
        <ele>123.4</ele>
        <time>2019-04-17T08:00:12Z</time>
      </trkpt>
      <trkpt lat="42.48599" lon="-8.63687">
        <ele>123.5</ele>
        <time>2019-04-17T08:00:12Z</time>
      </trkpt>
      <trkpt lat="42.486" lon="-8.63687">
        <ele>123.6</ele>
        <time>2019-04-17T08:00:12Z</time>
      </trkpt>
      <trkpt lat="42.486" lon="-8.63687">
        <ele>123.7</ele>
        <time>2019-04-17T08:00:12Z</time>
      </trkpt>
      <trkpt lat="42.486" lon="-8.63687">
        <ele>123.8</ele>
        <time>2019-04-17T08:00:12Z</time>
      </trkpt>
      <trkpt lat="42.486" lon="-8.63686">
        <ele>123.8</ele>
        <time>2019-04-17T08:00:12Z</time>
      </trkpt>
      <trkpt lat="42.48601" lon="-8.63686">
        <ele>123.8</ele>
        <time>2019-04-17T08:00:12Z</time>
      </trkpt>
      <trkpt lat="42.48601" lon="-8.63686">
        <ele>123.9</ele>
        <time>2019-04-17T08:00:12Z</time>
      </trkpt>
      <trkpt lat="42.48601" lon="-8.63686">
        <ele>123.9</ele>
        <time>2019-04-17T08:00:12Z</time>
      </trkpt>
      <trkpt lat="42.48601" lon="-8.63685">
        <ele>123.8</ele>
        <time>2019-04-17T08:00:12Z</time>
      </trkpt>
      <trkpt lat="42.48602" lon="-8.63685">
        <ele>123.8</ele>
        <time>2019-04-17T08:00:12Z</time>
      </trkpt>
      <trkpt lat="42.48602" lon="-8.63685">
        <ele>123.9</ele>
        <time>2019-04-17T08:00:12Z</time>
      </trkpt>
      <trkpt lat="42.48602" lon="-8.63685">
        <ele>123.9</ele>
        <time>2019-04-17T08:00:12Z</time>
      </trkpt>
      <trkpt lat="42.48602" lon="-8.63685">
        <ele>124</ele>
        <time>2019-04-17T08:00:12Z</time>
      </trkpt>
      <trkpt lat="42.48603" lon="-8.63684">
        <ele>124.2</ele>
        <time>2019-04-17T08:00:12Z</time>
      </trkpt>
      <trkpt lat="42.48604" lon="-8.63684">
        <ele>124.3</ele>
        <time>2019-04-17T08:00:12Z</time>
      </trkpt>
      <trkpt lat="42.48605" lon="-8.63683">
        <ele>124.4</ele>
        <time>2019-04-17T08:00:12Z</time>
      </trkpt>
      <trkpt lat="42.48605" lon="-8.63683">
        <ele>124.5</ele>
        <time>2019-04-17T08:00:12Z</time>
      </trkpt>
      <trkpt lat="42.48606" lon="-8.63683">
        <ele>124.6</ele>
        <time>2019-04-17T08:00:12Z</time>
      </trkpt>
      <trkpt lat="42.48606" lon="-8.63683">
        <ele>124.6</ele>
        <time>2019-04-17T08:00:12Z</time>
      </trkpt>
      <trkpt lat="42.48606" lon="-8.63684">
        <ele>124.7</ele>
        <time>2019-04-17T08:00:12Z</time>
      </trkpt>
      <trkpt lat="42.48606" lon="-8.63684">
        <ele>124.7</ele>
        <time>2019-04-17T08:00:12Z</time>
      </trkpt>
      <trkpt lat="42.48606" lon="-8.63683">
        <ele>124.7</ele>
        <time>2019-04-17T08:00:12Z</time>
      </trkpt>
      <trkpt lat="42.48607" lon="-8.63683">
        <ele>124.7</ele>
        <time>2019-04-17T08:00:12Z</time>
      </trkpt>
      <trkpt lat="42.48607" lon="-8.63682">
        <ele>124.7</ele>
        <time>2019-04-17T08:00:12Z</time>
      </trkpt>
      <trkpt lat="42.48608" lon="-8.63681">
        <ele>124.7</ele>
        <time>2019-04-17T08:00:12Z</time>
      </trkpt>
      <trkpt lat="42.48609" lon="-8.63679">
        <ele>124.8</ele>
        <time>2019-04-17T08:00:12Z</time>
      </trkpt>
      <trkpt lat="42.4861" lon="-8.63678">
        <ele>124.7</ele>
        <time>2019-04-17T08:00:12Z</time>
      </trkpt>
      <trkpt lat="42.48611" lon="-8.63676">
        <ele>124.8</ele>
        <time>2019-04-17T08:00:12Z</time>
      </trkpt>
      <trkpt lat="42.48613" lon="-8.63675">
        <ele>124.8</ele>
        <time>2019-04-17T08:00:12Z</time>
      </trkpt>
      <trkpt lat="42.48614" lon="-8.63673">
        <ele>124.8</ele>
        <time>2019-04-17T08:00:12Z</time>
      </trkpt>
      <trkpt lat="42.48615" lon="-8.6367">
        <ele>124.9</ele>
        <time>2019-04-17T08:00:12Z</time>
      </trkpt>
      <trkpt lat="42.48617" lon="-8.63668">
        <ele>124.9</ele>
        <time>2019-04-17T08:00:12Z</time>
      </trkpt>
      <trkpt lat="42.48618" lon="-8.63666">
        <ele>124.9</ele>
        <time>2019-04-17T08:00:12Z</time>
      </trkpt>
      <trkpt lat="42.4862" lon="-8.63664">
        <ele>125.1</ele>
        <time>2019-04-17T08:00:12Z</time>
      </trkpt>
      <trkpt lat="42.48622" lon="-8.63663">
        <ele>125.4</ele>
        <time>2019-04-17T08:00:12Z</time>
      </trkpt>
      <trkpt lat="42.48623" lon="-8.63661">
        <ele>125.6</ele>
        <time>2019-04-17T08:00:12Z</time>
      </trkpt>
      <trkpt lat="42.48625" lon="-8.6366">
        <ele>125.7</ele>
        <time>2019-04-17T08:00:12Z</time>
      </trkpt>
      <trkpt lat="42.48625" lon="-8.63657">
        <ele>125.6</ele>
        <time>2019-04-17T08:00:12Z</time>
      </trkpt>
      <trkpt lat="42.48626" lon="-8.63655">
        <ele>125.3</ele>
        <time>2019-04-17T08:00:12Z</time>
      </trkpt>
      <trkpt lat="42.48627" lon="-8.63652">
        <ele>125.1</ele>
        <time>2019-04-17T08:00:12Z</time>
      </trkpt>
      <trkpt lat="42.48628" lon="-8.63649">
        <ele>124.9</ele>
        <time>2019-04-17T08:00:12Z</time>
      </trkpt>
      <trkpt lat="42.48629" lon="-8.63646">
        <ele>124.9</ele>
        <time>2019-04-17T08:00:12Z</time>
      </trkpt>
      <trkpt lat="42.4863" lon="-8.63644">
        <ele>125</ele>
        <time>2019-04-17T08:00:12Z</time>
      </trkpt>
      <trkpt lat="42.48632" lon="-8.63642">
        <ele>125.2</ele>
        <time>2019-04-17T08:00:12Z</time>
      </trkpt>
      <trkpt lat="42.48634" lon="-8.63641">
        <ele>125.5</ele>
        <time>2019-04-17T08:00:12Z</time>
      </trkpt>
      <trkpt lat="42.48635" lon="-8.63639">
        <ele>125.8</ele>
        <time>2019-04-17T08:00:12Z</time>
      </trkpt>
      <trkpt lat="42.48637" lon="-8.63638">
        <ele>126.1</ele>
        <time>2019-04-17T08:00:12Z</time>
      </trkpt>
      <trkpt lat="42.48638" lon="-8.63637">
        <ele>126.4</ele>
        <time>2019-04-17T08:00:12Z</time>
      </trkpt>
      <trkpt lat="42.4864" lon="-8.63635">
        <ele>126.7</ele>
        <time>2019-04-17T08:00:12Z</time>
      </trkpt>
      <trkpt lat="42.48641" lon="-8.63634">
        <ele>126.9</ele>
        <time>2019-04-17T08:00:12Z</time>
      </trkpt>
      <trkpt lat="42.48642" lon="-8.63633">
        <ele>126.9</ele>
        <time>2019-04-17T08:00:12Z</time>
      </trkpt>
      <trkpt lat="42.48643" lon="-8.63632">
        <ele>127</ele>
        <time>2019-04-17T08:00:12Z</time>
      </trkpt>
      <trkpt lat="42.48644" lon="-8.63631">
        <ele>127.1</ele>
        <time>2019-04-17T08:00:12Z</time>
      </trkpt>
      <trkpt lat="42.48646" lon="-8.63629">
        <ele>127.1</ele>
        <time>2019-04-17T08:00:12Z</time>
      </trkpt>
      <trkpt lat="42.48647" lon="-8.63627">
        <ele>127.1</ele>
        <time>2019-04-17T08:00:12Z</time>
      </trkpt>
      <trkpt lat="42.48647" lon="-8.63625">
        <ele>126.9</ele>
        <time>2019-04-17T08:00:12Z</time>
      </trkpt>
      <trkpt lat="42.48648" lon="-8.63623">
        <ele>126.8</ele>
        <time>2019-04-17T08:00:12Z</time>
      </trkpt>
      <trkpt lat="42.48649" lon="-8.63621">
        <ele>126.7</ele>
        <time>2019-04-17T08:00:12Z</time>
      </trkpt>
      <trkpt lat="42.48651" lon="-8.63619">
        <ele>126.7</ele>
        <time>2019-04-17T08:00:12Z</time>
      </trkpt>
      <trkpt lat="42.48652" lon="-8.63617">
        <ele>126.9</ele>
        <time>2019-04-17T08:00:12Z</time>
      </trkpt>
      <trkpt lat="42.48654" lon="-8.63616">
        <ele>127</ele>
        <time>2019-04-17T08:00:12Z</time>
      </trkpt>
      <trkpt lat="42.48655" lon="-8.63615">
        <ele>127.2</ele>
        <time>2019-04-17T08:00:12Z</time>
      </trkpt>
      <trkpt lat="42.48657" lon="-8.63615">
        <ele>127.5</ele>
        <time>2019-04-17T08:00:12Z</time>
      </trkpt>
      <trkpt lat="42.48659" lon="-8.63615">
        <ele>127.8</ele>
        <time>2019-04-17T08:00:12Z</time>
      </trkpt>
      <trkpt lat="42.4866" lon="-8.63614">
        <ele>128</ele>
        <time>2019-04-17T08:00:12Z</time>
      </trkpt>
      <trkpt lat="42.4866" lon="-8.63614">
        <ele>128</ele>
        <time>2019-04-17T08:00:12Z</time>
      </trkpt>
      <trkpt lat="42.48661" lon="-8.63613">
        <ele>128.1</ele>
        <time>2019-04-17T08:00:12Z</time>
      </trkpt>
      <trkpt lat="42.48661" lon="-8.63613">
        <ele>128.1</ele>
        <time>2019-04-17T08:00:12Z</time>
      </trkpt>
      <trkpt lat="42.48662" lon="-8.63613">
        <ele>128.2</ele>
        <time>2019-04-17T08:00:12Z</time>
      </trkpt>
      <trkpt lat="42.48662" lon="-8.63612">
        <ele>128.2</ele>
        <time>2019-04-17T08:00:12Z</time>
      </trkpt>
      <trkpt lat="42.48663" lon="-8.63611">
        <ele>128.2</ele>
        <time>2019-04-17T08:00:12Z</time>
      </trkpt>
      <trkpt lat="42.48664" lon="-8.6361">
        <ele>128.3</ele>
        <time>2019-04-17T08:00:12Z</time>
      </trkpt>
      <trkpt lat="42.48665" lon="-8.63608">
        <ele>128.5</ele>
        <time>2019-04-17T08:00:12Z</time>
      </trkpt>
      <trkpt lat="42.48666" lon="-8.63607">
        <ele>128.6</ele>
        <time>2019-04-17T08:00:12Z</time>
      </trkpt>
      <trkpt lat="42.48666" lon="-8.63605">
        <ele>128.6</ele>
        <time>2019-04-17T08:00:12Z</time>
      </trkpt>
      <trkpt lat="42.48666" lon="-8.63603">
        <ele>128.6</ele>
        <time>2019-04-17T08:00:12Z</time>
      </trkpt>
      <trkpt lat="42.48666" lon="-8.636">
        <ele>128.5</ele>
        <time>2019-04-17T08:00:12Z</time>
      </trkpt>
      <trkpt lat="42.48666" lon="-8.63597">
        <ele>128.4</ele>
        <time>2019-04-17T08:00:12Z</time>
      </trkpt>
      <trkpt lat="42.48667" lon="-8.63595">
        <ele>128.4</ele>
        <time>2019-04-17T08:00:12Z</time>
      </trkpt>
      <trkpt lat="42.48667" lon="-8.63592">
        <ele>128.4</ele>
        <time>2019-04-17T08:00:12Z</time>
      </trkpt>
      <trkpt lat="42.48668" lon="-8.6359">
        <ele>128.5</ele>
        <time>2019-04-17T08:00:12Z</time>
      </trkpt>
      <trkpt lat="42.48668" lon="-8.63587">
        <ele>128.5</ele>
        <time>2019-04-17T08:00:12Z</time>
      </trkpt>
      <trkpt lat="42.48669" lon="-8.63585">
        <ele>128.7</ele>
        <time>2019-04-17T08:00:12Z</time>
      </trkpt>
      <trkpt lat="42.4867" lon="-8.63583">
        <ele>128.6</ele>
        <time>2019-04-17T08:00:12Z</time>
      </trkpt>
      <trkpt lat="42.48671" lon="-8.6358">
        <ele>128.4</ele>
        <time>2019-04-17T08:00:12Z</time>
      </trkpt>
      <trkpt lat="42.48671" lon="-8.63579">
        <ele>128.3</ele>
        <time>2019-04-17T08:00:12Z</time>
      </trkpt>
      <trkpt lat="42.48672" lon="-8.63577">
        <ele>128.1</ele>
        <time>2019-04-17T08:00:12Z</time>
      </trkpt>
      <trkpt lat="42.48673" lon="-8.63575">
        <ele>128</ele>
        <time>2019-04-17T08:00:12Z</time>
      </trkpt>
      <trkpt lat="42.48674" lon="-8.63573">
        <ele>128</ele>
        <time>2019-04-17T08:00:12Z</time>
      </trkpt>
      <trkpt lat="42.48675" lon="-8.63572">
        <ele>128</ele>
        <time>2019-04-17T08:00:12Z</time>
      </trkpt>
      <trkpt lat="42.48677" lon="-8.6357">
        <ele>128</ele>
        <time>2019-04-17T08:00:12Z</time>
      </trkpt>
      <trkpt lat="42.48678" lon="-8.63569">
        <ele>128.1</ele>
        <time>2019-04-17T08:00:12Z</time>
      </trkpt>
      <trkpt lat="42.48679" lon="-8.63567">
        <ele>128.2</ele>
        <time>2019-04-17T08:00:12Z</time>
      </trkpt>
      <trkpt lat="42.48681" lon="-8.63566">
        <ele>128.3</ele>
        <time>2019-04-17T08:00:12Z</time>
      </trkpt>
      <trkpt lat="42.48681" lon="-8.63566">
        <ele>128.2</ele>
        <time>2019-04-17T08:00:12Z</time>
      </trkpt>
      <trkpt lat="42.48681" lon="-8.63565">
        <ele>128.2</ele>
        <time>2019-04-17T08:00:12Z</time>
      </trkpt>
      <trkpt lat="42.48681" lon="-8.63565">
        <ele>128.2</ele>
        <time>2019-04-17T08:00:12Z</time>
      </trkpt>
      <trkpt lat="42.48682" lon="-8.63565">
        <ele>128.2</ele>
        <time>2019-04-17T08:00:12Z</time>
      </trkpt>
      <trkpt lat="42.48682" lon="-8.63564">
        <ele>128.3</ele>
        <time>2019-04-17T08:00:12Z</time>
      </trkpt>
      <trkpt lat="42.48683" lon="-8.63563">
        <ele>128.4</ele>
        <time>2019-04-17T08:00:12Z</time>
      </trkpt>
      <trkpt lat="42.48684" lon="-8.63563">
        <ele>128.5</ele>
        <time>2019-04-17T08:00:12Z</time>
      </trkpt>
      <trkpt lat="42.48685" lon="-8.63562">
        <ele>128.7</ele>
        <time>2019-04-17T08:00:12Z</time>
      </trkpt>
      <trkpt lat="42.48686" lon="-8.63562">
        <ele>128.9</ele>
        <time>2019-04-17T08:00:12Z</time>
      </trkpt>
      <trkpt lat="42.48687" lon="-8.63561">
        <ele>129</ele>
        <time>2019-04-17T08:00:12Z</time>
      </trkpt>
      <trkpt lat="42.48688" lon="-8.63561">
        <ele>129.3</ele>
        <time>2019-04-17T08:00:12Z</time>
      </trkpt>
      <trkpt lat="42.48689" lon="-8.6356">
        <ele>129.5</ele>
        <time>2019-04-17T08:00:12Z</time>
      </trkpt>
      <trkpt lat="42.4869" lon="-8.6356">
        <ele>129.7</ele>
        <time>2019-04-17T08:00:12Z</time>
      </trkpt>
      <trkpt lat="42.48691" lon="-8.6356">
        <ele>129.8</ele>
        <time>2019-04-17T08:00:12Z</time>
      </trkpt>
      <trkpt lat="42.48691" lon="-8.6356">
        <ele>129.9</ele>
        <time>2019-04-17T08:00:12Z</time>
      </trkpt>
      <trkpt lat="42.48691" lon="-8.6356">
        <ele>130</ele>
        <time>2019-04-17T08:00:12Z</time>
      </trkpt>
      <trkpt lat="42.48693" lon="-8.6356">
        <ele>130.3</ele>
        <time>2019-04-17T08:00:12Z</time>
      </trkpt>
      <trkpt lat="42.48694" lon="-8.6356">
        <ele>130.8</ele>
        <time>2019-04-17T08:00:12Z</time>
      </trkpt>
      <trkpt lat="42.48696" lon="-8.6356">
        <ele>131.2</ele>
        <time>2019-04-17T08:00:12Z</time>
      </trkpt>
      <trkpt lat="42.48697" lon="-8.63561">
        <ele>131.4</ele>
        <time>2019-04-17T08:00:12Z</time>
      </trkpt>
      <trkpt lat="42.48698" lon="-8.63562">
        <ele>131.7</ele>
        <time>2019-04-17T08:00:12Z</time>
      </trkpt>
      <trkpt lat="42.487" lon="-8.63563">
        <ele>132</ele>
        <time>2019-04-17T08:00:12Z</time>
      </trkpt>
      <trkpt lat="42.48701" lon="-8.63563">
        <ele>132.3</ele>
        <time>2019-04-17T08:00:12Z</time>
      </trkpt>
      <trkpt lat="42.48703" lon="-8.63563">
        <ele>132.5</ele>
        <time>2019-04-17T08:00:12Z</time>
      </trkpt>
      <trkpt lat="42.48705" lon="-8.63563">
        <ele>132.6</ele>
        <time>2019-04-17T08:00:12Z</time>
      </trkpt>
      <trkpt lat="42.48706" lon="-8.63563">
        <ele>132.7</ele>
        <time>2019-04-17T08:00:12Z</time>
      </trkpt>
      <trkpt lat="42.48708" lon="-8.63563">
        <ele>132.9</ele>
        <time>2019-04-17T08:00:12Z</time>
      </trkpt>
      <trkpt lat="42.4871" lon="-8.63562">
        <ele>133</ele>
        <time>2019-04-17T08:00:12Z</time>
      </trkpt>
      <trkpt lat="42.48712" lon="-8.63562">
        <ele>133.1</ele>
        <time>2019-04-17T08:00:12Z</time>
      </trkpt>
      <trkpt lat="42.48714" lon="-8.63561">
        <ele>133.1</ele>
        <time>2019-04-17T08:00:12Z</time>
      </trkpt>
      <trkpt lat="42.48716" lon="-8.6356">
        <ele>133.2</ele>
        <time>2019-04-17T08:00:12Z</time>
      </trkpt>
      <trkpt lat="42.48717" lon="-8.6356">
        <ele>133.3</ele>
        <time>2019-04-17T08:00:12Z</time>
      </trkpt>
      <trkpt lat="42.48719" lon="-8.6356">
        <ele>133.5</ele>
        <time>2019-04-17T08:00:12Z</time>
      </trkpt>
      <trkpt lat="42.48721" lon="-8.6356">
        <ele>133.6</ele>
        <time>2019-04-17T08:00:12Z</time>
      </trkpt>
      <trkpt lat="42.48722" lon="-8.63559">
        <ele>133.6</ele>
        <time>2019-04-17T08:00:12Z</time>
      </trkpt>
      <trkpt lat="42.48724" lon="-8.63558">
        <ele>133.8</ele>
        <time>2019-04-17T08:00:12Z</time>
      </trkpt>
      <trkpt lat="42.48726" lon="-8.63557">
        <ele>133.9</ele>
        <time>2019-04-17T08:00:12Z</time>
      </trkpt>
      <trkpt lat="42.48728" lon="-8.63556">
        <ele>134</ele>
        <time>2019-04-17T08:00:12Z</time>
      </trkpt>
      <trkpt lat="42.48729" lon="-8.63555">
        <ele>134</ele>
        <time>2019-04-17T08:00:12Z</time>
      </trkpt>
      <trkpt lat="42.48731" lon="-8.63554">
        <ele>134</ele>
        <time>2019-04-17T08:00:12Z</time>
      </trkpt>
      <trkpt lat="42.48733" lon="-8.63552">
        <ele>133.8</ele>
        <time>2019-04-17T08:00:12Z</time>
      </trkpt>
      <trkpt lat="42.48734" lon="-8.63551">
        <ele>133.6</ele>
        <time>2019-04-17T08:00:12Z</time>
      </trkpt>
      <trkpt lat="42.48736" lon="-8.63549">
        <ele>133.3</ele>
        <time>2019-04-17T08:00:12Z</time>
      </trkpt>
      <trkpt lat="42.48737" lon="-8.63548">
        <ele>133.2</ele>
        <time>2019-04-17T08:00:12Z</time>
      </trkpt>
      <trkpt lat="42.48739" lon="-8.63546">
        <ele>133.1</ele>
        <time>2019-04-17T08:00:12Z</time>
      </trkpt>
      <trkpt lat="42.48741" lon="-8.63544">
        <ele>132.9</ele>
        <time>2019-04-17T08:00:12Z</time>
      </trkpt>
      <trkpt lat="42.48743" lon="-8.63543">
        <ele>132.8</ele>
        <time>2019-04-17T08:00:12Z</time>
      </trkpt>
      <trkpt lat="42.48745" lon="-8.63542">
        <ele>132.7</ele>
        <time>2019-04-17T08:00:12Z</time>
      </trkpt>
      <trkpt lat="42.48747" lon="-8.6354">
        <ele>132.6</ele>
        <time>2019-04-17T08:00:12Z</time>
      </trkpt>
      <trkpt lat="42.48749" lon="-8.63539">
        <ele>132.5</ele>
        <time>2019-04-17T08:00:12Z</time>
      </trkpt>
      <trkpt lat="42.48751" lon="-8.63537">
        <ele>132.3</ele>
        <time>2019-04-17T08:00:12Z</time>
      </trkpt>
      <trkpt lat="42.48753" lon="-8.63536">
        <ele>132.4</ele>
        <time>2019-04-17T08:00:12Z</time>
      </trkpt>
      <trkpt lat="42.48755" lon="-8.63534">
        <ele>132.4</ele>
        <time>2019-04-17T08:00:12Z</time>
      </trkpt>
      <trkpt lat="42.48757" lon="-8.63533">
        <ele>132.6</ele>
        <time>2019-04-17T08:00:12Z</time>
      </trkpt>
      <trkpt lat="42.48759" lon="-8.63531">
        <ele>132.8</ele>
        <time>2019-04-17T08:00:12Z</time>
      </trkpt>
      <trkpt lat="42.48761" lon="-8.6353">
        <ele>133</ele>
        <time>2019-04-17T08:00:12Z</time>
      </trkpt>
      <trkpt lat="42.48763" lon="-8.63528">
        <ele>133.2</ele>
        <time>2019-04-17T08:00:12Z</time>
      </trkpt>
      <trkpt lat="42.48765" lon="-8.63526">
        <ele>133.3</ele>
        <time>2019-04-17T08:00:12Z</time>
      </trkpt>
      <trkpt lat="42.48767" lon="-8.63524">
        <ele>133.5</ele>
        <time>2019-04-17T08:00:12Z</time>
      </trkpt>
      <trkpt lat="42.48769" lon="-8.63523">
        <ele>133.7</ele>
        <time>2019-04-17T08:00:12Z</time>
      </trkpt>
      <trkpt lat="42.4877" lon="-8.63521">
        <ele>133.8</ele>
        <time>2019-04-17T08:00:12Z</time>
      </trkpt>
      <trkpt lat="42.48771" lon="-8.6352">
        <ele>133.8</ele>
        <time>2019-04-17T08:00:12Z</time>
      </trkpt>
      <trkpt lat="42.48772" lon="-8.63518">
        <ele>133.7</ele>
        <time>2019-04-17T08:00:12Z</time>
      </trkpt>
      <trkpt lat="42.48773" lon="-8.63517">
        <ele>133.7</ele>
        <time>2019-04-17T08:00:12Z</time>
      </trkpt>
      <trkpt lat="42.48774" lon="-8.63516">
        <ele>133.8</ele>
        <time>2019-04-17T08:00:12Z</time>
      </trkpt>
      <trkpt lat="42.48776" lon="-8.63515">
        <ele>134</ele>
        <time>2019-04-17T08:00:12Z</time>
      </trkpt>
      <trkpt lat="42.48777" lon="-8.63514">
        <ele>134.4</ele>
        <time>2019-04-17T08:00:12Z</time>
      </trkpt>
      <trkpt lat="42.48779" lon="-8.63513">
        <ele>134.5</ele>
        <time>2019-04-17T08:00:12Z</time>
      </trkpt>
      <trkpt lat="42.4878" lon="-8.63512">
        <ele>134.5</ele>
        <time>2019-04-17T08:00:12Z</time>
      </trkpt>
      <trkpt lat="42.48782" lon="-8.6351">
        <ele>134.6</ele>
        <time>2019-04-17T08:00:12Z</time>
      </trkpt>
      <trkpt lat="42.48784" lon="-8.63509">
        <ele>134.8</ele>
        <time>2019-04-17T08:00:12Z</time>
      </trkpt>
      <trkpt lat="42.48785" lon="-8.63508">
        <ele>135</ele>
        <time>2019-04-17T08:00:12Z</time>
      </trkpt>
      <trkpt lat="42.48787" lon="-8.63508">
        <ele>135.2</ele>
        <time>2019-04-17T08:00:12Z</time>
      </trkpt>
      <trkpt lat="42.48788" lon="-8.63507">
        <ele>135.4</ele>
        <time>2019-04-17T08:00:12Z</time>
      </trkpt>
      <trkpt lat="42.48789" lon="-8.63506">
        <ele>135.5</ele>
        <time>2019-04-17T08:00:12Z</time>
      </trkpt>
      <trkpt lat="42.48789" lon="-8.63506">
        <ele>135.5</ele>
        <time>2019-04-17T08:00:12Z</time>
      </trkpt>
      <trkpt lat="42.4879" lon="-8.63506">
        <ele>135.6</ele>
        <time>2019-04-17T08:00:12Z</time>
      </trkpt>
      <trkpt lat="42.48791" lon="-8.63505">
        <ele>135.7</ele>
        <time>2019-04-17T08:00:12Z</time>
      </trkpt>
      <trkpt lat="42.48792" lon="-8.63504">
        <ele>135.8</ele>
        <time>2019-04-17T08:00:12Z</time>
      </trkpt>
      <trkpt lat="42.48792" lon="-8.63504">
        <ele>135.8</ele>
        <time>2019-04-17T08:00:12Z</time>
      </trkpt>
      <trkpt lat="42.48793" lon="-8.63503">
        <ele>136</ele>
        <time>2019-04-17T08:00:12Z</time>
      </trkpt>
      <trkpt lat="42.48794" lon="-8.63503">
        <ele>136.1</ele>
        <time>2019-04-17T08:00:12Z</time>
      </trkpt>
      <trkpt lat="42.48795" lon="-8.63503">
        <ele>136.4</ele>
        <time>2019-04-17T08:00:12Z</time>
      </trkpt>
      <trkpt lat="42.48796" lon="-8.63503">
        <ele>136.7</ele>
        <time>2019-04-17T08:00:12Z</time>
      </trkpt>
      <trkpt lat="42.48797" lon="-8.63503">
        <ele>136.8</ele>
        <time>2019-04-17T08:00:12Z</time>
      </trkpt>
      <trkpt lat="42.48797" lon="-8.63502">
        <ele>137</ele>
        <time>2019-04-17T08:00:12Z</time>
      </trkpt>
      <trkpt lat="42.48798" lon="-8.63503">
        <ele>137.2</ele>
        <time>2019-04-17T08:00:12Z</time>
      </trkpt>
      <trkpt lat="42.48798" lon="-8.63503">
        <ele>137.3</ele>
        <time>2019-04-17T08:00:12Z</time>
      </trkpt>
      <trkpt lat="42.48799" lon="-8.63502">
        <ele>137.4</ele>
        <time>2019-04-17T08:00:12Z</time>
      </trkpt>
      <trkpt lat="42.48799" lon="-8.63502">
        <ele>137.5</ele>
        <time>2019-04-17T08:00:12Z</time>
      </trkpt>
      <trkpt lat="42.48799" lon="-8.63502">
        <ele>137.5</ele>
        <time>2019-04-17T08:00:12Z</time>
      </trkpt>
      <trkpt lat="42.488" lon="-8.63502">
        <ele>137.6</ele>
        <time>2019-04-17T08:00:12Z</time>
      </trkpt>
      <trkpt lat="42.488" lon="-8.63502">
        <ele>137.8</ele>
        <time>2019-04-17T08:00:12Z</time>
      </trkpt>
      <trkpt lat="42.48801" lon="-8.63503">
        <ele>138</ele>
        <time>2019-04-17T08:00:12Z</time>
      </trkpt>
      <trkpt lat="42.48801" lon="-8.63503">
        <ele>138.2</ele>
        <time>2019-04-17T08:00:12Z</time>
      </trkpt>
      <trkpt lat="42.48802" lon="-8.63503">
        <ele>138.4</ele>
        <time>2019-04-17T08:00:12Z</time>
      </trkpt>
      <trkpt lat="42.48802" lon="-8.63504">
        <ele>138.4</ele>
        <time>2019-04-17T08:00:12Z</time>
      </trkpt>
      <trkpt lat="42.48802" lon="-8.63504">
        <ele>138.5</ele>
        <time>2019-04-17T08:00:12Z</time>
      </trkpt>
      <trkpt lat="42.48802" lon="-8.63505">
        <ele>138.6</ele>
        <time>2019-04-17T08:00:12Z</time>
      </trkpt>
      <trkpt lat="42.48802" lon="-8.63505">
        <ele>138.7</ele>
        <time>2019-04-17T08:00:12Z</time>
      </trkpt>
      <trkpt lat="42.48803" lon="-8.63506">
        <ele>139</ele>
        <time>2019-04-17T08:00:12Z</time>
      </trkpt>
      <trkpt lat="42.48803" lon="-8.63506">
        <ele>139.2</ele>
        <time>2019-04-17T08:00:12Z</time>
      </trkpt>
      <trkpt lat="42.48804" lon="-8.63505">
        <ele>139.3</ele>
        <time>2019-04-17T08:00:12Z</time>
      </trkpt>
      <trkpt lat="42.48804" lon="-8.63505">
        <ele>139.4</ele>
        <time>2019-04-17T08:00:12Z</time>
      </trkpt>
      <trkpt lat="42.48805" lon="-8.63505">
        <ele>139.5</ele>
        <time>2019-04-17T08:00:12Z</time>
      </trkpt>
      <trkpt lat="42.48805" lon="-8.63505">
        <ele>139.6</ele>
        <time>2019-04-17T08:00:12Z</time>
      </trkpt>
      <trkpt lat="42.48806" lon="-8.63505">
        <ele>139.7</ele>
        <time>2019-04-17T08:00:12Z</time>
      </trkpt>
      <trkpt lat="42.48806" lon="-8.63505">
        <ele>139.7</ele>
        <time>2019-04-17T08:00:12Z</time>
      </trkpt>
      <trkpt lat="42.48806" lon="-8.63505">
        <ele>139.7</ele>
        <time>2019-04-17T08:00:12Z</time>
      </trkpt>
      <trkpt lat="42.48806" lon="-8.63505">
        <ele>139.7</ele>
        <time>2019-04-17T08:00:12Z</time>
      </trkpt>
      <trkpt lat="42.48806" lon="-8.63505">
        <ele>139.7</ele>
        <time>2019-04-17T08:00:12Z</time>
      </trkpt>
      <trkpt lat="42.48806" lon="-8.63505">
        <ele>139.7</ele>
        <time>2019-04-17T08:00:12Z</time>
      </trkpt>
      <trkpt lat="42.48806" lon="-8.63505">
        <ele>139.8</ele>
        <time>2019-04-17T08:00:12Z</time>
      </trkpt>
      <trkpt lat="42.48807" lon="-8.63505">
        <ele>139.8</ele>
        <time>2019-04-17T08:00:12Z</time>
      </trkpt>
      <trkpt lat="42.48807" lon="-8.63505">
        <ele>139.8</ele>
        <time>2019-04-17T08:00:12Z</time>
      </trkpt>
      <trkpt lat="42.48807" lon="-8.63505">
        <ele>139.8</ele>
        <time>2019-04-17T08:00:12Z</time>
      </trkpt>
      <trkpt lat="42.48807" lon="-8.63505">
        <ele>139.8</ele>
        <time>2019-04-17T08:00:12Z</time>
      </trkpt>
      <trkpt lat="42.48807" lon="-8.63505">
        <ele>139.9</ele>
        <time>2019-04-17T08:00:12Z</time>
      </trkpt>
      <trkpt lat="42.48808" lon="-8.63505">
        <ele>139.9</ele>
        <time>2019-04-17T08:00:12Z</time>
      </trkpt>
      <trkpt lat="42.48809" lon="-8.63505">
        <ele>140</ele>
        <time>2019-04-17T08:00:12Z</time>
      </trkpt>
      <trkpt lat="42.48809" lon="-8.63504">
        <ele>140</ele>
        <time>2019-04-17T08:00:12Z</time>
      </trkpt>
      <trkpt lat="42.48809" lon="-8.63504">
        <ele>139.9</ele>
        <time>2019-04-17T08:00:12Z</time>
      </trkpt>
      <trkpt lat="42.48809" lon="-8.63504">
        <ele>139.9</ele>
        <time>2019-04-17T08:00:12Z</time>
      </trkpt>
      <trkpt lat="42.48809" lon="-8.63504">
        <ele>140</ele>
        <time>2019-04-17T08:00:12Z</time>
      </trkpt>
      <trkpt lat="42.4881" lon="-8.63504">
        <ele>140</ele>
        <time>2019-04-17T08:00:12Z</time>
      </trkpt>
      <trkpt lat="42.48811" lon="-8.63503">
        <ele>140</ele>
        <time>2019-04-17T08:00:12Z</time>
      </trkpt>
      <trkpt lat="42.48812" lon="-8.63502">
        <ele>140</ele>
        <time>2019-04-17T08:00:12Z</time>
      </trkpt>
      <trkpt lat="42.48813" lon="-8.63501">
        <ele>139.9</ele>
        <time>2019-04-17T08:00:12Z</time>
      </trkpt>
      <trkpt lat="42.48814" lon="-8.63499">
        <ele>139.9</ele>
        <time>2019-04-17T08:00:12Z</time>
      </trkpt>
      <trkpt lat="42.48815" lon="-8.63497">
        <ele>140</ele>
        <time>2019-04-17T08:00:12Z</time>
      </trkpt>
      <trkpt lat="42.48816" lon="-8.63495">
        <ele>140.1</ele>
        <time>2019-04-17T08:00:12Z</time>
      </trkpt>
      <trkpt lat="42.48816" lon="-8.63492">
        <ele>140.2</ele>
        <time>2019-04-17T08:00:12Z</time>
      </trkpt>
      <trkpt lat="42.48817" lon="-8.6349">
        <ele>140.3</ele>
        <time>2019-04-17T08:00:12Z</time>
      </trkpt>
      <trkpt lat="42.48818" lon="-8.63488">
        <ele>140.4</ele>
        <time>2019-04-17T08:00:12Z</time>
      </trkpt>
      <trkpt lat="42.4882" lon="-8.63487">
        <ele>140.5</ele>
        <time>2019-04-17T08:00:12Z</time>
      </trkpt>
      <trkpt lat="42.48821" lon="-8.63485">
        <ele>140.7</ele>
        <time>2019-04-17T08:00:12Z</time>
      </trkpt>
      <trkpt lat="42.48823" lon="-8.63484">
        <ele>140.8</ele>
        <time>2019-04-17T08:00:12Z</time>
      </trkpt>
      <trkpt lat="42.48824" lon="-8.63483">
        <ele>141</ele>
        <time>2019-04-17T08:00:12Z</time>
      </trkpt>
      <trkpt lat="42.48826" lon="-8.63482">
        <ele>141.2</ele>
        <time>2019-04-17T08:00:12Z</time>
      </trkpt>
      <trkpt lat="42.48827" lon="-8.6348">
        <ele>141.4</ele>
        <time>2019-04-17T08:00:12Z</time>
      </trkpt>
      <trkpt lat="42.48829" lon="-8.63479">
        <ele>141.6</ele>
        <time>2019-04-17T08:00:12Z</time>
      </trkpt>
      <trkpt lat="42.48831" lon="-8.63477">
        <ele>141.7</ele>
        <time>2019-04-17T08:00:12Z</time>
      </trkpt>
      <trkpt lat="42.48832" lon="-8.63476">
        <ele>141.9</ele>
        <time>2019-04-17T08:00:12Z</time>
      </trkpt>
      <trkpt lat="42.48834" lon="-8.63474">
        <ele>142</ele>
        <time>2019-04-17T08:00:12Z</time>
      </trkpt>
      <trkpt lat="42.48835" lon="-8.63473">
        <ele>142.2</ele>
        <time>2019-04-17T08:00:12Z</time>
      </trkpt>
      <trkpt lat="42.48836" lon="-8.63472">
        <ele>142.3</ele>
        <time>2019-04-17T08:00:12Z</time>
      </trkpt>
      <trkpt lat="42.48838" lon="-8.63471">
        <ele>142.6</ele>
        <time>2019-04-17T08:00:12Z</time>
      </trkpt>
      <trkpt lat="42.48839" lon="-8.63469">
        <ele>142.9</ele>
        <time>2019-04-17T08:00:12Z</time>
      </trkpt>
      <trkpt lat="42.4884" lon="-8.63468">
        <ele>143.2</ele>
        <time>2019-04-17T08:00:12Z</time>
      </trkpt>
      <trkpt lat="42.48842" lon="-8.63467">
        <ele>143.4</ele>
        <time>2019-04-17T08:00:12Z</time>
      </trkpt>
      <trkpt lat="42.48843" lon="-8.63466">
        <ele>143.6</ele>
        <time>2019-04-17T08:00:12Z</time>
      </trkpt>
      <trkpt lat="42.48845" lon="-8.63466">
        <ele>143.9</ele>
        <time>2019-04-17T08:00:12Z</time>
      </trkpt>
      <trkpt lat="42.48846" lon="-8.63465">
        <ele>144.1</ele>
        <time>2019-04-17T08:00:12Z</time>
      </trkpt>
      <trkpt lat="42.48848" lon="-8.63464">
        <ele>144.3</ele>
        <time>2019-04-17T08:00:12Z</time>
      </trkpt>
      <trkpt lat="42.48849" lon="-8.63463">
        <ele>144.5</ele>
        <time>2019-04-17T08:00:12Z</time>
      </trkpt>
      <trkpt lat="42.48851" lon="-8.63462">
        <ele>144.7</ele>
        <time>2019-04-17T08:00:12Z</time>
      </trkpt>
      <trkpt lat="42.48852" lon="-8.63461">
        <ele>145</ele>
        <time>2019-04-17T08:00:12Z</time>
      </trkpt>
      <trkpt lat="42.48854" lon="-8.6346">
        <ele>145.2</ele>
        <time>2019-04-17T08:00:12Z</time>
      </trkpt>
      <trkpt lat="42.48855" lon="-8.63459">
        <ele>145.4</ele>
        <time>2019-04-17T08:00:12Z</time>
      </trkpt>
      <trkpt lat="42.48857" lon="-8.63459">
        <ele>145.6</ele>
        <time>2019-04-17T08:00:12Z</time>
      </trkpt>
      <trkpt lat="42.48858" lon="-8.63458">
        <ele>145.8</ele>
        <time>2019-04-17T08:00:12Z</time>
      </trkpt>
      <trkpt lat="42.4886" lon="-8.63457">
        <ele>145.9</ele>
        <time>2019-04-17T08:00:12Z</time>
      </trkpt>
      <trkpt lat="42.48861" lon="-8.63457">
        <ele>146.1</ele>
        <time>2019-04-17T08:00:12Z</time>
      </trkpt>
      <trkpt lat="42.48863" lon="-8.63456">
        <ele>146.3</ele>
        <time>2019-04-17T08:00:12Z</time>
      </trkpt>
      <trkpt lat="42.48864" lon="-8.63456">
        <ele>146.5</ele>
        <time>2019-04-17T08:00:12Z</time>
      </trkpt>
      <trkpt lat="42.48866" lon="-8.63456">
        <ele>146.7</ele>
        <time>2019-04-17T08:00:12Z</time>
      </trkpt>
      <trkpt lat="42.48867" lon="-8.63456">
        <ele>146.8</ele>
        <time>2019-04-17T08:00:12Z</time>
      </trkpt>
      <trkpt lat="42.48869" lon="-8.63457">
        <ele>147</ele>
        <time>2019-04-17T08:00:12Z</time>
      </trkpt>
      <trkpt lat="42.4887" lon="-8.63457">
        <ele>147.1</ele>
        <time>2019-04-17T08:00:12Z</time>
      </trkpt>
      <trkpt lat="42.48872" lon="-8.63457">
        <ele>147.3</ele>
        <time>2019-04-17T08:00:12Z</time>
      </trkpt>
      <trkpt lat="42.48874" lon="-8.63458">
        <ele>147.4</ele>
        <time>2019-04-17T08:00:12Z</time>
      </trkpt>
      <trkpt lat="42.48875" lon="-8.63458">
        <ele>147.6</ele>
        <time>2019-04-17T08:00:12Z</time>
      </trkpt>
      <trkpt lat="42.48877" lon="-8.63458">
        <ele>147.8</ele>
        <time>2019-04-17T08:00:12Z</time>
      </trkpt>
      <trkpt lat="42.48879" lon="-8.63458">
        <ele>147.9</ele>
        <time>2019-04-17T08:00:12Z</time>
      </trkpt>
      <trkpt lat="42.4888" lon="-8.63458">
        <ele>148.1</ele>
        <time>2019-04-17T08:00:12Z</time>
      </trkpt>
      <trkpt lat="42.48882" lon="-8.63459">
        <ele>148.2</ele>
        <time>2019-04-17T08:00:12Z</time>
      </trkpt>
      <trkpt lat="42.48884" lon="-8.63458">
        <ele>148.4</ele>
        <time>2019-04-17T08:00:12Z</time>
      </trkpt>
      <trkpt lat="42.48885" lon="-8.63458">
        <ele>148.7</ele>
        <time>2019-04-17T08:00:12Z</time>
      </trkpt>
      <trkpt lat="42.48887" lon="-8.63458">
        <ele>148.9</ele>
        <time>2019-04-17T08:00:12Z</time>
      </trkpt>
      <trkpt lat="42.48889" lon="-8.63458">
        <ele>149.1</ele>
        <time>2019-04-17T08:00:12Z</time>
      </trkpt>
      <trkpt lat="42.4889" lon="-8.63457">
        <ele>149.3</ele>
        <time>2019-04-17T08:00:12Z</time>
      </trkpt>
      <trkpt lat="42.48892" lon="-8.63457">
        <ele>149.4</ele>
        <time>2019-04-17T08:00:12Z</time>
      </trkpt>
      <trkpt lat="42.48894" lon="-8.63457">
        <ele>149.5</ele>
        <time>2019-04-17T08:00:12Z</time>
      </trkpt>
      <trkpt lat="42.48895" lon="-8.63456">
        <ele>149.6</ele>
        <time>2019-04-17T08:00:12Z</time>
      </trkpt>
      <trkpt lat="42.48897" lon="-8.63456">
        <ele>149.8</ele>
        <time>2019-04-17T08:00:12Z</time>
      </trkpt>
      <trkpt lat="42.48899" lon="-8.63455">
        <ele>149.9</ele>
        <time>2019-04-17T08:00:12Z</time>
      </trkpt>
      <trkpt lat="42.489" lon="-8.63454">
        <ele>150.1</ele>
        <time>2019-04-17T08:00:12Z</time>
      </trkpt>
      <trkpt lat="42.48902" lon="-8.63454">
        <ele>150.3</ele>
        <time>2019-04-17T08:00:12Z</time>
      </trkpt>
      <trkpt lat="42.48904" lon="-8.63453">
        <ele>150.5</ele>
        <time>2019-04-17T08:00:12Z</time>
      </trkpt>
      <trkpt lat="42.48906" lon="-8.63453">
        <ele>150.6</ele>
        <time>2019-04-17T08:00:12Z</time>
      </trkpt>
      <trkpt lat="42.48907" lon="-8.63452">
        <ele>150.8</ele>
        <time>2019-04-17T08:00:12Z</time>
      </trkpt>
      <trkpt lat="42.48909" lon="-8.63451">
        <ele>150.9</ele>
        <time>2019-04-17T08:00:12Z</time>
      </trkpt>
      <trkpt lat="42.48911" lon="-8.63451">
        <ele>151.1</ele>
        <time>2019-04-17T08:00:12Z</time>
      </trkpt>
      <trkpt lat="42.48912" lon="-8.6345">
        <ele>151.2</ele>
        <time>2019-04-17T08:00:12Z</time>
      </trkpt>
      <trkpt lat="42.48914" lon="-8.6345">
        <ele>151.3</ele>
        <time>2019-04-17T08:00:12Z</time>
      </trkpt>
      <trkpt lat="42.48916" lon="-8.63449">
        <ele>151.5</ele>
        <time>2019-04-17T08:00:12Z</time>
      </trkpt>
      <trkpt lat="42.48917" lon="-8.63448">
        <ele>151.6</ele>
        <time>2019-04-17T08:00:12Z</time>
      </trkpt>
      <trkpt lat="42.48919" lon="-8.63448">
        <ele>151.7</ele>
        <time>2019-04-17T08:00:12Z</time>
      </trkpt>
      <trkpt lat="42.48921" lon="-8.63447">
        <ele>151.7</ele>
        <time>2019-04-17T08:00:12Z</time>
      </trkpt>
      <trkpt lat="42.48922" lon="-8.63447">
        <ele>151.8</ele>
        <time>2019-04-17T08:00:12Z</time>
      </trkpt>
      <trkpt lat="42.48924" lon="-8.63447">
        <ele>151.8</ele>
        <time>2019-04-17T08:00:12Z</time>
      </trkpt>
      <trkpt lat="42.48926" lon="-8.63446">
        <ele>151.8</ele>
        <time>2019-04-17T08:00:12Z</time>
      </trkpt>
      <trkpt lat="42.48927" lon="-8.63446">
        <ele>151.9</ele>
        <time>2019-04-17T08:00:12Z</time>
      </trkpt>
      <trkpt lat="42.48929" lon="-8.63446">
        <ele>151.9</ele>
        <time>2019-04-17T08:00:12Z</time>
      </trkpt>
      <trkpt lat="42.48931" lon="-8.63446">
        <ele>151.9</ele>
        <time>2019-04-17T08:00:12Z</time>
      </trkpt>
      <trkpt lat="42.48932" lon="-8.63445">
        <ele>152</ele>
        <time>2019-04-17T08:00:12Z</time>
      </trkpt>
      <trkpt lat="42.48933" lon="-8.63444">
        <ele>152</ele>
        <time>2019-04-17T08:00:12Z</time>
      </trkpt>
      <trkpt lat="42.48935" lon="-8.63444">
        <ele>152.1</ele>
        <time>2019-04-17T08:00:12Z</time>
      </trkpt>
      <trkpt lat="42.48937" lon="-8.63444">
        <ele>152.1</ele>
        <time>2019-04-17T08:00:12Z</time>
      </trkpt>
      <trkpt lat="42.48938" lon="-8.63443">
        <ele>152.2</ele>
        <time>2019-04-17T08:00:12Z</time>
      </trkpt>
      <trkpt lat="42.4894" lon="-8.63443">
        <ele>152.3</ele>
        <time>2019-04-17T08:00:12Z</time>
      </trkpt>
      <trkpt lat="42.48942" lon="-8.63442">
        <ele>152.3</ele>
        <time>2019-04-17T08:00:12Z</time>
      </trkpt>
      <trkpt lat="42.48944" lon="-8.63442">
        <ele>152.4</ele>
        <time>2019-04-17T08:00:12Z</time>
      </trkpt>
      <trkpt lat="42.48945" lon="-8.63442">
        <ele>152.4</ele>
        <time>2019-04-17T08:00:12Z</time>
      </trkpt>
      <trkpt lat="42.48947" lon="-8.63442">
        <ele>152.5</ele>
        <time>2019-04-17T08:00:12Z</time>
      </trkpt>
      <trkpt lat="42.48949" lon="-8.63442">
        <ele>152.6</ele>
        <time>2019-04-17T08:00:12Z</time>
      </trkpt>
      <trkpt lat="42.48951" lon="-8.63443">
        <ele>152.7</ele>
        <time>2019-04-17T08:00:12Z</time>
      </trkpt>
      <trkpt lat="42.48953" lon="-8.63443">
        <ele>152.8</ele>
        <time>2019-04-17T08:00:12Z</time>
      </trkpt>
      <trkpt lat="42.48954" lon="-8.63443">
        <ele>152.8</ele>
        <time>2019-04-17T08:00:12Z</time>
      </trkpt>
      <trkpt lat="42.48956" lon="-8.63444">
        <ele>152.8</ele>
        <time>2019-04-17T08:00:12Z</time>
      </trkpt>
      <trkpt lat="42.48957" lon="-8.63445">
        <ele>152.9</ele>
        <time>2019-04-17T08:00:12Z</time>
      </trkpt>
      <trkpt lat="42.48959" lon="-8.63447">
        <ele>152.9</ele>
        <time>2019-04-17T08:00:12Z</time>
      </trkpt>
      <trkpt lat="42.48961" lon="-8.63448">
        <ele>152.9</ele>
        <time>2019-04-17T08:00:12Z</time>
      </trkpt>
      <trkpt lat="42.48963" lon="-8.63449">
        <ele>153</ele>
        <time>2019-04-17T08:00:12Z</time>
      </trkpt>
      <trkpt lat="42.48965" lon="-8.6345">
        <ele>153.1</ele>
        <time>2019-04-17T08:00:12Z</time>
      </trkpt>
      <trkpt lat="42.48967" lon="-8.63451">
        <ele>153.2</ele>
        <time>2019-04-17T08:00:12Z</time>
      </trkpt>
      <trkpt lat="42.48969" lon="-8.63451">
        <ele>153.4</ele>
        <time>2019-04-17T08:00:12Z</time>
      </trkpt>
      <trkpt lat="42.48971" lon="-8.63451">
        <ele>153.5</ele>
        <time>2019-04-17T08:00:12Z</time>
      </trkpt>
      <trkpt lat="42.48973" lon="-8.63451">
        <ele>153.6</ele>
        <time>2019-04-17T08:00:12Z</time>
      </trkpt>
      <trkpt lat="42.48975" lon="-8.6345">
        <ele>153.7</ele>
        <time>2019-04-17T08:00:12Z</time>
      </trkpt>
      <trkpt lat="42.48977" lon="-8.6345">
        <ele>153.9</ele>
        <time>2019-04-17T08:00:12Z</time>
      </trkpt>
      <trkpt lat="42.48979" lon="-8.6345">
        <ele>154</ele>
        <time>2019-04-17T08:00:12Z</time>
      </trkpt>
      <trkpt lat="42.4898" lon="-8.63449">
        <ele>154.2</ele>
        <time>2019-04-17T08:00:12Z</time>
      </trkpt>
      <trkpt lat="42.48982" lon="-8.63449">
        <ele>154.3</ele>
        <time>2019-04-17T08:00:12Z</time>
      </trkpt>
      <trkpt lat="42.48984" lon="-8.63449">
        <ele>154.5</ele>
        <time>2019-04-17T08:00:12Z</time>
      </trkpt>
      <trkpt lat="42.48986" lon="-8.63449">
        <ele>154.6</ele>
        <time>2019-04-17T08:00:12Z</time>
      </trkpt>
      <trkpt lat="42.48987" lon="-8.63449">
        <ele>154.7</ele>
        <time>2019-04-17T08:00:12Z</time>
      </trkpt>
      <trkpt lat="42.48989" lon="-8.63448">
        <ele>154.8</ele>
        <time>2019-04-17T08:00:12Z</time>
      </trkpt>
      <trkpt lat="42.4899" lon="-8.63448">
        <ele>155</ele>
        <time>2019-04-17T08:00:12Z</time>
      </trkpt>
      <trkpt lat="42.48992" lon="-8.63448">
        <ele>155.1</ele>
        <time>2019-04-17T08:00:12Z</time>
      </trkpt>
      <trkpt lat="42.48994" lon="-8.63448">
        <ele>155.2</ele>
        <time>2019-04-17T08:00:12Z</time>
      </trkpt>
      <trkpt lat="42.48995" lon="-8.63447">
        <ele>155.4</ele>
        <time>2019-04-17T08:00:12Z</time>
      </trkpt>
      <trkpt lat="42.48997" lon="-8.63447">
        <ele>155.5</ele>
        <time>2019-04-17T08:00:12Z</time>
      </trkpt>
      <trkpt lat="42.48999" lon="-8.63447">
        <ele>155.7</ele>
        <time>2019-04-17T08:00:12Z</time>
      </trkpt>
      <trkpt lat="42.49" lon="-8.63447">
        <ele>155.8</ele>
        <time>2019-04-17T08:00:12Z</time>
      </trkpt>
      <trkpt lat="42.49002" lon="-8.63446">
        <ele>155.9</ele>
        <time>2019-04-17T08:00:12Z</time>
      </trkpt>
      <trkpt lat="42.49004" lon="-8.63446">
        <ele>156.1</ele>
        <time>2019-04-17T08:00:12Z</time>
      </trkpt>
      <trkpt lat="42.49005" lon="-8.63446">
        <ele>156.2</ele>
        <time>2019-04-17T08:00:12Z</time>
      </trkpt>
      <trkpt lat="42.49007" lon="-8.63446">
        <ele>156.4</ele>
        <time>2019-04-17T08:00:12Z</time>
      </trkpt>
      <trkpt lat="42.49008" lon="-8.63445">
        <ele>156.5</ele>
        <time>2019-04-17T08:00:12Z</time>
      </trkpt>
      <trkpt lat="42.4901" lon="-8.63445">
        <ele>156.6</ele>
        <time>2019-04-17T08:00:12Z</time>
      </trkpt>
      <trkpt lat="42.49012" lon="-8.63445">
        <ele>156.8</ele>
        <time>2019-04-17T08:00:12Z</time>
      </trkpt>
      <trkpt lat="42.49013" lon="-8.63445">
        <ele>156.9</ele>
        <time>2019-04-17T08:00:12Z</time>
      </trkpt>
      <trkpt lat="42.49015" lon="-8.63444">
        <ele>157.1</ele>
        <time>2019-04-17T08:00:12Z</time>
      </trkpt>
      <trkpt lat="42.49016" lon="-8.63444">
        <ele>157.2</ele>
        <time>2019-04-17T08:00:12Z</time>
      </trkpt>
      <trkpt lat="42.49018" lon="-8.63444">
        <ele>157.4</ele>
        <time>2019-04-17T08:00:12Z</time>
      </trkpt>
      <trkpt lat="42.4902" lon="-8.63444">
        <ele>157.5</ele>
        <time>2019-04-17T08:00:12Z</time>
      </trkpt>
      <trkpt lat="42.49021" lon="-8.63443">
        <ele>157.7</ele>
        <time>2019-04-17T08:00:12Z</time>
      </trkpt>
      <trkpt lat="42.49023" lon="-8.63443">
        <ele>157.8</ele>
        <time>2019-04-17T08:00:12Z</time>
      </trkpt>
      <trkpt lat="42.49024" lon="-8.63443">
        <ele>157.9</ele>
        <time>2019-04-17T08:00:12Z</time>
      </trkpt>
      <trkpt lat="42.49026" lon="-8.63443">
        <ele>158.1</ele>
        <time>2019-04-17T08:00:12Z</time>
      </trkpt>
      <trkpt lat="42.49027" lon="-8.63443">
        <ele>158.2</ele>
        <time>2019-04-17T08:00:12Z</time>
      </trkpt>
      <trkpt lat="42.49029" lon="-8.63443">
        <ele>158.3</ele>
        <time>2019-04-17T08:00:12Z</time>
      </trkpt>
      <trkpt lat="42.4903" lon="-8.63442">
        <ele>158.5</ele>
        <time>2019-04-17T08:00:12Z</time>
      </trkpt>
      <trkpt lat="42.49032" lon="-8.63442">
        <ele>158.6</ele>
        <time>2019-04-17T08:00:12Z</time>
      </trkpt>
      <trkpt lat="42.49033" lon="-8.63442">
        <ele>158.8</ele>
        <time>2019-04-17T08:00:12Z</time>
      </trkpt>
      <trkpt lat="42.49035" lon="-8.63442">
        <ele>158.9</ele>
        <time>2019-04-17T08:00:12Z</time>
      </trkpt>
      <trkpt lat="42.49036" lon="-8.63441">
        <ele>159.1</ele>
        <time>2019-04-17T08:00:12Z</time>
      </trkpt>
      <trkpt lat="42.49037" lon="-8.63441">
        <ele>159.3</ele>
        <time>2019-04-17T08:00:12Z</time>
      </trkpt>
      <trkpt lat="42.49039" lon="-8.6344">
        <ele>159.4</ele>
        <time>2019-04-17T08:00:12Z</time>
      </trkpt>
      <trkpt lat="42.4904" lon="-8.6344">
        <ele>159.6</ele>
        <time>2019-04-17T08:00:12Z</time>
      </trkpt>
      <trkpt lat="42.49042" lon="-8.6344">
        <ele>159.8</ele>
        <time>2019-04-17T08:00:12Z</time>
      </trkpt>
      <trkpt lat="42.49043" lon="-8.63439">
        <ele>160</ele>
        <time>2019-04-17T08:00:12Z</time>
      </trkpt>
      <trkpt lat="42.49045" lon="-8.63439">
        <ele>160.1</ele>
        <time>2019-04-17T08:00:12Z</time>
      </trkpt>
      <trkpt lat="42.49046" lon="-8.63439">
        <ele>160.3</ele>
        <time>2019-04-17T08:00:12Z</time>
      </trkpt>
      <trkpt lat="42.49048" lon="-8.63439">
        <ele>160.5</ele>
        <time>2019-04-17T08:00:12Z</time>
      </trkpt>
      <trkpt lat="42.4905" lon="-8.63438">
        <ele>160.7</ele>
        <time>2019-04-17T08:00:12Z</time>
      </trkpt>
      <trkpt lat="42.49051" lon="-8.63438">
        <ele>160.9</ele>
        <time>2019-04-17T08:00:12Z</time>
      </trkpt>
      <trkpt lat="42.49053" lon="-8.63437">
        <ele>161.1</ele>
        <time>2019-04-17T08:00:12Z</time>
      </trkpt>
      <trkpt lat="42.49054" lon="-8.63437">
        <ele>161.2</ele>
        <time>2019-04-17T08:00:12Z</time>
      </trkpt>
      <trkpt lat="42.49056" lon="-8.63437">
        <ele>161.3</ele>
        <time>2019-04-17T08:00:12Z</time>
      </trkpt>
      <trkpt lat="42.49057" lon="-8.63437">
        <ele>161.5</ele>
        <time>2019-04-17T08:00:12Z</time>
      </trkpt>
      <trkpt lat="42.49059" lon="-8.63436">
        <ele>161.8</ele>
        <time>2019-04-17T08:00:12Z</time>
      </trkpt>
      <trkpt lat="42.4906" lon="-8.63436">
        <ele>162</ele>
        <time>2019-04-17T08:00:12Z</time>
      </trkpt>
      <trkpt lat="42.49062" lon="-8.63435">
        <ele>162.2</ele>
        <time>2019-04-17T08:00:12Z</time>
      </trkpt>
      <trkpt lat="42.49064" lon="-8.63435">
        <ele>162.5</ele>
        <time>2019-04-17T08:00:12Z</time>
      </trkpt>
      <trkpt lat="42.49065" lon="-8.63434">
        <ele>162.7</ele>
        <time>2019-04-17T08:00:12Z</time>
      </trkpt>
      <trkpt lat="42.49067" lon="-8.63433">
        <ele>162.9</ele>
        <time>2019-04-17T08:00:12Z</time>
      </trkpt>
      <trkpt lat="42.49068" lon="-8.63433">
        <ele>163.2</ele>
        <time>2019-04-17T08:00:12Z</time>
      </trkpt>
      <trkpt lat="42.49069" lon="-8.63432">
        <ele>163.4</ele>
        <time>2019-04-17T08:00:12Z</time>
      </trkpt>
      <trkpt lat="42.49071" lon="-8.63432">
        <ele>163.6</ele>
        <time>2019-04-17T08:00:12Z</time>
      </trkpt>
      <trkpt lat="42.49072" lon="-8.63431">
        <ele>163.8</ele>
        <time>2019-04-17T08:00:12Z</time>
      </trkpt>
      <trkpt lat="42.49073" lon="-8.63431">
        <ele>164.1</ele>
        <time>2019-04-17T08:00:12Z</time>
      </trkpt>
      <trkpt lat="42.49075" lon="-8.6343">
        <ele>164.3</ele>
        <time>2019-04-17T08:00:12Z</time>
      </trkpt>
      <trkpt lat="42.49076" lon="-8.6343">
        <ele>164.6</ele>
        <time>2019-04-17T08:00:12Z</time>
      </trkpt>
      <trkpt lat="42.49077" lon="-8.63429">
        <ele>164.8</ele>
        <time>2019-04-17T08:00:12Z</time>
      </trkpt>
      <trkpt lat="42.49079" lon="-8.63429">
        <ele>165</ele>
        <time>2019-04-17T08:00:12Z</time>
      </trkpt>
      <trkpt lat="42.4908" lon="-8.63428">
        <ele>165.2</ele>
        <time>2019-04-17T08:00:12Z</time>
      </trkpt>
      <trkpt lat="42.49081" lon="-8.63428">
        <ele>165.5</ele>
        <time>2019-04-17T08:00:12Z</time>
      </trkpt>
      <trkpt lat="42.49083" lon="-8.63427">
        <ele>165.7</ele>
        <time>2019-04-17T08:00:12Z</time>
      </trkpt>
      <trkpt lat="42.49084" lon="-8.63427">
        <ele>165.9</ele>
        <time>2019-04-17T08:00:12Z</time>
      </trkpt>
      <trkpt lat="42.49086" lon="-8.63426">
        <ele>166</ele>
        <time>2019-04-17T08:00:12Z</time>
      </trkpt>
      <trkpt lat="42.49087" lon="-8.63426">
        <ele>166</ele>
        <time>2019-04-17T08:00:12Z</time>
      </trkpt>
      <trkpt lat="42.49089" lon="-8.63425">
        <ele>166.1</ele>
        <time>2019-04-17T08:00:12Z</time>
      </trkpt>
      <trkpt lat="42.4909" lon="-8.63425">
        <ele>166.2</ele>
        <time>2019-04-17T08:00:12Z</time>
      </trkpt>
      <trkpt lat="42.49092" lon="-8.63424">
        <ele>166.2</ele>
        <time>2019-04-17T08:00:12Z</time>
      </trkpt>
      <trkpt lat="42.49093" lon="-8.63424">
        <ele>166.4</ele>
        <time>2019-04-17T08:00:12Z</time>
      </trkpt>
      <trkpt lat="42.49094" lon="-8.63423">
        <ele>166.4</ele>
        <time>2019-04-17T08:00:12Z</time>
      </trkpt>
      <trkpt lat="42.49096" lon="-8.63422">
        <ele>166.5</ele>
        <time>2019-04-17T08:00:12Z</time>
      </trkpt>
      <trkpt lat="42.49097" lon="-8.63422">
        <ele>166.6</ele>
        <time>2019-04-17T08:00:12Z</time>
      </trkpt>
      <trkpt lat="42.49098" lon="-8.63421">
        <ele>166.7</ele>
        <time>2019-04-17T08:00:12Z</time>
      </trkpt>
      <trkpt lat="42.491" lon="-8.6342">
        <ele>166.8</ele>
        <time>2019-04-17T08:00:12Z</time>
      </trkpt>
      <trkpt lat="42.49101" lon="-8.63419">
        <ele>166.9</ele>
        <time>2019-04-17T08:00:12Z</time>
      </trkpt>
      <trkpt lat="42.49102" lon="-8.63419">
        <ele>167</ele>
        <time>2019-04-17T08:00:12Z</time>
      </trkpt>
      <trkpt lat="42.49104" lon="-8.63418">
        <ele>167</ele>
        <time>2019-04-17T08:00:12Z</time>
      </trkpt>
      <trkpt lat="42.49106" lon="-8.63418">
        <ele>167.1</ele>
        <time>2019-04-17T08:00:12Z</time>
      </trkpt>
      <trkpt lat="42.49108" lon="-8.63417">
        <ele>167.1</ele>
        <time>2019-04-17T08:00:12Z</time>
      </trkpt>
      <trkpt lat="42.49109" lon="-8.63417">
        <ele>167.1</ele>
        <time>2019-04-17T08:00:12Z</time>
      </trkpt>
      <trkpt lat="42.49111" lon="-8.63416">
        <ele>167.1</ele>
        <time>2019-04-17T08:00:12Z</time>
      </trkpt>
      <trkpt lat="42.49113" lon="-8.63416">
        <ele>167.2</ele>
        <time>2019-04-17T08:00:12Z</time>
      </trkpt>
      <trkpt lat="42.49115" lon="-8.63416">
        <ele>167.3</ele>
        <time>2019-04-17T08:00:12Z</time>
      </trkpt>
      <trkpt lat="42.49117" lon="-8.63416">
        <ele>167.5</ele>
        <time>2019-04-17T08:00:12Z</time>
      </trkpt>
      <trkpt lat="42.49118" lon="-8.63416">
        <ele>167.7</ele>
        <time>2019-04-17T08:00:12Z</time>
      </trkpt>
      <trkpt lat="42.4912" lon="-8.63416">
        <ele>167.8</ele>
        <time>2019-04-17T08:00:12Z</time>
      </trkpt>
      <trkpt lat="42.49122" lon="-8.63416">
        <ele>167.9</ele>
        <time>2019-04-17T08:00:12Z</time>
      </trkpt>
      <trkpt lat="42.49123" lon="-8.63416">
        <ele>168</ele>
        <time>2019-04-17T08:00:12Z</time>
      </trkpt>
      <trkpt lat="42.49125" lon="-8.63417">
        <ele>168</ele>
        <time>2019-04-17T08:00:12Z</time>
      </trkpt>
      <trkpt lat="42.49127" lon="-8.63417">
        <ele>168.1</ele>
        <time>2019-04-17T08:00:12Z</time>
      </trkpt>
      <trkpt lat="42.49129" lon="-8.63417">
        <ele>168.2</ele>
        <time>2019-04-17T08:00:12Z</time>
      </trkpt>
      <trkpt lat="42.4913" lon="-8.63417">
        <ele>168.4</ele>
        <time>2019-04-17T08:00:12Z</time>
      </trkpt>
      <trkpt lat="42.49132" lon="-8.63417">
        <ele>168.5</ele>
        <time>2019-04-17T08:00:12Z</time>
      </trkpt>
      <trkpt lat="42.49134" lon="-8.63417">
        <ele>168.7</ele>
        <time>2019-04-17T08:00:12Z</time>
      </trkpt>
      <trkpt lat="42.49136" lon="-8.63416">
        <ele>168.9</ele>
        <time>2019-04-17T08:00:12Z</time>
      </trkpt>
      <trkpt lat="42.49138" lon="-8.63416">
        <ele>169.1</ele>
        <time>2019-04-17T08:00:12Z</time>
      </trkpt>
      <trkpt lat="42.4914" lon="-8.63416">
        <ele>169.2</ele>
        <time>2019-04-17T08:00:12Z</time>
      </trkpt>
      <trkpt lat="42.49141" lon="-8.63416">
        <ele>169.3</ele>
        <time>2019-04-17T08:00:12Z</time>
      </trkpt>
      <trkpt lat="42.49143" lon="-8.63416">
        <ele>169.4</ele>
        <time>2019-04-17T08:00:12Z</time>
      </trkpt>
      <trkpt lat="42.49145" lon="-8.63415">
        <ele>169.5</ele>
        <time>2019-04-17T08:00:12Z</time>
      </trkpt>
      <trkpt lat="42.49146" lon="-8.63415">
        <ele>169.6</ele>
        <time>2019-04-17T08:00:12Z</time>
      </trkpt>
      <trkpt lat="42.49148" lon="-8.63415">
        <ele>169.7</ele>
        <time>2019-04-17T08:00:12Z</time>
      </trkpt>
      <trkpt lat="42.4915" lon="-8.63415">
        <ele>169.8</ele>
        <time>2019-04-17T08:00:12Z</time>
      </trkpt>
      <trkpt lat="42.49151" lon="-8.63414">
        <ele>170</ele>
        <time>2019-04-17T08:00:12Z</time>
      </trkpt>
      <trkpt lat="42.49153" lon="-8.63414">
        <ele>170.1</ele>
        <time>2019-04-17T08:00:12Z</time>
      </trkpt>
      <trkpt lat="42.49155" lon="-8.63413">
        <ele>170.2</ele>
        <time>2019-04-17T08:00:12Z</time>
      </trkpt>
      <trkpt lat="42.49156" lon="-8.63413">
        <ele>170.4</ele>
        <time>2019-04-17T08:00:12Z</time>
      </trkpt>
      <trkpt lat="42.49158" lon="-8.63412">
        <ele>170.5</ele>
        <time>2019-04-17T08:00:12Z</time>
      </trkpt>
      <trkpt lat="42.49159" lon="-8.63412">
        <ele>170.7</ele>
        <time>2019-04-17T08:00:12Z</time>
      </trkpt>
      <trkpt lat="42.49161" lon="-8.63411">
        <ele>170.8</ele>
        <time>2019-04-17T08:00:12Z</time>
      </trkpt>
      <trkpt lat="42.49162" lon="-8.63411">
        <ele>171</ele>
        <time>2019-04-17T08:00:12Z</time>
      </trkpt>
      <trkpt lat="42.49164" lon="-8.6341">
        <ele>171.1</ele>
        <time>2019-04-17T08:00:12Z</time>
      </trkpt>
      <trkpt lat="42.49165" lon="-8.63409">
        <ele>171.4</ele>
        <time>2019-04-17T08:00:12Z</time>
      </trkpt>
      <trkpt lat="42.49166" lon="-8.63408">
        <ele>171.6</ele>
        <time>2019-04-17T08:00:12Z</time>
      </trkpt>
      <trkpt lat="42.49168" lon="-8.63407">
        <ele>171.9</ele>
        <time>2019-04-17T08:00:12Z</time>
      </trkpt>
      <trkpt lat="42.49169" lon="-8.63405">
        <ele>172.1</ele>
        <time>2019-04-17T08:00:12Z</time>
      </trkpt>
      <trkpt lat="42.4917" lon="-8.63404">
        <ele>172.4</ele>
        <time>2019-04-17T08:00:12Z</time>
      </trkpt>
      <trkpt lat="42.49171" lon="-8.63403">
        <ele>172.7</ele>
        <time>2019-04-17T08:00:12Z</time>
      </trkpt>
      <trkpt lat="42.49172" lon="-8.63401">
        <ele>173</ele>
        <time>2019-04-17T08:00:12Z</time>
      </trkpt>
      <trkpt lat="42.49173" lon="-8.634">
        <ele>173.3</ele>
        <time>2019-04-17T08:00:12Z</time>
      </trkpt>
      <trkpt lat="42.49174" lon="-8.63398">
        <ele>173.6</ele>
        <time>2019-04-17T08:00:12Z</time>
      </trkpt>
      <trkpt lat="42.49174" lon="-8.63396">
        <ele>173.9</ele>
        <time>2019-04-17T08:00:12Z</time>
      </trkpt>
      <trkpt lat="42.49175" lon="-8.63395">
        <ele>174.2</ele>
        <time>2019-04-17T08:00:12Z</time>
      </trkpt>
      <trkpt lat="42.49176" lon="-8.63394">
        <ele>174.5</ele>
        <time>2019-04-17T08:00:12Z</time>
      </trkpt>
      <trkpt lat="42.49177" lon="-8.63392">
        <ele>174.8</ele>
        <time>2019-04-17T08:00:12Z</time>
      </trkpt>
      <trkpt lat="42.49178" lon="-8.63391">
        <ele>175.1</ele>
        <time>2019-04-17T08:00:12Z</time>
      </trkpt>
      <trkpt lat="42.49179" lon="-8.63389">
        <ele>175.3</ele>
        <time>2019-04-17T08:00:12Z</time>
      </trkpt>
      <trkpt lat="42.4918" lon="-8.63388">
        <ele>175.6</ele>
        <time>2019-04-17T08:00:12Z</time>
      </trkpt>
      <trkpt lat="42.4918" lon="-8.63387">
        <ele>175.8</ele>
        <time>2019-04-17T08:00:12Z</time>
      </trkpt>
      <trkpt lat="42.49181" lon="-8.63385">
        <ele>176</ele>
        <time>2019-04-17T08:00:12Z</time>
      </trkpt>
      <trkpt lat="42.49182" lon="-8.63384">
        <ele>176.3</ele>
        <time>2019-04-17T08:00:12Z</time>
      </trkpt>
      <trkpt lat="42.49183" lon="-8.63382">
        <ele>176.5</ele>
        <time>2019-04-17T08:00:12Z</time>
      </trkpt>
      <trkpt lat="42.49184" lon="-8.63381">
        <ele>176.7</ele>
        <time>2019-04-17T08:00:12Z</time>
      </trkpt>
      <trkpt lat="42.49185" lon="-8.63379">
        <ele>176.9</ele>
        <time>2019-04-17T08:00:12Z</time>
      </trkpt>
      <trkpt lat="42.49186" lon="-8.63378">
        <ele>177.1</ele>
        <time>2019-04-17T08:00:12Z</time>
      </trkpt>
      <trkpt lat="42.49186" lon="-8.63376">
        <ele>177.3</ele>
        <time>2019-04-17T08:00:12Z</time>
      </trkpt>
      <trkpt lat="42.49187" lon="-8.63375">
        <ele>177.5</ele>
        <time>2019-04-17T08:00:12Z</time>
      </trkpt>
      <trkpt lat="42.49188" lon="-8.63373">
        <ele>177.7</ele>
        <time>2019-04-17T08:00:12Z</time>
      </trkpt>
      <trkpt lat="42.49188" lon="-8.63372">
        <ele>177.9</ele>
        <time>2019-04-17T08:00:12Z</time>
      </trkpt>
      <trkpt lat="42.49189" lon="-8.6337">
        <ele>178.1</ele>
        <time>2019-04-17T08:00:12Z</time>
      </trkpt>
      <trkpt lat="42.49189" lon="-8.63368">
        <ele>178.3</ele>
        <time>2019-04-17T08:00:12Z</time>
      </trkpt>
      <trkpt lat="42.4919" lon="-8.63367">
        <ele>178.5</ele>
        <time>2019-04-17T08:00:12Z</time>
      </trkpt>
      <trkpt lat="42.4919" lon="-8.63366">
        <ele>178.6</ele>
        <time>2019-04-17T08:00:12Z</time>
      </trkpt>
      <trkpt lat="42.49191" lon="-8.63364">
        <ele>178.8</ele>
        <time>2019-04-17T08:00:12Z</time>
      </trkpt>
      <trkpt lat="42.49192" lon="-8.63362">
        <ele>179</ele>
        <time>2019-04-17T08:00:12Z</time>
      </trkpt>
      <trkpt lat="42.49192" lon="-8.63361">
        <ele>179.2</ele>
        <time>2019-04-17T08:00:12Z</time>
      </trkpt>
      <trkpt lat="42.49193" lon="-8.63359">
        <ele>179.4</ele>
        <time>2019-04-17T08:00:12Z</time>
      </trkpt>
      <trkpt lat="42.49194" lon="-8.63357">
        <ele>179.7</ele>
        <time>2019-04-17T08:00:12Z</time>
      </trkpt>
      <trkpt lat="42.49194" lon="-8.63356">
        <ele>180</ele>
        <time>2019-04-17T08:00:12Z</time>
      </trkpt>
      <trkpt lat="42.49195" lon="-8.63354">
        <ele>180.3</ele>
        <time>2019-04-17T08:00:12Z</time>
      </trkpt>
      <trkpt lat="42.49195" lon="-8.63352">
        <ele>180.6</ele>
        <time>2019-04-17T08:00:12Z</time>
      </trkpt>
      <trkpt lat="42.49196" lon="-8.6335">
        <ele>180.9</ele>
        <time>2019-04-17T08:00:12Z</time>
      </trkpt>
      <trkpt lat="42.49197" lon="-8.63349">
        <ele>181.1</ele>
        <time>2019-04-17T08:00:12Z</time>
      </trkpt>
      <trkpt lat="42.49198" lon="-8.63347">
        <ele>181.4</ele>
        <time>2019-04-17T08:00:12Z</time>
      </trkpt>
      <trkpt lat="42.49198" lon="-8.63345">
        <ele>181.6</ele>
        <time>2019-04-17T08:00:12Z</time>
      </trkpt>
      <trkpt lat="42.49199" lon="-8.63343">
        <ele>181.8</ele>
        <time>2019-04-17T08:00:12Z</time>
      </trkpt>
      <trkpt lat="42.492" lon="-8.63341">
        <ele>182.1</ele>
        <time>2019-04-17T08:00:12Z</time>
      </trkpt>
      <trkpt lat="42.49201" lon="-8.6334">
        <ele>182.3</ele>
        <time>2019-04-17T08:00:12Z</time>
      </trkpt>
      <trkpt lat="42.49202" lon="-8.63338">
        <ele>182.5</ele>
        <time>2019-04-17T08:00:12Z</time>
      </trkpt>
      <trkpt lat="42.49203" lon="-8.63336">
        <ele>182.7</ele>
        <time>2019-04-17T08:00:12Z</time>
      </trkpt>
      <trkpt lat="42.49204" lon="-8.63334">
        <ele>182.8</ele>
        <time>2019-04-17T08:00:12Z</time>
      </trkpt>
      <trkpt lat="42.49205" lon="-8.63333">
        <ele>182.9</ele>
        <time>2019-04-17T08:00:12Z</time>
      </trkpt>
      <trkpt lat="42.49207" lon="-8.63331">
        <ele>182.9</ele>
        <time>2019-04-17T08:00:12Z</time>
      </trkpt>
      <trkpt lat="42.49208" lon="-8.63329">
        <ele>182.8</ele>
        <time>2019-04-17T08:00:12Z</time>
      </trkpt>
      <trkpt lat="42.49209" lon="-8.63328">
        <ele>182.8</ele>
        <time>2019-04-17T08:00:12Z</time>
      </trkpt>
      <trkpt lat="42.49211" lon="-8.63326">
        <ele>182.8</ele>
        <time>2019-04-17T08:00:12Z</time>
      </trkpt>
      <trkpt lat="42.49212" lon="-8.63325">
        <ele>182.7</ele>
        <time>2019-04-17T08:00:12Z</time>
      </trkpt>
      <trkpt lat="42.49214" lon="-8.63323">
        <ele>182.7</ele>
        <time>2019-04-17T08:00:12Z</time>
      </trkpt>
      <trkpt lat="42.49215" lon="-8.63321">
        <ele>182.7</ele>
        <time>2019-04-17T08:00:12Z</time>
      </trkpt>
      <trkpt lat="42.49216" lon="-8.63319">
        <ele>182.6</ele>
        <time>2019-04-17T08:00:12Z</time>
      </trkpt>
      <trkpt lat="42.49218" lon="-8.63318">
        <ele>182.6</ele>
        <time>2019-04-17T08:00:12Z</time>
      </trkpt>
      <trkpt lat="42.49219" lon="-8.63317">
        <ele>182.5</ele>
        <time>2019-04-17T08:00:12Z</time>
      </trkpt>
      <trkpt lat="42.49221" lon="-8.63315">
        <ele>182.5</ele>
        <time>2019-04-17T08:00:12Z</time>
      </trkpt>
      <trkpt lat="42.49222" lon="-8.63314">
        <ele>182.4</ele>
        <time>2019-04-17T08:00:12Z</time>
      </trkpt>
      <trkpt lat="42.49224" lon="-8.63312">
        <ele>182.6</ele>
        <time>2019-04-17T08:00:12Z</time>
      </trkpt>
      <trkpt lat="42.49226" lon="-8.63311">
        <ele>182.8</ele>
        <time>2019-04-17T08:00:12Z</time>
      </trkpt>
      <trkpt lat="42.49228" lon="-8.6331">
        <ele>182.9</ele>
        <time>2019-04-17T08:00:12Z</time>
      </trkpt>
      <trkpt lat="42.49229" lon="-8.63309">
        <ele>183</ele>
        <time>2019-04-17T08:00:12Z</time>
      </trkpt>
      <trkpt lat="42.49231" lon="-8.63309">
        <ele>183.1</ele>
        <time>2019-04-17T08:00:12Z</time>
      </trkpt>
      <trkpt lat="42.49233" lon="-8.63308">
        <ele>183.3</ele>
        <time>2019-04-17T08:00:12Z</time>
      </trkpt>
      <trkpt lat="42.49235" lon="-8.63308">
        <ele>183.3</ele>
        <time>2019-04-17T08:00:12Z</time>
      </trkpt>
      <trkpt lat="42.49237" lon="-8.63307">
        <ele>183.4</ele>
        <time>2019-04-17T08:00:12Z</time>
      </trkpt>
      <trkpt lat="42.49239" lon="-8.63307">
        <ele>183.5</ele>
        <time>2019-04-17T08:00:12Z</time>
      </trkpt>
      <trkpt lat="42.49241" lon="-8.63307">
        <ele>183.6</ele>
        <time>2019-04-17T08:00:12Z</time>
      </trkpt>
      <trkpt lat="42.49242" lon="-8.63307">
        <ele>183.6</ele>
        <time>2019-04-17T08:00:12Z</time>
      </trkpt>
      <trkpt lat="42.49244" lon="-8.63307">
        <ele>183.7</ele>
        <time>2019-04-17T08:00:12Z</time>
      </trkpt>
      <trkpt lat="42.49246" lon="-8.63307">
        <ele>183.8</ele>
        <time>2019-04-17T08:00:12Z</time>
      </trkpt>
      <trkpt lat="42.49248" lon="-8.63307">
        <ele>183.8</ele>
        <time>2019-04-17T08:00:12Z</time>
      </trkpt>
      <trkpt lat="42.49249" lon="-8.63308">
        <ele>183.9</ele>
        <time>2019-04-17T08:00:12Z</time>
      </trkpt>
      <trkpt lat="42.49251" lon="-8.63308">
        <ele>184</ele>
        <time>2019-04-17T08:00:12Z</time>
      </trkpt>
      <trkpt lat="42.49253" lon="-8.63308">
        <ele>184.1</ele>
        <time>2019-04-17T08:00:12Z</time>
      </trkpt>
      <trkpt lat="42.49255" lon="-8.63309">
        <ele>184.2</ele>
        <time>2019-04-17T08:00:12Z</time>
      </trkpt>
      <trkpt lat="42.49256" lon="-8.63309">
        <ele>184.4</ele>
        <time>2019-04-17T08:00:12Z</time>
      </trkpt>
      <trkpt lat="42.49258" lon="-8.63309">
        <ele>184.5</ele>
        <time>2019-04-17T08:00:12Z</time>
      </trkpt>
      <trkpt lat="42.4926" lon="-8.6331">
        <ele>184.6</ele>
        <time>2019-04-17T08:00:12Z</time>
      </trkpt>
      <trkpt lat="42.49262" lon="-8.63311">
        <ele>184.8</ele>
        <time>2019-04-17T08:00:12Z</time>
      </trkpt>
      <trkpt lat="42.49264" lon="-8.63312">
        <ele>184.9</ele>
        <time>2019-04-17T08:00:12Z</time>
      </trkpt>
      <trkpt lat="42.49266" lon="-8.63312">
        <ele>185.1</ele>
        <time>2019-04-17T08:00:12Z</time>
      </trkpt>
      <trkpt lat="42.49268" lon="-8.63313">
        <ele>185.2</ele>
        <time>2019-04-17T08:00:12Z</time>
      </trkpt>
      <trkpt lat="42.4927" lon="-8.63314">
        <ele>185.4</ele>
        <time>2019-04-17T08:00:12Z</time>
      </trkpt>
      <trkpt lat="42.49272" lon="-8.63315">
        <ele>185.5</ele>
        <time>2019-04-17T08:00:12Z</time>
      </trkpt>
      <trkpt lat="42.49274" lon="-8.63315">
        <ele>185.7</ele>
        <time>2019-04-17T08:00:12Z</time>
      </trkpt>
      <trkpt lat="42.49276" lon="-8.63316">
        <ele>185.9</ele>
        <time>2019-04-17T08:00:12Z</time>
      </trkpt>
      <trkpt lat="42.49278" lon="-8.63317">
        <ele>186.1</ele>
        <time>2019-04-17T08:00:12Z</time>
      </trkpt>
      <trkpt lat="42.4928" lon="-8.63318">
        <ele>186.3</ele>
        <time>2019-04-17T08:00:12Z</time>
      </trkpt>
      <trkpt lat="42.49283" lon="-8.63319">
        <ele>186.6</ele>
        <time>2019-04-17T08:00:12Z</time>
      </trkpt>
      <trkpt lat="42.49285" lon="-8.6332">
        <ele>186.9</ele>
        <time>2019-04-17T08:00:12Z</time>
      </trkpt>
      <trkpt lat="42.49287" lon="-8.6332">
        <ele>187.1</ele>
        <time>2019-04-17T08:00:12Z</time>
      </trkpt>
      <trkpt lat="42.49288" lon="-8.63321">
        <ele>187.3</ele>
        <time>2019-04-17T08:00:12Z</time>
      </trkpt>
      <trkpt lat="42.4929" lon="-8.63322">
        <ele>187.5</ele>
        <time>2019-04-17T08:00:12Z</time>
      </trkpt>
      <trkpt lat="42.49292" lon="-8.63324">
        <ele>187.7</ele>
        <time>2019-04-17T08:00:12Z</time>
      </trkpt>
      <trkpt lat="42.49293" lon="-8.63325">
        <ele>187.8</ele>
        <time>2019-04-17T08:00:12Z</time>
      </trkpt>
      <trkpt lat="42.49295" lon="-8.63327">
        <ele>188</ele>
        <time>2019-04-17T08:00:12Z</time>
      </trkpt>
      <trkpt lat="42.49297" lon="-8.63329">
        <ele>188.2</ele>
        <time>2019-04-17T08:00:12Z</time>
      </trkpt>
      <trkpt lat="42.49299" lon="-8.63331">
        <ele>188.3</ele>
        <time>2019-04-17T08:00:12Z</time>
      </trkpt>
      <trkpt lat="42.493" lon="-8.63333">
        <ele>188.4</ele>
        <time>2019-04-17T08:00:12Z</time>
      </trkpt>
      <trkpt lat="42.49302" lon="-8.63335">
        <ele>188.5</ele>
        <time>2019-04-17T08:00:12Z</time>
      </trkpt>
      <trkpt lat="42.49304" lon="-8.63338">
        <ele>188.6</ele>
        <time>2019-04-17T08:00:12Z</time>
      </trkpt>
      <trkpt lat="42.49305" lon="-8.6334">
        <ele>188.7</ele>
        <time>2019-04-17T08:00:12Z</time>
      </trkpt>
      <trkpt lat="42.49307" lon="-8.63342">
        <ele>188.8</ele>
        <time>2019-04-17T08:00:12Z</time>
      </trkpt>
      <trkpt lat="42.49309" lon="-8.63345">
        <ele>188.9</ele>
        <time>2019-04-17T08:00:12Z</time>
      </trkpt>
      <trkpt lat="42.4931" lon="-8.63347">
        <ele>188.9</ele>
        <time>2019-04-17T08:00:12Z</time>
      </trkpt>
      <trkpt lat="42.49312" lon="-8.6335">
        <ele>189</ele>
        <time>2019-04-17T08:00:12Z</time>
      </trkpt>
      <trkpt lat="42.49314" lon="-8.63353">
        <ele>189</ele>
        <time>2019-04-17T08:00:12Z</time>
      </trkpt>
      <trkpt lat="42.49316" lon="-8.63356">
        <ele>189</ele>
        <time>2019-04-17T08:00:12Z</time>
      </trkpt>
      <trkpt lat="42.49317" lon="-8.63359">
        <ele>189</ele>
        <time>2019-04-17T08:00:12Z</time>
      </trkpt>
      <trkpt lat="42.49319" lon="-8.63362">
        <ele>188.8</ele>
        <time>2019-04-17T08:00:12Z</time>
      </trkpt>
      <trkpt lat="42.49321" lon="-8.63366">
        <ele>188.6</ele>
        <time>2019-04-17T08:00:12Z</time>
      </trkpt>
      <trkpt lat="42.49322" lon="-8.63371">
        <ele>188.4</ele>
        <time>2019-04-17T08:00:12Z</time>
      </trkpt>
      <trkpt lat="42.49324" lon="-8.63375">
        <ele>188.2</ele>
        <time>2019-04-17T08:00:12Z</time>
      </trkpt>
      <trkpt lat="42.49327" lon="-8.63376">
        <ele>188.4</ele>
        <time>2019-04-17T08:00:12Z</time>
      </trkpt>
      <trkpt lat="42.4933" lon="-8.63375">
        <ele>188.6</ele>
        <time>2019-04-17T08:00:12Z</time>
      </trkpt>
      <trkpt lat="42.49332" lon="-8.63374">
        <ele>189</ele>
        <time>2019-04-17T08:00:12Z</time>
      </trkpt>
      <trkpt lat="42.49334" lon="-8.63372">
        <ele>189.3</ele>
        <time>2019-04-17T08:00:12Z</time>
      </trkpt>
      <trkpt lat="42.49336" lon="-8.63369">
        <ele>189.5</ele>
        <time>2019-04-17T08:00:12Z</time>
      </trkpt>
      <trkpt lat="42.49338" lon="-8.63367">
        <ele>189.7</ele>
        <time>2019-04-17T08:00:12Z</time>
      </trkpt>
      <trkpt lat="42.4934" lon="-8.63365">
        <ele>189.9</ele>
        <time>2019-04-17T08:00:12Z</time>
      </trkpt>
      <trkpt lat="42.49342" lon="-8.63363">
        <ele>190</ele>
        <time>2019-04-17T08:00:12Z</time>
      </trkpt>
      <trkpt lat="42.49344" lon="-8.6336">
        <ele>190.1</ele>
        <time>2019-04-17T08:00:12Z</time>
      </trkpt>
      <trkpt lat="42.49346" lon="-8.63358">
        <ele>190.2</ele>
        <time>2019-04-17T08:00:12Z</time>
      </trkpt>
      <trkpt lat="42.49348" lon="-8.63356">
        <ele>190.3</ele>
        <time>2019-04-17T08:00:12Z</time>
      </trkpt>
      <trkpt lat="42.4935" lon="-8.63356">
        <ele>190.3</ele>
        <time>2019-04-17T08:00:12Z</time>
      </trkpt>
      <trkpt lat="42.49354" lon="-8.63363">
        <ele>190.1</ele>
        <time>2019-04-17T08:00:12Z</time>
      </trkpt>
      <trkpt lat="42.49432" lon="-8.63345">
        <ele>196.2</ele>
        <time>2019-04-17T08:00:12Z</time>
      </trkpt>
      <trkpt lat="42.49519" lon="-8.6332">
        <ele>199.2</ele>
        <time>2019-04-17T08:00:12Z</time>
      </trkpt>
      <trkpt lat="42.49604" lon="-8.63277">
        <ele>208.6</ele>
        <time>2019-04-17T08:00:12Z</time>
      </trkpt>
      <trkpt lat="42.49664" lon="-8.63227">
        <ele>214.4</ele>
        <time>2019-04-17T08:00:12Z</time>
      </trkpt>
      <trkpt lat="42.49752" lon="-8.63193">
        <ele>223.1</ele>
        <time>2019-04-17T08:00:12Z</time>
      </trkpt>
      <trkpt lat="42.49795" lon="-8.63186">
        <ele>224.9</ele>
        <time>2019-04-17T08:00:12Z</time>
      </trkpt>
      <trkpt lat="42.49903" lon="-8.6327">
        <ele>216.5</ele>
        <time>2019-04-17T08:00:12Z</time>
      </trkpt>
      <trkpt lat="42.49958" lon="-8.63283">
        <ele>212.3</ele>
        <time>2019-04-17T08:00:12Z</time>
      </trkpt>
      <trkpt lat="42.49993" lon="-8.63307">
        <ele>214.2</ele>
        <time>2019-04-17T08:00:12Z</time>
      </trkpt>
      <trkpt lat="42.50019" lon="-8.63323">
        <ele>217.4</ele>
        <time>2019-04-17T08:00:12Z</time>
      </trkpt>
      <trkpt lat="42.50067" lon="-8.63348">
        <ele>221.6</ele>
        <time>2019-04-17T08:00:12Z</time>
      </trkpt>
      <trkpt lat="42.50105" lon="-8.63372">
        <ele>225.6</ele>
        <time>2019-04-17T08:00:12Z</time>
      </trkpt>
      <trkpt lat="42.50114" lon="-8.63409">
        <ele>227.4</ele>
        <time>2019-04-17T08:00:12Z</time>
      </trkpt>
      <trkpt lat="42.50151" lon="-8.6347">
        <ele>235</ele>
        <time>2019-04-17T08:00:12Z</time>
      </trkpt>
      <trkpt lat="42.50185" lon="-8.63522">
        <ele>238.5</ele>
        <time>2019-04-17T08:00:12Z</time>
      </trkpt>
      <trkpt lat="42.50231" lon="-8.63549">
        <ele>244.3</ele>
        <time>2019-04-17T08:00:12Z</time>
      </trkpt>
      <trkpt lat="42.50271" lon="-8.63574">
        <ele>248</ele>
        <time>2019-04-17T08:00:12Z</time>
      </trkpt>
      <trkpt lat="42.50316" lon="-8.63581">
        <ele>252.6</ele>
        <time>2019-04-17T08:00:12Z</time>
      </trkpt>
      <trkpt lat="42.50342" lon="-8.63577">
        <ele>257</ele>
        <time>2019-04-17T08:00:12Z</time>
      </trkpt>
      <trkpt lat="42.50366" lon="-8.63606">
        <ele>258.1</ele>
        <time>2019-04-17T08:00:12Z</time>
      </trkpt>
      <trkpt lat="42.50411" lon="-8.6368">
        <ele>265</ele>
        <time>2019-04-17T08:00:12Z</time>
      </trkpt>
      <trkpt lat="42.50433" lon="-8.63707">
        <ele>268</ele>
        <time>2019-04-17T08:00:12Z</time>
      </trkpt>
      <trkpt lat="42.50463" lon="-8.63728">
        <ele>271.9</ele>
        <time>2019-04-17T08:00:12Z</time>
      </trkpt>
      <trkpt lat="42.50487" lon="-8.63756">
        <ele>274.7</ele>
        <time>2019-04-17T08:00:12Z</time>
      </trkpt>
      <trkpt lat="42.50513" lon="-8.63786">
        <ele>276.7</ele>
        <time>2019-04-17T08:00:12Z</time>
      </trkpt>
      <trkpt lat="42.50548" lon="-8.6379">
        <ele>279.6</ele>
        <time>2019-04-17T08:00:12Z</time>
      </trkpt>
      <trkpt lat="42.50593" lon="-8.63782">
        <ele>281.6</ele>
        <time>2019-04-17T08:00:12Z</time>
      </trkpt>
      <trkpt lat="42.50655" lon="-8.63747">
        <ele>285</ele>
        <time>2019-04-17T08:00:12Z</time>
      </trkpt>
      <trkpt lat="42.50688" lon="-8.63745">
        <ele>286.6</ele>
        <time>2019-04-17T08:00:12Z</time>
      </trkpt>
      <trkpt lat="42.50725" lon="-8.63753">
        <ele>288</ele>
        <time>2019-04-17T08:00:12Z</time>
      </trkpt>
      <trkpt lat="42.5076" lon="-8.63761">
        <ele>289.8</ele>
        <time>2019-04-17T08:00:12Z</time>
      </trkpt>
      <trkpt lat="42.50795" lon="-8.63758">
        <ele>290.3</ele>
        <time>2019-04-17T08:00:12Z</time>
      </trkpt>
      <trkpt lat="42.50826" lon="-8.63748">
        <ele>289.4</ele>
        <time>2019-04-17T08:00:12Z</time>
      </trkpt>
      <trkpt lat="42.50922" lon="-8.63629">
        <ele>287.8</ele>
        <time>2019-04-17T08:00:12Z</time>
      </trkpt>
      <trkpt lat="42.50987" lon="-8.63535">
        <ele>289.9</ele>
        <time>2019-04-17T08:00:12Z</time>
      </trkpt>
      <trkpt lat="42.51022" lon="-8.63495">
        <ele>288.5</ele>
        <time>2019-04-17T08:00:12Z</time>
      </trkpt>
      <trkpt lat="42.51039" lon="-8.63471">
        <ele>288.5</ele>
        <time>2019-04-17T08:00:12Z</time>
      </trkpt>
      <trkpt lat="42.51087" lon="-8.63398">
        <ele>288.5</ele>
        <time>2019-04-17T08:00:12Z</time>
      </trkpt>
      <trkpt lat="42.51099" lon="-8.6338">
        <ele>287.2</ele>
        <time>2019-04-17T08:00:12Z</time>
      </trkpt>
      <trkpt lat="42.511" lon="-8.63362">
        <ele>288.8</ele>
        <time>2019-04-17T08:00:12Z</time>
      </trkpt>
      <trkpt lat="42.51093" lon="-8.63346">
        <ele>290</ele>
        <time>2019-04-17T08:00:12Z</time>
      </trkpt>
      <trkpt lat="42.51078" lon="-8.63339">
        <ele>291</ele>
        <time>2019-04-17T08:00:12Z</time>
      </trkpt>
      <trkpt lat="42.51061" lon="-8.63333">
        <ele>291.6</ele>
        <time>2019-04-17T08:00:12Z</time>
      </trkpt>
      <trkpt lat="42.51057" lon="-8.63321">
        <ele>292.2</ele>
        <time>2019-04-17T08:00:12Z</time>
      </trkpt>
      <trkpt lat="42.51056" lon="-8.63302">
        <ele>293.3</ele>
        <time>2019-04-17T08:00:12Z</time>
      </trkpt>
      <trkpt lat="42.51066" lon="-8.63281">
        <ele>292.4</ele>
        <time>2019-04-17T08:00:12Z</time>
      </trkpt>
      <trkpt lat="42.51058" lon="-8.63267">
        <ele>294.3</ele>
        <time>2019-04-17T08:00:12Z</time>
      </trkpt>
      <trkpt lat="42.51058" lon="-8.63255">
        <ele>293.5</ele>
        <time>2019-04-17T08:00:12Z</time>
      </trkpt>
      <trkpt lat="42.51055" lon="-8.63245">
        <ele>293.3</ele>
        <time>2019-04-17T08:00:12Z</time>
      </trkpt>
      <trkpt lat="42.51045" lon="-8.63234">
        <ele>293.7</ele>
        <time>2019-04-17T08:00:12Z</time>
      </trkpt>
      <trkpt lat="42.5103" lon="-8.63225">
        <ele>296</ele>
        <time>2019-04-17T08:00:12Z</time>
      </trkpt>
      <trkpt lat="42.51032" lon="-8.63199">
        <ele>294.8</ele>
        <time>2019-04-17T08:00:12Z</time>
      </trkpt>
      <trkpt lat="42.5103" lon="-8.63172">
        <ele>295.5</ele>
        <time>2019-04-17T08:00:12Z</time>
      </trkpt>
      <trkpt lat="42.51032" lon="-8.63154">
        <ele>297.2</ele>
        <time>2019-04-17T08:00:12Z</time>
      </trkpt>
      <trkpt lat="42.51051" lon="-8.63114">
        <ele>297.8</ele>
        <time>2019-04-17T08:00:12Z</time>
      </trkpt>
      <trkpt lat="42.51074" lon="-8.63069">
        <ele>300</ele>
        <time>2019-04-17T08:00:12Z</time>
      </trkpt>
      <trkpt lat="42.51094" lon="-8.63036">
        <ele>301.6</ele>
        <time>2019-04-17T08:00:12Z</time>
      </trkpt>
      <trkpt lat="42.5111" lon="-8.62996">
        <ele>303.2</ele>
        <time>2019-04-17T08:00:12Z</time>
      </trkpt>
      <trkpt lat="42.51122" lon="-8.62983">
        <ele>303.9</ele>
        <time>2019-04-17T08:00:12Z</time>
      </trkpt>
      <trkpt lat="42.51151" lon="-8.62975">
        <ele>302.6</ele>
        <time>2019-04-17T08:00:12Z</time>
      </trkpt>
      <trkpt lat="42.51175" lon="-8.62964">
        <ele>302</ele>
        <time>2019-04-17T08:00:12Z</time>
      </trkpt>
      <trkpt lat="42.51213" lon="-8.62928">
        <ele>301.2</ele>
        <time>2019-04-17T08:00:12Z</time>
      </trkpt>
      <trkpt lat="42.51241" lon="-8.6289">
        <ele>302.6</ele>
        <time>2019-04-17T08:00:12Z</time>
      </trkpt>
      <trkpt lat="42.51257" lon="-8.62841">
        <ele>303.1</ele>
        <time>2019-04-17T08:00:12Z</time>
      </trkpt>
      <trkpt lat="42.51295" lon="-8.62735">
        <ele>303.4</ele>
        <time>2019-04-17T08:00:12Z</time>
      </trkpt>
      <trkpt lat="42.51307" lon="-8.62698">
        <ele>303.5</ele>
        <time>2019-04-17T08:00:12Z</time>
      </trkpt>
      <trkpt lat="42.51325" lon="-8.62676">
        <ele>302.9</ele>
        <time>2019-04-17T08:00:12Z</time>
      </trkpt>
      <trkpt lat="42.51371" lon="-8.62656">
        <ele>301.1</ele>
        <time>2019-04-17T08:00:12Z</time>
      </trkpt>
      <trkpt lat="42.51423" lon="-8.62605">
        <ele>297</ele>
        <time>2019-04-17T08:00:12Z</time>
      </trkpt>
      <trkpt lat="42.51464" lon="-8.62585">
        <ele>295.1</ele>
        <time>2019-04-17T08:00:12Z</time>
      </trkpt>
      <trkpt lat="42.51506" lon="-8.62563">
        <ele>292</ele>
        <time>2019-04-17T08:00:12Z</time>
      </trkpt>
      <trkpt lat="42.51522" lon="-8.62531">
        <ele>291.2</ele>
        <time>2019-04-17T08:00:12Z</time>
      </trkpt>
      <trkpt lat="42.51527" lon="-8.62495">
        <ele>292.3</ele>
        <time>2019-04-17T08:00:12Z</time>
      </trkpt>
      <trkpt lat="42.51492" lon="-8.62415">
        <ele>298.1</ele>
        <time>2019-04-17T08:00:12Z</time>
      </trkpt>
      <trkpt lat="42.5147" lon="-8.62384">
        <ele>299</ele>
        <time>2019-04-17T08:00:12Z</time>
      </trkpt>
      <trkpt lat="42.51456" lon="-8.62364">
        <ele>299.3</ele>
        <time>2019-04-17T08:00:12Z</time>
      </trkpt>
      <trkpt lat="42.51457" lon="-8.62316">
        <ele>296.5</ele>
        <time>2019-04-17T08:00:12Z</time>
      </trkpt>
      <trkpt lat="42.51469" lon="-8.62284">
        <ele>295.3</ele>
        <time>2019-04-17T08:00:12Z</time>
      </trkpt>
      <trkpt lat="42.51481" lon="-8.62237">
        <ele>293.2</ele>
        <time>2019-04-17T08:00:12Z</time>
      </trkpt>
      <trkpt lat="42.51485" lon="-8.6218">
        <ele>290.3</ele>
        <time>2019-04-17T08:00:12Z</time>
      </trkpt>
      <trkpt lat="42.51483" lon="-8.62149">
        <ele>289.4</ele>
        <time>2019-04-17T08:00:12Z</time>
      </trkpt>
      <trkpt lat="42.51465" lon="-8.62117">
        <ele>289.1</ele>
        <time>2019-04-17T08:00:12Z</time>
      </trkpt>
      <trkpt lat="42.51432" lon="-8.62089">
        <ele>287.9</ele>
        <time>2019-04-17T08:00:12Z</time>
      </trkpt>
      <trkpt lat="42.51416" lon="-8.62074">
        <ele>286.3</ele>
        <time>2019-04-17T08:00:12Z</time>
      </trkpt>
      <trkpt lat="42.51375" lon="-8.62069">
        <ele>286.2</ele>
        <time>2019-04-17T08:00:12Z</time>
      </trkpt>
      <trkpt lat="42.51362" lon="-8.62052">
        <ele>285.2</ele>
        <time>2019-04-17T08:00:12Z</time>
      </trkpt>
      <trkpt lat="42.5136" lon="-8.62032">
        <ele>281.9</ele>
        <time>2019-04-17T08:00:12Z</time>
      </trkpt>
      <trkpt lat="42.51337" lon="-8.61997">
        <ele>278.1</ele>
        <time>2019-04-17T08:00:12Z</time>
      </trkpt>
      <trkpt lat="42.51312" lon="-8.61988">
        <ele>277.7</ele>
        <time>2019-04-17T08:00:12Z</time>
      </trkpt>
      <trkpt lat="42.51289" lon="-8.61983">
        <ele>276.5</ele>
        <time>2019-04-17T08:00:12Z</time>
      </trkpt>
      <trkpt lat="42.51261" lon="-8.61981">
        <ele>275.4</ele>
        <time>2019-04-17T08:00:12Z</time>
      </trkpt>
      <trkpt lat="42.51248" lon="-8.61987">
        <ele>275.7</ele>
        <time>2019-04-17T08:00:12Z</time>
      </trkpt>
      <trkpt lat="42.51231" lon="-8.62">
        <ele>274.5</ele>
        <time>2019-04-17T08:00:12Z</time>
      </trkpt>
      <trkpt lat="42.51204" lon="-8.62026">
        <ele>272</ele>
        <time>2019-04-17T08:00:12Z</time>
      </trkpt>
      <trkpt lat="42.51197" lon="-8.62046">
        <ele>271.1</ele>
        <time>2019-04-17T08:00:12Z</time>
      </trkpt>
      <trkpt lat="42.51191" lon="-8.62057">
        <ele>271.2</ele>
        <time>2019-04-17T08:00:12Z</time>
      </trkpt>
      <trkpt lat="42.51183" lon="-8.62065">
        <ele>272.3</ele>
        <time>2019-04-17T08:00:12Z</time>
      </trkpt>
      <trkpt lat="42.51171" lon="-8.62073">
        <ele>273.2</ele>
        <time>2019-04-17T08:00:12Z</time>
      </trkpt>
      <trkpt lat="42.51157" lon="-8.62081">
        <ele>274.6</ele>
        <time>2019-04-17T08:00:12Z</time>
      </trkpt>
      <trkpt lat="42.5115" lon="-8.62088">
        <ele>275.6</ele>
        <time>2019-04-17T08:00:12Z</time>
      </trkpt>
      <trkpt lat="42.51144" lon="-8.621">
        <ele>276.6</ele>
        <time>2019-04-17T08:00:12Z</time>
      </trkpt>
      <trkpt lat="42.51137" lon="-8.62116">
        <ele>277.4</ele>
        <time>2019-04-17T08:00:12Z</time>
      </trkpt>
      <trkpt lat="42.51127" lon="-8.62129">
        <ele>277.6</ele>
        <time>2019-04-17T08:00:12Z</time>
      </trkpt>
      <trkpt lat="42.51115" lon="-8.62134">
        <ele>276.2</ele>
        <time>2019-04-17T08:00:12Z</time>
      </trkpt>
      <trkpt lat="42.51098" lon="-8.62134">
        <ele>276</ele>
        <time>2019-04-17T08:00:12Z</time>
      </trkpt>
      <trkpt lat="42.51087" lon="-8.62131">
        <ele>276</ele>
        <time>2019-04-17T08:00:12Z</time>
      </trkpt>
      <trkpt lat="42.51075" lon="-8.62123">
        <ele>276.8</ele>
        <time>2019-04-17T08:00:12Z</time>
      </trkpt>
      <trkpt lat="42.51067" lon="-8.62092">
        <ele>276.6</ele>
        <time>2019-04-17T08:00:12Z</time>
      </trkpt>
      <trkpt lat="42.5106" lon="-8.62052">
        <ele>276.3</ele>
        <time>2019-04-17T08:00:12Z</time>
      </trkpt>
      <trkpt lat="42.51037" lon="-8.62021">
        <ele>275.3</ele>
        <time>2019-04-17T08:00:12Z</time>
      </trkpt>
      <trkpt lat="42.50983" lon="-8.61959">
        <ele>272.8</ele>
        <time>2019-04-17T08:00:12Z</time>
      </trkpt>
      <trkpt lat="42.50965" lon="-8.6195">
        <ele>270.8</ele>
        <time>2019-04-17T08:00:12Z</time>
      </trkpt>
      <trkpt lat="42.50949" lon="-8.61945">
        <ele>269.3</ele>
        <time>2019-04-17T08:00:12Z</time>
      </trkpt>
      <trkpt lat="42.5094" lon="-8.61941">
        <ele>268.4</ele>
        <time>2019-04-17T08:00:12Z</time>
      </trkpt>
      <trkpt lat="42.5093" lon="-8.61944">
        <ele>267.4</ele>
        <time>2019-04-17T08:00:12Z</time>
      </trkpt>
      <trkpt lat="42.5092" lon="-8.61958">
        <ele>266.6</ele>
        <time>2019-04-17T08:00:12Z</time>
      </trkpt>
      <trkpt lat="42.50907" lon="-8.61972">
        <ele>265.6</ele>
        <time>2019-04-17T08:00:12Z</time>
      </trkpt>
      <trkpt lat="42.50898" lon="-8.61973">
        <ele>265.4</ele>
        <time>2019-04-17T08:00:12Z</time>
      </trkpt>
      <trkpt lat="42.5089" lon="-8.61968">
        <ele>264.3</ele>
        <time>2019-04-17T08:00:12Z</time>
      </trkpt>
      <trkpt lat="42.50872" lon="-8.61933">
        <ele>264.1</ele>
        <time>2019-04-17T08:00:12Z</time>
      </trkpt>
      <trkpt lat="42.50864" lon="-8.61919">
        <ele>264.7</ele>
        <time>2019-04-17T08:00:12Z</time>
      </trkpt>
      <trkpt lat="42.50851" lon="-8.61914">
        <ele>263.7</ele>
        <time>2019-04-17T08:00:12Z</time>
      </trkpt>
      <trkpt lat="42.50835" lon="-8.61915">
        <ele>262.9</ele>
        <time>2019-04-17T08:00:12Z</time>
      </trkpt>
      <trkpt lat="42.50799" lon="-8.61935">
        <ele>261.9</ele>
        <time>2019-04-17T08:00:12Z</time>
      </trkpt>
      <trkpt lat="42.50784" lon="-8.61945">
        <ele>260.4</ele>
        <time>2019-04-17T08:00:12Z</time>
      </trkpt>
      <trkpt lat="42.50762" lon="-8.61952">
        <ele>258.7</ele>
        <time>2019-04-17T08:00:12Z</time>
      </trkpt>
      <trkpt lat="42.50738" lon="-8.61953">
        <ele>256.9</ele>
        <time>2019-04-17T08:00:12Z</time>
      </trkpt>
      <trkpt lat="42.50707" lon="-8.61948">
        <ele>254.6</ele>
        <time>2019-04-17T08:00:12Z</time>
      </trkpt>
      <trkpt lat="42.50682" lon="-8.6194">
        <ele>251</ele>
        <time>2019-04-17T08:00:12Z</time>
      </trkpt>
      <trkpt lat="42.5065" lon="-8.61934">
        <ele>246.6</ele>
        <time>2019-04-17T08:00:12Z</time>
      </trkpt>
      <trkpt lat="42.50608" lon="-8.61941">
        <ele>240.1</ele>
        <time>2019-04-17T08:00:12Z</time>
      </trkpt>
      <trkpt lat="42.50583" lon="-8.61943">
        <ele>237.7</ele>
        <time>2019-04-17T08:00:12Z</time>
      </trkpt>
      <trkpt lat="42.50546" lon="-8.61936">
        <ele>235.7</ele>
        <time>2019-04-17T08:00:12Z</time>
      </trkpt>
      <trkpt lat="42.50503" lon="-8.61928">
        <ele>232.4</ele>
        <time>2019-04-17T08:00:12Z</time>
      </trkpt>
      <trkpt lat="42.50476" lon="-8.6192">
        <ele>230.9</ele>
        <time>2019-04-17T08:00:12Z</time>
      </trkpt>
      <trkpt lat="42.50458" lon="-8.61905">
        <ele>230.7</ele>
        <time>2019-04-17T08:00:12Z</time>
      </trkpt>
      <trkpt lat="42.50431" lon="-8.61883">
        <ele>230.5</ele>
        <time>2019-04-17T08:00:12Z</time>
      </trkpt>
      <trkpt lat="42.50416" lon="-8.61866">
        <ele>229.3</ele>
        <time>2019-04-17T08:00:12Z</time>
      </trkpt>
      <trkpt lat="42.504" lon="-8.6186">
        <ele>227.3</ele>
        <time>2019-04-17T08:00:12Z</time>
      </trkpt>
      <trkpt lat="42.5038" lon="-8.61866">
        <ele>228.4</ele>
        <time>2019-04-17T08:00:12Z</time>
      </trkpt>
      <trkpt lat="42.50366" lon="-8.61853">
        <ele>226.8</ele>
        <time>2019-04-17T08:00:12Z</time>
      </trkpt>
      <trkpt lat="42.50351" lon="-8.6184">
        <ele>226.3</ele>
        <time>2019-04-17T08:00:12Z</time>
      </trkpt>
      <trkpt lat="42.50331" lon="-8.61823">
        <ele>224.1</ele>
        <time>2019-04-17T08:00:12Z</time>
      </trkpt>
      <trkpt lat="42.50316" lon="-8.61805">
        <ele>220.2</ele>
        <time>2019-04-17T08:00:12Z</time>
      </trkpt>
      <trkpt lat="42.50307" lon="-8.61794">
        <ele>218.8</ele>
        <time>2019-04-17T08:00:12Z</time>
      </trkpt>
      <trkpt lat="42.50316" lon="-8.61783">
        <ele>217.7</ele>
        <time>2019-04-17T08:00:12Z</time>
      </trkpt>
      <trkpt lat="42.50336" lon="-8.61784">
        <ele>217.9</ele>
        <time>2019-04-17T08:00:12Z</time>
      </trkpt>
      <trkpt lat="42.50359" lon="-8.61786">
        <ele>217.6</ele>
        <time>2019-04-17T08:00:12Z</time>
      </trkpt>
      <trkpt lat="42.50401" lon="-8.61793">
        <ele>218</ele>
        <time>2019-04-17T08:00:12Z</time>
      </trkpt>
      <trkpt lat="42.50423" lon="-8.61798">
        <ele>217.9</ele>
        <time>2019-04-17T08:00:12Z</time>
      </trkpt>
      <trkpt lat="42.5044" lon="-8.61801">
        <ele>217.3</ele>
        <time>2019-04-17T08:00:12Z</time>
      </trkpt>
      <trkpt lat="42.50459" lon="-8.61803">
        <ele>217.5</ele>
        <time>2019-04-17T08:00:12Z</time>
      </trkpt>
      <trkpt lat="42.50488" lon="-8.61803">
        <ele>217.4</ele>
        <time>2019-04-17T08:00:12Z</time>
      </trkpt>
      <trkpt lat="42.50513" lon="-8.61802">
        <ele>217.8</ele>
        <time>2019-04-17T08:00:12Z</time>
      </trkpt>
      <trkpt lat="42.50543" lon="-8.61804">
        <ele>219.3</ele>
        <time>2019-04-17T08:00:12Z</time>
      </trkpt>
      <trkpt lat="42.50575" lon="-8.61809">
        <ele>220</ele>
        <time>2019-04-17T08:00:12Z</time>
      </trkpt>
      <trkpt lat="42.50606" lon="-8.61806">
        <ele>221.4</ele>
        <time>2019-04-17T08:00:12Z</time>
      </trkpt>
      <trkpt lat="42.5062" lon="-8.61798">
        <ele>220.7</ele>
        <time>2019-04-17T08:00:12Z</time>
      </trkpt>
      <trkpt lat="42.50634" lon="-8.61793">
        <ele>221.1</ele>
        <time>2019-04-17T08:00:12Z</time>
      </trkpt>
      <trkpt lat="42.50647" lon="-8.61789">
        <ele>221.7</ele>
        <time>2019-04-17T08:00:12Z</time>
      </trkpt>
      <trkpt lat="42.50671" lon="-8.61794">
        <ele>223.4</ele>
        <time>2019-04-17T08:00:12Z</time>
      </trkpt>
      <trkpt lat="42.50693" lon="-8.61793">
        <ele>223.2</ele>
        <time>2019-04-17T08:00:12Z</time>
      </trkpt>
      <trkpt lat="42.50712" lon="-8.61796">
        <ele>223.9</ele>
        <time>2019-04-17T08:00:12Z</time>
      </trkpt>
      <trkpt lat="42.50731" lon="-8.61791">
        <ele>224.1</ele>
        <time>2019-04-17T08:00:12Z</time>
      </trkpt>
      <trkpt lat="42.50727" lon="-8.61778">
        <ele>222.4</ele>
        <time>2019-04-17T08:00:12Z</time>
      </trkpt>
      <trkpt lat="42.50713" lon="-8.61773">
        <ele>222</ele>
        <time>2019-04-17T08:00:12Z</time>
      </trkpt>
      <trkpt lat="42.50694" lon="-8.61768">
        <ele>221.3</ele>
        <time>2019-04-17T08:00:12Z</time>
      </trkpt>
      <trkpt lat="42.50675" lon="-8.61762">
        <ele>220.4</ele>
        <time>2019-04-17T08:00:12Z</time>
      </trkpt>
      <trkpt lat="42.50664" lon="-8.61752">
        <ele>218.7</ele>
        <time>2019-04-17T08:00:12Z</time>
      </trkpt>
      <trkpt lat="42.50648" lon="-8.61736">
        <ele>218.2</ele>
        <time>2019-04-17T08:00:12Z</time>
      </trkpt>
      <trkpt lat="42.50634" lon="-8.61716">
        <ele>218</ele>
        <time>2019-04-17T08:00:12Z</time>
      </trkpt>
      <trkpt lat="42.50624" lon="-8.61692">
        <ele>218</ele>
        <time>2019-04-17T08:00:12Z</time>
      </trkpt>
      <trkpt lat="42.50611" lon="-8.61661">
        <ele>216.5</ele>
        <time>2019-04-17T08:00:12Z</time>
      </trkpt>
      <trkpt lat="42.50582" lon="-8.61645">
        <ele>214.2</ele>
        <time>2019-04-17T08:00:12Z</time>
      </trkpt>
      <trkpt lat="42.50557" lon="-8.61629">
        <ele>213.7</ele>
        <time>2019-04-17T08:00:12Z</time>
      </trkpt>
      <trkpt lat="42.50532" lon="-8.61619">
        <ele>214.2</ele>
        <time>2019-04-17T08:00:12Z</time>
      </trkpt>
      <trkpt lat="42.50484" lon="-8.61604">
        <ele>214.2</ele>
        <time>2019-04-17T08:00:12Z</time>
      </trkpt>
      <trkpt lat="42.5046" lon="-8.616">
        <ele>214.8</ele>
        <time>2019-04-17T08:00:12Z</time>
      </trkpt>
      <trkpt lat="42.50427" lon="-8.61609">
        <ele>214.3</ele>
        <time>2019-04-17T08:00:12Z</time>
      </trkpt>
      <trkpt lat="42.50398" lon="-8.61606">
        <ele>215.6</ele>
        <time>2019-04-17T08:00:12Z</time>
      </trkpt>
      <trkpt lat="42.50356" lon="-8.61602">
        <ele>215.5</ele>
        <time>2019-04-17T08:00:12Z</time>
      </trkpt>
      <trkpt lat="42.50319" lon="-8.61576">
        <ele>214.8</ele>
        <time>2019-04-17T08:00:12Z</time>
      </trkpt>
      <trkpt lat="42.50291" lon="-8.61568">
        <ele>214.2</ele>
        <time>2019-04-17T08:00:12Z</time>
      </trkpt>
      <trkpt lat="42.5026" lon="-8.61562">
        <ele>213.8</ele>
        <time>2019-04-17T08:00:12Z</time>
      </trkpt>
      <trkpt lat="42.50246" lon="-8.6155">
        <ele>214.6</ele>
        <time>2019-04-17T08:00:12Z</time>
      </trkpt>
      <trkpt lat="42.50206" lon="-8.61546">
        <ele>215.1</ele>
        <time>2019-04-17T08:00:12Z</time>
      </trkpt>
      <trkpt lat="42.50179" lon="-8.61545">
        <ele>214.1</ele>
        <time>2019-04-17T08:00:12Z</time>
      </trkpt>
      <trkpt lat="42.50149" lon="-8.61529">
        <ele>213.9</ele>
        <time>2019-04-17T08:00:12Z</time>
      </trkpt>
      <trkpt lat="42.50126" lon="-8.61502">
        <ele>215.4</ele>
        <time>2019-04-17T08:00:12Z</time>
      </trkpt>
      <trkpt lat="42.50112" lon="-8.61485">
        <ele>214.2</ele>
        <time>2019-04-17T08:00:12Z</time>
      </trkpt>
      <trkpt lat="42.50098" lon="-8.61475">
        <ele>214.3</ele>
        <time>2019-04-17T08:00:12Z</time>
      </trkpt>
      <trkpt lat="42.50086" lon="-8.61471">
        <ele>214.4</ele>
        <time>2019-04-17T08:00:12Z</time>
      </trkpt>
      <trkpt lat="42.50078" lon="-8.61474">
        <ele>214.7</ele>
        <time>2019-04-17T08:00:12Z</time>
      </trkpt>
      <trkpt lat="42.50068" lon="-8.61485">
        <ele>214.8</ele>
        <time>2019-04-17T08:00:12Z</time>
      </trkpt>
      <trkpt lat="42.50056" lon="-8.61493">
        <ele>214.9</ele>
        <time>2019-04-17T08:00:12Z</time>
      </trkpt>
      <trkpt lat="42.50047" lon="-8.61495">
        <ele>214.3</ele>
        <time>2019-04-17T08:00:12Z</time>
      </trkpt>
      <trkpt lat="42.50037" lon="-8.61493">
        <ele>214.1</ele>
        <time>2019-04-17T08:00:12Z</time>
      </trkpt>
      <trkpt lat="42.50029" lon="-8.61483">
        <ele>214.4</ele>
        <time>2019-04-17T08:00:12Z</time>
      </trkpt>
      <trkpt lat="42.50026" lon="-8.61464">
        <ele>214.5</ele>
        <time>2019-04-17T08:00:12Z</time>
      </trkpt>
      <trkpt lat="42.50033" lon="-8.61414">
        <ele>214.4</ele>
        <time>2019-04-17T08:00:12Z</time>
      </trkpt>
      <trkpt lat="42.50044" lon="-8.61361">
        <ele>213.8</ele>
        <time>2019-04-17T08:00:12Z</time>
      </trkpt>
      <trkpt lat="42.50044" lon="-8.6134">
        <ele>214.1</ele>
        <time>2019-04-17T08:00:12Z</time>
      </trkpt>
      <trkpt lat="42.50035" lon="-8.61324">
        <ele>214</ele>
        <time>2019-04-17T08:00:12Z</time>
      </trkpt>
      <trkpt lat="42.5001" lon="-8.61321">
        <ele>214.4</ele>
        <time>2019-04-17T08:00:12Z</time>
      </trkpt>
      <trkpt lat="42.4997" lon="-8.61328">
        <ele>214.7</ele>
        <time>2019-04-17T08:00:12Z</time>
      </trkpt>
      <trkpt lat="42.49921" lon="-8.61334">
        <ele>213.9</ele>
        <time>2019-04-17T08:00:12Z</time>
      </trkpt>
      <trkpt lat="42.499" lon="-8.61346">
        <ele>215</ele>
        <time>2019-04-17T08:00:12Z</time>
      </trkpt>
      <trkpt lat="42.49879" lon="-8.61356">
        <ele>214.8</ele>
        <time>2019-04-17T08:00:12Z</time>
      </trkpt>
      <trkpt lat="42.49843" lon="-8.61361">
        <ele>214.8</ele>
        <time>2019-04-17T08:00:12Z</time>
      </trkpt>
      <trkpt lat="42.49826" lon="-8.61367">
        <ele>215.3</ele>
        <time>2019-04-17T08:00:12Z</time>
      </trkpt>
      <trkpt lat="42.49797" lon="-8.61401">
        <ele>214.5</ele>
        <time>2019-04-17T08:00:12Z</time>
      </trkpt>
      <trkpt lat="42.4979" lon="-8.61412">
        <ele>214.3</ele>
        <time>2019-04-17T08:00:12Z</time>
      </trkpt>
      <trkpt lat="42.49781" lon="-8.61423">
        <ele>214</ele>
        <time>2019-04-17T08:00:12Z</time>
      </trkpt>
      <trkpt lat="42.49765" lon="-8.61428">
        <ele>214.2</ele>
        <time>2019-04-17T08:00:12Z</time>
      </trkpt>
      <trkpt lat="42.49754" lon="-8.61437">
        <ele>213.6</ele>
        <time>2019-04-17T08:00:12Z</time>
      </trkpt>
      <trkpt lat="42.49751" lon="-8.61448">
        <ele>213</ele>
        <time>2019-04-17T08:00:12Z</time>
      </trkpt>
      <trkpt lat="42.49749" lon="-8.61463">
        <ele>213.1</ele>
        <time>2019-04-17T08:00:12Z</time>
      </trkpt>
      <trkpt lat="42.49743" lon="-8.61477">
        <ele>213.2</ele>
        <time>2019-04-17T08:00:12Z</time>
      </trkpt>
      <trkpt lat="42.49733" lon="-8.6148">
        <ele>213.6</ele>
        <time>2019-04-17T08:00:12Z</time>
      </trkpt>
      <trkpt lat="42.49708" lon="-8.61469">
        <ele>214.2</ele>
        <time>2019-04-17T08:00:12Z</time>
      </trkpt>
      <trkpt lat="42.49679" lon="-8.61452">
        <ele>214.5</ele>
        <time>2019-04-17T08:00:12Z</time>
      </trkpt>
      <trkpt lat="42.49662" lon="-8.61442">
        <ele>215.3</ele>
        <time>2019-04-17T08:00:12Z</time>
      </trkpt>
      <trkpt lat="42.49654" lon="-8.6143">
        <ele>217.3</ele>
        <time>2019-04-17T08:00:12Z</time>
      </trkpt>
      <trkpt lat="42.49635" lon="-8.6142">
        <ele>219.9</ele>
        <time>2019-04-17T08:00:12Z</time>
      </trkpt>
      <trkpt lat="42.4961" lon="-8.61415">
        <ele>223.1</ele>
        <time>2019-04-17T08:00:12Z</time>
      </trkpt>
      <trkpt lat="42.49591" lon="-8.61422">
        <ele>222.4</ele>
        <time>2019-04-17T08:00:12Z</time>
      </trkpt>
      <trkpt lat="42.49557" lon="-8.61446">
        <ele>223.4</ele>
        <time>2019-04-17T08:00:12Z</time>
      </trkpt>
      <trkpt lat="42.4954" lon="-8.6147">
        <ele>221.6</ele>
        <time>2019-04-17T08:00:12Z</time>
      </trkpt>
      <trkpt lat="42.4953" lon="-8.61492">
        <ele>222.5</ele>
        <time>2019-04-17T08:00:12Z</time>
      </trkpt>
      <trkpt lat="42.49522" lon="-8.61524">
        <ele>222.8</ele>
        <time>2019-04-17T08:00:12Z</time>
      </trkpt>
      <trkpt lat="42.49518" lon="-8.61556">
        <ele>219.5</ele>
        <time>2019-04-17T08:00:12Z</time>
      </trkpt>
      <trkpt lat="42.49519" lon="-8.61585">
        <ele>215.8</ele>
        <time>2019-04-17T08:00:12Z</time>
      </trkpt>
      <trkpt lat="42.49518" lon="-8.61599">
        <ele>214.6</ele>
        <time>2019-04-17T08:00:12Z</time>
      </trkpt>
      <trkpt lat="42.49526" lon="-8.61616">
        <ele>213.5</ele>
        <time>2019-04-17T08:00:12Z</time>
      </trkpt>
      <trkpt lat="42.49545" lon="-8.61635">
        <ele>212.9</ele>
        <time>2019-04-17T08:00:12Z</time>
      </trkpt>
      <trkpt lat="42.49551" lon="-8.61652">
        <ele>211.9</ele>
        <time>2019-04-17T08:00:12Z</time>
      </trkpt>
      <trkpt lat="42.49557" lon="-8.61669">
        <ele>211.5</ele>
        <time>2019-04-17T08:00:12Z</time>
      </trkpt>
      <trkpt lat="42.49567" lon="-8.61676">
        <ele>213.9</ele>
        <time>2019-04-17T08:00:12Z</time>
      </trkpt>
      <trkpt lat="42.49613" lon="-8.61687">
        <ele>216.3</ele>
        <time>2019-04-17T08:00:12Z</time>
      </trkpt>
      <trkpt lat="42.49643" lon="-8.617">
        <ele>218.4</ele>
        <time>2019-04-17T08:00:12Z</time>
      </trkpt>
      <trkpt lat="42.49668" lon="-8.61732">
        <ele>220.6</ele>
        <time>2019-04-17T08:00:12Z</time>
      </trkpt>
      <trkpt lat="42.49703" lon="-8.61771">
        <ele>220.6</ele>
        <time>2019-04-17T08:00:12Z</time>
      </trkpt>
      <trkpt lat="42.49777" lon="-8.61833">
        <ele>216.2</ele>
        <time>2019-04-17T08:00:12Z</time>
      </trkpt>
      <trkpt lat="42.4979" lon="-8.6184">
        <ele>215.7</ele>
        <time>2019-04-17T08:00:12Z</time>
      </trkpt>
      <trkpt lat="42.49791" lon="-8.61865">
        <ele>215.8</ele>
        <time>2019-04-17T08:00:12Z</time>
      </trkpt>
      <trkpt lat="42.49782" lon="-8.61883">
        <ele>214.5</ele>
        <time>2019-04-17T08:00:12Z</time>
      </trkpt>
      <trkpt lat="42.49761" lon="-8.61892">
        <ele>214.2</ele>
        <time>2019-04-17T08:00:12Z</time>
      </trkpt>
      <trkpt lat="42.49754" lon="-8.6191">
        <ele>212.4</ele>
        <time>2019-04-17T08:00:12Z</time>
      </trkpt>
      <trkpt lat="42.49746" lon="-8.6195">
        <ele>208.7</ele>
        <time>2019-04-17T08:00:12Z</time>
      </trkpt>
      <trkpt lat="42.49741" lon="-8.61979">
        <ele>208</ele>
        <time>2019-04-17T08:00:12Z</time>
      </trkpt>
      <trkpt lat="42.49739" lon="-8.62">
        <ele>206.7</ele>
        <time>2019-04-17T08:00:12Z</time>
      </trkpt>
      <trkpt lat="42.49747" lon="-8.62033">
        <ele>203.9</ele>
        <time>2019-04-17T08:00:12Z</time>
      </trkpt>
      <trkpt lat="42.49758" lon="-8.62072">
        <ele>201.5</ele>
        <time>2019-04-17T08:00:12Z</time>
      </trkpt>
      <trkpt lat="42.49758" lon="-8.62091">
        <ele>200.5</ele>
        <time>2019-04-17T08:00:12Z</time>
      </trkpt>
      <trkpt lat="42.49748" lon="-8.62112">
        <ele>199.1</ele>
        <time>2019-04-17T08:00:12Z</time>
      </trkpt>
      <trkpt lat="42.49721" lon="-8.62146">
        <ele>197</ele>
        <time>2019-04-17T08:00:12Z</time>
      </trkpt>
      <trkpt lat="42.49704" lon="-8.6216">
        <ele>195.6</ele>
        <time>2019-04-17T08:00:12Z</time>
      </trkpt>
      <trkpt lat="42.49686" lon="-8.62192">
        <ele>194.4</ele>
        <time>2019-04-17T08:00:12Z</time>
      </trkpt>
      <trkpt lat="42.49658" lon="-8.62208">
        <ele>194.9</ele>
        <time>2019-04-17T08:00:12Z</time>
      </trkpt>
      <trkpt lat="42.49625" lon="-8.62224">
        <ele>194.7</ele>
        <time>2019-04-17T08:00:12Z</time>
      </trkpt>
      <trkpt lat="42.49568" lon="-8.62279">
        <ele>194</ele>
        <time>2019-04-17T08:00:12Z</time>
      </trkpt>
      <trkpt lat="42.49515" lon="-8.6234">
        <ele>192.9</ele>
        <time>2019-04-17T08:00:12Z</time>
      </trkpt>
      <trkpt lat="42.49481" lon="-8.62383">
        <ele>191.1</ele>
        <time>2019-04-17T08:00:12Z</time>
      </trkpt>
      <trkpt lat="42.49462" lon="-8.62401">
        <ele>191.9</ele>
        <time>2019-04-17T08:00:12Z</time>
      </trkpt>
      <trkpt lat="42.49447" lon="-8.62407">
        <ele>193.8</ele>
        <time>2019-04-17T08:00:12Z</time>
      </trkpt>
      <trkpt lat="42.49435" lon="-8.62427">
        <ele>193.1</ele>
        <time>2019-04-17T08:00:12Z</time>
      </trkpt>
      <trkpt lat="42.49419" lon="-8.62433">
        <ele>194.4</ele>
        <time>2019-04-17T08:00:12Z</time>
      </trkpt>
      <trkpt lat="42.49386" lon="-8.62425">
        <ele>192.7</ele>
        <time>2019-04-17T08:00:12Z</time>
      </trkpt>
      <trkpt lat="42.49365" lon="-8.62412">
        <ele>192.6</ele>
        <time>2019-04-17T08:00:12Z</time>
      </trkpt>
      <trkpt lat="42.49337" lon="-8.62389">
        <ele>192.8</ele>
        <time>2019-04-17T08:00:12Z</time>
      </trkpt>
      <trkpt lat="42.49289" lon="-8.62359">
        <ele>191.6</ele>
        <time>2019-04-17T08:00:12Z</time>
      </trkpt>
      <trkpt lat="42.49274" lon="-8.6235">
        <ele>191</ele>
        <time>2019-04-17T08:00:12Z</time>
      </trkpt>
      <trkpt lat="42.49252" lon="-8.62322">
        <ele>192.4</ele>
        <time>2019-04-17T08:00:12Z</time>
      </trkpt>
      <trkpt lat="42.49235" lon="-8.62311">
        <ele>191.4</ele>
        <time>2019-04-17T08:00:12Z</time>
      </trkpt>
      <trkpt lat="42.4921" lon="-8.62301">
        <ele>190.3</ele>
        <time>2019-04-17T08:00:12Z</time>
      </trkpt>
      <trkpt lat="42.49197" lon="-8.62301">
        <ele>189.8</ele>
        <time>2019-04-17T08:00:12Z</time>
      </trkpt>
      <trkpt lat="42.49186" lon="-8.62301">
        <ele>190.2</ele>
        <time>2019-04-17T08:00:12Z</time>
      </trkpt>
      <trkpt lat="42.49173" lon="-8.62311">
        <ele>190</ele>
        <time>2019-04-17T08:00:12Z</time>
      </trkpt>
      <trkpt lat="42.49167" lon="-8.62315">
        <ele>190.3</ele>
        <time>2019-04-17T08:00:12Z</time>
      </trkpt>
      <trkpt lat="42.4916" lon="-8.62328">
        <ele>190.4</ele>
        <time>2019-04-17T08:00:12Z</time>
      </trkpt>
      <trkpt lat="42.49151" lon="-8.62341">
        <ele>190</ele>
        <time>2019-04-17T08:00:12Z</time>
      </trkpt>
      <trkpt lat="42.49134" lon="-8.62356">
        <ele>189.2</ele>
        <time>2019-04-17T08:00:12Z</time>
      </trkpt>
      <trkpt lat="42.49117" lon="-8.6236">
        <ele>189.1</ele>
        <time>2019-04-17T08:00:12Z</time>
      </trkpt>
      <trkpt lat="42.49097" lon="-8.62367">
        <ele>190.1</ele>
        <time>2019-04-17T08:00:12Z</time>
      </trkpt>
      <trkpt lat="42.49075" lon="-8.62379">
        <ele>190.1</ele>
        <time>2019-04-17T08:00:12Z</time>
      </trkpt>
      <trkpt lat="42.49051" lon="-8.62392">
        <ele>189.8</ele>
        <time>2019-04-17T08:00:12Z</time>
      </trkpt>
      <trkpt lat="42.49034" lon="-8.62407">
        <ele>188.8</ele>
        <time>2019-04-17T08:00:12Z</time>
      </trkpt>
      <trkpt lat="42.49021" lon="-8.62413">
        <ele>188.5</ele>
        <time>2019-04-17T08:00:12Z</time>
      </trkpt>
      <trkpt lat="42.48974" lon="-8.6242">
        <ele>186.4</ele>
        <time>2019-04-17T08:00:12Z</time>
      </trkpt>
      <trkpt lat="42.48945" lon="-8.62429">
        <ele>186.2</ele>
        <time>2019-04-17T08:00:12Z</time>
      </trkpt>
      <trkpt lat="42.48926" lon="-8.62429">
        <ele>185.9</ele>
        <time>2019-04-17T08:00:12Z</time>
      </trkpt>
      <trkpt lat="42.48907" lon="-8.62419">
        <ele>186.8</ele>
        <time>2019-04-17T08:00:12Z</time>
      </trkpt>
      <trkpt lat="42.48893" lon="-8.6241">
        <ele>188.4</ele>
        <time>2019-04-17T08:00:12Z</time>
      </trkpt>
      <trkpt lat="42.48874" lon="-8.62409">
        <ele>188.8</ele>
        <time>2019-04-17T08:00:12Z</time>
      </trkpt>
      <trkpt lat="42.48846" lon="-8.62405">
        <ele>187.1</ele>
        <time>2019-04-17T08:00:12Z</time>
      </trkpt>
      <trkpt lat="42.48829" lon="-8.62389">
        <ele>186.3</ele>
        <time>2019-04-17T08:00:12Z</time>
      </trkpt>
      <trkpt lat="42.48819" lon="-8.62377">
        <ele>186.2</ele>
        <time>2019-04-17T08:00:12Z</time>
      </trkpt>
      <trkpt lat="42.48805" lon="-8.62372">
        <ele>184.8</ele>
        <time>2019-04-17T08:00:12Z</time>
      </trkpt>
      <trkpt lat="42.48785" lon="-8.62366">
        <ele>185.4</ele>
        <time>2019-04-17T08:00:12Z</time>
      </trkpt>
      <trkpt lat="42.48766" lon="-8.62372">
        <ele>184.2</ele>
        <time>2019-04-17T08:00:12Z</time>
      </trkpt>
      <trkpt lat="42.48752" lon="-8.62383">
        <ele>182.5</ele>
        <time>2019-04-17T08:00:12Z</time>
      </trkpt>
      <trkpt lat="42.48749" lon="-8.62391">
        <ele>182</ele>
        <time>2019-04-17T08:00:12Z</time>
      </trkpt>
      <trkpt lat="42.48749" lon="-8.62395">
        <ele>182.2</ele>
        <time>2019-04-17T08:00:12Z</time>
      </trkpt>
      <trkpt lat="42.48751" lon="-8.62411">
        <ele>182.8</ele>
        <time>2019-04-17T08:00:12Z</time>
      </trkpt>
      <trkpt lat="42.48757" lon="-8.6243">
        <ele>183.6</ele>
        <time>2019-04-17T08:00:12Z</time>
      </trkpt>
      <trkpt lat="42.48757" lon="-8.62439">
        <ele>184.2</ele>
        <time>2019-04-17T08:00:12Z</time>
      </trkpt>
      <trkpt lat="42.48742" lon="-8.62446">
        <ele>185.7</ele>
        <time>2019-04-17T08:00:12Z</time>
      </trkpt>
      <trkpt lat="42.48725" lon="-8.62453">
        <ele>187.4</ele>
        <time>2019-04-17T08:00:12Z</time>
      </trkpt>
      <trkpt lat="42.48713" lon="-8.62454">
        <ele>189.3</ele>
        <time>2019-04-17T08:00:12Z</time>
      </trkpt>
      <trkpt lat="42.48704" lon="-8.6245">
        <ele>190.6</ele>
        <time>2019-04-17T08:00:12Z</time>
      </trkpt>
      <trkpt lat="42.48689" lon="-8.62452">
        <ele>192.3</ele>
        <time>2019-04-17T08:00:12Z</time>
      </trkpt>
      <trkpt lat="42.48682" lon="-8.62459">
        <ele>193</ele>
        <time>2019-04-17T08:00:12Z</time>
      </trkpt>
      <trkpt lat="42.48668" lon="-8.62468">
        <ele>195</ele>
        <time>2019-04-17T08:00:12Z</time>
      </trkpt>
      <trkpt lat="42.48656" lon="-8.6248">
        <ele>195.8</ele>
        <time>2019-04-17T08:00:12Z</time>
      </trkpt>
      <trkpt lat="42.48652" lon="-8.62492">
        <ele>197.4</ele>
        <time>2019-04-17T08:00:12Z</time>
      </trkpt>
      <trkpt lat="42.48649" lon="-8.62499">
        <ele>198.4</ele>
        <time>2019-04-17T08:00:12Z</time>
      </trkpt>
      <trkpt lat="42.48647" lon="-8.62509">
        <ele>200</ele>
        <time>2019-04-17T08:00:12Z</time>
      </trkpt>
      <trkpt lat="42.48645" lon="-8.62517">
        <ele>201.3</ele>
        <time>2019-04-17T08:00:12Z</time>
      </trkpt>
      <trkpt lat="42.48636" lon="-8.62512">
        <ele>201.2</ele>
        <time>2019-04-17T08:00:12Z</time>
      </trkpt>
      <trkpt lat="42.4863" lon="-8.62507">
        <ele>200.3</ele>
        <time>2019-04-17T08:00:12Z</time>
      </trkpt>
      <trkpt lat="42.48621" lon="-8.62506">
        <ele>200.1</ele>
        <time>2019-04-17T08:00:12Z</time>
      </trkpt>
      <trkpt lat="42.48608" lon="-8.62513">
        <ele>202.1</ele>
        <time>2019-04-17T08:00:12Z</time>
      </trkpt>
      <trkpt lat="42.48595" lon="-8.62517">
        <ele>203.7</ele>
        <time>2019-04-17T08:00:12Z</time>
      </trkpt>
      <trkpt lat="42.48576" lon="-8.62521">
        <ele>204.4</ele>
        <time>2019-04-17T08:00:12Z</time>
      </trkpt>
      <trkpt lat="42.48559" lon="-8.62527">
        <ele>204.1</ele>
        <time>2019-04-17T08:00:12Z</time>
      </trkpt>
      <trkpt lat="42.48544" lon="-8.6253">
        <ele>204.7</ele>
        <time>2019-04-17T08:00:12Z</time>
      </trkpt>
      <trkpt lat="42.48532" lon="-8.62533">
        <ele>205.5</ele>
        <time>2019-04-17T08:00:12Z</time>
      </trkpt>
      <trkpt lat="42.48514" lon="-8.62537">
        <ele>206.3</ele>
        <time>2019-04-17T08:00:12Z</time>
      </trkpt>
      <trkpt lat="42.48503" lon="-8.62541">
        <ele>206.9</ele>
        <time>2019-04-17T08:00:12Z</time>
      </trkpt>
      <trkpt lat="42.48499" lon="-8.62549">
        <ele>207.4</ele>
        <time>2019-04-17T08:00:12Z</time>
      </trkpt>
      <trkpt lat="42.48496" lon="-8.62559">
        <ele>208.2</ele>
        <time>2019-04-17T08:00:12Z</time>
      </trkpt>
      <trkpt lat="42.48496" lon="-8.62566">
        <ele>209.2</ele>
        <time>2019-04-17T08:00:12Z</time>
      </trkpt>
      <trkpt lat="42.48498" lon="-8.62575">
        <ele>210.6</ele>
        <time>2019-04-17T08:00:12Z</time>
      </trkpt>
      <trkpt lat="42.48501" lon="-8.62585">
        <ele>212.1</ele>
        <time>2019-04-17T08:00:12Z</time>
      </trkpt>
      <trkpt lat="42.48504" lon="-8.62595">
        <ele>212.9</ele>
        <time>2019-04-17T08:00:12Z</time>
      </trkpt>
      <trkpt lat="42.485" lon="-8.62602">
        <ele>213.4</ele>
        <time>2019-04-17T08:00:12Z</time>
      </trkpt>
      <trkpt lat="42.48497" lon="-8.6261">
        <ele>213.6</ele>
        <time>2019-04-17T08:00:12Z</time>
      </trkpt>
      <trkpt lat="42.48491" lon="-8.62617">
        <ele>213.4</ele>
        <time>2019-04-17T08:00:12Z</time>
      </trkpt>
      <trkpt lat="42.48484" lon="-8.62626">
        <ele>213</ele>
        <time>2019-04-17T08:00:12Z</time>
      </trkpt>
      <trkpt lat="42.48468" lon="-8.62636">
        <ele>211.1</ele>
        <time>2019-04-17T08:00:12Z</time>
      </trkpt>
      <trkpt lat="42.48433" lon="-8.62662">
        <ele>209.2</ele>
        <time>2019-04-17T08:00:12Z</time>
      </trkpt>
      <trkpt lat="42.48407" lon="-8.62663">
        <ele>207.1</ele>
        <time>2019-04-17T08:00:12Z</time>
      </trkpt>
      <trkpt lat="42.48389" lon="-8.62665">
        <ele>206.1</ele>
        <time>2019-04-17T08:00:12Z</time>
      </trkpt>
      <trkpt lat="42.48379" lon="-8.62677">
        <ele>205.9</ele>
        <time>2019-04-17T08:00:12Z</time>
      </trkpt>
      <trkpt lat="42.48371" lon="-8.62684">
        <ele>205.6</ele>
        <time>2019-04-17T08:00:12Z</time>
      </trkpt>
      <trkpt lat="42.48354" lon="-8.62679">
        <ele>205</ele>
        <time>2019-04-17T08:00:12Z</time>
      </trkpt>
      <trkpt lat="42.48333" lon="-8.62666">
        <ele>204</ele>
        <time>2019-04-17T08:00:12Z</time>
      </trkpt>
      <trkpt lat="42.48315" lon="-8.6266">
        <ele>204.6</ele>
        <time>2019-04-17T08:00:12Z</time>
      </trkpt>
      <trkpt lat="42.48307" lon="-8.62657">
        <ele>205</ele>
        <time>2019-04-17T08:00:12Z</time>
      </trkpt>
      <trkpt lat="42.48296" lon="-8.62653">
        <ele>206.1</ele>
        <time>2019-04-17T08:00:12Z</time>
      </trkpt>
      <trkpt lat="42.48283" lon="-8.62653">
        <ele>206.8</ele>
        <time>2019-04-17T08:00:12Z</time>
      </trkpt>
      <trkpt lat="42.48268" lon="-8.62653">
        <ele>207</ele>
        <time>2019-04-17T08:00:12Z</time>
      </trkpt>
      <trkpt lat="42.48232" lon="-8.62645">
        <ele>207.6</ele>
        <time>2019-04-17T08:00:12Z</time>
      </trkpt>
      <trkpt lat="42.48194" lon="-8.62635">
        <ele>206.3</ele>
        <time>2019-04-17T08:00:12Z</time>
      </trkpt>
      <trkpt lat="42.48162" lon="-8.62626">
        <ele>204.5</ele>
        <time>2019-04-17T08:00:12Z</time>
      </trkpt>
      <trkpt lat="42.48134" lon="-8.62626">
        <ele>201.9</ele>
        <time>2019-04-17T08:00:12Z</time>
      </trkpt>
      <trkpt lat="42.48111" lon="-8.62626">
        <ele>199.4</ele>
        <time>2019-04-17T08:00:12Z</time>
      </trkpt>
      <trkpt lat="42.48091" lon="-8.6263">
        <ele>199.2</ele>
        <time>2019-04-17T08:00:12Z</time>
      </trkpt>
      <trkpt lat="42.48066" lon="-8.62641">
        <ele>198.8</ele>
        <time>2019-04-17T08:00:12Z</time>
      </trkpt>
      <trkpt lat="42.48035" lon="-8.62645">
        <ele>199.8</ele>
        <time>2019-04-17T08:00:12Z</time>
      </trkpt>
      <trkpt lat="42.48003" lon="-8.62651">
        <ele>200.9</ele>
        <time>2019-04-17T08:00:12Z</time>
      </trkpt>
      <trkpt lat="42.47997" lon="-8.62674">
        <ele>198.4</ele>
        <time>2019-04-17T08:00:12Z</time>
      </trkpt>
      <trkpt lat="42.47994" lon="-8.62723">
        <ele>193.9</ele>
        <time>2019-04-17T08:00:12Z</time>
      </trkpt>
      <trkpt lat="42.47986" lon="-8.62752">
        <ele>191.3</ele>
        <time>2019-04-17T08:00:12Z</time>
      </trkpt>
      <trkpt lat="42.47974" lon="-8.62765">
        <ele>190.8</ele>
        <time>2019-04-17T08:00:12Z</time>
      </trkpt>
      <trkpt lat="42.47959" lon="-8.62779">
        <ele>189.9</ele>
        <time>2019-04-17T08:00:12Z</time>
      </trkpt>
      <trkpt lat="42.4794" lon="-8.62789">
        <ele>189.6</ele>
        <time>2019-04-17T08:00:12Z</time>
      </trkpt>
      <trkpt lat="42.47928" lon="-8.6279">
        <ele>192.3</ele>
        <time>2019-04-17T08:00:12Z</time>
      </trkpt>
      <trkpt lat="42.47916" lon="-8.62777">
        <ele>195.2</ele>
        <time>2019-04-17T08:00:12Z</time>
      </trkpt>
      <trkpt lat="42.47895" lon="-8.62731">
        <ele>199.8</ele>
        <time>2019-04-17T08:00:12Z</time>
      </trkpt>
      <trkpt lat="42.47886" lon="-8.62703">
        <ele>200.7</ele>
        <time>2019-04-17T08:00:12Z</time>
      </trkpt>
      <trkpt lat="42.47862" lon="-8.62672">
        <ele>201.4</ele>
        <time>2019-04-17T08:00:12Z</time>
      </trkpt>
      <trkpt lat="42.47851" lon="-8.62674">
        <ele>202.1</ele>
        <time>2019-04-17T08:00:12Z</time>
      </trkpt>
      <trkpt lat="42.47818" lon="-8.62696">
        <ele>203.6</ele>
        <time>2019-04-17T08:00:12Z</time>
      </trkpt>
      <trkpt lat="42.47799" lon="-8.62706">
        <ele>204.1</ele>
        <time>2019-04-17T08:00:12Z</time>
      </trkpt>
      <trkpt lat="42.47776" lon="-8.62709">
        <ele>204.5</ele>
        <time>2019-04-17T08:00:12Z</time>
      </trkpt>
      <trkpt lat="42.47748" lon="-8.62711">
        <ele>205.3</ele>
        <time>2019-04-17T08:00:12Z</time>
      </trkpt>
      <trkpt lat="42.47733" lon="-8.62708">
        <ele>204.9</ele>
        <time>2019-04-17T08:00:12Z</time>
      </trkpt>
      <trkpt lat="42.47718" lon="-8.627">
        <ele>203.7</ele>
        <time>2019-04-17T08:00:12Z</time>
      </trkpt>
      <trkpt lat="42.47702" lon="-8.62693">
        <ele>201.8</ele>
        <time>2019-04-17T08:00:12Z</time>
      </trkpt>
      <trkpt lat="42.47688" lon="-8.62686">
        <ele>200.8</ele>
        <time>2019-04-17T08:00:12Z</time>
      </trkpt>
      <trkpt lat="42.47662" lon="-8.62677">
        <ele>199.2</ele>
        <time>2019-04-17T08:00:12Z</time>
      </trkpt>
      <trkpt lat="42.47649" lon="-8.6266">
        <ele>199.7</ele>
        <time>2019-04-17T08:00:12Z</time>
      </trkpt>
      <trkpt lat="42.47634" lon="-8.62651">
        <ele>199.4</ele>
        <time>2019-04-17T08:00:12Z</time>
      </trkpt>
      <trkpt lat="42.47619" lon="-8.62636">
        <ele>200.2</ele>
        <time>2019-04-17T08:00:12Z</time>
      </trkpt>
      <trkpt lat="42.47609" lon="-8.62614">
        <ele>201.5</ele>
        <time>2019-04-17T08:00:12Z</time>
      </trkpt>
      <trkpt lat="42.47608" lon="-8.62598">
        <ele>201.7</ele>
        <time>2019-04-17T08:00:12Z</time>
      </trkpt>
      <trkpt lat="42.47614" lon="-8.62578">
        <ele>202.3</ele>
        <time>2019-04-17T08:00:12Z</time>
      </trkpt>
      <trkpt lat="42.47612" lon="-8.62552">
        <ele>202.2</ele>
        <time>2019-04-17T08:00:12Z</time>
      </trkpt>
      <trkpt lat="42.47611" lon="-8.62531">
        <ele>202.9</ele>
        <time>2019-04-17T08:00:12Z</time>
      </trkpt>
      <trkpt lat="42.47605" lon="-8.62519">
        <ele>202.4</ele>
        <time>2019-04-17T08:00:12Z</time>
      </trkpt>
      <trkpt lat="42.47595" lon="-8.62511">
        <ele>201.9</ele>
        <time>2019-04-17T08:00:12Z</time>
      </trkpt>
      <trkpt lat="42.47587" lon="-8.62507">
        <ele>201.8</ele>
        <time>2019-04-17T08:00:12Z</time>
      </trkpt>
      <trkpt lat="42.47576" lon="-8.6251">
        <ele>201.4</ele>
        <time>2019-04-17T08:00:12Z</time>
      </trkpt>
      <trkpt lat="42.4756" lon="-8.62519">
        <ele>200.5</ele>
        <time>2019-04-17T08:00:12Z</time>
      </trkpt>
      <trkpt lat="42.47546" lon="-8.62523">
        <ele>198.6</ele>
        <time>2019-04-17T08:00:12Z</time>
      </trkpt>
      <trkpt lat="42.47536" lon="-8.62531">
        <ele>197.3</ele>
        <time>2019-04-17T08:00:12Z</time>
      </trkpt>
      <trkpt lat="42.47517" lon="-8.62541">
        <ele>196.1</ele>
        <time>2019-04-17T08:00:12Z</time>
      </trkpt>
      <trkpt lat="42.47504" lon="-8.62546">
        <ele>196.2</ele>
        <time>2019-04-17T08:00:12Z</time>
      </trkpt>
      <trkpt lat="42.47479" lon="-8.62547">
        <ele>197.7</ele>
        <time>2019-04-17T08:00:12Z</time>
      </trkpt>
      <trkpt lat="42.47462" lon="-8.62547">
        <ele>198.2</ele>
        <time>2019-04-17T08:00:12Z</time>
      </trkpt>
      <trkpt lat="42.47446" lon="-8.62552">
        <ele>199.2</ele>
        <time>2019-04-17T08:00:12Z</time>
      </trkpt>
      <trkpt lat="42.47414" lon="-8.6257">
        <ele>200.5</ele>
        <time>2019-04-17T08:00:12Z</time>
      </trkpt>
      <trkpt lat="42.474" lon="-8.62579">
        <ele>198.7</ele>
        <time>2019-04-17T08:00:12Z</time>
      </trkpt>
      <trkpt lat="42.47385" lon="-8.62582">
        <ele>196.4</ele>
        <time>2019-04-17T08:00:12Z</time>
      </trkpt>
      <trkpt lat="42.47357" lon="-8.62588">
        <ele>195.8</ele>
        <time>2019-04-17T08:00:12Z</time>
      </trkpt>
      <trkpt lat="42.47335" lon="-8.62598">
        <ele>197.3</ele>
        <time>2019-04-17T08:00:12Z</time>
      </trkpt>
      <trkpt lat="42.47318" lon="-8.62605">
        <ele>197.7</ele>
        <time>2019-04-17T08:00:12Z</time>
      </trkpt>
      <trkpt lat="42.47299" lon="-8.62613">
        <ele>198.5</ele>
        <time>2019-04-17T08:00:12Z</time>
      </trkpt>
      <trkpt lat="42.47275" lon="-8.62618">
        <ele>199.5</ele>
        <time>2019-04-17T08:00:12Z</time>
      </trkpt>
      <trkpt lat="42.47254" lon="-8.62626">
        <ele>198.4</ele>
        <time>2019-04-17T08:00:12Z</time>
      </trkpt>
      <trkpt lat="42.47243" lon="-8.62637">
        <ele>198.3</ele>
        <time>2019-04-17T08:00:12Z</time>
      </trkpt>
      <trkpt lat="42.47223" lon="-8.62645">
        <ele>198.2</ele>
        <time>2019-04-17T08:00:12Z</time>
      </trkpt>
      <trkpt lat="42.47204" lon="-8.62651">
        <ele>198.5</ele>
        <time>2019-04-17T08:00:12Z</time>
      </trkpt>
      <trkpt lat="42.47186" lon="-8.62647">
        <ele>198.1</ele>
        <time>2019-04-17T08:00:12Z</time>
      </trkpt>
      <trkpt lat="42.47172" lon="-8.62645">
        <ele>198.4</ele>
        <time>2019-04-17T08:00:12Z</time>
      </trkpt>
      <trkpt lat="42.47167" lon="-8.6264">
        <ele>198.1</ele>
        <time>2019-04-17T08:00:12Z</time>
      </trkpt>
      <trkpt lat="42.4716" lon="-8.62637">
        <ele>197.6</ele>
        <time>2019-04-17T08:00:12Z</time>
      </trkpt>
      <trkpt lat="42.47148" lon="-8.62637">
        <ele>197.2</ele>
        <time>2019-04-17T08:00:12Z</time>
      </trkpt>
      <trkpt lat="42.47138" lon="-8.62638">
        <ele>196.9</ele>
        <time>2019-04-17T08:00:12Z</time>
      </trkpt>
      <trkpt lat="42.47151" lon="-8.62618">
        <ele>195.5</ele>
        <time>2019-04-17T08:00:12Z</time>
      </trkpt>
      <trkpt lat="42.47158" lon="-8.62599">
        <ele>194.6</ele>
        <time>2019-04-17T08:00:12Z</time>
      </trkpt>
      <trkpt lat="42.4716" lon="-8.62581">
        <ele>193.6</ele>
        <time>2019-04-17T08:00:12Z</time>
      </trkpt>
      <trkpt lat="42.47161" lon="-8.62562">
        <ele>192.2</ele>
        <time>2019-04-17T08:00:12Z</time>
      </trkpt>
      <trkpt lat="42.47165" lon="-8.62544">
        <ele>190.7</ele>
        <time>2019-04-17T08:00:12Z</time>
      </trkpt>
      <trkpt lat="42.47174" lon="-8.62522">
        <ele>187.6</ele>
        <time>2019-04-17T08:00:12Z</time>
      </trkpt>
      <trkpt lat="42.47187" lon="-8.6251">
        <ele>184.9</ele>
        <time>2019-04-17T08:00:12Z</time>
      </trkpt>
      <trkpt lat="42.47206" lon="-8.62499">
        <ele>180.9</ele>
        <time>2019-04-17T08:00:12Z</time>
      </trkpt>
      <trkpt lat="42.47221" lon="-8.62495">
        <ele>177.7</ele>
        <time>2019-04-17T08:00:12Z</time>
      </trkpt>
      <trkpt lat="42.47235" lon="-8.62498">
        <ele>177.8</ele>
        <time>2019-04-17T08:00:12Z</time>
      </trkpt>
      <trkpt lat="42.47248" lon="-8.62498">
        <ele>177.7</ele>
        <time>2019-04-17T08:00:12Z</time>
      </trkpt>
      <trkpt lat="42.47259" lon="-8.62488">
        <ele>177.4</ele>
        <time>2019-04-17T08:00:12Z</time>
      </trkpt>
      <trkpt lat="42.47268" lon="-8.62478">
        <ele>176.9</ele>
        <time>2019-04-17T08:00:12Z</time>
      </trkpt>
      <trkpt lat="42.47277" lon="-8.62463">
        <ele>175.7</ele>
        <time>2019-04-17T08:00:12Z</time>
      </trkpt>
      <trkpt lat="42.47292" lon="-8.62454">
        <ele>172.6</ele>
        <time>2019-04-17T08:00:12Z</time>
      </trkpt>
      <trkpt lat="42.47303" lon="-8.62444">
        <ele>170.1</ele>
        <time>2019-04-17T08:00:12Z</time>
      </trkpt>
      <trkpt lat="42.47312" lon="-8.6243">
        <ele>167.9</ele>
        <time>2019-04-17T08:00:12Z</time>
      </trkpt>
      <trkpt lat="42.47313" lon="-8.62415">
        <ele>166.5</ele>
        <time>2019-04-17T08:00:12Z</time>
      </trkpt>
      <trkpt lat="42.4731" lon="-8.62407">
        <ele>165.6</ele>
        <time>2019-04-17T08:00:12Z</time>
      </trkpt>
      <trkpt lat="42.47297" lon="-8.624">
        <ele>165.2</ele>
        <time>2019-04-17T08:00:12Z</time>
      </trkpt>
      <trkpt lat="42.47235" lon="-8.6238">
        <ele>164</ele>
        <time>2019-04-17T08:00:12Z</time>
      </trkpt>
      <trkpt lat="42.47145" lon="-8.62347">
        <ele>170</ele>
        <time>2019-04-17T08:00:12Z</time>
      </trkpt>
      <trkpt lat="42.47114" lon="-8.6233">
        <ele>169.5</ele>
        <time>2019-04-17T08:00:12Z</time>
      </trkpt>
      <trkpt lat="42.47076" lon="-8.62352">
        <ele>170.6</ele>
        <time>2019-04-17T08:00:12Z</time>
      </trkpt>
      <trkpt lat="42.47036" lon="-8.62349">
        <ele>173</ele>
        <time>2019-04-17T08:00:12Z</time>
      </trkpt>
      <trkpt lat="42.47009" lon="-8.62338">
        <ele>175.4</ele>
        <time>2019-04-17T08:00:12Z</time>
      </trkpt>
      <trkpt lat="42.46914" lon="-8.62364">
        <ele>179.4</ele>
        <time>2019-04-17T08:00:12Z</time>
      </trkpt>
      <trkpt lat="42.46852" lon="-8.62377">
        <ele>182.4</ele>
        <time>2019-04-17T08:00:12Z</time>
      </trkpt>
      <trkpt lat="42.4681" lon="-8.62377">
        <ele>184.7</ele>
        <time>2019-04-17T08:00:12Z</time>
      </trkpt>
      <trkpt lat="42.4677" lon="-8.6237">
        <ele>186.6</ele>
        <time>2019-04-17T08:00:12Z</time>
      </trkpt>
      <trkpt lat="42.46743" lon="-8.62376">
        <ele>186.3</ele>
        <time>2019-04-17T08:00:12Z</time>
      </trkpt>
      <trkpt lat="42.46716" lon="-8.62391">
        <ele>184.6</ele>
        <time>2019-04-17T08:00:12Z</time>
      </trkpt>
      <trkpt lat="42.46715" lon="-8.62344">
        <ele>184.9</ele>
        <time>2019-04-17T08:00:12Z</time>
      </trkpt>
      <trkpt lat="42.46741" lon="-8.62254">
        <ele>183.5</ele>
        <time>2019-04-17T08:00:12Z</time>
      </trkpt>
      <trkpt lat="42.46767" lon="-8.62124">
        <ele>181.9</ele>
        <time>2019-04-17T08:00:12Z</time>
      </trkpt>
      <trkpt lat="42.4677" lon="-8.6208">
        <ele>182.5</ele>
        <time>2019-04-17T08:00:12Z</time>
      </trkpt>
      <trkpt lat="42.46819" lon="-8.62046">
        <ele>181.9</ele>
        <time>2019-04-17T08:00:12Z</time>
      </trkpt>
      <trkpt lat="42.46869" lon="-8.6203">
        <ele>182.3</ele>
        <time>2019-04-17T08:00:12Z</time>
      </trkpt>
      <trkpt lat="42.46887" lon="-8.62002">
        <ele>184.9</ele>
        <time>2019-04-17T08:00:12Z</time>
      </trkpt>
      <trkpt lat="42.469" lon="-8.61989">
        <ele>186.5</ele>
        <time>2019-04-17T08:00:12Z</time>
      </trkpt>
      <trkpt lat="42.4691" lon="-8.61981">
        <ele>187.1</ele>
        <time>2019-04-17T08:00:12Z</time>
      </trkpt>
      <trkpt lat="42.46924" lon="-8.61971">
        <ele>187.1</ele>
        <time>2019-04-17T08:00:12Z</time>
      </trkpt>
      <trkpt lat="42.46936" lon="-8.61973">
        <ele>186.9</ele>
        <time>2019-04-17T08:00:12Z</time>
      </trkpt>
      <trkpt lat="42.46947" lon="-8.61978">
        <ele>186.2</ele>
        <time>2019-04-17T08:00:12Z</time>
      </trkpt>
      <trkpt lat="42.46956" lon="-8.61974">
        <ele>187.1</ele>
        <time>2019-04-17T08:00:12Z</time>
      </trkpt>
      <trkpt lat="42.46981" lon="-8.6198">
        <ele>186.5</ele>
        <time>2019-04-17T08:00:12Z</time>
      </trkpt>
      <trkpt lat="42.47034" lon="-8.6196">
        <ele>185.6</ele>
        <time>2019-04-17T08:00:12Z</time>
      </trkpt>
      <trkpt lat="42.47065" lon="-8.61916">
        <ele>184</ele>
        <time>2019-04-17T08:00:12Z</time>
      </trkpt>
      <trkpt lat="42.47103" lon="-8.6184">
        <ele>181.8</ele>
        <time>2019-04-17T08:00:12Z</time>
      </trkpt>
      <trkpt lat="42.47086" lon="-8.61838">
        <ele>183</ele>
        <time>2019-04-17T08:00:12Z</time>
      </trkpt>
      <trkpt lat="42.47061" lon="-8.61882">
        <ele>185.6</ele>
        <time>2019-04-17T08:00:12Z</time>
      </trkpt>
      <trkpt lat="42.47034" lon="-8.61912">
        <ele>190</ele>
        <time>2019-04-17T08:00:12Z</time>
      </trkpt>
      <trkpt lat="42.47029" lon="-8.61888">
        <ele>191.8</ele>
        <time>2019-04-17T08:00:12Z</time>
      </trkpt>
      <trkpt lat="42.47034" lon="-8.61856">
        <ele>191.6</ele>
        <time>2019-04-17T08:00:12Z</time>
      </trkpt>
      <trkpt lat="42.47014" lon="-8.61889">
        <ele>195.5</ele>
        <time>2019-04-17T08:00:12Z</time>
      </trkpt>
      <trkpt lat="42.46999" lon="-8.61896">
        <ele>198.4</ele>
        <time>2019-04-17T08:00:12Z</time>
      </trkpt>
      <trkpt lat="42.47007" lon="-8.61859">
        <ele>199</ele>
        <time>2019-04-17T08:00:12Z</time>
      </trkpt>
      <trkpt lat="42.47002" lon="-8.61834">
        <ele>201.2</ele>
        <time>2019-04-17T08:00:12Z</time>
      </trkpt>
      <trkpt lat="42.4699" lon="-8.6181">
        <ele>202.5</ele>
        <time>2019-04-17T08:00:12Z</time>
      </trkpt>
      <trkpt lat="42.46986" lon="-8.61793">
        <ele>201.9</ele>
        <time>2019-04-17T08:00:12Z</time>
      </trkpt>
      <trkpt lat="42.4697" lon="-8.6178">
        <ele>204.6</ele>
        <time>2019-04-17T08:00:12Z</time>
      </trkpt>
      <trkpt lat="42.46954" lon="-8.6179">
        <ele>207.2</ele>
        <time>2019-04-17T08:00:12Z</time>
      </trkpt>
      <trkpt lat="42.46963" lon="-8.61837">
        <ele>209.3</ele>
        <time>2019-04-17T08:00:12Z</time>
      </trkpt>
      <trkpt lat="42.4695" lon="-8.6183">
        <ele>209.7</ele>
        <time>2019-04-17T08:00:12Z</time>
      </trkpt>
      <trkpt lat="42.46941" lon="-8.6182">
        <ele>209.3</ele>
        <time>2019-04-17T08:00:12Z</time>
      </trkpt>
      <trkpt lat="42.46933" lon="-8.61812">
        <ele>208.3</ele>
        <time>2019-04-17T08:00:12Z</time>
      </trkpt>
      <trkpt lat="42.46923" lon="-8.61799">
        <ele>207.2</ele>
        <time>2019-04-17T08:00:12Z</time>
      </trkpt>
      <trkpt lat="42.46914" lon="-8.6179">
        <ele>206.1</ele>
        <time>2019-04-17T08:00:12Z</time>
      </trkpt>
      <trkpt lat="42.46902" lon="-8.61783">
        <ele>204.8</ele>
        <time>2019-04-17T08:00:12Z</time>
      </trkpt>
      <trkpt lat="42.46889" lon="-8.61775">
        <ele>203.8</ele>
        <time>2019-04-17T08:00:12Z</time>
      </trkpt>
      <trkpt lat="42.46876" lon="-8.6178">
        <ele>202.1</ele>
        <time>2019-04-17T08:00:12Z</time>
      </trkpt>
      <trkpt lat="42.46865" lon="-8.61784">
        <ele>200.1</ele>
        <time>2019-04-17T08:00:12Z</time>
      </trkpt>
      <trkpt lat="42.46854" lon="-8.61794">
        <ele>198.9</ele>
        <time>2019-04-17T08:00:12Z</time>
      </trkpt>
      <trkpt lat="42.46847" lon="-8.61789">
        <ele>199</ele>
        <time>2019-04-17T08:00:12Z</time>
      </trkpt>
      <trkpt lat="42.46841" lon="-8.6178">
        <ele>198.6</ele>
        <time>2019-04-17T08:00:12Z</time>
      </trkpt>
      <trkpt lat="42.4684" lon="-8.61761">
        <ele>197.9</ele>
        <time>2019-04-17T08:00:12Z</time>
      </trkpt>
      <trkpt lat="42.46842" lon="-8.61739">
        <ele>196.9</ele>
        <time>2019-04-17T08:00:12Z</time>
      </trkpt>
      <trkpt lat="42.46845" lon="-8.61699">
        <ele>194.6</ele>
        <time>2019-04-17T08:00:12Z</time>
      </trkpt>
      <trkpt lat="42.46837" lon="-8.61685">
        <ele>193.8</ele>
        <time>2019-04-17T08:00:12Z</time>
      </trkpt>
      <trkpt lat="42.46826" lon="-8.61676">
        <ele>192.3</ele>
        <time>2019-04-17T08:00:12Z</time>
      </trkpt>
      <trkpt lat="42.46809" lon="-8.61659">
        <ele>189</ele>
        <time>2019-04-17T08:00:12Z</time>
      </trkpt>
      <trkpt lat="42.46799" lon="-8.61649">
        <ele>186.9</ele>
        <time>2019-04-17T08:00:12Z</time>
      </trkpt>
      <trkpt lat="42.46788" lon="-8.61643">
        <ele>185.2</ele>
        <time>2019-04-17T08:00:12Z</time>
      </trkpt>
      <trkpt lat="42.46779" lon="-8.61643">
        <ele>184.1</ele>
        <time>2019-04-17T08:00:12Z</time>
      </trkpt>
      <trkpt lat="42.46767" lon="-8.61645">
        <ele>182.5</ele>
        <time>2019-04-17T08:00:12Z</time>
      </trkpt>
      <trkpt lat="42.46758" lon="-8.61649">
        <ele>181.1</ele>
        <time>2019-04-17T08:00:12Z</time>
      </trkpt>
      <trkpt lat="42.46751" lon="-8.61658">
        <ele>179.1</ele>
        <time>2019-04-17T08:00:12Z</time>
      </trkpt>
      <trkpt lat="42.46744" lon="-8.6167">
        <ele>177.9</ele>
        <time>2019-04-17T08:00:12Z</time>
      </trkpt>
      <trkpt lat="42.46729" lon="-8.61686">
        <ele>176.9</ele>
        <time>2019-04-17T08:00:12Z</time>
      </trkpt>
      <trkpt lat="42.4671" lon="-8.61696">
        <ele>175.3</ele>
        <time>2019-04-17T08:00:12Z</time>
      </trkpt>
      <trkpt lat="42.46695" lon="-8.61698">
        <ele>174.3</ele>
        <time>2019-04-17T08:00:12Z</time>
      </trkpt>
      <trkpt lat="42.46665" lon="-8.61699">
        <ele>172</ele>
        <time>2019-04-17T08:00:12Z</time>
      </trkpt>
      <trkpt lat="42.46645" lon="-8.617">
        <ele>170.5</ele>
        <time>2019-04-17T08:00:12Z</time>
      </trkpt>
      <trkpt lat="42.46628" lon="-8.61704">
        <ele>168.5</ele>
        <time>2019-04-17T08:00:12Z</time>
      </trkpt>
      <trkpt lat="42.46611" lon="-8.6169">
        <ele>166.5</ele>
        <time>2019-04-17T08:00:12Z</time>
      </trkpt>
      <trkpt lat="42.46602" lon="-8.61672">
        <ele>166.7</ele>
        <time>2019-04-17T08:00:12Z</time>
      </trkpt>
      <trkpt lat="42.46597" lon="-8.61651">
        <ele>166.7</ele>
        <time>2019-04-17T08:00:12Z</time>
      </trkpt>
      <trkpt lat="42.46589" lon="-8.61623">
        <ele>165.4</ele>
        <time>2019-04-17T08:00:12Z</time>
      </trkpt>
      <trkpt lat="42.4658" lon="-8.61606">
        <ele>163.7</ele>
        <time>2019-04-17T08:00:12Z</time>
      </trkpt>
      <trkpt lat="42.46563" lon="-8.61583">
        <ele>162.3</ele>
        <time>2019-04-17T08:00:12Z</time>
      </trkpt>
      <trkpt lat="42.46549" lon="-8.61589">
        <ele>162.6</ele>
        <time>2019-04-17T08:00:12Z</time>
      </trkpt>
      <trkpt lat="42.46533" lon="-8.61597">
        <ele>163.3</ele>
        <time>2019-04-17T08:00:12Z</time>
      </trkpt>
      <trkpt lat="42.46531" lon="-8.61611">
        <ele>163</ele>
        <time>2019-04-17T08:00:12Z</time>
      </trkpt>
      <trkpt lat="42.46525" lon="-8.61637">
        <ele>162</ele>
        <time>2019-04-17T08:00:12Z</time>
      </trkpt>
      <trkpt lat="42.46517" lon="-8.61654">
        <ele>160.1</ele>
        <time>2019-04-17T08:00:12Z</time>
      </trkpt>
      <trkpt lat="42.46494" lon="-8.61672">
        <ele>156.8</ele>
        <time>2019-04-17T08:00:12Z</time>
      </trkpt>
      <trkpt lat="42.4648" lon="-8.61678">
        <ele>156.3</ele>
        <time>2019-04-17T08:00:12Z</time>
      </trkpt>
      <trkpt lat="42.46464" lon="-8.61682">
        <ele>155.2</ele>
        <time>2019-04-17T08:00:12Z</time>
      </trkpt>
      <trkpt lat="42.4645" lon="-8.61682">
        <ele>154</ele>
        <time>2019-04-17T08:00:12Z</time>
      </trkpt>
      <trkpt lat="42.46389" lon="-8.61649">
        <ele>149.8</ele>
        <time>2019-04-17T08:00:12Z</time>
      </trkpt>
      <trkpt lat="42.46368" lon="-8.61627">
        <ele>148.6</ele>
        <time>2019-04-17T08:00:12Z</time>
      </trkpt>
      <trkpt lat="42.46346" lon="-8.61611">
        <ele>145.3</ele>
        <time>2019-04-17T08:00:12Z</time>
      </trkpt>
      <trkpt lat="42.46312" lon="-8.61583">
        <ele>140.4</ele>
        <time>2019-04-17T08:00:12Z</time>
      </trkpt>
      <trkpt lat="42.46306" lon="-8.61577">
        <ele>139.7</ele>
        <time>2019-04-17T08:00:12Z</time>
      </trkpt>
      <trkpt lat="42.46292" lon="-8.61587">
        <ele>139.8</ele>
        <time>2019-04-17T08:00:12Z</time>
      </trkpt>
      <trkpt lat="42.46266" lon="-8.61581">
        <ele>142</ele>
        <time>2019-04-17T08:00:12Z</time>
      </trkpt>
      <trkpt lat="42.46232" lon="-8.61566">
        <ele>143.9</ele>
        <time>2019-04-17T08:00:12Z</time>
      </trkpt>
      <trkpt lat="42.46196" lon="-8.61561">
        <ele>148.6</ele>
        <time>2019-04-17T08:00:12Z</time>
      </trkpt>
      <trkpt lat="42.46184" lon="-8.6156">
        <ele>149.5</ele>
        <time>2019-04-17T08:00:12Z</time>
      </trkpt>
      <trkpt lat="42.46171" lon="-8.61569">
        <ele>150.8</ele>
        <time>2019-04-17T08:00:12Z</time>
      </trkpt>
      <trkpt lat="42.46166" lon="-8.61578">
        <ele>151</ele>
        <time>2019-04-17T08:00:12Z</time>
      </trkpt>
      <trkpt lat="42.46162" lon="-8.6159">
        <ele>150.8</ele>
        <time>2019-04-17T08:00:12Z</time>
      </trkpt>
      <trkpt lat="42.46154" lon="-8.61595">
        <ele>150.1</ele>
        <time>2019-04-17T08:00:12Z</time>
      </trkpt>
      <trkpt lat="42.46145" lon="-8.61594">
        <ele>149.3</ele>
        <time>2019-04-17T08:00:12Z</time>
      </trkpt>
      <trkpt lat="42.46134" lon="-8.6159">
        <ele>147.7</ele>
        <time>2019-04-17T08:00:12Z</time>
      </trkpt>
      <trkpt lat="42.46122" lon="-8.61592">
        <ele>145</ele>
        <time>2019-04-17T08:00:12Z</time>
      </trkpt>
      <trkpt lat="42.46103" lon="-8.61605">
        <ele>143.3</ele>
        <time>2019-04-17T08:00:12Z</time>
      </trkpt>
      <trkpt lat="42.46092" lon="-8.61619">
        <ele>144.9</ele>
        <time>2019-04-17T08:00:12Z</time>
      </trkpt>
      <trkpt lat="42.46079" lon="-8.61632">
        <ele>147.1</ele>
        <time>2019-04-17T08:00:12Z</time>
      </trkpt>
      <trkpt lat="42.4607" lon="-8.61643">
        <ele>149</ele>
        <time>2019-04-17T08:00:12Z</time>
      </trkpt>
      <trkpt lat="42.46058" lon="-8.61651">
        <ele>150.6</ele>
        <time>2019-04-17T08:00:12Z</time>
      </trkpt>
      <trkpt lat="42.4604" lon="-8.61659">
        <ele>151.9</ele>
        <time>2019-04-17T08:00:12Z</time>
      </trkpt>
      <trkpt lat="42.4603" lon="-8.61664">
        <ele>152.6</ele>
        <time>2019-04-17T08:00:12Z</time>
      </trkpt>
      <trkpt lat="42.46022" lon="-8.61673">
        <ele>154.1</ele>
        <time>2019-04-17T08:00:12Z</time>
      </trkpt>
      <trkpt lat="42.46004" lon="-8.61677">
        <ele>154.2</ele>
        <time>2019-04-17T08:00:12Z</time>
      </trkpt>
      <trkpt lat="42.45984" lon="-8.61676">
        <ele>150.9</ele>
        <time>2019-04-17T08:00:12Z</time>
      </trkpt>
      <trkpt lat="42.45975" lon="-8.61685">
        <ele>150.1</ele>
        <time>2019-04-17T08:00:12Z</time>
      </trkpt>
      <trkpt lat="42.45968" lon="-8.61703">
        <ele>149.5</ele>
        <time>2019-04-17T08:00:12Z</time>
      </trkpt>
      <trkpt lat="42.45953" lon="-8.61733">
        <ele>145.2</ele>
        <time>2019-04-17T08:00:12Z</time>
      </trkpt>
      <trkpt lat="42.45929" lon="-8.61778">
        <ele>140.5</ele>
        <time>2019-04-17T08:00:12Z</time>
      </trkpt>
      <trkpt lat="42.4592" lon="-8.61806">
        <ele>139.5</ele>
        <time>2019-04-17T08:00:12Z</time>
      </trkpt>
      <trkpt lat="42.45905" lon="-8.61856">
        <ele>138.2</ele>
        <time>2019-04-17T08:00:12Z</time>
      </trkpt>
      <trkpt lat="42.45896" lon="-8.61888">
        <ele>135.2</ele>
        <time>2019-04-17T08:00:12Z</time>
      </trkpt>
      <trkpt lat="42.45893" lon="-8.6191">
        <ele>132.9</ele>
        <time>2019-04-17T08:00:12Z</time>
      </trkpt>
      <trkpt lat="42.45888" lon="-8.61946">
        <ele>128.8</ele>
        <time>2019-04-17T08:00:12Z</time>
      </trkpt>
      <trkpt lat="42.45884" lon="-8.61972">
        <ele>127.7</ele>
        <time>2019-04-17T08:00:12Z</time>
      </trkpt>
      <trkpt lat="42.45872" lon="-8.62">
        <ele>125.3</ele>
        <time>2019-04-17T08:00:12Z</time>
      </trkpt>
      <trkpt lat="42.45851" lon="-8.62049">
        <ele>124.5</ele>
        <time>2019-04-17T08:00:12Z</time>
      </trkpt>
      <trkpt lat="42.45841" lon="-8.62085">
        <ele>123.1</ele>
        <time>2019-04-17T08:00:12Z</time>
      </trkpt>
      <trkpt lat="42.45839" lon="-8.62098">
        <ele>122.4</ele>
        <time>2019-04-17T08:00:12Z</time>
      </trkpt>
      <trkpt lat="42.45836" lon="-8.62114">
        <ele>121.6</ele>
        <time>2019-04-17T08:00:12Z</time>
      </trkpt>
      <trkpt lat="42.45834" lon="-8.62119">
        <ele>121</ele>
        <time>2019-04-17T08:00:12Z</time>
      </trkpt>
      <trkpt lat="42.45829" lon="-8.62121">
        <ele>119.3</ele>
        <time>2019-04-17T08:00:12Z</time>
      </trkpt>
      <trkpt lat="42.45822" lon="-8.62114">
        <ele>117.6</ele>
        <time>2019-04-17T08:00:12Z</time>
      </trkpt>
      <trkpt lat="42.45817" lon="-8.62104">
        <ele>116.3</ele>
        <time>2019-04-17T08:00:12Z</time>
      </trkpt>
      <trkpt lat="42.45803" lon="-8.62075">
        <ele>112.5</ele>
        <time>2019-04-17T08:00:12Z</time>
      </trkpt>
      <trkpt lat="42.45791" lon="-8.62055">
        <ele>109.7</ele>
        <time>2019-04-17T08:00:12Z</time>
      </trkpt>
      <trkpt lat="42.45784" lon="-8.62041">
        <ele>107.5</ele>
        <time>2019-04-17T08:00:12Z</time>
      </trkpt>
      <trkpt lat="42.45772" lon="-8.62026">
        <ele>104.3</ele>
        <time>2019-04-17T08:00:12Z</time>
      </trkpt>
      <trkpt lat="42.45764" lon="-8.62018">
        <ele>102.1</ele>
        <time>2019-04-17T08:00:12Z</time>
      </trkpt>
      <trkpt lat="42.45767" lon="-8.62037">
        <ele>102.9</ele>
        <time>2019-04-17T08:00:12Z</time>
      </trkpt>
      <trkpt lat="42.4577" lon="-8.6205">
        <ele>103.6</ele>
        <time>2019-04-17T08:00:12Z</time>
      </trkpt>
      <trkpt lat="42.45775" lon="-8.62071">
        <ele>104.7</ele>
        <time>2019-04-17T08:00:12Z</time>
      </trkpt>
      <trkpt lat="42.45771" lon="-8.62079">
        <ele>103.4</ele>
        <time>2019-04-17T08:00:12Z</time>
      </trkpt>
      <trkpt lat="42.45761" lon="-8.62089">
        <ele>100.6</ele>
        <time>2019-04-17T08:00:12Z</time>
      </trkpt>
      <trkpt lat="42.4575" lon="-8.621">
        <ele>98</ele>
        <time>2019-04-17T08:00:12Z</time>
      </trkpt>
      <trkpt lat="42.45742" lon="-8.62108">
        <ele>95.3</ele>
        <time>2019-04-17T08:00:12Z</time>
      </trkpt>
      <trkpt lat="42.45735" lon="-8.62115">
        <ele>93.4</ele>
        <time>2019-04-17T08:00:12Z</time>
      </trkpt>
      <trkpt lat="42.45726" lon="-8.62116">
        <ele>90.5</ele>
        <time>2019-04-17T08:00:12Z</time>
      </trkpt>
      <trkpt lat="42.45721" lon="-8.62116">
        <ele>88.7</ele>
        <time>2019-04-17T08:00:12Z</time>
      </trkpt>
      <trkpt lat="42.45718" lon="-8.62128">
        <ele>88.5</ele>
        <time>2019-04-17T08:00:12Z</time>
      </trkpt>
      <trkpt lat="42.45717" lon="-8.62138">
        <ele>89</ele>
        <time>2019-04-17T08:00:12Z</time>
      </trkpt>
      <trkpt lat="42.45717" lon="-8.62153">
        <ele>89</ele>
        <time>2019-04-17T08:00:12Z</time>
      </trkpt>
      <trkpt lat="42.45717" lon="-8.62164">
        <ele>89.2</ele>
        <time>2019-04-17T08:00:12Z</time>
      </trkpt>
      <trkpt lat="42.45718" lon="-8.62174">
        <ele>89.4</ele>
        <time>2019-04-17T08:00:12Z</time>
      </trkpt>
      <trkpt lat="42.45725" lon="-8.62184">
        <ele>90.9</ele>
        <time>2019-04-17T08:00:12Z</time>
      </trkpt>
      <trkpt lat="42.45735" lon="-8.62199">
        <ele>91.8</ele>
        <time>2019-04-17T08:00:12Z</time>
      </trkpt>
      <trkpt lat="42.45745" lon="-8.62216">
        <ele>92.3</ele>
        <time>2019-04-17T08:00:12Z</time>
      </trkpt>
      <trkpt lat="42.45751" lon="-8.62234">
        <ele>92.5</ele>
        <time>2019-04-17T08:00:12Z</time>
      </trkpt>
      <trkpt lat="42.45757" lon="-8.6225">
        <ele>93</ele>
        <time>2019-04-17T08:00:12Z</time>
      </trkpt>
      <trkpt lat="42.45759" lon="-8.62261">
        <ele>93.9</ele>
        <time>2019-04-17T08:00:12Z</time>
      </trkpt>
      <trkpt lat="42.45755" lon="-8.62281">
        <ele>93.2</ele>
        <time>2019-04-17T08:00:12Z</time>
      </trkpt>
      <trkpt lat="42.45751" lon="-8.62298">
        <ele>92.2</ele>
        <time>2019-04-17T08:00:12Z</time>
      </trkpt>
      <trkpt lat="42.45751" lon="-8.62318">
        <ele>92.3</ele>
        <time>2019-04-17T08:00:12Z</time>
      </trkpt>
      <trkpt lat="42.45754" lon="-8.62338">
        <ele>92.1</ele>
        <time>2019-04-17T08:00:12Z</time>
      </trkpt>
      <trkpt lat="42.45754" lon="-8.62347">
        <ele>91.4</ele>
        <time>2019-04-17T08:00:12Z</time>
      </trkpt>
      <trkpt lat="42.45752" lon="-8.62353">
        <ele>90.7</ele>
        <time>2019-04-17T08:00:12Z</time>
      </trkpt>
      <trkpt lat="42.45749" lon="-8.62359">
        <ele>90</ele>
        <time>2019-04-17T08:00:12Z</time>
      </trkpt>
      <trkpt lat="42.45746" lon="-8.62363">
        <ele>89.1</ele>
        <time>2019-04-17T08:00:12Z</time>
      </trkpt>
      <trkpt lat="42.4574" lon="-8.6237">
        <ele>87.5</ele>
        <time>2019-04-17T08:00:12Z</time>
      </trkpt>
      <trkpt lat="42.45729" lon="-8.62381">
        <ele>85.6</ele>
        <time>2019-04-17T08:00:12Z</time>
      </trkpt>
      <trkpt lat="42.45718" lon="-8.62391">
        <ele>84.7</ele>
        <time>2019-04-17T08:00:12Z</time>
      </trkpt>
      <trkpt lat="42.45707" lon="-8.62398">
        <ele>83.6</ele>
        <time>2019-04-17T08:00:12Z</time>
      </trkpt>
      <trkpt lat="42.45698" lon="-8.62403">
        <ele>83</ele>
        <time>2019-04-17T08:00:12Z</time>
      </trkpt>
      <trkpt lat="42.45689" lon="-8.62408">
        <ele>82.4</ele>
        <time>2019-04-17T08:00:12Z</time>
      </trkpt>
      <trkpt lat="42.45682" lon="-8.62411">
        <ele>82.1</ele>
        <time>2019-04-17T08:00:12Z</time>
      </trkpt>
      <trkpt lat="42.45673" lon="-8.62417">
        <ele>82</ele>
        <time>2019-04-17T08:00:12Z</time>
      </trkpt>
      <trkpt lat="42.45668" lon="-8.62421">
        <ele>81.8</ele>
        <time>2019-04-17T08:00:12Z</time>
      </trkpt>
      <trkpt lat="42.45662" lon="-8.62428">
        <ele>82.5</ele>
        <time>2019-04-17T08:00:12Z</time>
      </trkpt>
      <trkpt lat="42.45656" lon="-8.62438">
        <ele>83.1</ele>
        <time>2019-04-17T08:00:12Z</time>
      </trkpt>
      <trkpt lat="42.45654" lon="-8.62443">
        <ele>83.4</ele>
        <time>2019-04-17T08:00:12Z</time>
      </trkpt>
      <trkpt lat="42.45646" lon="-8.62454">
        <ele>83.4</ele>
        <time>2019-04-17T08:00:12Z</time>
      </trkpt>
      <trkpt lat="42.45642" lon="-8.62457">
        <ele>83.8</ele>
        <time>2019-04-17T08:00:12Z</time>
      </trkpt>
      <trkpt lat="42.45638" lon="-8.62458">
        <ele>84.1</ele>
        <time>2019-04-17T08:00:12Z</time>
      </trkpt>
      <trkpt lat="42.45636" lon="-8.62456">
        <ele>84.2</ele>
        <time>2019-04-17T08:00:12Z</time>
      </trkpt>
      <trkpt lat="42.45635" lon="-8.62454">
        <ele>84.5</ele>
        <time>2019-04-17T08:00:12Z</time>
      </trkpt>
      <trkpt lat="42.45631" lon="-8.62447">
        <ele>85.4</ele>
        <time>2019-04-17T08:00:12Z</time>
      </trkpt>
      <trkpt lat="42.4563" lon="-8.62443">
        <ele>85.7</ele>
        <time>2019-04-17T08:00:12Z</time>
      </trkpt>
      <trkpt lat="42.45628" lon="-8.62439">
        <ele>85.9</ele>
        <time>2019-04-17T08:00:12Z</time>
      </trkpt>
      <trkpt lat="42.45625" lon="-8.62434">
        <ele>86.1</ele>
        <time>2019-04-17T08:00:12Z</time>
      </trkpt>
      <trkpt lat="42.45623" lon="-8.62429">
        <ele>86.3</ele>
        <time>2019-04-17T08:00:12Z</time>
      </trkpt>
      <trkpt lat="42.45622" lon="-8.62427">
        <ele>86.4</ele>
        <time>2019-04-17T08:00:12Z</time>
      </trkpt>
      <trkpt lat="42.45617" lon="-8.62421">
        <ele>86.7</ele>
        <time>2019-04-17T08:00:12Z</time>
      </trkpt>
      <trkpt lat="42.45613" lon="-8.62416">
        <ele>87.1</ele>
        <time>2019-04-17T08:00:12Z</time>
      </trkpt>
      <trkpt lat="42.45608" lon="-8.62408">
        <ele>87.4</ele>
        <time>2019-04-17T08:00:12Z</time>
      </trkpt>
      <trkpt lat="42.45601" lon="-8.62401">
        <ele>87.5</ele>
        <time>2019-04-17T08:00:12Z</time>
      </trkpt>
      <trkpt lat="42.4559" lon="-8.62388">
        <ele>87.4</ele>
        <time>2019-04-17T08:00:12Z</time>
      </trkpt>
      <trkpt lat="42.45585" lon="-8.62383">
        <ele>86.2</ele>
        <time>2019-04-17T08:00:12Z</time>
      </trkpt>
      <trkpt lat="42.4558" lon="-8.62379">
        <ele>85.2</ele>
        <time>2019-04-17T08:00:12Z</time>
      </trkpt>
      <trkpt lat="42.45576" lon="-8.62376">
        <ele>84.4</ele>
        <time>2019-04-17T08:00:12Z</time>
      </trkpt>
      <trkpt lat="42.4557" lon="-8.62375">
        <ele>83.6</ele>
        <time>2019-04-17T08:00:12Z</time>
      </trkpt>
      <trkpt lat="42.45565" lon="-8.62376">
        <ele>83.1</ele>
        <time>2019-04-17T08:00:12Z</time>
      </trkpt>
      <trkpt lat="42.45558" lon="-8.62375">
        <ele>82.2</ele>
        <time>2019-04-17T08:00:12Z</time>
      </trkpt>
      <trkpt lat="42.45552" lon="-8.62373">
        <ele>81.1</ele>
        <time>2019-04-17T08:00:12Z</time>
      </trkpt>
      <trkpt lat="42.45548" lon="-8.62371">
        <ele>80.2</ele>
        <time>2019-04-17T08:00:12Z</time>
      </trkpt>
      <trkpt lat="42.45544" lon="-8.6237">
        <ele>79.4</ele>
        <time>2019-04-17T08:00:12Z</time>
      </trkpt>
      <trkpt lat="42.45538" lon="-8.62369">
        <ele>78.5</ele>
        <time>2019-04-17T08:00:12Z</time>
      </trkpt>
      <trkpt lat="42.45534" lon="-8.62369">
        <ele>77.8</ele>
        <time>2019-04-17T08:00:12Z</time>
      </trkpt>
      <trkpt lat="42.45529" lon="-8.62369">
        <ele>77.1</ele>
        <time>2019-04-17T08:00:12Z</time>
      </trkpt>
      <trkpt lat="42.45525" lon="-8.6237">
        <ele>76.5</ele>
        <time>2019-04-17T08:00:12Z</time>
      </trkpt>
      <trkpt lat="42.45519" lon="-8.62373">
        <ele>76</ele>
        <time>2019-04-17T08:00:12Z</time>
      </trkpt>
      <trkpt lat="42.45515" lon="-8.62374">
        <ele>75.5</ele>
        <time>2019-04-17T08:00:12Z</time>
      </trkpt>
      <trkpt lat="42.45511" lon="-8.62376">
        <ele>75.2</ele>
        <time>2019-04-17T08:00:12Z</time>
      </trkpt>
      <trkpt lat="42.45505" lon="-8.62379">
        <ele>74.7</ele>
        <time>2019-04-17T08:00:12Z</time>
      </trkpt>
      <trkpt lat="42.45498" lon="-8.62382">
        <ele>74.2</ele>
        <time>2019-04-17T08:00:12Z</time>
      </trkpt>
      <trkpt lat="42.45493" lon="-8.62383">
        <ele>74.2</ele>
        <time>2019-04-17T08:00:12Z</time>
      </trkpt>
      <trkpt lat="42.45489" lon="-8.62384">
        <ele>74.4</ele>
        <time>2019-04-17T08:00:12Z</time>
      </trkpt>
      <trkpt lat="42.45483" lon="-8.62389">
        <ele>75</ele>
        <time>2019-04-17T08:00:12Z</time>
      </trkpt>
      <trkpt lat="42.45472" lon="-8.6241">
        <ele>74.3</ele>
        <time>2019-04-17T08:00:12Z</time>
      </trkpt>
      <trkpt lat="42.45466" lon="-8.62421">
        <ele>73.2</ele>
        <time>2019-04-17T08:00:12Z</time>
      </trkpt>
      <trkpt lat="42.45462" lon="-8.62425">
        <ele>72.6</ele>
        <time>2019-04-17T08:00:12Z</time>
      </trkpt>
      <trkpt lat="42.45458" lon="-8.62428">
        <ele>72.2</ele>
        <time>2019-04-17T08:00:12Z</time>
      </trkpt>
      <trkpt lat="42.45451" lon="-8.62431">
        <ele>71.7</ele>
        <time>2019-04-17T08:00:12Z</time>
      </trkpt>
      <trkpt lat="42.45446" lon="-8.62426">
        <ele>71.7</ele>
        <time>2019-04-17T08:00:12Z</time>
      </trkpt>
      <trkpt lat="42.45439" lon="-8.62418">
        <ele>70.3</ele>
        <time>2019-04-17T08:00:12Z</time>
      </trkpt>
      <trkpt lat="42.4543" lon="-8.62407">
        <ele>66.9</ele>
        <time>2019-04-17T08:00:12Z</time>
      </trkpt>
      <trkpt lat="42.45421" lon="-8.62408">
        <ele>64.9</ele>
        <time>2019-04-17T08:00:12Z</time>
      </trkpt>
      <trkpt lat="42.45407" lon="-8.62412">
        <ele>63.8</ele>
        <time>2019-04-17T08:00:12Z</time>
      </trkpt>
      <trkpt lat="42.45397" lon="-8.6242">
        <ele>64.1</ele>
        <time>2019-04-17T08:00:12Z</time>
      </trkpt>
      <trkpt lat="42.45378" lon="-8.62436">
        <ele>63.9</ele>
        <time>2019-04-17T08:00:12Z</time>
      </trkpt>
      <trkpt lat="42.45352" lon="-8.62461">
        <ele>61.7</ele>
        <time>2019-04-17T08:00:12Z</time>
      </trkpt>
      <trkpt lat="42.4534" lon="-8.6247">
        <ele>61.1</ele>
        <time>2019-04-17T08:00:12Z</time>
      </trkpt>
      <trkpt lat="42.45328" lon="-8.62464">
        <ele>61.3</ele>
        <time>2019-04-17T08:00:12Z</time>
      </trkpt>
      <trkpt lat="42.45307" lon="-8.62452">
        <ele>60.6</ele>
        <time>2019-04-17T08:00:12Z</time>
      </trkpt>
      <trkpt lat="42.45296" lon="-8.62447">
        <ele>59.2</ele>
        <time>2019-04-17T08:00:12Z</time>
      </trkpt>
      <trkpt lat="42.45271" lon="-8.62442">
        <ele>56</ele>
        <time>2019-04-17T08:00:12Z</time>
      </trkpt>
      <trkpt lat="42.4526" lon="-8.62439">
        <ele>54.6</ele>
        <time>2019-04-17T08:00:12Z</time>
      </trkpt>
      <trkpt lat="42.45238" lon="-8.62433">
        <ele>53</ele>
        <time>2019-04-17T08:00:12Z</time>
      </trkpt>
      <trkpt lat="42.4521" lon="-8.62425">
        <ele>52.6</ele>
        <time>2019-04-17T08:00:12Z</time>
      </trkpt>
      <trkpt lat="42.45184" lon="-8.62415">
        <ele>52.6</ele>
        <time>2019-04-17T08:00:12Z</time>
      </trkpt>
      <trkpt lat="42.45164" lon="-8.6241">
        <ele>52.7</ele>
        <time>2019-04-17T08:00:12Z</time>
      </trkpt>
      <trkpt lat="42.45152" lon="-8.62405">
        <ele>51.1</ele>
        <time>2019-04-17T08:00:12Z</time>
      </trkpt>
      <trkpt lat="42.4514" lon="-8.62411">
        <ele>50.8</ele>
        <time>2019-04-17T08:00:12Z</time>
      </trkpt>
      <trkpt lat="42.45128" lon="-8.62423">
        <ele>50.6</ele>
        <time>2019-04-17T08:00:12Z</time>
      </trkpt>
      <trkpt lat="42.4511" lon="-8.62445">
        <ele>49</ele>
        <time>2019-04-17T08:00:12Z</time>
      </trkpt>
      <trkpt lat="42.45088" lon="-8.62473">
        <ele>47.7</ele>
        <time>2019-04-17T08:00:12Z</time>
      </trkpt>
      <trkpt lat="42.45081" lon="-8.62482">
        <ele>45.9</ele>
        <time>2019-04-17T08:00:12Z</time>
      </trkpt>
      <trkpt lat="42.45069" lon="-8.62474">
        <ele>44.3</ele>
        <time>2019-04-17T08:00:12Z</time>
      </trkpt>
      <trkpt lat="42.45058" lon="-8.62463">
        <ele>43.2</ele>
        <time>2019-04-17T08:00:12Z</time>
      </trkpt>
      <trkpt lat="42.45053" lon="-8.62439">
        <ele>42.8</ele>
        <time>2019-04-17T08:00:12Z</time>
      </trkpt>
      <trkpt lat="42.45044" lon="-8.62427">
        <ele>39.3</ele>
        <time>2019-04-17T08:00:12Z</time>
      </trkpt>
      <trkpt lat="42.45036" lon="-8.62417">
        <ele>36.4</ele>
        <time>2019-04-17T08:00:12Z</time>
      </trkpt>
      <trkpt lat="42.45029" lon="-8.62409">
        <ele>34.9</ele>
        <time>2019-04-17T08:00:12Z</time>
      </trkpt>
      <trkpt lat="42.4501" lon="-8.624">
        <ele>28.1</ele>
        <time>2019-04-17T08:00:12Z</time>
      </trkpt>
      <trkpt lat="42.44981" lon="-8.62382">
        <ele>19.3</ele>
        <time>2019-04-17T08:00:12Z</time>
      </trkpt>
      <trkpt lat="42.44954" lon="-8.62366">
        <ele>10.4</ele>
        <time>2019-04-17T08:00:12Z</time>
      </trkpt>
      <trkpt lat="42.44951" lon="-8.62368">
        <ele>10.5</ele>
        <time>2019-04-17T08:00:12Z</time>
      </trkpt>
      <trkpt lat="42.44948" lon="-8.62369">
        <ele>10</ele>
        <time>2019-04-17T08:00:12Z</time>
      </trkpt>
      <trkpt lat="42.44945" lon="-8.6237">
        <ele>9.6</ele>
        <time>2019-04-17T08:00:12Z</time>
      </trkpt>
      <trkpt lat="42.44942" lon="-8.62369">
        <ele>8.8</ele>
        <time>2019-04-17T08:00:12Z</time>
      </trkpt>
      <trkpt lat="42.44941" lon="-8.6237">
        <ele>8.8</ele>
        <time>2019-04-17T08:00:12Z</time>
      </trkpt>
      <trkpt lat="42.44938" lon="-8.62373">
        <ele>9</ele>
        <time>2019-04-17T08:00:12Z</time>
      </trkpt>
      <trkpt lat="42.44935" lon="-8.62376">
        <ele>9</ele>
        <time>2019-04-17T08:00:12Z</time>
      </trkpt>
      <trkpt lat="42.44934" lon="-8.62379">
        <ele>9.1</ele>
        <time>2019-04-17T08:00:12Z</time>
      </trkpt>
      <trkpt lat="42.4493" lon="-8.62387">
        <ele>8.6</ele>
        <time>2019-04-17T08:00:12Z</time>
      </trkpt>
      <trkpt lat="42.44926" lon="-8.62397">
        <ele>7.3</ele>
        <time>2019-04-17T08:00:12Z</time>
      </trkpt>
      <trkpt lat="42.44919" lon="-8.6241">
        <ele>4.9</ele>
        <time>2019-04-17T08:00:12Z</time>
      </trkpt>
      <trkpt lat="42.44913" lon="-8.62427">
        <ele>7.4</ele>
        <time>2019-04-17T08:00:12Z</time>
      </trkpt>
      <trkpt lat="42.44909" lon="-8.62437">
        <ele>10.5</ele>
        <time>2019-04-17T08:00:12Z</time>
      </trkpt>
      <trkpt lat="42.44906" lon="-8.62452">
        <ele>12.7</ele>
        <time>2019-04-17T08:00:12Z</time>
      </trkpt>
      <trkpt lat="42.44903" lon="-8.62463">
        <ele>11.2</ele>
        <time>2019-04-17T08:00:12Z</time>
      </trkpt>
      <trkpt lat="42.44899" lon="-8.62475">
        <ele>8</ele>
        <time>2019-04-17T08:00:12Z</time>
      </trkpt>
      <trkpt lat="42.44898" lon="-8.62481">
        <ele>7.5</ele>
        <time>2019-04-17T08:00:12Z</time>
      </trkpt>
      <trkpt lat="42.44896" lon="-8.62484">
        <ele>6.7</ele>
        <time>2019-04-17T08:00:12Z</time>
      </trkpt>
      <trkpt lat="42.44892" lon="-8.62489">
        <ele>4.7</ele>
        <time>2019-04-17T08:00:12Z</time>
      </trkpt>
      <trkpt lat="42.44889" lon="-8.62498">
        <ele>2.9</ele>
        <time>2019-04-17T08:00:12Z</time>
      </trkpt>
      <trkpt lat="42.44886" lon="-8.6251">
        <ele>5.4</ele>
        <time>2019-04-17T08:00:12Z</time>
      </trkpt>
      <trkpt lat="42.44882" lon="-8.62519">
        <ele>7.6</ele>
        <time>2019-04-17T08:00:12Z</time>
      </trkpt>
      <trkpt lat="42.44881" lon="-8.62526">
        <ele>9.5</ele>
        <time>2019-04-17T08:00:12Z</time>
      </trkpt>
      <trkpt lat="42.44878" lon="-8.62536">
        <ele>10.5</ele>
        <time>2019-04-17T08:00:12Z</time>
      </trkpt>
      <trkpt lat="42.44876" lon="-8.62544">
        <ele>10.3</ele>
        <time>2019-04-17T08:00:12Z</time>
      </trkpt>
      <trkpt lat="42.44874" lon="-8.62553">
        <ele>9.2</ele>
        <time>2019-04-17T08:00:12Z</time>
      </trkpt>
      <trkpt lat="42.44869" lon="-8.62564">
        <ele>9.1</ele>
        <time>2019-04-17T08:00:12Z</time>
      </trkpt>
      <trkpt lat="42.44864" lon="-8.62575">
        <ele>9.2</ele>
        <time>2019-04-17T08:00:12Z</time>
      </trkpt>
      <trkpt lat="42.44861" lon="-8.62583">
        <ele>9.9</ele>
        <time>2019-04-17T08:00:12Z</time>
      </trkpt>
      <trkpt lat="42.44858" lon="-8.62588">
        <ele>11.4</ele>
        <time>2019-04-17T08:00:12Z</time>
      </trkpt>
      <trkpt lat="42.44855" lon="-8.62593">
        <ele>12.1</ele>
        <time>2019-04-17T08:00:12Z</time>
      </trkpt>
      <trkpt lat="42.4485" lon="-8.62601">
        <ele>11.8</ele>
        <time>2019-04-17T08:00:12Z</time>
      </trkpt>
      <trkpt lat="42.44847" lon="-8.62605">
        <ele>10.6</ele>
        <time>2019-04-17T08:00:12Z</time>
      </trkpt>
      <trkpt lat="42.44843" lon="-8.6261">
        <ele>8.5</ele>
        <time>2019-04-17T08:00:12Z</time>
      </trkpt>
      <trkpt lat="42.4484" lon="-8.62615">
        <ele>7.8</ele>
        <time>2019-04-17T08:00:12Z</time>
      </trkpt>
      <trkpt lat="42.44838" lon="-8.6262">
        <ele>8.3</ele>
        <time>2019-04-17T08:00:12Z</time>
      </trkpt>
      <trkpt lat="42.44836" lon="-8.62623">
        <ele>8.9</ele>
        <time>2019-04-17T08:00:12Z</time>
      </trkpt>
      <trkpt lat="42.44833" lon="-8.62629">
        <ele>9.4</ele>
        <time>2019-04-17T08:00:12Z</time>
      </trkpt>
      <trkpt lat="42.4483" lon="-8.62635">
        <ele>11.1</ele>
        <time>2019-04-17T08:00:12Z</time>
      </trkpt>
      <trkpt lat="42.44827" lon="-8.6264">
        <ele>11.5</ele>
        <time>2019-04-17T08:00:12Z</time>
      </trkpt>
      <trkpt lat="42.44825" lon="-8.62644">
        <ele>11.6</ele>
        <time>2019-04-17T08:00:12Z</time>
      </trkpt>
      <trkpt lat="42.4482" lon="-8.62652">
        <ele>11</ele>
        <time>2019-04-17T08:00:12Z</time>
      </trkpt>
      <trkpt lat="42.44816" lon="-8.62657">
        <ele>10.1</ele>
        <time>2019-04-17T08:00:12Z</time>
      </trkpt>
      <trkpt lat="42.44811" lon="-8.62664">
        <ele>8.5</ele>
        <time>2019-04-17T08:00:12Z</time>
      </trkpt>
      <trkpt lat="42.44805" lon="-8.6267">
        <ele>7.3</ele>
        <time>2019-04-17T08:00:12Z</time>
      </trkpt>
      <trkpt lat="42.44799" lon="-8.62677">
        <ele>8.7</ele>
        <time>2019-04-17T08:00:12Z</time>
      </trkpt>
      <trkpt lat="42.44796" lon="-8.62681">
        <ele>8.8</ele>
        <time>2019-04-17T08:00:12Z</time>
      </trkpt>
      <trkpt lat="42.44793" lon="-8.62686">
        <ele>8.8</ele>
        <time>2019-04-17T08:00:12Z</time>
      </trkpt>
      <trkpt lat="42.4479" lon="-8.62689">
        <ele>8.3</ele>
        <time>2019-04-17T08:00:12Z</time>
      </trkpt>
      <trkpt lat="42.44788" lon="-8.62694">
        <ele>7.8</ele>
        <time>2019-04-17T08:00:12Z</time>
      </trkpt>
      <trkpt lat="42.44786" lon="-8.62698">
        <ele>7.9</ele>
        <time>2019-04-17T08:00:12Z</time>
      </trkpt>
      <trkpt lat="42.44784" lon="-8.62703">
        <ele>8.3</ele>
        <time>2019-04-17T08:00:12Z</time>
      </trkpt>
      <trkpt lat="42.44781" lon="-8.62707">
        <ele>8.2</ele>
        <time>2019-04-17T08:00:12Z</time>
      </trkpt>
      <trkpt lat="42.44778" lon="-8.62711">
        <ele>7.7</ele>
        <time>2019-04-17T08:00:12Z</time>
      </trkpt>
      <trkpt lat="42.44772" lon="-8.62719">
        <ele>8</ele>
        <time>2019-04-17T08:00:12Z</time>
      </trkpt>
      <trkpt lat="42.44767" lon="-8.62726">
        <ele>7.8</ele>
        <time>2019-04-17T08:00:12Z</time>
      </trkpt>
      <trkpt lat="42.44763" lon="-8.62731">
        <ele>7.5</ele>
        <time>2019-04-17T08:00:12Z</time>
      </trkpt>
      <trkpt lat="42.44758" lon="-8.62738">
        <ele>6.9</ele>
        <time>2019-04-17T08:00:12Z</time>
      </trkpt>
      <trkpt lat="42.44753" lon="-8.62743">
        <ele>5.5</ele>
        <time>2019-04-17T08:00:12Z</time>
      </trkpt>
      <trkpt lat="42.4475" lon="-8.62747">
        <ele>4.6</ele>
        <time>2019-04-17T08:00:12Z</time>
      </trkpt>
      <trkpt lat="42.44745" lon="-8.62753">
        <ele>5.3</ele>
        <time>2019-04-17T08:00:12Z</time>
      </trkpt>
      <trkpt lat="42.4474" lon="-8.62758">
        <ele>6.3</ele>
        <time>2019-04-17T08:00:12Z</time>
      </trkpt>
      <trkpt lat="42.44732" lon="-8.62765">
        <ele>6.4</ele>
        <time>2019-04-17T08:00:12Z</time>
      </trkpt>
      <trkpt lat="42.44727" lon="-8.6277">
        <ele>6.6</ele>
        <time>2019-04-17T08:00:12Z</time>
      </trkpt>
      <trkpt lat="42.44712" lon="-8.62784">
        <ele>6.5</ele>
        <time>2019-04-17T08:00:12Z</time>
      </trkpt>
      <trkpt lat="42.44704" lon="-8.62791">
        <ele>5.8</ele>
        <time>2019-04-17T08:00:12Z</time>
      </trkpt>
      <trkpt lat="42.44691" lon="-8.62815">
        <ele>5.4</ele>
        <time>2019-04-17T08:00:12Z</time>
      </trkpt>
      <trkpt lat="42.44686" lon="-8.6283">
        <ele>7.6</ele>
        <time>2019-04-17T08:00:12Z</time>
      </trkpt>
      <trkpt lat="42.44683" lon="-8.62844">
        <ele>6.7</ele>
        <time>2019-04-17T08:00:12Z</time>
      </trkpt>
      <trkpt lat="42.4468" lon="-8.62862">
        <ele>3.9</ele>
        <time>2019-04-17T08:00:12Z</time>
      </trkpt>
      <trkpt lat="42.44679" lon="-8.62877">
        <ele>4.5</ele>
        <time>2019-04-17T08:00:12Z</time>
      </trkpt>
      <trkpt lat="42.44684" lon="-8.62907">
        <ele>4.3</ele>
        <time>2019-04-17T08:00:12Z</time>
      </trkpt>
      <trkpt lat="42.4469" lon="-8.62918">
        <ele>3.9</ele>
        <time>2019-04-17T08:00:12Z</time>
      </trkpt>
      <trkpt lat="42.44695" lon="-8.62935">
        <ele>3.6</ele>
        <time>2019-04-17T08:00:12Z</time>
      </trkpt>
      <trkpt lat="42.44704" lon="-8.62955">
        <ele>6</ele>
        <time>2019-04-17T08:00:12Z</time>
      </trkpt>
      <trkpt lat="42.44711" lon="-8.62982">
        <ele>7.8</ele>
        <time>2019-04-17T08:00:12Z</time>
      </trkpt>
      <trkpt lat="42.44711" lon="-8.62997">
        <ele>7.2</ele>
        <time>2019-04-17T08:00:12Z</time>
      </trkpt>
      <trkpt lat="42.4471" lon="-8.63063">
        <ele>6.2</ele>
        <time>2019-04-17T08:00:12Z</time>
      </trkpt>
      <trkpt lat="42.44711" lon="-8.6309">
        <ele>5.1</ele>
        <time>2019-04-17T08:00:12Z</time>
      </trkpt>
      <trkpt lat="42.44723" lon="-8.63131">
        <ele>3.3</ele>
        <time>2019-04-17T08:00:12Z</time>
      </trkpt>
      <trkpt lat="42.44725" lon="-8.63175">
        <ele>2.5</ele>
        <time>2019-04-17T08:00:12Z</time>
      </trkpt>
      <trkpt lat="42.44728" lon="-8.63201">
        <ele>3</ele>
        <time>2019-04-17T08:00:12Z</time>
      </trkpt>
      <trkpt lat="42.44727" lon="-8.6324">
        <ele>2.6</ele>
        <time>2019-04-17T08:00:12Z</time>
      </trkpt>
      <trkpt lat="42.44725" lon="-8.63258">
        <ele>2.3</ele>
        <time>2019-04-17T08:00:12Z</time>
      </trkpt>
      <trkpt lat="42.44724" lon="-8.63267">
        <ele>2.1</ele>
        <time>2019-04-17T08:00:12Z</time>
      </trkpt>
      <trkpt lat="42.44722" lon="-8.63274">
        <ele>2</ele>
        <time>2019-04-17T08:00:12Z</time>
      </trkpt>
      <trkpt lat="42.44719" lon="-8.63282">
        <ele>2.3</ele>
        <time>2019-04-17T08:00:12Z</time>
      </trkpt>
      <trkpt lat="42.44716" lon="-8.63288">
        <ele>2.6</ele>
        <time>2019-04-17T08:00:12Z</time>
      </trkpt>
      <trkpt lat="42.44709" lon="-8.63301">
        <ele>2.9</ele>
        <time>2019-04-17T08:00:12Z</time>
      </trkpt>
      <trkpt lat="42.44703" lon="-8.6331">
        <ele>3</ele>
        <time>2019-04-17T08:00:12Z</time>
      </trkpt>
      <trkpt lat="42.44698" lon="-8.6332">
        <ele>3.1</ele>
        <time>2019-04-17T08:00:12Z</time>
      </trkpt>
      <trkpt lat="42.4469" lon="-8.63334">
        <ele>3</ele>
        <time>2019-04-17T08:00:12Z</time>
      </trkpt>
      <trkpt lat="42.44681" lon="-8.63343">
        <ele>4.5</ele>
        <time>2019-04-17T08:00:12Z</time>
      </trkpt>
      <trkpt lat="42.44668" lon="-8.63352">
        <ele>4.7</ele>
        <time>2019-04-17T08:00:12Z</time>
      </trkpt>
      <trkpt lat="42.44651" lon="-8.63357">
        <ele>4.3</ele>
        <time>2019-04-17T08:00:12Z</time>
      </trkpt>
      <trkpt lat="42.44635" lon="-8.63361">
        <ele>3.7</ele>
        <time>2019-04-17T08:00:12Z</time>
      </trkpt>
      <trkpt lat="42.44623" lon="-8.6337">
        <ele>5.4</ele>
        <time>2019-04-17T08:00:12Z</time>
      </trkpt>
      <trkpt lat="42.44612" lon="-8.63376">
        <ele>5.5</ele>
        <time>2019-04-17T08:00:12Z</time>
      </trkpt>
      <trkpt lat="42.44597" lon="-8.63381">
        <ele>5.5</ele>
        <time>2019-04-17T08:00:12Z</time>
      </trkpt>
      <trkpt lat="42.44588" lon="-8.63381">
        <ele>5</ele>
        <time>2019-04-17T08:00:12Z</time>
      </trkpt>
      <trkpt lat="42.44574" lon="-8.63388">
        <ele>4.6</ele>
        <time>2019-04-17T08:00:12Z</time>
      </trkpt>
      <trkpt lat="42.44564" lon="-8.63391">
        <ele>4</ele>
        <time>2019-04-17T08:00:12Z</time>
      </trkpt>
      <trkpt lat="42.44541" lon="-8.63403">
        <ele>4.5</ele>
        <time>2019-04-17T08:00:12Z</time>
      </trkpt>
      <trkpt lat="42.44532" lon="-8.63409">
        <ele>3.7</ele>
        <time>2019-04-17T08:00:12Z</time>
      </trkpt>
      <trkpt lat="42.44521" lon="-8.63425">
        <ele>3.4</ele>
        <time>2019-04-17T08:00:12Z</time>
      </trkpt>
      <trkpt lat="42.44513" lon="-8.6343">
        <ele>3.1</ele>
        <time>2019-04-17T08:00:12Z</time>
      </trkpt>
      <trkpt lat="42.4449" lon="-8.63441">
        <ele>2.1</ele>
        <time>2019-04-17T08:00:12Z</time>
      </trkpt>
      <trkpt lat="42.44463" lon="-8.63452">
        <ele>3.7</ele>
        <time>2019-04-17T08:00:12Z</time>
      </trkpt>
      <trkpt lat="42.44446" lon="-8.63461">
        <ele>5.1</ele>
        <time>2019-04-17T08:00:12Z</time>
      </trkpt>
      <trkpt lat="42.44437" lon="-8.63467">
        <ele>4.7</ele>
        <time>2019-04-17T08:00:12Z</time>
      </trkpt>
      <trkpt lat="42.44431" lon="-8.63474">
        <ele>4.4</ele>
        <time>2019-04-17T08:00:12Z</time>
      </trkpt>
      <trkpt lat="42.44424" lon="-8.63485">
        <ele>4.9</ele>
        <time>2019-04-17T08:00:12Z</time>
      </trkpt>
      <trkpt lat="42.44408" lon="-8.63509">
        <ele>4.4</ele>
        <time>2019-04-17T08:00:12Z</time>
      </trkpt>
      <trkpt lat="42.44402" lon="-8.63516">
        <ele>4.3</ele>
        <time>2019-04-17T08:00:12Z</time>
      </trkpt>
      <trkpt lat="42.44396" lon="-8.63516">
        <ele>3.4</ele>
        <time>2019-04-17T08:00:12Z</time>
      </trkpt>
      <trkpt lat="42.44387" lon="-8.63509">
        <ele>1.7</ele>
        <time>2019-04-17T08:00:12Z</time>
      </trkpt>
      <trkpt lat="42.44378" lon="-8.63492">
        <ele>1.5</ele>
        <time>2019-04-17T08:00:12Z</time>
      </trkpt>
      <trkpt lat="42.44366" lon="-8.63472">
        <ele>2.6</ele>
        <time>2019-04-17T08:00:12Z</time>
      </trkpt>
      <trkpt lat="42.44355" lon="-8.63453">
        <ele>1.9</ele>
        <time>2019-04-17T08:00:12Z</time>
      </trkpt>
      <trkpt lat="42.44348" lon="-8.63434">
        <ele>1.9</ele>
        <time>2019-04-17T08:00:12Z</time>
      </trkpt>
      <trkpt lat="42.44341" lon="-8.63419">
        <ele>2.4</ele>
        <time>2019-04-17T08:00:12Z</time>
      </trkpt>
      <trkpt lat="42.44334" lon="-8.63407">
        <ele>2.3</ele>
        <time>2019-04-17T08:00:12Z</time>
      </trkpt>
      <trkpt lat="42.44327" lon="-8.63401">
        <ele>2</ele>
        <time>2019-04-17T08:00:12Z</time>
      </trkpt>
      <trkpt lat="42.44321" lon="-8.63396">
        <ele>2.1</ele>
        <time>2019-04-17T08:00:12Z</time>
      </trkpt>
      <trkpt lat="42.44309" lon="-8.63394">
        <ele>2.6</ele>
        <time>2019-04-17T08:00:12Z</time>
      </trkpt>
      <trkpt lat="42.4429" lon="-8.6339">
        <ele>3</ele>
        <time>2019-04-17T08:00:12Z</time>
      </trkpt>
      <trkpt lat="42.4426" lon="-8.63386">
        <ele>2.8</ele>
        <time>2019-04-17T08:00:12Z</time>
      </trkpt>
      <trkpt lat="42.44242" lon="-8.63384">
        <ele>2.7</ele>
        <time>2019-04-17T08:00:12Z</time>
      </trkpt>
      <trkpt lat="42.44223" lon="-8.63381">
        <ele>2.5</ele>
        <time>2019-04-17T08:00:12Z</time>
      </trkpt>
      <trkpt lat="42.44193" lon="-8.6338">
        <ele>2.7</ele>
        <time>2019-04-17T08:00:12Z</time>
      </trkpt>
      <trkpt lat="42.44167" lon="-8.63376">
        <ele>2.1</ele>
        <time>2019-04-17T08:00:12Z</time>
      </trkpt>
      <trkpt lat="42.4414" lon="-8.63374">
        <ele>2</ele>
        <time>2019-04-17T08:00:12Z</time>
      </trkpt>
      <trkpt lat="42.44109" lon="-8.63372">
        <ele>2.4</ele>
        <time>2019-04-17T08:00:12Z</time>
      </trkpt>
      <trkpt lat="42.44079" lon="-8.63367">
        <ele>2.1</ele>
        <time>2019-04-17T08:00:12Z</time>
      </trkpt>
      <trkpt lat="42.44036" lon="-8.63363">
        <ele>2.9</ele>
        <time>2019-04-17T08:00:12Z</time>
      </trkpt>
      <trkpt lat="42.43988" lon="-8.63358">
        <ele>2.8</ele>
        <time>2019-04-17T08:00:12Z</time>
      </trkpt>
      <trkpt lat="42.43963" lon="-8.63354">
        <ele>2.6</ele>
        <time>2019-04-17T08:00:12Z</time>
      </trkpt>
      <trkpt lat="42.43921" lon="-8.63349">
        <ele>2.6</ele>
        <time>2019-04-17T08:00:12Z</time>
      </trkpt>
      <trkpt lat="42.43886" lon="-8.63346">
        <ele>2.5</ele>
        <time>2019-04-17T08:00:12Z</time>
      </trkpt>
      <trkpt lat="42.43857" lon="-8.63343">
        <ele>2.3</ele>
        <time>2019-04-17T08:00:12Z</time>
      </trkpt>
      <trkpt lat="42.43816" lon="-8.63339">
        <ele>2</ele>
        <time>2019-04-17T08:00:12Z</time>
      </trkpt>
      <trkpt lat="42.43786" lon="-8.63337">
        <ele>2.7</ele>
        <time>2019-04-17T08:00:12Z</time>
      </trkpt>
      <trkpt lat="42.4376" lon="-8.63338">
        <ele>3.1</ele>
        <time>2019-04-17T08:00:12Z</time>
      </trkpt>
      <trkpt lat="42.43753" lon="-8.63335">
        <ele>3.1</ele>
        <time>2019-04-17T08:00:12Z</time>
      </trkpt>
      <trkpt lat="42.43748" lon="-8.6333">
        <ele>2.7</ele>
        <time>2019-04-17T08:00:12Z</time>
      </trkpt>
      <trkpt lat="42.43731" lon="-8.63279">
        <ele>1</ele>
        <time>2019-04-17T08:00:12Z</time>
      </trkpt>
      <trkpt lat="42.43721" lon="-8.63251">
        <ele>2</ele>
        <time>2019-04-17T08:00:12Z</time>
      </trkpt>
      <trkpt lat="42.43715" lon="-8.63242">
        <ele>2.8</ele>
        <time>2019-04-17T08:00:12Z</time>
      </trkpt>
      <trkpt lat="42.43701" lon="-8.63243">
        <ele>3.1</ele>
        <time>2019-04-17T08:00:12Z</time>
      </trkpt>
      <trkpt lat="42.43695" lon="-8.63235">
        <ele>3.5</ele>
        <time>2019-04-17T08:00:12Z</time>
      </trkpt>
      <trkpt lat="42.43684" lon="-8.63225">
        <ele>3.9</ele>
        <time>2019-04-17T08:00:12Z</time>
      </trkpt>
      <trkpt lat="42.43633" lon="-8.63252">
        <ele>3</ele>
        <time>2019-04-17T08:00:12Z</time>
      </trkpt>
      <trkpt lat="42.43581" lon="-8.63283">
        <ele>2.7</ele>
        <time>2019-04-17T08:00:12Z</time>
      </trkpt>
      <trkpt lat="42.43567" lon="-8.63297">
        <ele>2.4</ele>
        <time>2019-04-17T08:00:12Z</time>
      </trkpt>
      <trkpt lat="42.43556" lon="-8.63312">
        <ele>2.8</ele>
        <time>2019-04-17T08:00:12Z</time>
      </trkpt>
    </trkseg>
  </trk>
</gpx>